<?xml version="1.0" encoding="UTF-8"?>
<TrainingCenterDatabase xmlns="http://www.garmin.com/xmlschemas/TrainingCenterDatabase/v2" xmlns:xsi="http://www.w3.org/2001/XMLSchema-instance" xsi:schemaLocation="http://www.garmin.com/xmlschemas/TrainingCenterDatabase/v2 http://www.garmin.com/xmlschemas/TrainingCenterDatabasev2.xsd">
  <Activities>
    <Activity Sport="Other">
      <Id>2022-08-26T07:40:40.000Z</Id>
      <Lap StartTime="2022-08-26T07:40:40.000Z">
        <TotalTimeSeconds>6539</TotalTimeSeconds>
        <DistanceMeters>7020</DistanceMeters>
        <Track>
          <Trackpoint>
            <Time>2022-08-26T07:40:40.000Z</Time>
            <Position>
              <LatitudeDegrees>36.69435462914407253265380859375</LatitudeDegrees>
              <LongitudeDegrees>-4.44021823816001415252685546875</LongitudeDegrees>
            </Position>
            <AltitudeMeters>5.80000019073486328125</AltitudeMeters>
            <DistanceMeters>0</DistanceMeters>
          </Trackpoint>
          <Trackpoint>
            <Time>2022-08-26T07:40:41.000Z</Time>
            <Position>
              <LatitudeDegrees>36.69435412622988224029541015625</LatitudeDegrees>
              <LongitudeDegrees>-4.4402253627777099609375</LongitudeDegrees>
            </Position>
            <AltitudeMeters>5.599999904632568359375</AltitudeMeters>
            <DistanceMeters>0.63033591325101</DistanceMeters>
          </Trackpoint>
          <Trackpoint>
            <Time>2022-08-26T07:40:42.000Z</Time>
            <Position>
              <LatitudeDegrees>36.69434976764023303985595703125</LatitudeDegrees>
              <LongitudeDegrees>-4.44022762589156627655029296875</LongitudeDegrees>
            </Position>
            <AltitudeMeters>5.80000019073486328125</AltitudeMeters>
            <DistanceMeters>1.159422267037</DistanceMeters>
          </Trackpoint>
          <Trackpoint>
            <Time>2022-08-26T07:40:43.000Z</Time>
            <Position>
              <LatitudeDegrees>36.69434557668864727020263671875</LatitudeDegrees>
              <LongitudeDegrees>-4.44023986347019672393798828125</LongitudeDegrees>
            </Position>
            <AltitudeMeters>5.80000019073486328125</AltitudeMeters>
            <DistanceMeters>2.3463055491069</DistanceMeters>
          </Trackpoint>
          <Trackpoint>
            <Time>2022-08-26T07:40:47.000Z</Time>
            <Position>
              <LatitudeDegrees>36.6943180002272129058837890625</LatitudeDegrees>
              <LongitudeDegrees>-4.44028043188154697418212890625</LongitudeDegrees>
            </Position>
            <AltitudeMeters>5.80000019073486328125</AltitudeMeters>
            <DistanceMeters>7.0938386773863</DistanceMeters>
          </Trackpoint>
          <Trackpoint>
            <Time>2022-08-26T07:40:50.000Z</Time>
            <Position>
              <LatitudeDegrees>36.6943252086639404296875</LatitudeDegrees>
              <LongitudeDegrees>-4.4403393566608428955078125</LongitudeDegrees>
            </Position>
            <AltitudeMeters>5.400000095367431640625</AltitudeMeters>
            <DistanceMeters>12.413637505853</DistanceMeters>
          </Trackpoint>
          <Trackpoint>
            <Time>2022-08-26T07:40:57.000Z</Time>
            <Position>
              <LatitudeDegrees>36.69430282898247241973876953125</LatitudeDegrees>
              <LongitudeDegrees>-4.440313875675201416015625</LongitudeDegrees>
            </Position>
            <AltitudeMeters>5.80000019073486328125</AltitudeMeters>
            <DistanceMeters>15.786751248285</DistanceMeters>
          </Trackpoint>
          <Trackpoint>
            <Time>2022-08-26T07:41:05.000Z</Time>
            <Position>
              <LatitudeDegrees>36.694245077669620513916015625</LatitudeDegrees>
              <LongitudeDegrees>-4.4402897357940673828125</LongitudeDegrees>
            </Position>
            <AltitudeMeters>6.599999904632568359375</AltitudeMeters>
            <DistanceMeters>22.56635957766</DistanceMeters>
          </Trackpoint>
          <Trackpoint>
            <Time>2022-08-26T07:41:06.000Z</Time>
            <Position>
              <LatitudeDegrees>36.694247089326381683349609375</LatitudeDegrees>
              <LongitudeDegrees>-4.440292418003082275390625</LongitudeDegrees>
            </Position>
            <AltitudeMeters>6.400000095367431640625</AltitudeMeters>
            <DistanceMeters>22.89554177239</DistanceMeters>
          </Trackpoint>
          <Trackpoint>
            <Time>2022-08-26T07:41:08.000Z</Time>
            <Position>
              <LatitudeDegrees>36.69424247927963733673095703125</LatitudeDegrees>
              <LongitudeDegrees>-4.440292753279209136962890625</LongitudeDegrees>
            </Position>
            <AltitudeMeters>6.599999904632568359375</AltitudeMeters>
            <DistanceMeters>23.416024522651</DistanceMeters>
          </Trackpoint>
          <Trackpoint>
            <Time>2022-08-26T07:41:12.000Z</Time>
            <Position>
              <LatitudeDegrees>36.69422320090234279632568359375</LatitudeDegrees>
              <LongitudeDegrees>-4.4402650929987430572509765625</LongitudeDegrees>
            </Position>
            <AltitudeMeters>7</AltitudeMeters>
            <DistanceMeters>26.68858783946</DistanceMeters>
          </Trackpoint>
          <Trackpoint>
            <Time>2022-08-26T07:41:16.000Z</Time>
            <Position>
              <LatitudeDegrees>36.69424264691770076751708984375</LatitudeDegrees>
              <LongitudeDegrees>-4.4402500055730342864990234375</LongitudeDegrees>
            </Position>
            <AltitudeMeters>6.80000019073486328125</AltitudeMeters>
            <DistanceMeters>29.238422155577</DistanceMeters>
          </Trackpoint>
          <Trackpoint>
            <Time>2022-08-26T07:41:17.000Z</Time>
            <Position>
              <LatitudeDegrees>36.6942496038973331451416015625</LatitudeDegrees>
              <LongitudeDegrees>-4.44025226868689060211181640625</LongitudeDegrees>
            </Position>
            <AltitudeMeters>6.80000019073486328125</AltitudeMeters>
            <DistanceMeters>30.039131483312</DistanceMeters>
          </Trackpoint>
          <Trackpoint>
            <Time>2022-08-26T07:41:18.000Z</Time>
            <Position>
              <LatitudeDegrees>36.694265194237232208251953125</LatitudeDegrees>
              <LongitudeDegrees>-4.440243802964687347412109375</LongitudeDegrees>
            </Position>
            <AltitudeMeters>6.599999904632568359375</AltitudeMeters>
            <DistanceMeters>31.930139223065</DistanceMeters>
          </Trackpoint>
          <Trackpoint>
            <Time>2022-08-26T07:41:21.000Z</Time>
            <Position>
              <LatitudeDegrees>36.69433392584323883056640625</LatitudeDegrees>
              <LongitudeDegrees>-4.44024749100208282470703125</LongitudeDegrees>
            </Position>
            <AltitudeMeters>5.80000019073486328125</AltitudeMeters>
            <DistanceMeters>39.586721768441</DistanceMeters>
          </Trackpoint>
          <Trackpoint>
            <Time>2022-08-26T07:41:23.000Z</Time>
            <Position>
              <LatitudeDegrees>36.694375835359096527099609375</LatitudeDegrees>
              <LongitudeDegrees>-4.4402704574167728424072265625</LongitudeDegrees>
            </Position>
            <AltitudeMeters>5.19999980926513671875</AltitudeMeters>
            <DistanceMeters>44.681075476216</DistanceMeters>
          </Trackpoint>
          <Trackpoint>
            <Time>2022-08-26T07:41:27.000Z</Time>
            <Position>
              <LatitudeDegrees>36.69445001520216464996337890625</LatitudeDegrees>
              <LongitudeDegrees>-4.440286047756671905517578125</LongitudeDegrees>
            </Position>
            <AltitudeMeters>4.400000095367431640625</AltitudeMeters>
            <DistanceMeters>53.054217867868</DistanceMeters>
          </Trackpoint>
          <Trackpoint>
            <Time>2022-08-26T07:41:28.000Z</Time>
            <Position>
              <LatitudeDegrees>36.6944715566933155059814453125</LatitudeDegrees>
              <LongitudeDegrees>-4.44028914906084537506103515625</LongitudeDegrees>
            </Position>
            <AltitudeMeters>4</AltitudeMeters>
            <DistanceMeters>55.469467209612</DistanceMeters>
          </Trackpoint>
          <Trackpoint>
            <Time>2022-08-26T07:41:30.000Z</Time>
            <Position>
              <LatitudeDegrees>36.6945127956569194793701171875</LatitudeDegrees>
              <LongitudeDegrees>-4.44029166363179683685302734375</LongitudeDegrees>
            </Position>
            <AltitudeMeters>3.7999999523162841796875</AltitudeMeters>
            <DistanceMeters>60.06624639496</DistanceMeters>
          </Trackpoint>
          <Trackpoint>
            <Time>2022-08-26T07:41:34.000Z</Time>
            <Position>
              <LatitudeDegrees>36.69458043761551380157470703125</LatitudeDegrees>
              <LongitudeDegrees>-4.44028361700475215911865234375</LongitudeDegrees>
            </Position>
            <AltitudeMeters>3.599999904632568359375</AltitudeMeters>
            <DistanceMeters>67.628486414926</DistanceMeters>
          </Trackpoint>
          <Trackpoint>
            <Time>2022-08-26T07:41:35.000Z</Time>
            <Position>
              <LatitudeDegrees>36.69459099881350994110107421875</LatitudeDegrees>
              <LongitudeDegrees>-4.44025880657136440277099609375</LongitudeDegrees>
            </Position>
            <AltitudeMeters>3.599999904632568359375</AltitudeMeters>
            <DistanceMeters>70.135463320482</DistanceMeters>
          </Trackpoint>
          <Trackpoint>
            <Time>2022-08-26T07:41:36.000Z</Time>
            <Position>
              <LatitudeDegrees>36.6946019791066646575927734375</LatitudeDegrees>
              <LongitudeDegrees>-4.4402365945279598236083984375</LongitudeDegrees>
            </Position>
            <AltitudeMeters>3.599999904632568359375</AltitudeMeters>
            <DistanceMeters>72.463132941879</DistanceMeters>
          </Trackpoint>
          <Trackpoint>
            <Time>2022-08-26T07:41:40.000Z</Time>
            <Position>
              <LatitudeDegrees>36.6946308128535747528076171875</LatitudeDegrees>
              <LongitudeDegrees>-4.4401806034147739410400390625</LongitudeDegrees>
            </Position>
            <AltitudeMeters>3.599999904632568359375</AltitudeMeters>
            <DistanceMeters>78.401352246826</DistanceMeters>
          </Trackpoint>
          <Trackpoint>
            <Time>2022-08-26T07:41:45.000Z</Time>
            <Position>
              <LatitudeDegrees>36.694653443992137908935546875</LatitudeDegrees>
              <LongitudeDegrees>-4.440135844051837921142578125</LongitudeDegrees>
            </Position>
            <AltitudeMeters>3.400000095367431640625</AltitudeMeters>
            <DistanceMeters>83.124093909945</DistanceMeters>
          </Trackpoint>
          <Trackpoint>
            <Time>2022-08-26T07:41:46.000Z</Time>
            <Position>
              <LatitudeDegrees>36.6946613229811191558837890625</LatitudeDegrees>
              <LongitudeDegrees>-4.44012503139674663543701171875</LongitudeDegrees>
            </Position>
            <AltitudeMeters>3.400000095367431640625</AltitudeMeters>
            <DistanceMeters>84.433946773572</DistanceMeters>
          </Trackpoint>
          <Trackpoint>
            <Time>2022-08-26T07:41:48.000Z</Time>
            <Position>
              <LatitudeDegrees>36.6946737281978130340576171875</LatitudeDegrees>
              <LongitudeDegrees>-4.44010323844850063323974609375</LongitudeDegrees>
            </Position>
            <AltitudeMeters>3.400000095367431640625</AltitudeMeters>
            <DistanceMeters>86.820990601435</DistanceMeters>
          </Trackpoint>
          <Trackpoint>
            <Time>2022-08-26T07:41:53.000Z</Time>
            <Position>
              <LatitudeDegrees>36.69465721584856510162353515625</LatitudeDegrees>
              <LongitudeDegrees>-4.44000315852463245391845703125</LongitudeDegrees>
            </Position>
            <AltitudeMeters>3.7999999523162841796875</AltitudeMeters>
            <DistanceMeters>95.940585112641</DistanceMeters>
          </Trackpoint>
          <Trackpoint>
            <Time>2022-08-26T07:42:00.000Z</Time>
            <Position>
              <LatitudeDegrees>36.69467649422585964202880859375</LatitudeDegrees>
              <LongitudeDegrees>-4.4399053417146205902099609375</LongitudeDegrees>
            </Position>
            <AltitudeMeters>3.7999999523162841796875</AltitudeMeters>
            <DistanceMeters>104.93053417665</DistanceMeters>
          </Trackpoint>
          <Trackpoint>
            <Time>2022-08-26T07:42:03.000Z</Time>
            <Position>
              <LatitudeDegrees>36.69470407068729400634765625</LatitudeDegrees>
              <LongitudeDegrees>-4.4398932717740535736083984375</LongitudeDegrees>
            </Position>
            <AltitudeMeters>3.599999904632568359375</AltitudeMeters>
            <DistanceMeters>108.18511243946</DistanceMeters>
          </Trackpoint>
          <Trackpoint>
            <Time>2022-08-26T07:42:04.000Z</Time>
            <Position>
              <LatitudeDegrees>36.6947136260569095611572265625</LatitudeDegrees>
              <LongitudeDegrees>-4.4398788549005985260009765625</LongitudeDegrees>
            </Position>
            <AltitudeMeters>3.400000095367431640625</AltitudeMeters>
            <DistanceMeters>109.85282450835</DistanceMeters>
          </Trackpoint>
          <Trackpoint>
            <Time>2022-08-26T07:42:07.000Z</Time>
            <Position>
              <LatitudeDegrees>36.694773472845554351806640625</LatitudeDegrees>
              <LongitudeDegrees>-4.4398605823516845703125</LongitudeDegrees>
            </Position>
            <AltitudeMeters>3</AltitudeMeters>
            <DistanceMeters>116.7092505429</DistanceMeters>
          </Trackpoint>
          <Trackpoint>
            <Time>2022-08-26T07:42:08.000Z</Time>
            <Position>
              <LatitudeDegrees>36.6947934217751026153564453125</LatitudeDegrees>
              <LongitudeDegrees>-4.43985513411462306976318359375</LongitudeDegrees>
            </Position>
            <AltitudeMeters>3</AltitudeMeters>
            <DistanceMeters>118.98195899889</DistanceMeters>
          </Trackpoint>
          <Trackpoint>
            <Time>2022-08-26T07:42:09.000Z</Time>
            <Position>
              <LatitudeDegrees>36.69479786418378353118896484375</LatitudeDegrees>
              <LongitudeDegrees>-4.4398377835750579833984375</LongitudeDegrees>
            </Position>
            <AltitudeMeters>3</AltitudeMeters>
            <DistanceMeters>120.60577620586</DistanceMeters>
          </Trackpoint>
          <Trackpoint>
            <Time>2022-08-26T07:42:13.000Z</Time>
            <Position>
              <LatitudeDegrees>36.6948120296001434326171875</LatitudeDegrees>
              <LongitudeDegrees>-4.4397735781967639923095703125</LongitudeDegrees>
            </Position>
            <AltitudeMeters>2.7999999523162841796875</AltitudeMeters>
            <DistanceMeters>126.54855577205</DistanceMeters>
          </Trackpoint>
          <Trackpoint>
            <Time>2022-08-26T07:42:14.000Z</Time>
            <Position>
              <LatitudeDegrees>36.69483323581516742706298828125</LatitudeDegrees>
              <LongitudeDegrees>-4.4397739134728908538818359375</LongitudeDegrees>
            </Position>
            <AltitudeMeters>2.7999999523162841796875</AltitudeMeters>
            <DistanceMeters>128.90705679801</DistanceMeters>
          </Trackpoint>
          <Trackpoint>
            <Time>2022-08-26T07:42:16.000Z</Time>
            <Position>
              <LatitudeDegrees>36.69487707316875457763671875</LatitudeDegrees>
              <LongitudeDegrees>-4.43976460956037044525146484375</LongitudeDegrees>
            </Position>
            <AltitudeMeters>2.599999904632568359375</AltitudeMeters>
            <DistanceMeters>133.85757469707</DistanceMeters>
          </Trackpoint>
          <Trackpoint>
            <Time>2022-08-26T07:42:19.000Z</Time>
            <Position>
              <LatitudeDegrees>36.6949811764061450958251953125</LatitudeDegrees>
              <LongitudeDegrees>-4.43974055349826812744140625</LongitudeDegrees>
            </Position>
            <AltitudeMeters>2.2000000476837158203125</AltitudeMeters>
            <DistanceMeters>145.6416535985</DistanceMeters>
          </Trackpoint>
          <Trackpoint>
            <Time>2022-08-26T07:42:27.000Z</Time>
            <Position>
              <LatitudeDegrees>36.69517253525555133819580078125</LatitudeDegrees>
              <LongitudeDegrees>-4.439734183251857757568359375</LongitudeDegrees>
            </Position>
            <AltitudeMeters>2.599999904632568359375</AltitudeMeters>
            <DistanceMeters>166.94799075417</DistanceMeters>
          </Trackpoint>
          <Trackpoint>
            <Time>2022-08-26T07:42:29.000Z</Time>
            <Position>
              <LatitudeDegrees>36.695183850824832916259765625</LatitudeDegrees>
              <LongitudeDegrees>-4.4397206045687198638916015625</LongitudeDegrees>
            </Position>
            <AltitudeMeters>2.599999904632568359375</AltitudeMeters>
            <DistanceMeters>168.69761811864</DistanceMeters>
          </Trackpoint>
          <Trackpoint>
            <Time>2022-08-26T07:42:36.000Z</Time>
            <Position>
              <LatitudeDegrees>36.6952286101877689361572265625</LatitudeDegrees>
              <LongitudeDegrees>-4.43966972641646862030029296875</LongitudeDegrees>
            </Position>
            <AltitudeMeters>2.400000095367431640625</AltitudeMeters>
            <DistanceMeters>175.43781949467</DistanceMeters>
          </Trackpoint>
          <Trackpoint>
            <Time>2022-08-26T07:42:41.000Z</Time>
            <Position>
              <LatitudeDegrees>36.69523305259644985198974609375</LatitudeDegrees>
              <LongitudeDegrees>-4.439638294279575347900390625</LongitudeDegrees>
            </Position>
            <AltitudeMeters>2.400000095367431640625</AltitudeMeters>
            <DistanceMeters>178.28545160691</DistanceMeters>
          </Trackpoint>
          <Trackpoint>
            <Time>2022-08-26T07:42:43.000Z</Time>
            <Position>
              <LatitudeDegrees>36.69522307813167572021484375</LatitudeDegrees>
              <LongitudeDegrees>-4.43962664343416690826416015625</LongitudeDegrees>
            </Position>
            <AltitudeMeters>2.400000095367431640625</AltitudeMeters>
            <DistanceMeters>179.80587903683</DistanceMeters>
          </Trackpoint>
          <Trackpoint>
            <Time>2022-08-26T07:42:49.000Z</Time>
            <Position>
              <LatitudeDegrees>36.6952232457697391510009765625</LatitudeDegrees>
              <LongitudeDegrees>-4.4396049343049526214599609375</LongitudeDegrees>
            </Position>
            <AltitudeMeters>2.2000000476837158203125</AltitudeMeters>
            <DistanceMeters>181.74405132038</DistanceMeters>
          </Trackpoint>
          <Trackpoint>
            <Time>2022-08-26T07:42:51.000Z</Time>
            <Position>
              <LatitudeDegrees>36.69523338787257671356201171875</LatitudeDegrees>
              <LongitudeDegrees>-4.439600743353366851806640625</LongitudeDegrees>
            </Position>
            <AltitudeMeters>2.2000000476837158203125</AltitudeMeters>
            <DistanceMeters>182.93473263866</DistanceMeters>
          </Trackpoint>
          <Trackpoint>
            <Time>2022-08-26T07:42:56.000Z</Time>
            <Position>
              <LatitudeDegrees>36.69525132514536380767822265625</LatitudeDegrees>
              <LongitudeDegrees>-4.43956897594034671783447265625</LongitudeDegrees>
            </Position>
            <AltitudeMeters>2.2000000476837158203125</AltitudeMeters>
            <DistanceMeters>186.40288226394</DistanceMeters>
          </Trackpoint>
          <Trackpoint>
            <Time>2022-08-26T07:42:58.000Z</Time>
            <Position>
              <LatitudeDegrees>36.69525736011564731597900390625</LatitudeDegrees>
              <LongitudeDegrees>-4.4395603425800800323486328125</LongitudeDegrees>
            </Position>
            <AltitudeMeters>2.2000000476837158203125</AltitudeMeters>
            <DistanceMeters>187.42635129986</DistanceMeters>
          </Trackpoint>
          <Trackpoint>
            <Time>2022-08-26T07:43:04.000Z</Time>
            <Position>
              <LatitudeDegrees>36.69525769539177417755126953125</LatitudeDegrees>
              <LongitudeDegrees>-4.4395502842962741851806640625</LongitudeDegrees>
            </Position>
            <AltitudeMeters>2.2000000476837158203125</AltitudeMeters>
            <DistanceMeters>188.31778089723</DistanceMeters>
          </Trackpoint>
          <Trackpoint>
            <Time>2022-08-26T07:43:13.000Z</Time>
            <Position>
              <LatitudeDegrees>36.6952514089643955230712890625</LatitudeDegrees>
              <LongitudeDegrees>-4.4395459257066249847412109375</LongitudeDegrees>
            </Position>
            <AltitudeMeters>2.2000000476837158203125</AltitudeMeters>
            <DistanceMeters>189.12410930673</DistanceMeters>
          </Trackpoint>
          <Trackpoint>
            <Time>2022-08-26T07:43:18.000Z</Time>
            <Position>
              <LatitudeDegrees>36.6952802427113056182861328125</LatitudeDegrees>
              <LongitudeDegrees>-4.4395221211016178131103515625</LongitudeDegrees>
            </Position>
            <AltitudeMeters>2.2000000476837158203125</AltitudeMeters>
            <DistanceMeters>192.97357101514</DistanceMeters>
          </Trackpoint>
          <Trackpoint>
            <Time>2022-08-26T07:43:21.000Z</Time>
            <Position>
              <LatitudeDegrees>36.6953057236969470977783203125</LatitudeDegrees>
              <LongitudeDegrees>-4.43949622102081775665283203125</LongitudeDegrees>
            </Position>
            <AltitudeMeters>2.2000000476837158203125</AltitudeMeters>
            <DistanceMeters>196.63055655155</DistanceMeters>
          </Trackpoint>
          <Trackpoint>
            <Time>2022-08-26T07:43:25.000Z</Time>
            <Position>
              <LatitudeDegrees>36.6953580267727375030517578125</LatitudeDegrees>
              <LongitudeDegrees>-4.43948482163250446319580078125</LongitudeDegrees>
            </Position>
            <AltitudeMeters>2.2000000476837158203125</AltitudeMeters>
            <DistanceMeters>202.53904836693</DistanceMeters>
          </Trackpoint>
          <Trackpoint>
            <Time>2022-08-26T07:43:30.000Z</Time>
            <Position>
              <LatitudeDegrees>36.6954609565436840057373046875</LatitudeDegrees>
              <LongitudeDegrees>-4.4394875876605510711669921875</LongitudeDegrees>
            </Position>
            <AltitudeMeters>2.599999904632568359375</AltitudeMeters>
            <DistanceMeters>213.9975522612</DistanceMeters>
          </Trackpoint>
          <Trackpoint>
            <Time>2022-08-26T07:43:31.000Z</Time>
            <Position>
              <LatitudeDegrees>36.695478223264217376708984375</LatitudeDegrees>
              <LongitudeDegrees>-4.43947769701480865478515625</LongitudeDegrees>
            </Position>
            <AltitudeMeters>2.7999999523162841796875</AltitudeMeters>
            <DistanceMeters>216.10962654098</DistanceMeters>
          </Trackpoint>
          <Trackpoint>
            <Time>2022-08-26T07:43:33.000Z</Time>
            <Position>
              <LatitudeDegrees>36.69551015831530094146728515625</LatitudeDegrees>
              <LongitudeDegrees>-4.439441822469234466552734375</LongitudeDegrees>
            </Position>
            <AltitudeMeters>2.599999904632568359375</AltitudeMeters>
            <DistanceMeters>220.89316223218</DistanceMeters>
          </Trackpoint>
          <Trackpoint>
            <Time>2022-08-26T07:43:36.000Z</Time>
            <Position>
              <LatitudeDegrees>36.69555759988725185394287109375</LatitudeDegrees>
              <LongitudeDegrees>-4.4393990747630596160888671875</LongitudeDegrees>
            </Position>
            <AltitudeMeters>2.7999999523162841796875</AltitudeMeters>
            <DistanceMeters>227.4078655475</DistanceMeters>
          </Trackpoint>
          <Trackpoint>
            <Time>2022-08-26T07:43:42.000Z</Time>
            <Position>
              <LatitudeDegrees>36.69562331400811672210693359375</LatitudeDegrees>
              <LongitudeDegrees>-4.43934417329728603363037109375</LongitudeDegrees>
            </Position>
            <AltitudeMeters>3</AltitudeMeters>
            <DistanceMeters>236.21105338157</DistanceMeters>
          </Trackpoint>
          <Trackpoint>
            <Time>2022-08-26T07:43:49.000Z</Time>
            <Position>
              <LatitudeDegrees>36.6957105696201324462890625</LatitudeDegrees>
              <LongitudeDegrees>-4.43925834260880947113037109375</LongitudeDegrees>
            </Position>
            <AltitudeMeters>3.400000095367431640625</AltitudeMeters>
            <DistanceMeters>248.57950215404</DistanceMeters>
          </Trackpoint>
          <Trackpoint>
            <Time>2022-08-26T07:43:50.000Z</Time>
            <Position>
              <LatitudeDegrees>36.69572331011295318603515625</LatitudeDegrees>
              <LongitudeDegrees>-4.43924300372600555419921875</LongitudeDegrees>
            </Position>
            <AltitudeMeters>3.400000095367431640625</AltitudeMeters>
            <DistanceMeters>250.55001804357</DistanceMeters>
          </Trackpoint>
          <Trackpoint>
            <Time>2022-08-26T07:43:55.000Z</Time>
            <Position>
              <LatitudeDegrees>36.69578969478607177734375</LatitudeDegrees>
              <LongitudeDegrees>-4.4391492940485477447509765625</LongitudeDegrees>
            </Position>
            <AltitudeMeters>3.599999904632568359375</AltitudeMeters>
            <DistanceMeters>261.7098932362</DistanceMeters>
          </Trackpoint>
          <Trackpoint>
            <Time>2022-08-26T07:43:58.000Z</Time>
            <Position>
              <LatitudeDegrees>36.69582657516002655029296875</LatitudeDegrees>
              <LongitudeDegrees>-4.43912909366190433502197265625</LongitudeDegrees>
            </Position>
            <AltitudeMeters>3.7999999523162841796875</AltitudeMeters>
            <DistanceMeters>266.19330155624</DistanceMeters>
          </Trackpoint>
          <Trackpoint>
            <Time>2022-08-26T07:43:59.000Z</Time>
            <Position>
              <LatitudeDegrees>36.695842333137989044189453125</LatitudeDegrees>
              <LongitudeDegrees>-4.4391305185854434967041015625</LongitudeDegrees>
            </Position>
            <AltitudeMeters>3.7999999523162841796875</AltitudeMeters>
            <DistanceMeters>267.9506535824</DistanceMeters>
          </Trackpoint>
          <Trackpoint>
            <Time>2022-08-26T07:44:02.000Z</Time>
            <Position>
              <LatitudeDegrees>36.695883907377719879150390625</LatitudeDegrees>
              <LongitudeDegrees>-4.43910696543753147125244140625</LongitudeDegrees>
            </Position>
            <AltitudeMeters>4</AltitudeMeters>
            <DistanceMeters>273.03258418304</DistanceMeters>
          </Trackpoint>
          <Trackpoint>
            <Time>2022-08-26T07:44:03.000Z</Time>
            <Position>
              <LatitudeDegrees>36.69588784687221050262451171875</LatitudeDegrees>
              <LongitudeDegrees>-4.4390889443457126617431640625</LongitudeDegrees>
            </Position>
            <AltitudeMeters>4</AltitudeMeters>
            <DistanceMeters>274.70570213992</DistanceMeters>
          </Trackpoint>
          <Trackpoint>
            <Time>2022-08-26T07:44:04.000Z</Time>
            <Position>
              <LatitudeDegrees>36.69589807279407978057861328125</LatitudeDegrees>
              <LongitudeDegrees>-4.43907612003386020660400390625</LongitudeDegrees>
            </Position>
            <AltitudeMeters>4</AltitudeMeters>
            <DistanceMeters>276.32115628421</DistanceMeters>
          </Trackpoint>
          <Trackpoint>
            <Time>2022-08-26T07:44:07.000Z</Time>
            <Position>
              <LatitudeDegrees>36.695915423333644866943359375</LatitudeDegrees>
              <LongitudeDegrees>-4.439049549400806427001953125</LongitudeDegrees>
            </Position>
            <AltitudeMeters>4</AltitudeMeters>
            <DistanceMeters>279.37977675689</DistanceMeters>
          </Trackpoint>
          <Trackpoint>
            <Time>2022-08-26T07:44:10.000Z</Time>
            <Position>
              <LatitudeDegrees>36.6959712468087673187255859375</LatitudeDegrees>
              <LongitudeDegrees>-4.4390426762402057647705078125</LongitudeDegrees>
            </Position>
            <AltitudeMeters>4</AltitudeMeters>
            <DistanceMeters>285.62340070525</DistanceMeters>
          </Trackpoint>
          <Trackpoint>
            <Time>2022-08-26T07:44:11.000Z</Time>
            <Position>
              <LatitudeDegrees>36.69598440639674663543701171875</LatitudeDegrees>
              <LongitudeDegrees>-4.43903638981282711029052734375</LongitudeDegrees>
            </Position>
            <AltitudeMeters>4</AltitudeMeters>
            <DistanceMeters>287.19349970506</DistanceMeters>
          </Trackpoint>
          <Trackpoint>
            <Time>2022-08-26T07:44:13.000Z</Time>
            <Position>
              <LatitudeDegrees>36.696004606783390045166015625</LatitudeDegrees>
              <LongitudeDegrees>-4.4390161894261837005615234375</LongitudeDegrees>
            </Position>
            <AltitudeMeters>4</AltitudeMeters>
            <DistanceMeters>290.07580266076</DistanceMeters>
          </Trackpoint>
          <Trackpoint>
            <Time>2022-08-26T07:44:19.000Z</Time>
            <Position>
              <LatitudeDegrees>36.69608331285417079925537109375</LatitudeDegrees>
              <LongitudeDegrees>-4.4389709271490573883056640625</LongitudeDegrees>
            </Position>
            <AltitudeMeters>4</AltitudeMeters>
            <DistanceMeters>299.72230139113</DistanceMeters>
          </Trackpoint>
          <Trackpoint>
            <Time>2022-08-26T07:44:20.000Z</Time>
            <Position>
              <LatitudeDegrees>36.6960963048040866851806640625</LatitudeDegrees>
              <LongitudeDegrees>-4.43896480835974216461181640625</LongitudeDegrees>
            </Position>
            <AltitudeMeters>4</AltitudeMeters>
            <DistanceMeters>301.26922422619</DistanceMeters>
          </Trackpoint>
          <Trackpoint>
            <Time>2022-08-26T07:44:22.000Z</Time>
            <Position>
              <LatitudeDegrees>36.6961184330284595489501953125</LatitudeDegrees>
              <LongitudeDegrees>-4.43895994685590267181396484375</LongitudeDegrees>
            </Position>
            <AltitudeMeters>4</AltitudeMeters>
            <DistanceMeters>303.77079232954</DistanceMeters>
          </Trackpoint>
          <Trackpoint>
            <Time>2022-08-26T07:44:23.000Z</Time>
            <Position>
              <LatitudeDegrees>36.69612673111259937286376953125</LatitudeDegrees>
              <LongitudeDegrees>-4.438954330980777740478515625</LongitudeDegrees>
            </Position>
            <AltitudeMeters>4</AltitudeMeters>
            <DistanceMeters>304.82039669603</DistanceMeters>
          </Trackpoint>
          <Trackpoint>
            <Time>2022-08-26T07:44:29.000Z</Time>
            <Position>
              <LatitudeDegrees>36.69622111134231090545654296875</LatitudeDegrees>
              <LongitudeDegrees>-4.4388703443109989166259765625</LongitudeDegrees>
            </Position>
            <AltitudeMeters>3.400000095367431640625</AltitudeMeters>
            <DistanceMeters>317.72480058397</DistanceMeters>
          </Trackpoint>
          <Trackpoint>
            <Time>2022-08-26T07:44:33.000Z</Time>
            <Position>
              <LatitudeDegrees>36.69633057899773120880126953125</LatitudeDegrees>
              <LongitudeDegrees>-4.43880421109497547149658203125</LongitudeDegrees>
            </Position>
            <AltitudeMeters>2.2000000476837158203125</AltitudeMeters>
            <DistanceMeters>331.26268932286</DistanceMeters>
          </Trackpoint>
          <Trackpoint>
            <Time>2022-08-26T07:44:37.000Z</Time>
            <Position>
              <LatitudeDegrees>36.6963913477957248687744140625</LatitudeDegrees>
              <LongitudeDegrees>-4.43874000571668148040771484375</LongitudeDegrees>
            </Position>
            <AltitudeMeters>1.60000002384185791015625</AltitudeMeters>
            <DistanceMeters>340.1277192321</DistanceMeters>
          </Trackpoint>
          <Trackpoint>
            <Time>2022-08-26T07:44:47.000Z</Time>
            <Position>
              <LatitudeDegrees>36.69654197059571743011474609375</LatitudeDegrees>
              <LongitudeDegrees>-4.4386406801640987396240234375</LongitudeDegrees>
            </Position>
            <AltitudeMeters>0.60000002384185791015625</AltitudeMeters>
            <DistanceMeters>359.09168043374</DistanceMeters>
          </Trackpoint>
          <Trackpoint>
            <Time>2022-08-26T07:44:55.000Z</Time>
            <Position>
              <LatitudeDegrees>36.696612127125263214111328125</LatitudeDegrees>
              <LongitudeDegrees>-4.438558034598827362060546875</LongitudeDegrees>
            </Position>
            <AltitudeMeters>0.60000002384185791015625</AltitudeMeters>
            <DistanceMeters>369.83306240834</DistanceMeters>
          </Trackpoint>
          <Trackpoint>
            <Time>2022-08-26T07:45:05.000Z</Time>
            <Position>
              <LatitudeDegrees>36.6966870613396167755126953125</LatitudeDegrees>
              <LongitudeDegrees>-4.4384971819818019866943359375</LongitudeDegrees>
            </Position>
            <AltitudeMeters>0.800000011920928955078125</AltitudeMeters>
            <DistanceMeters>379.78594835114</DistanceMeters>
          </Trackpoint>
          <Trackpoint>
            <Time>2022-08-26T07:45:14.000Z</Time>
            <Position>
              <LatitudeDegrees>36.6967484168708324432373046875</LatitudeDegrees>
              <LongitudeDegrees>-4.43843775428831577301025390625</LongitudeDegrees>
            </Position>
            <AltitudeMeters>1.2000000476837158203125</AltitudeMeters>
            <DistanceMeters>388.43285721824</DistanceMeters>
          </Trackpoint>
          <Trackpoint>
            <Time>2022-08-26T07:45:25.000Z</Time>
            <Position>
              <LatitudeDegrees>36.696856208145618438720703125</LatitudeDegrees>
              <LongitudeDegrees>-4.4383647479116916656494140625</LongitudeDegrees>
            </Position>
            <AltitudeMeters>1.60000002384185791015625</AltitudeMeters>
            <DistanceMeters>402.08499176941</DistanceMeters>
          </Trackpoint>
          <Trackpoint>
            <Time>2022-08-26T07:45:32.000Z</Time>
            <Position>
              <LatitudeDegrees>36.6969095170497894287109375</LatitudeDegrees>
              <LongitudeDegrees>-4.43831521086394786834716796875</LongitudeDegrees>
            </Position>
            <AltitudeMeters>2</AltitudeMeters>
            <DistanceMeters>409.48366215018</DistanceMeters>
          </Trackpoint>
          <Trackpoint>
            <Time>2022-08-26T07:45:40.000Z</Time>
            <Position>
              <LatitudeDegrees>36.6969767399132251739501953125</LatitudeDegrees>
              <LongitudeDegrees>-4.43826810456812381744384765625</LongitudeDegrees>
            </Position>
            <AltitudeMeters>2.2000000476837158203125</AltitudeMeters>
            <DistanceMeters>418.06663154484</DistanceMeters>
          </Trackpoint>
          <Trackpoint>
            <Time>2022-08-26T07:45:45.000Z</Time>
            <Position>
              <LatitudeDegrees>36.6970028914511203765869140625</LatitudeDegrees>
              <LongitudeDegrees>-4.438234828412532806396484375</LongitudeDegrees>
            </Position>
            <AltitudeMeters>2.2000000476837158203125</AltitudeMeters>
            <DistanceMeters>422.22615392928</DistanceMeters>
          </Trackpoint>
          <Trackpoint>
            <Time>2022-08-26T07:45:51.000Z</Time>
            <Position>
              <LatitudeDegrees>36.6970417834818363189697265625</LatitudeDegrees>
              <LongitudeDegrees>-4.43819803185760974884033203125</LongitudeDegrees>
            </Position>
            <AltitudeMeters>2.400000095367431640625</AltitudeMeters>
            <DistanceMeters>427.6601533746</DistanceMeters>
          </Trackpoint>
          <Trackpoint>
            <Time>2022-08-26T07:45:53.000Z</Time>
            <Position>
              <LatitudeDegrees>36.69706265442073345184326171875</LatitudeDegrees>
              <LongitudeDegrees>-4.43817674182355403900146484375</LongitudeDegrees>
            </Position>
            <AltitudeMeters>2.599999904632568359375</AltitudeMeters>
            <DistanceMeters>430.66215542174</DistanceMeters>
          </Trackpoint>
          <Trackpoint>
            <Time>2022-08-26T07:45:58.000Z</Time>
            <Position>
              <LatitudeDegrees>36.69711931608617305755615234375</LatitudeDegrees>
              <LongitudeDegrees>-4.43814958445727825164794921875</LongitudeDegrees>
            </Position>
            <AltitudeMeters>2.599999904632568359375</AltitudeMeters>
            <DistanceMeters>437.41908271902</DistanceMeters>
          </Trackpoint>
          <Trackpoint>
            <Time>2022-08-26T07:46:02.000Z</Time>
            <Position>
              <LatitudeDegrees>36.69718201272189617156982421875</LatitudeDegrees>
              <LongitudeDegrees>-4.43815913982689380645751953125</LongitudeDegrees>
            </Position>
            <AltitudeMeters>2.599999904632568359375</AltitudeMeters>
            <DistanceMeters>444.44913310132</DistanceMeters>
          </Trackpoint>
          <Trackpoint>
            <Time>2022-08-26T07:46:04.000Z</Time>
            <Position>
              <LatitudeDegrees>36.6972030512988567352294921875</LatitudeDegrees>
              <LongitudeDegrees>-4.43815494887530803680419921875</LongitudeDegrees>
            </Position>
            <AltitudeMeters>2.7999999523162841796875</AltitudeMeters>
            <DistanceMeters>446.82099684627</DistanceMeters>
          </Trackpoint>
          <Trackpoint>
            <Time>2022-08-26T07:46:06.000Z</Time>
            <Position>
              <LatitudeDegrees>36.697223000228404998779296875</LatitudeDegrees>
              <LongitudeDegrees>-4.438138939440250396728515625</LongitudeDegrees>
            </Position>
            <AltitudeMeters>2.7999999523162841796875</AltitudeMeters>
            <DistanceMeters>449.46130346004</DistanceMeters>
          </Trackpoint>
          <Trackpoint>
            <Time>2022-08-26T07:46:08.000Z</Time>
            <Position>
              <LatitudeDegrees>36.6972258500754833221435546875</LatitudeDegrees>
              <LongitudeDegrees>-4.43811773322522640228271484375</LongitudeDegrees>
            </Position>
            <AltitudeMeters>2.7999999523162841796875</AltitudeMeters>
            <DistanceMeters>451.38074900215</DistanceMeters>
          </Trackpoint>
          <Trackpoint>
            <Time>2022-08-26T07:46:09.000Z</Time>
            <Position>
              <LatitudeDegrees>36.69723196886479854583740234375</LatitudeDegrees>
              <LongitudeDegrees>-4.43810482509434223175048828125</LongitudeDegrees>
            </Position>
            <AltitudeMeters>2.7999999523162841796875</AltitudeMeters>
            <DistanceMeters>452.72126577279</DistanceMeters>
          </Trackpoint>
          <Trackpoint>
            <Time>2022-08-26T07:46:10.000Z</Time>
            <Position>
              <LatitudeDegrees>36.69724009931087493896484375</LatitudeDegrees>
              <LongitudeDegrees>-4.4380958564579486846923828125</LongitudeDegrees>
            </Position>
            <AltitudeMeters>2.7999999523162841796875</AltitudeMeters>
            <DistanceMeters>453.93075838703</DistanceMeters>
          </Trackpoint>
          <Trackpoint>
            <Time>2022-08-26T07:46:14.000Z</Time>
            <Position>
              <LatitudeDegrees>36.6972939111292362213134765625</LatitudeDegrees>
              <LongitudeDegrees>-4.438089318573474884033203125</LongitudeDegrees>
            </Position>
            <AltitudeMeters>3</AltitudeMeters>
            <DistanceMeters>459.94903360645</DistanceMeters>
          </Trackpoint>
          <Trackpoint>
            <Time>2022-08-26T07:46:15.000Z</Time>
            <Position>
              <LatitudeDegrees>36.6973200626671314239501953125</LatitudeDegrees>
              <LongitudeDegrees>-4.43807599134743213653564453125</LongitudeDegrees>
            </Position>
            <AltitudeMeters>3.2000000476837158203125</AltitudeMeters>
            <DistanceMeters>463.09354210638</DistanceMeters>
          </Trackpoint>
          <Trackpoint>
            <Time>2022-08-26T07:46:18.000Z</Time>
            <Position>
              <LatitudeDegrees>36.6973670013248920440673828125</LatitudeDegrees>
              <LongitudeDegrees>-4.4380546174943447113037109375</LongitudeDegrees>
            </Position>
            <AltitudeMeters>3.400000095367431640625</AltitudeMeters>
            <DistanceMeters>468.65564979116</DistanceMeters>
          </Trackpoint>
          <Trackpoint>
            <Time>2022-08-26T07:46:19.000Z</Time>
            <Position>
              <LatitudeDegrees>36.69737580232322216033935546875</LatitudeDegrees>
              <LongitudeDegrees>-4.438051767647266387939453125</LongitudeDegrees>
            </Position>
            <AltitudeMeters>3.400000095367431640625</AltitudeMeters>
            <DistanceMeters>469.67025745652</DistanceMeters>
          </Trackpoint>
          <Trackpoint>
            <Time>2022-08-26T07:46:20.000Z</Time>
            <Position>
              <LatitudeDegrees>36.69738384895026683807373046875</LatitudeDegrees>
              <LongitudeDegrees>-4.43804833106696605682373046875</LongitudeDegrees>
            </Position>
            <AltitudeMeters>3.400000095367431640625</AltitudeMeters>
            <DistanceMeters>470.61576132639</DistanceMeters>
          </Trackpoint>
          <Trackpoint>
            <Time>2022-08-26T07:46:23.000Z</Time>
            <Position>
              <LatitudeDegrees>36.6974025405943393707275390625</LatitudeDegrees>
              <LongitudeDegrees>-4.43802804686129093170166015625</LongitudeDegrees>
            </Position>
            <AltitudeMeters>3.400000095367431640625</AltitudeMeters>
            <DistanceMeters>473.373173948</DistanceMeters>
          </Trackpoint>
          <Trackpoint>
            <Time>2022-08-26T07:46:30.000Z</Time>
            <Position>
              <LatitudeDegrees>36.69746967963874340057373046875</LatitudeDegrees>
              <LongitudeDegrees>-4.437963254749774932861328125</LongitudeDegrees>
            </Position>
            <AltitudeMeters>3.2000000476837158203125</AltitudeMeters>
            <DistanceMeters>482.82104702338</DistanceMeters>
          </Trackpoint>
          <Trackpoint>
            <Time>2022-08-26T07:46:33.000Z</Time>
            <Position>
              <LatitudeDegrees>36.697488538920879364013671875</LatitudeDegrees>
              <LongitudeDegrees>-4.4379469938576221466064453125</LongitudeDegrees>
            </Position>
            <AltitudeMeters>3.2000000476837158203125</AltitudeMeters>
            <DistanceMeters>485.3708813395</DistanceMeters>
          </Trackpoint>
          <Trackpoint>
            <Time>2022-08-26T07:46:35.000Z</Time>
            <Position>
              <LatitudeDegrees>36.69752315618097782135009765625</LatitudeDegrees>
              <LongitudeDegrees>-4.43798362277448177337646484375</LongitudeDegrees>
            </Position>
            <AltitudeMeters>3.400000095367431640625</AltitudeMeters>
            <DistanceMeters>490.42430158558</DistanceMeters>
          </Trackpoint>
          <Trackpoint>
            <Time>2022-08-26T07:46:37.000Z</Time>
            <Position>
              <LatitudeDegrees>36.6975517384707927703857421875</LatitudeDegrees>
              <LongitudeDegrees>-4.43799217231571674346923828125</LongitudeDegrees>
            </Position>
            <AltitudeMeters>3.599999904632568359375</AltitudeMeters>
            <DistanceMeters>493.69410440986</DistanceMeters>
          </Trackpoint>
          <Trackpoint>
            <Time>2022-08-26T07:46:39.000Z</Time>
            <Position>
              <LatitudeDegrees>36.69755123555660247802734375</LatitudeDegrees>
              <LongitudeDegrees>-4.43796467967331409454345703125</LongitudeDegrees>
            </Position>
            <AltitudeMeters>3.400000095367431640625</AltitudeMeters>
            <DistanceMeters>496.14829694267</DistanceMeters>
          </Trackpoint>
          <Trackpoint>
            <Time>2022-08-26T07:46:43.000Z</Time>
            <Position>
              <LatitudeDegrees>36.697609238326549530029296875</LatitudeDegrees>
              <LongitudeDegrees>-4.43793986923992633819580078125</LongitudeDegrees>
            </Position>
            <AltitudeMeters>3.7999999523162841796875</AltitudeMeters>
            <DistanceMeters>502.97304120879</DistanceMeters>
          </Trackpoint>
          <Trackpoint>
            <Time>2022-08-26T07:46:47.000Z</Time>
            <Position>
              <LatitudeDegrees>36.6976741142570972442626953125</LatitudeDegrees>
              <LongitudeDegrees>-4.43792947567999362945556640625</LongitudeDegrees>
            </Position>
            <AltitudeMeters>4.400000095367431640625</AltitudeMeters>
            <DistanceMeters>510.25298067623</DistanceMeters>
          </Trackpoint>
          <Trackpoint>
            <Time>2022-08-26T07:46:49.000Z</Time>
            <Position>
              <LatitudeDegrees>36.69769129715859889984130859375</LatitudeDegrees>
              <LongitudeDegrees>-4.43791539408266544342041015625</LongitudeDegrees>
            </Position>
            <AltitudeMeters>4.599999904632568359375</AltitudeMeters>
            <DistanceMeters>512.54152701342</DistanceMeters>
          </Trackpoint>
          <Trackpoint>
            <Time>2022-08-26T07:46:51.000Z</Time>
            <Position>
              <LatitudeDegrees>36.6977022774517536163330078125</LatitudeDegrees>
              <LongitudeDegrees>-4.437890835106372833251953125</LongitudeDegrees>
            </Position>
            <AltitudeMeters>4.599999904632568359375</AltitudeMeters>
            <DistanceMeters>515.05210331338</DistanceMeters>
          </Trackpoint>
          <Trackpoint>
            <Time>2022-08-26T07:46:55.000Z</Time>
            <Position>
              <LatitudeDegrees>36.69775784946978092193603515625</LatitudeDegrees>
              <LongitudeDegrees>-4.43786124698817729949951171875</LongitudeDegrees>
            </Position>
            <AltitudeMeters>4.80000019073486328125</AltitudeMeters>
            <DistanceMeters>521.77688010011</DistanceMeters>
          </Trackpoint>
          <Trackpoint>
            <Time>2022-08-26T07:47:03.000Z</Time>
            <Position>
              <LatitudeDegrees>36.6978819854557514190673828125</LatitudeDegrees>
              <LongitudeDegrees>-4.43776912987232208251953125</LongitudeDegrees>
            </Position>
            <AltitudeMeters>5.19999980926513671875</AltitudeMeters>
            <DistanceMeters>537.85409715194</DistanceMeters>
          </Trackpoint>
          <Trackpoint>
            <Time>2022-08-26T07:47:08.000Z</Time>
            <Position>
              <LatitudeDegrees>36.69793537817895412445068359375</LatitudeDegrees>
              <LongitudeDegrees>-4.43772881291806697845458984375</LongitudeDegrees>
            </Position>
            <AltitudeMeters>5.19999980926513671875</AltitudeMeters>
            <DistanceMeters>544.8014533824</DistanceMeters>
          </Trackpoint>
          <Trackpoint>
            <Time>2022-08-26T07:47:10.000Z</Time>
            <Position>
              <LatitudeDegrees>36.69796454720199108123779296875</LatitudeDegrees>
              <LongitudeDegrees>-4.43770517595112323760986328125</LongitudeDegrees>
            </Position>
            <AltitudeMeters>5</AltitudeMeters>
            <DistanceMeters>548.6708030363</DistanceMeters>
          </Trackpoint>
          <Trackpoint>
            <Time>2022-08-26T07:47:18.000Z</Time>
            <Position>
              <LatitudeDegrees>36.69809413142502307891845703125</LatitudeDegrees>
              <LongitudeDegrees>-4.43761984817683696746826171875</LongitudeDegrees>
            </Position>
            <AltitudeMeters>5</AltitudeMeters>
            <DistanceMeters>564.9802776388</DistanceMeters>
          </Trackpoint>
          <Trackpoint>
            <Time>2022-08-26T07:47:27.000Z</Time>
            <Position>
              <LatitudeDegrees>36.698153726756572723388671875</LatitudeDegrees>
              <LongitudeDegrees>-4.43752815015614032745361328125</LongitudeDegrees>
            </Position>
            <AltitudeMeters>3.7999999523162841796875</AltitudeMeters>
            <DistanceMeters>575.51410787017</DistanceMeters>
          </Trackpoint>
          <Trackpoint>
            <Time>2022-08-26T07:47:33.000Z</Time>
            <Position>
              <LatitudeDegrees>36.69820033013820648193359375</LatitudeDegrees>
              <LongitudeDegrees>-4.43748707883059978485107421875</LongitudeDegrees>
            </Position>
            <AltitudeMeters>2.7999999523162841796875</AltitudeMeters>
            <DistanceMeters>581.86527717</DistanceMeters>
          </Trackpoint>
          <Trackpoint>
            <Time>2022-08-26T07:47:36.000Z</Time>
            <Position>
              <LatitudeDegrees>36.69821776449680328369140625</LatitudeDegrees>
              <LongitudeDegrees>-4.43747098557651042938232421875</LongitudeDegrees>
            </Position>
            <AltitudeMeters>2.400000095367431640625</AltitudeMeters>
            <DistanceMeters>584.2767848374</DistanceMeters>
          </Trackpoint>
          <Trackpoint>
            <Time>2022-08-26T07:47:41.000Z</Time>
            <Position>
              <LatitudeDegrees>36.698230169713497161865234375</LatitudeDegrees>
              <LongitudeDegrees>-4.43744047544896602630615234375</LongitudeDegrees>
            </Position>
            <AltitudeMeters>2.2000000476837158203125</AltitudeMeters>
            <DistanceMeters>587.32949492684</DistanceMeters>
          </Trackpoint>
          <Trackpoint>
            <Time>2022-08-26T07:47:46.000Z</Time>
            <Position>
              <LatitudeDegrees>36.69824383221566677093505859375</LatitudeDegrees>
              <LongitudeDegrees>-4.43741030059754848480224609375</LongitudeDegrees>
            </Position>
            <AltitudeMeters>1.7999999523162841796875</AltitudeMeters>
            <DistanceMeters>590.42042049658</DistanceMeters>
          </Trackpoint>
          <Trackpoint>
            <Time>2022-08-26T07:47:49.000Z</Time>
            <Position>
              <LatitudeDegrees>36.6982591710984706878662109375</LatitudeDegrees>
              <LongitudeDegrees>-4.43738163448870182037353515625</LongitudeDegrees>
            </Position>
            <AltitudeMeters>1.39999997615814208984375</AltitudeMeters>
            <DistanceMeters>593.49670398698</DistanceMeters>
          </Trackpoint>
          <Trackpoint>
            <Time>2022-08-26T07:47:50.000Z</Time>
            <Position>
              <LatitudeDegrees>36.6982682235538959503173828125</LatitudeDegrees>
              <LongitudeDegrees>-4.437373839318752288818359375</LongitudeDegrees>
            </Position>
            <AltitudeMeters>1.39999997615814208984375</AltitudeMeters>
            <DistanceMeters>594.7210375566</DistanceMeters>
          </Trackpoint>
          <Trackpoint>
            <Time>2022-08-26T07:47:53.000Z</Time>
            <Position>
              <LatitudeDegrees>36.6983047686517238616943359375</LatitudeDegrees>
              <LongitudeDegrees>-4.4373850710690021514892578125</LongitudeDegrees>
            </Position>
            <AltitudeMeters>0.800000011920928955078125</AltitudeMeters>
            <DistanceMeters>598.91084287511</DistanceMeters>
          </Trackpoint>
          <Trackpoint>
            <Time>2022-08-26T07:47:54.000Z</Time>
            <Position>
              <LatitudeDegrees>36.6983141563832759857177734375</LatitudeDegrees>
              <LongitudeDegrees>-4.43738381378352642059326171875</LongitudeDegrees>
            </Position>
            <AltitudeMeters>0.800000011920928955078125</AltitudeMeters>
            <DistanceMeters>599.9604472416</DistanceMeters>
          </Trackpoint>
          <Trackpoint>
            <Time>2022-08-26T07:47:56.000Z</Time>
            <Position>
              <LatitudeDegrees>36.6983444988727569580078125</LatitudeDegrees>
              <LongitudeDegrees>-4.4373927824199199676513671875</LongitudeDegrees>
            </Position>
            <AltitudeMeters>0.4000000059604644775390625</AltitudeMeters>
            <DistanceMeters>603.43119960618</DistanceMeters>
          </Trackpoint>
          <Trackpoint>
            <Time>2022-08-26T07:47:59.000Z</Time>
            <Position>
              <LatitudeDegrees>36.69840929098427295684814453125</LatitudeDegrees>
              <LongitudeDegrees>-4.43740108050405979156494140625</LongitudeDegrees>
            </Position>
            <AltitudeMeters>-0.20000000298023223876953125</AltitudeMeters>
            <DistanceMeters>610.67943972023</DistanceMeters>
          </Trackpoint>
          <Trackpoint>
            <Time>2022-08-26T07:48:04.000Z</Time>
            <Position>
              <LatitudeDegrees>36.6984450817108154296875</LatitudeDegrees>
              <LongitudeDegrees>-4.43735648877918720245361328125</LongitudeDegrees>
            </Position>
            <AltitudeMeters>-0.4000000059604644775390625</AltitudeMeters>
            <DistanceMeters>616.31012337275</DistanceMeters>
          </Trackpoint>
          <Trackpoint>
            <Time>2022-08-26T07:48:06.000Z</Time>
            <Position>
              <LatitudeDegrees>36.6984657011926174163818359375</LatitudeDegrees>
              <LongitudeDegrees>-4.43735070526599884033203125</LongitudeDegrees>
            </Position>
            <AltitudeMeters>-0.4000000059604644775390625</AltitudeMeters>
            <DistanceMeters>618.66479255049</DistanceMeters>
          </Trackpoint>
          <Trackpoint>
            <Time>2022-08-26T07:48:08.000Z</Time>
            <Position>
              <LatitudeDegrees>36.69850568287074565887451171875</LatitudeDegrees>
              <LongitudeDegrees>-4.43734525702893733978271484375</LongitudeDegrees>
            </Position>
            <AltitudeMeters>-0.4000000059604644775390625</AltitudeMeters>
            <DistanceMeters>623.14215446411</DistanceMeters>
          </Trackpoint>
          <Trackpoint>
            <Time>2022-08-26T07:48:16.000Z</Time>
            <Position>
              <LatitudeDegrees>36.69861582107841968536376953125</LatitudeDegrees>
              <LongitudeDegrees>-4.43724886514246463775634765625</LongitudeDegrees>
            </Position>
            <AltitudeMeters>-0.800000011920928955078125</AltitudeMeters>
            <DistanceMeters>638.11783403341</DistanceMeters>
          </Trackpoint>
          <Trackpoint>
            <Time>2022-08-26T07:48:25.000Z</Time>
            <Position>
              <LatitudeDegrees>36.6987178288400173187255859375</LatitudeDegrees>
              <LongitudeDegrees>-4.43715699948370456695556640625</LongitudeDegrees>
            </Position>
            <AltitudeMeters>-0.4000000059604644775390625</AltitudeMeters>
            <DistanceMeters>652.12194772224</DistanceMeters>
          </Trackpoint>
          <Trackpoint>
            <Time>2022-08-26T07:48:26.000Z</Time>
            <Position>
              <LatitudeDegrees>36.6987235285341739654541015625</LatitudeDegrees>
              <LongitudeDegrees>-4.437145851552486419677734375</LongitudeDegrees>
            </Position>
            <AltitudeMeters>-0.4000000059604644775390625</AltitudeMeters>
            <DistanceMeters>653.30119823523</DistanceMeters>
          </Trackpoint>
          <Trackpoint>
            <Time>2022-08-26T07:48:29.000Z</Time>
            <Position>
              <LatitudeDegrees>36.6987366043031215667724609375</LatitudeDegrees>
              <LongitudeDegrees>-4.4370960630476474761962890625</LongitudeDegrees>
            </Position>
            <AltitudeMeters>-0.4000000059604644775390625</AltitudeMeters>
            <DistanceMeters>657.97782577516</DistanceMeters>
          </Trackpoint>
          <Trackpoint>
            <Time>2022-08-26T07:48:30.000Z</Time>
            <Position>
              <LatitudeDegrees>36.69874213635921478271484375</LatitudeDegrees>
              <LongitudeDegrees>-4.43708860315382480621337890625</LongitudeDegrees>
            </Position>
            <AltitudeMeters>-0.4000000059604644775390625</AltitudeMeters>
            <DistanceMeters>658.88432285535</DistanceMeters>
          </Trackpoint>
          <Trackpoint>
            <Time>2022-08-26T07:48:32.000Z</Time>
            <Position>
              <LatitudeDegrees>36.69875998981297016143798828125</LatitudeDegrees>
              <LongitudeDegrees>-4.43706848658621311187744140625</LongitudeDegrees>
            </Position>
            <AltitudeMeters>-0.20000000298023223876953125</AltitudeMeters>
            <DistanceMeters>661.56198614571</DistanceMeters>
          </Trackpoint>
          <Trackpoint>
            <Time>2022-08-26T07:48:36.000Z</Time>
            <Position>
              <LatitudeDegrees>36.69883123598992824554443359375</LatitudeDegrees>
              <LongitudeDegrees>-4.4370541535317897796630859375</LongitudeDegrees>
            </Position>
            <AltitudeMeters>0.800000011920928955078125</AltitudeMeters>
            <DistanceMeters>669.59497601676</DistanceMeters>
          </Trackpoint>
          <Trackpoint>
            <Time>2022-08-26T07:48:42.000Z</Time>
            <Position>
              <LatitudeDegrees>36.69896149076521396636962890625</LatitudeDegrees>
              <LongitudeDegrees>-4.43704501725733280181884765625</LongitudeDegrees>
            </Position>
            <AltitudeMeters>1.60000002384185791015625</AltitudeMeters>
            <DistanceMeters>684.11572961175</DistanceMeters>
          </Trackpoint>
          <Trackpoint>
            <Time>2022-08-26T07:48:44.000Z</Time>
            <Position>
              <LatitudeDegrees>36.69899317435920238494873046875</LatitudeDegrees>
              <LongitudeDegrees>-4.4370343722403049468994140625</LongitudeDegrees>
            </Position>
            <AltitudeMeters>2</AltitudeMeters>
            <DistanceMeters>687.76900936893</DistanceMeters>
          </Trackpoint>
          <Trackpoint>
            <Time>2022-08-26T07:48:45.000Z</Time>
            <Position>
              <LatitudeDegrees>36.69901262037456035614013671875</LatitudeDegrees>
              <LongitudeDegrees>-4.437030516564846038818359375</LongitudeDegrees>
            </Position>
            <AltitudeMeters>2.2000000476837158203125</AltitudeMeters>
            <DistanceMeters>689.9608124322</DistanceMeters>
          </Trackpoint>
          <Trackpoint>
            <Time>2022-08-26T07:48:52.000Z</Time>
            <Position>
              <LatitudeDegrees>36.6991546936333179473876953125</LatitudeDegrees>
              <LongitudeDegrees>-4.43696404807269573211669921875</LongitudeDegrees>
            </Position>
            <AltitudeMeters>3.400000095367431640625</AltitudeMeters>
            <DistanceMeters>706.84965563223</DistanceMeters>
          </Trackpoint>
          <Trackpoint>
            <Time>2022-08-26T07:49:02.000Z</Time>
            <Position>
              <LatitudeDegrees>36.6993152908980846405029296875</LatitudeDegrees>
              <LongitudeDegrees>-4.43684510886669158935546875</LongitudeDegrees>
            </Position>
            <AltitudeMeters>4.599999904632568359375</AltitudeMeters>
            <DistanceMeters>727.63814760388</DistanceMeters>
          </Trackpoint>
          <Trackpoint>
            <Time>2022-08-26T07:49:03.000Z</Time>
            <Position>
              <LatitudeDegrees>36.699326522648334503173828125</LatitudeDegrees>
              <LongitudeDegrees>-4.43683111108839511871337890625</LongitudeDegrees>
            </Position>
            <AltitudeMeters>4.80000019073486328125</AltitudeMeters>
            <DistanceMeters>729.40829915842</DistanceMeters>
          </Trackpoint>
          <Trackpoint>
            <Time>2022-08-26T07:49:04.000Z</Time>
            <Position>
              <LatitudeDegrees>36.69933917932212352752685546875</LatitudeDegrees>
              <LongitudeDegrees>-4.43681350909173488616943359375</LongitudeDegrees>
            </Position>
            <AltitudeMeters>4.80000019073486328125</AltitudeMeters>
            <DistanceMeters>731.51823462826</DistanceMeters>
          </Trackpoint>
          <Trackpoint>
            <Time>2022-08-26T07:49:11.000Z</Time>
            <Position>
              <LatitudeDegrees>36.6994745470583438873291015625</LatitudeDegrees>
              <LongitudeDegrees>-4.4367034547030925750732421875</LongitudeDegrees>
            </Position>
            <AltitudeMeters>5.80000019073486328125</AltitudeMeters>
            <DistanceMeters>749.50365645749</DistanceMeters>
          </Trackpoint>
          <Trackpoint>
            <Time>2022-08-26T07:49:12.000Z</Time>
            <Position>
              <LatitudeDegrees>36.69948385097086429595947265625</LatitudeDegrees>
              <LongitudeDegrees>-4.43669381551444530487060546875</LongitudeDegrees>
            </Position>
            <AltitudeMeters>5.80000019073486328125</AltitudeMeters>
            <DistanceMeters>750.85089265254</DistanceMeters>
          </Trackpoint>
          <Trackpoint>
            <Time>2022-08-26T07:49:13.000Z</Time>
            <Position>
              <LatitudeDegrees>36.69948837719857692718505859375</LatitudeDegrees>
              <LongitudeDegrees>-4.43668283522129058837890625</LongitudeDegrees>
            </Position>
            <AltitudeMeters>6</AltitudeMeters>
            <DistanceMeters>751.95090639949</DistanceMeters>
          </Trackpoint>
          <Trackpoint>
            <Time>2022-08-26T07:49:15.000Z</Time>
            <Position>
              <LatitudeDegrees>36.69948535971343517303466796875</LatitudeDegrees>
              <LongitudeDegrees>-4.4366508163511753082275390625</LongitudeDegrees>
            </Position>
            <AltitudeMeters>6</AltitudeMeters>
            <DistanceMeters>754.8285061109</DistanceMeters>
          </Trackpoint>
          <Trackpoint>
            <Time>2022-08-26T07:49:17.000Z</Time>
            <Position>
              <LatitudeDegrees>36.69947915710508823394775390625</LatitudeDegrees>
              <LongitudeDegrees>-4.4366243295371532440185546875</LongitudeDegrees>
            </Position>
            <AltitudeMeters>6</AltitudeMeters>
            <DistanceMeters>757.29004654199</DistanceMeters>
          </Trackpoint>
          <Trackpoint>
            <Time>2022-08-26T07:49:26.000Z</Time>
            <Position>
              <LatitudeDegrees>36.69950111769139766693115234375</LatitudeDegrees>
              <LongitudeDegrees>-4.4365224055945873260498046875</LongitudeDegrees>
            </Position>
            <AltitudeMeters>6.400000095367431640625</AltitudeMeters>
            <DistanceMeters>766.70872325294</DistanceMeters>
          </Trackpoint>
          <Trackpoint>
            <Time>2022-08-26T07:49:35.000Z</Time>
            <Position>
              <LatitudeDegrees>36.69954285956919193267822265625</LatitudeDegrees>
              <LongitudeDegrees>-4.43641570396721363067626953125</LongitudeDegrees>
            </Position>
            <AltitudeMeters>6.599999904632568359375</AltitudeMeters>
            <DistanceMeters>777.30366923085</DistanceMeters>
          </Trackpoint>
          <Trackpoint>
            <Time>2022-08-26T07:49:44.000Z</Time>
            <Position>
              <LatitudeDegrees>36.6996079869568347930908203125</LatitudeDegrees>
              <LongitudeDegrees>-4.4363477267324924468994140625</LongitudeDegrees>
            </Position>
            <AltitudeMeters>6.599999904632568359375</AltitudeMeters>
            <DistanceMeters>786.75536464808</DistanceMeters>
          </Trackpoint>
          <Trackpoint>
            <Time>2022-08-26T07:49:53.000Z</Time>
            <Position>
              <LatitudeDegrees>36.6996775567531585693359375</LatitudeDegrees>
              <LongitudeDegrees>-4.436251334846019744873046875</LongitudeDegrees>
            </Position>
            <AltitudeMeters>6.400000095367431640625</AltitudeMeters>
            <DistanceMeters>798.32913473262</DistanceMeters>
          </Trackpoint>
          <Trackpoint>
            <Time>2022-08-26T07:50:00.000Z</Time>
            <Position>
              <LatitudeDegrees>36.69974234886467456817626953125</LatitudeDegrees>
              <LongitudeDegrees>-4.436191655695438385009765625</LongitudeDegrees>
            </Position>
            <AltitudeMeters>6.19999980926513671875</AltitudeMeters>
            <DistanceMeters>807.29444066313</DistanceMeters>
          </Trackpoint>
          <Trackpoint>
            <Time>2022-08-26T07:50:04.000Z</Time>
            <Position>
              <LatitudeDegrees>36.69977344572544097900390625</LatitudeDegrees>
              <LongitudeDegrees>-4.43613834679126739501953125</LongitudeDegrees>
            </Position>
            <AltitudeMeters>6</AltitudeMeters>
            <DistanceMeters>813.17766112557</DistanceMeters>
          </Trackpoint>
          <Trackpoint>
            <Time>2022-08-26T07:50:10.000Z</Time>
            <Position>
              <LatitudeDegrees>36.69983471743762493133544921875</LatitudeDegrees>
              <LongitudeDegrees>-4.4360744766891002655029296875</LongitudeDegrees>
            </Position>
            <AltitudeMeters>6</AltitudeMeters>
            <DistanceMeters>822.06507237155</DistanceMeters>
          </Trackpoint>
          <Trackpoint>
            <Time>2022-08-26T07:50:13.000Z</Time>
            <Position>
              <LatitudeDegrees>36.69985818676650524139404296875</LatitudeDegrees>
              <LongitudeDegrees>-4.43604254163801670074462890625</LongitudeDegrees>
            </Position>
            <AltitudeMeters>6.19999980926513671875</AltitudeMeters>
            <DistanceMeters>825.92975171638</DistanceMeters>
          </Trackpoint>
          <Trackpoint>
            <Time>2022-08-26T07:50:17.000Z</Time>
            <Position>
              <LatitudeDegrees>36.69988802634179592132568359375</LatitudeDegrees>
              <LongitudeDegrees>-4.435995854437351226806640625</LongitudeDegrees>
            </Position>
            <AltitudeMeters>6.400000095367431640625</AltitudeMeters>
            <DistanceMeters>831.25803102022</DistanceMeters>
          </Trackpoint>
          <Trackpoint>
            <Time>2022-08-26T07:50:20.000Z</Time>
            <Position>
              <LatitudeDegrees>36.6999110765755176544189453125</LatitudeDegrees>
              <LongitudeDegrees>-4.43595402874052524566650390625</LongitudeDegrees>
            </Position>
            <AltitudeMeters>6.400000095367431640625</AltitudeMeters>
            <DistanceMeters>835.78752698343</DistanceMeters>
          </Trackpoint>
          <Trackpoint>
            <Time>2022-08-26T07:50:30.000Z</Time>
            <Position>
              <LatitudeDegrees>36.69998894445598125457763671875</LatitudeDegrees>
              <LongitudeDegrees>-4.43582980893552303314208984375</LongitudeDegrees>
            </Position>
            <AltitudeMeters>6.80000019073486328125</AltitudeMeters>
            <DistanceMeters>849.85854173398</DistanceMeters>
          </Trackpoint>
          <Trackpoint>
            <Time>2022-08-26T07:50:40.000Z</Time>
            <Position>
              <LatitudeDegrees>36.70008466579020023345947265625</LatitudeDegrees>
              <LongitudeDegrees>-4.43572872318327426910400390625</LongitudeDegrees>
            </Position>
            <AltitudeMeters>7.400000095367431640625</AltitudeMeters>
            <DistanceMeters>863.81873907547</DistanceMeters>
          </Trackpoint>
          <Trackpoint>
            <Time>2022-08-26T07:50:53.000Z</Time>
            <Position>
              <LatitudeDegrees>36.70023805461823940277099609375</LatitudeDegrees>
              <LongitudeDegrees>-4.43571229465305805206298828125</LongitudeDegrees>
            </Position>
            <AltitudeMeters>8.3999996185302734375</AltitudeMeters>
            <DistanceMeters>880.95414002356</DistanceMeters>
          </Trackpoint>
          <Trackpoint>
            <Time>2022-08-26T07:50:54.000Z</Time>
            <Position>
              <LatitudeDegrees>36.7002463527023792266845703125</LatitudeDegrees>
              <LongitudeDegrees>-4.4357123784720897674560546875</LongitudeDegrees>
            </Position>
            <AltitudeMeters>8.3999996185302734375</AltitudeMeters>
            <DistanceMeters>881.88034586579</DistanceMeters>
          </Trackpoint>
          <Trackpoint>
            <Time>2022-08-26T07:51:02.000Z</Time>
            <Position>
              <LatitudeDegrees>36.7003130726516246795654296875</LatitudeDegrees>
              <LongitudeDegrees>-4.43570005707442760467529296875</LongitudeDegrees>
            </Position>
            <AltitudeMeters>8.80000019073486328125</AltitudeMeters>
            <DistanceMeters>889.38745630102</DistanceMeters>
          </Trackpoint>
          <Trackpoint>
            <Time>2022-08-26T07:51:08.000Z</Time>
            <Position>
              <LatitudeDegrees>36.70035540126264095306396484375</LatitudeDegrees>
              <LongitudeDegrees>-4.43567164242267608642578125</LongitudeDegrees>
            </Position>
            <AltitudeMeters>9</AltitudeMeters>
            <DistanceMeters>894.73772193249</DistanceMeters>
          </Trackpoint>
          <Trackpoint>
            <Time>2022-08-26T07:51:11.000Z</Time>
            <Position>
              <LatitudeDegrees>36.70038138516247272491455078125</LatitudeDegrees>
              <LongitudeDegrees>-4.43567390553653240203857421875</LongitudeDegrees>
            </Position>
            <AltitudeMeters>9</AltitudeMeters>
            <DistanceMeters>897.63408879745</DistanceMeters>
          </Trackpoint>
          <Trackpoint>
            <Time>2022-08-26T07:51:14.000Z</Time>
            <Position>
              <LatitudeDegrees>36.70041005127131938934326171875</LatitudeDegrees>
              <LongitudeDegrees>-4.43569201044738292694091796875</LongitudeDegrees>
            </Position>
            <AltitudeMeters>9</AltitudeMeters>
            <DistanceMeters>901.20992272042</DistanceMeters>
          </Trackpoint>
          <Trackpoint>
            <Time>2022-08-26T07:51:19.000Z</Time>
            <Position>
              <LatitudeDegrees>36.7004609294235706329345703125</LatitudeDegrees>
              <LongitudeDegrees>-4.435735009610652923583984375</LongitudeDegrees>
            </Position>
            <AltitudeMeters>9</AltitudeMeters>
            <DistanceMeters>908.05052621226</DistanceMeters>
          </Trackpoint>
          <Trackpoint>
            <Time>2022-08-26T07:51:26.000Z</Time>
            <Position>
              <LatitudeDegrees>36.70052069239318370819091796875</LatitudeDegrees>
              <LongitudeDegrees>-4.43583684973418712615966796875</LongitudeDegrees>
            </Position>
            <AltitudeMeters>9</AltitudeMeters>
            <DistanceMeters>919.31269535198</DistanceMeters>
          </Trackpoint>
          <Trackpoint>
            <Time>2022-08-26T07:51:31.000Z</Time>
            <Position>
              <LatitudeDegrees>36.70050510205328464508056640625</LatitudeDegrees>
              <LongitudeDegrees>-4.43589217029511928558349609375</LongitudeDegrees>
            </Position>
            <AltitudeMeters>9</AltitudeMeters>
            <DistanceMeters>924.54693378092</DistanceMeters>
          </Trackpoint>
          <Trackpoint>
            <Time>2022-08-26T07:51:34.000Z</Time>
            <Position>
              <LatitudeDegrees>36.700498647987842559814453125</LatitudeDegrees>
              <LongitudeDegrees>-4.435933493077754974365234375</LongitudeDegrees>
            </Position>
            <AltitudeMeters>9</AltitudeMeters>
            <DistanceMeters>928.30499705319</DistanceMeters>
          </Trackpoint>
          <Trackpoint>
            <Time>2022-08-26T07:51:41.000Z</Time>
            <Position>
              <LatitudeDegrees>36.70049370266497135162353515625</LatitudeDegrees>
              <LongitudeDegrees>-4.43603667430579662322998046875</LongitudeDegrees>
            </Position>
            <AltitudeMeters>9.3999996185302734375</AltitudeMeters>
            <DistanceMeters>937.5289539186</DistanceMeters>
          </Trackpoint>
          <Trackpoint>
            <Time>2022-08-26T07:51:42.000Z</Time>
            <Position>
              <LatitudeDegrees>36.7004921101033687591552734375</LatitudeDegrees>
              <LongitudeDegrees>-4.43604824133217334747314453125</LongitudeDegrees>
            </Position>
            <AltitudeMeters>9.3999996185302734375</AltitudeMeters>
            <DistanceMeters>938.57424777667</DistanceMeters>
          </Trackpoint>
          <Trackpoint>
            <Time>2022-08-26T07:51:43.000Z</Time>
            <Position>
              <LatitudeDegrees>36.70049169100821018218994140625</LatitudeDegrees>
              <LongitudeDegrees>-4.43605746142566204071044921875</LongitudeDegrees>
            </Position>
            <AltitudeMeters>9.3999996185302734375</AltitudeMeters>
            <DistanceMeters>939.39720326349</DistanceMeters>
          </Trackpoint>
          <Trackpoint>
            <Time>2022-08-26T07:51:46.000Z</Time>
            <Position>
              <LatitudeDegrees>36.70047618448734283447265625</LatitudeDegrees>
              <LongitudeDegrees>-4.4361006282269954681396484375</LongitudeDegrees>
            </Position>
            <AltitudeMeters>9.3999996185302734375</AltitudeMeters>
            <DistanceMeters>943.61707420316</DistanceMeters>
          </Trackpoint>
          <Trackpoint>
            <Time>2022-08-26T07:51:47.000Z</Time>
            <Position>
              <LatitudeDegrees>36.7004662938416004180908203125</LatitudeDegrees>
              <LongitudeDegrees>-4.43610808812081813812255859375</LongitudeDegrees>
            </Position>
            <AltitudeMeters>9.3999996185302734375</AltitudeMeters>
            <DistanceMeters>944.9060792713</DistanceMeters>
          </Trackpoint>
          <Trackpoint>
            <Time>2022-08-26T07:51:49.000Z</Time>
            <Position>
              <LatitudeDegrees>36.70044877566397190093994140625</LatitudeDegrees>
              <LongitudeDegrees>-4.436122588813304901123046875</LongitudeDegrees>
            </Position>
            <AltitudeMeters>9.19999980926513671875</AltitudeMeters>
            <DistanceMeters>947.24535828951</DistanceMeters>
          </Trackpoint>
          <Trackpoint>
            <Time>2022-08-26T07:51:53.000Z</Time>
            <Position>
              <LatitudeDegrees>36.70041759498417377471923828125</LatitudeDegrees>
              <LongitudeDegrees>-4.436118565499782562255859375</LongitudeDegrees>
            </Position>
            <AltitudeMeters>9.19999980926513671875</AltitudeMeters>
            <DistanceMeters>950.73427546343</DistanceMeters>
          </Trackpoint>
          <Trackpoint>
            <Time>2022-08-26T07:51:56.000Z</Time>
            <Position>
              <LatitudeDegrees>36.700396724045276641845703125</LatitudeDegrees>
              <LongitudeDegrees>-4.43611479364335536956787109375</LongitudeDegrees>
            </Position>
            <AltitudeMeters>9</AltitudeMeters>
            <DistanceMeters>953.08126217639</DistanceMeters>
          </Trackpoint>
          <Trackpoint>
            <Time>2022-08-26T07:53:15.000Z</Time>
            <Position>
              <LatitudeDegrees>36.70031818561255931854248046875</LatitudeDegrees>
              <LongitudeDegrees>-4.4363437034189701080322265625</LongitudeDegrees>
            </Position>
            <AltitudeMeters>7.19999980926513671875</AltitudeMeters>
            <DistanceMeters>975.30045071568</DistanceMeters>
          </Trackpoint>
          <Trackpoint>
            <Time>2022-08-26T07:53:25.000Z</Time>
            <Position>
              <LatitudeDegrees>36.70032036490738391876220703125</LatitudeDegrees>
              <LongitudeDegrees>-4.4365093298256397247314453125</LongitudeDegrees>
            </Position>
            <AltitudeMeters>6.599999904632568359375</AltitudeMeters>
            <DistanceMeters>990.08252735568</DistanceMeters>
          </Trackpoint>
          <Trackpoint>
            <Time>2022-08-26T07:53:26.000Z</Time>
            <Position>
              <LatitudeDegrees>36.700316928327083587646484375</LatitudeDegrees>
              <LongitudeDegrees>-4.43652684800326824188232421875</LongitudeDegrees>
            </Position>
            <AltitudeMeters>6.400000095367431640625</AltitudeMeters>
            <DistanceMeters>991.69518417468</DistanceMeters>
          </Trackpoint>
          <Trackpoint>
            <Time>2022-08-26T07:53:27.000Z</Time>
            <Position>
              <LatitudeDegrees>36.70031064189970493316650390625</LatitudeDegrees>
              <LongitudeDegrees>-4.43654696457087993621826171875</LongitudeDegrees>
            </Position>
            <AltitudeMeters>6.400000095367431640625</AltitudeMeters>
            <DistanceMeters>993.62167357731</DistanceMeters>
          </Trackpoint>
          <Trackpoint>
            <Time>2022-08-26T07:53:32.000Z</Time>
            <Position>
              <LatitudeDegrees>36.7003486119210720062255859375</LatitudeDegrees>
              <LongitudeDegrees>-4.43659566342830657958984375</LongitudeDegrees>
            </Position>
            <AltitudeMeters>6.400000095367431640625</AltitudeMeters>
            <DistanceMeters>999.68405026693</DistanceMeters>
          </Trackpoint>
          <Trackpoint>
            <Time>2022-08-26T07:53:33.000Z</Time>
            <Position>
              <LatitudeDegrees>36.70035548508167266845703125</LatitudeDegrees>
              <LongitudeDegrees>-4.4366055540740489959716796875</LongitudeDegrees>
            </Position>
            <AltitudeMeters>6.400000095367431640625</AltitudeMeters>
            <DistanceMeters>1000.8517580827</DistanceMeters>
          </Trackpoint>
          <Trackpoint>
            <Time>2022-08-26T07:53:34.000Z</Time>
            <Position>
              <LatitudeDegrees>36.7003636993467807769775390625</LatitudeDegrees>
              <LongitudeDegrees>-4.436614103615283966064453125</LongitudeDegrees>
            </Position>
            <AltitudeMeters>6.400000095367431640625</AltitudeMeters>
            <DistanceMeters>1002.0386413648</DistanceMeters>
          </Trackpoint>
          <Trackpoint>
            <Time>2022-08-26T07:53:36.000Z</Time>
            <Position>
              <LatitudeDegrees>36.70037920586764812469482421875</LatitudeDegrees>
              <LongitudeDegrees>-4.4366296939551830291748046875</LongitudeDegrees>
            </Position>
            <AltitudeMeters>6.400000095367431640625</AltitudeMeters>
            <DistanceMeters>1004.2550261657</DistanceMeters>
          </Trackpoint>
          <Trackpoint>
            <Time>2022-08-26T07:53:38.000Z</Time>
            <Position>
              <LatitudeDegrees>36.70039949007332324981689453125</LatitudeDegrees>
              <LongitudeDegrees>-4.43665106780827045440673828125</LongitudeDegrees>
            </Position>
            <AltitudeMeters>6.19999980926513671875</AltitudeMeters>
            <DistanceMeters>1007.2100361354</DistanceMeters>
          </Trackpoint>
          <Trackpoint>
            <Time>2022-08-26T07:53:42.000Z</Time>
            <Position>
              <LatitudeDegrees>36.70041424222290515899658203125</LatitudeDegrees>
              <LongitudeDegrees>-4.43669448606669902801513671875</LongitudeDegrees>
            </Position>
            <AltitudeMeters>6.19999980926513671875</AltitudeMeters>
            <DistanceMeters>1011.4181211995</DistanceMeters>
          </Trackpoint>
          <Trackpoint>
            <Time>2022-08-26T07:53:44.000Z</Time>
            <Position>
              <LatitudeDegrees>36.70043586753308773040771484375</LatitudeDegrees>
              <LongitudeDegrees>-4.43670655600726604461669921875</LongitudeDegrees>
            </Position>
            <AltitudeMeters>6.400000095367431640625</AltitudeMeters>
            <DistanceMeters>1014.0584278133</DistanceMeters>
          </Trackpoint>
          <Trackpoint>
            <Time>2022-08-26T07:53:45.000Z</Time>
            <Position>
              <LatitudeDegrees>36.700439639389514923095703125</LatitudeDegrees>
              <LongitudeDegrees>-4.43672818131744861602783203125</LongitudeDegrees>
            </Position>
            <AltitudeMeters>6.400000095367431640625</AltitudeMeters>
            <DistanceMeters>1016.0335209816</DistanceMeters>
          </Trackpoint>
          <Trackpoint>
            <Time>2022-08-26T07:53:51.000Z</Time>
            <Position>
              <LatitudeDegrees>36.7005050182342529296875</LatitudeDegrees>
              <LongitudeDegrees>-4.4367755390703678131103515625</LongitudeDegrees>
            </Position>
            <AltitudeMeters>6.599999904632568359375</AltitudeMeters>
            <DistanceMeters>1024.4486180977</DistanceMeters>
          </Trackpoint>
          <Trackpoint>
            <Time>2022-08-26T07:53:53.000Z</Time>
            <Position>
              <LatitudeDegrees>36.70053242705762386322021484375</LatitudeDegrees>
              <LongitudeDegrees>-4.43676355294883251190185546875</LongitudeDegrees>
            </Position>
            <AltitudeMeters>6.80000019073486328125</AltitudeMeters>
            <DistanceMeters>1027.6823200819</DistanceMeters>
          </Trackpoint>
          <Trackpoint>
            <Time>2022-08-26T07:54:00.000Z</Time>
            <Position>
              <LatitudeDegrees>36.7006587423384189605712890625</LatitudeDegrees>
              <LongitudeDegrees>-4.436746872961521148681640625</LongitudeDegrees>
            </Position>
            <AltitudeMeters>8.19999980926513671875</AltitudeMeters>
            <DistanceMeters>1041.8202386729</DistanceMeters>
          </Trackpoint>
          <Trackpoint>
            <Time>2022-08-26T07:54:01.000Z</Time>
            <Position>
              <LatitudeDegrees>36.70067441649734973907470703125</LatitudeDegrees>
              <LongitudeDegrees>-4.436744190752506256103515625</LongitudeDegrees>
            </Position>
            <AltitudeMeters>8.3999996185302734375</AltitudeMeters>
            <DistanceMeters>1043.5801580518</DistanceMeters>
          </Trackpoint>
          <Trackpoint>
            <Time>2022-08-26T07:54:06.000Z</Time>
            <Position>
              <LatitudeDegrees>36.70072831213474273681640625</LatitudeDegrees>
              <LongitudeDegrees>-4.436699934303760528564453125</LongitudeDegrees>
            </Position>
            <AltitudeMeters>9.19999980926513671875</AltitudeMeters>
            <DistanceMeters>1050.762065643</DistanceMeters>
          </Trackpoint>
          <Trackpoint>
            <Time>2022-08-26T07:54:12.000Z</Time>
            <Position>
              <LatitudeDegrees>36.70080182142555713653564453125</LatitudeDegrees>
              <LongitudeDegrees>-4.43669096566736698150634765625</LongitudeDegrees>
            </Position>
            <AltitudeMeters>10.6000003814697265625</AltitudeMeters>
            <DistanceMeters>1058.9828376327</DistanceMeters>
          </Trackpoint>
          <Trackpoint>
            <Time>2022-08-26T07:54:13.000Z</Time>
            <Position>
              <LatitudeDegrees>36.7008156515657901763916015625</LatitudeDegrees>
              <LongitudeDegrees>-4.4366927258670330047607421875</LongitudeDegrees>
            </Position>
            <AltitudeMeters>10.80000019073486328125</AltitudeMeters>
            <DistanceMeters>1060.5326764417</DistanceMeters>
          </Trackpoint>
          <Trackpoint>
            <Time>2022-08-26T07:54:17.000Z</Time>
            <Position>
              <LatitudeDegrees>36.70087273232638835906982421875</LatitudeDegrees>
              <LongitudeDegrees>-4.43669348023831844329833984375</LongitudeDegrees>
            </Position>
            <AltitudeMeters>11.6000003814697265625</AltitudeMeters>
            <DistanceMeters>1066.8866887002</DistanceMeters>
          </Trackpoint>
          <Trackpoint>
            <Time>2022-08-26T07:54:22.000Z</Time>
            <Position>
              <LatitudeDegrees>36.7009081877768039703369140625</LatitudeDegrees>
              <LongitudeDegrees>-4.43671577610075473785400390625</LongitudeDegrees>
            </Position>
            <AltitudeMeters>12</AltitudeMeters>
            <DistanceMeters>1071.3061971965</DistanceMeters>
          </Trackpoint>
          <Trackpoint>
            <Time>2022-08-26T07:54:24.000Z</Time>
            <Position>
              <LatitudeDegrees>36.7009065113961696624755859375</LatitudeDegrees>
              <LongitudeDegrees>-4.4367326237261295318603515625</LongitudeDegrees>
            </Position>
            <AltitudeMeters>11.80000019073486328125</AltitudeMeters>
            <DistanceMeters>1072.8206738113</DistanceMeters>
          </Trackpoint>
          <Trackpoint>
            <Time>2022-08-26T07:54:26.000Z</Time>
            <Position>
              <LatitudeDegrees>36.70089703984558582305908203125</LatitudeDegrees>
              <LongitudeDegrees>-4.4367446936666965484619140625</LongitudeDegrees>
            </Position>
            <AltitudeMeters>11.80000019073486328125</AltitudeMeters>
            <DistanceMeters>1074.329176136</DistanceMeters>
          </Trackpoint>
          <Trackpoint>
            <Time>2022-08-26T07:54:27.000Z</Time>
            <Position>
              <LatitudeDegrees>36.70088589191436767578125</LatitudeDegrees>
              <LongitudeDegrees>-4.4367544166743755340576171875</LongitudeDegrees>
            </Position>
            <AltitudeMeters>11.6000003814697265625</AltitudeMeters>
            <DistanceMeters>1075.8436527508</DistanceMeters>
          </Trackpoint>
          <Trackpoint>
            <Time>2022-08-26T07:54:28.000Z</Time>
            <Position>
              <LatitudeDegrees>36.7008850537240505218505859375</LatitudeDegrees>
              <LongitudeDegrees>-4.43676120601594448089599609375</LongitudeDegrees>
            </Position>
            <AltitudeMeters>11.6000003814697265625</AltitudeMeters>
            <DistanceMeters>1076.4446544628</DistanceMeters>
          </Trackpoint>
          <Trackpoint>
            <Time>2022-08-26T07:54:30.000Z</Time>
            <Position>
              <LatitudeDegrees>36.700882874429225921630859375</LatitudeDegrees>
              <LongitudeDegrees>-4.4367792271077632904052734375</LongitudeDegrees>
            </Position>
            <AltitudeMeters>11.3999996185302734375</AltitudeMeters>
            <DistanceMeters>1078.0740231978</DistanceMeters>
          </Trackpoint>
          <Trackpoint>
            <Time>2022-08-26T07:54:32.000Z</Time>
            <Position>
              <LatitudeDegrees>36.70088522136211395263671875</LatitudeDegrees>
              <LongitudeDegrees>-4.43679858930408954620361328125</LongitudeDegrees>
            </Position>
            <AltitudeMeters>11.3999996185302734375</AltitudeMeters>
            <DistanceMeters>1079.821068085</DistanceMeters>
          </Trackpoint>
          <Trackpoint>
            <Time>2022-08-26T07:54:34.000Z</Time>
            <Position>
              <LatitudeDegrees>36.7008897475898265838623046875</LatitudeDegrees>
              <LongitudeDegrees>-4.43682876415550708770751953125</LongitudeDegrees>
            </Position>
            <AltitudeMeters>11.3999996185302734375</AltitudeMeters>
            <DistanceMeters>1082.5620576146</DistanceMeters>
          </Trackpoint>
          <Trackpoint>
            <Time>2022-08-26T07:54:35.000Z</Time>
            <Position>
              <LatitudeDegrees>36.70087742619216442108154296875</LatitudeDegrees>
              <LongitudeDegrees>-4.43685717880725860595703125</LongitudeDegrees>
            </Position>
            <AltitudeMeters>11.19999980926513671875</AltitudeMeters>
            <DistanceMeters>1085.4459266139</DistanceMeters>
          </Trackpoint>
          <Trackpoint>
            <Time>2022-08-26T07:54:37.000Z</Time>
            <Position>
              <LatitudeDegrees>36.70087759383022785186767578125</LatitudeDegrees>
              <LongitudeDegrees>-4.43688911385834217071533203125</LongitudeDegrees>
            </Position>
            <AltitudeMeters>11</AltitudeMeters>
            <DistanceMeters>1088.296728045</DistanceMeters>
          </Trackpoint>
          <Trackpoint>
            <Time>2022-08-26T07:54:40.000Z</Time>
            <Position>
              <LatitudeDegrees>36.70088429935276508331298828125</LatitudeDegrees>
              <LongitudeDegrees>-4.436946697533130645751953125</LongitudeDegrees>
            </Position>
            <AltitudeMeters>11</AltitudeMeters>
            <DistanceMeters>1093.4893967482</DistanceMeters>
          </Trackpoint>
          <Trackpoint>
            <Time>2022-08-26T07:54:41.000Z</Time>
            <Position>
              <LatitudeDegrees>36.70088932849466800689697265625</LatitudeDegrees>
              <LongitudeDegrees>-4.4369602762162685394287109375</LongitudeDegrees>
            </Position>
            <AltitudeMeters>10.80000019073486328125</AltitudeMeters>
            <DistanceMeters>1094.8231602428</DistanceMeters>
          </Trackpoint>
          <Trackpoint>
            <Time>2022-08-26T07:54:42.000Z</Time>
            <Position>
              <LatitudeDegrees>36.70089385472238063812255859375</LatitudeDegrees>
              <LongitudeDegrees>-4.43696974776685237884521484375</LongitudeDegrees>
            </Position>
            <AltitudeMeters>10.80000019073486328125</AltitudeMeters>
            <DistanceMeters>1095.8015201474</DistanceMeters>
          </Trackpoint>
          <Trackpoint>
            <Time>2022-08-26T07:54:43.000Z</Time>
            <Position>
              <LatitudeDegrees>36.70090424828231334686279296875</LatitudeDegrees>
              <LongitudeDegrees>-4.4369758665561676025390625</LongitudeDegrees>
            </Position>
            <AltitudeMeters>11</AltitudeMeters>
            <DistanceMeters>1097.0835006125</DistanceMeters>
          </Trackpoint>
          <Trackpoint>
            <Time>2022-08-26T07:54:46.000Z</Time>
            <Position>
              <LatitudeDegrees>36.7009393684566020965576171875</LatitudeDegrees>
              <LongitudeDegrees>-4.43698148243129253387451171875</LongitudeDegrees>
            </Position>
            <AltitudeMeters>11.3999996185302734375</AltitudeMeters>
            <DistanceMeters>1101.0245323916</DistanceMeters>
          </Trackpoint>
          <Trackpoint>
            <Time>2022-08-26T07:54:49.000Z</Time>
            <Position>
              <LatitudeDegrees>36.700980104506015777587890625</LatitudeDegrees>
              <LongitudeDegrees>-4.437023811042308807373046875</LongitudeDegrees>
            </Position>
            <AltitudeMeters>11.6000003814697265625</AltitudeMeters>
            <DistanceMeters>1106.9253776503</DistanceMeters>
          </Trackpoint>
          <Trackpoint>
            <Time>2022-08-26T07:54:51.000Z</Time>
            <Position>
              <LatitudeDegrees>36.70100499875843524932861328125</LatitudeDegrees>
              <LongitudeDegrees>-4.4370474480092525482177734375</LongitudeDegrees>
            </Position>
            <AltitudeMeters>11.80000019073486328125</AltitudeMeters>
            <DistanceMeters>1110.4065215123</DistanceMeters>
          </Trackpoint>
          <Trackpoint>
            <Time>2022-08-26T07:54:52.000Z</Time>
            <Position>
              <LatitudeDegrees>36.70102377422153949737548828125</LatitudeDegrees>
              <LongitudeDegrees>-4.4370578415691852569580078125</LongitudeDegrees>
            </Position>
            <AltitudeMeters>12</AltitudeMeters>
            <DistanceMeters>1112.6911186726</DistanceMeters>
          </Trackpoint>
          <Trackpoint>
            <Time>2022-08-26T07:54:55.000Z</Time>
            <Position>
              <LatitudeDegrees>36.70105596072971820831298828125</LatitudeDegrees>
              <LongitudeDegrees>-4.4370858371257781982421875</LongitudeDegrees>
            </Position>
            <AltitudeMeters>12</AltitudeMeters>
            <DistanceMeters>1117.0582139829</DistanceMeters>
          </Trackpoint>
          <Trackpoint>
            <Time>2022-08-26T07:54:57.000Z</Time>
            <Position>
              <LatitudeDegrees>36.70106886886060237884521484375</LatitudeDegrees>
              <LongitudeDegrees>-4.437100253999233245849609375</LongitudeDegrees>
            </Position>
            <AltitudeMeters>12</AltitudeMeters>
            <DistanceMeters>1118.9847033855</DistanceMeters>
          </Trackpoint>
          <Trackpoint>
            <Time>2022-08-26T07:54:58.000Z</Time>
            <Position>
              <LatitudeDegrees>36.70107968151569366455078125</LatitudeDegrees>
              <LongitudeDegrees>-4.437112994492053985595703125</LongitudeDegrees>
            </Position>
            <AltitudeMeters>12</AltitudeMeters>
            <DistanceMeters>1120.641550765</DistanceMeters>
          </Trackpoint>
          <Trackpoint>
            <Time>2022-08-26T07:55:02.000Z</Time>
            <Position>
              <LatitudeDegrees>36.70112301595509052276611328125</LatitudeDegrees>
              <LongitudeDegrees>-4.437150545418262481689453125</LongitudeDegrees>
            </Position>
            <AltitudeMeters>12</AltitudeMeters>
            <DistanceMeters>1126.5147859907</DistanceMeters>
          </Trackpoint>
          <Trackpoint>
            <Time>2022-08-26T07:55:03.000Z</Time>
            <Position>
              <LatitudeDegrees>36.70113324187695980072021484375</LatitudeDegrees>
              <LongitudeDegrees>-4.43715767003595829010009765625</LongitudeDegrees>
            </Position>
            <AltitudeMeters>12</AltitudeMeters>
            <DistanceMeters>1127.8246388543</DistanceMeters>
          </Trackpoint>
          <Trackpoint>
            <Time>2022-08-26T07:55:05.000Z</Time>
            <Position>
              <LatitudeDegrees>36.70114581473171710968017578125</LatitudeDegrees>
              <LongitudeDegrees>-4.437184073030948638916015625</LongitudeDegrees>
            </Position>
            <AltitudeMeters>12</AltitudeMeters>
            <DistanceMeters>1130.5656283839</DistanceMeters>
          </Trackpoint>
          <Trackpoint>
            <Time>2022-08-26T07:55:07.000Z</Time>
            <Position>
              <LatitudeDegrees>36.7011482454836368560791015625</LatitudeDegrees>
              <LongitudeDegrees>-4.4372147507965564727783203125</LongitudeDegrees>
            </Position>
            <AltitudeMeters>11.80000019073486328125</AltitudeMeters>
            <DistanceMeters>1133.3164835346</DistanceMeters>
          </Trackpoint>
          <Trackpoint>
            <Time>2022-08-26T07:55:10.000Z</Time>
            <Position>
              <LatitudeDegrees>36.701167188584804534912109375</LatitudeDegrees>
              <LongitudeDegrees>-4.43725238554179668426513671875</LongitudeDegrees>
            </Position>
            <AltitudeMeters>11.80000019073486328125</AltitudeMeters>
            <DistanceMeters>1137.282639503</DistanceMeters>
          </Trackpoint>
          <Trackpoint>
            <Time>2022-08-26T07:55:11.000Z</Time>
            <Position>
              <LatitudeDegrees>36.70117489993572235107421875</LatitudeDegrees>
              <LongitudeDegrees>-4.4372677244246006011962890625</LongitudeDegrees>
            </Position>
            <AltitudeMeters>11.80000019073486328125</AltitudeMeters>
            <DistanceMeters>1138.9008861371</DistanceMeters>
          </Trackpoint>
          <Trackpoint>
            <Time>2022-08-26T07:55:19.000Z</Time>
            <Position>
              <LatitudeDegrees>36.701275147497653961181640625</LatitudeDegrees>
              <LongitudeDegrees>-4.43737291730940341949462890625</LongitudeDegrees>
            </Position>
            <AltitudeMeters>11.3999996185302734375</AltitudeMeters>
            <DistanceMeters>1153.4824560097</DistanceMeters>
          </Trackpoint>
          <Trackpoint>
            <Time>2022-08-26T07:55:20.000Z</Time>
            <Position>
              <LatitudeDegrees>36.70128696598112583160400390625</LatitudeDegrees>
              <LongitudeDegrees>-4.437382221221923828125</LongitudeDegrees>
            </Position>
            <AltitudeMeters>11.6000003814697265625</AltitudeMeters>
            <DistanceMeters>1155.0381103694</DistanceMeters>
          </Trackpoint>
          <Trackpoint>
            <Time>2022-08-26T07:55:24.000Z</Time>
            <Position>
              <LatitudeDegrees>36.7013178952038288116455078125</LatitudeDegrees>
              <LongitudeDegrees>-4.4374130666255950927734375</LongitudeDegrees>
            </Position>
            <AltitudeMeters>11.80000019073486328125</AltitudeMeters>
            <DistanceMeters>1159.4463667716</DistanceMeters>
          </Trackpoint>
          <Trackpoint>
            <Time>2022-08-26T07:55:30.000Z</Time>
            <Position>
              <LatitudeDegrees>36.70135351829230785369873046875</LatitudeDegrees>
              <LongitudeDegrees>-4.4374652020633220672607421875</LongitudeDegrees>
            </Position>
            <AltitudeMeters>12.19999980926513671875</AltitudeMeters>
            <DistanceMeters>1165.5591776083</DistanceMeters>
          </Trackpoint>
          <Trackpoint>
            <Time>2022-08-26T07:55:31.000Z</Time>
            <Position>
              <LatitudeDegrees>36.70135888271033763885498046875</LatitudeDegrees>
              <LongitudeDegrees>-4.43747685290873050689697265625</LongitudeDegrees>
            </Position>
            <AltitudeMeters>12.3999996185302734375</AltitudeMeters>
            <DistanceMeters>1166.7611810321</DistanceMeters>
          </Trackpoint>
          <Trackpoint>
            <Time>2022-08-26T07:55:37.000Z</Time>
            <Position>
              <LatitudeDegrees>36.701369024813175201416015625</LatitudeDegrees>
              <LongitudeDegrees>-4.43753284402191638946533203125</LongitudeDegrees>
            </Position>
            <AltitudeMeters>12.6000003814697265625</AltitudeMeters>
            <DistanceMeters>1171.8838172818</DistanceMeters>
          </Trackpoint>
          <Trackpoint>
            <Time>2022-08-26T07:55:38.000Z</Time>
            <Position>
              <LatitudeDegrees>36.701376400887966156005859375</LatitudeDegrees>
              <LongitudeDegrees>-4.437528066337108612060546875</LongitudeDegrees>
            </Position>
            <AltitudeMeters>12.6000003814697265625</AltitudeMeters>
            <DistanceMeters>1172.8148851303</DistanceMeters>
          </Trackpoint>
          <Trackpoint>
            <Time>2022-08-26T07:55:43.000Z</Time>
            <Position>
              <LatitudeDegrees>36.7014017142355442047119140625</LatitudeDegrees>
              <LongitudeDegrees>-4.4375282339751720428466796875</LongitudeDegrees>
            </Position>
            <AltitudeMeters>12.80000019073486328125</AltitudeMeters>
            <DistanceMeters>1175.6322309015</DistanceMeters>
          </Trackpoint>
          <Trackpoint>
            <Time>2022-08-26T07:55:44.000Z</Time>
            <Position>
              <LatitudeDegrees>36.7014087550342082977294921875</LatitudeDegrees>
              <LongitudeDegrees>-4.43753468804061412811279296875</LongitudeDegrees>
            </Position>
            <AltitudeMeters>12.80000019073486328125</AltitudeMeters>
            <DistanceMeters>1176.6059649651</DistanceMeters>
          </Trackpoint>
          <Trackpoint>
            <Time>2022-08-26T07:55:51.000Z</Time>
            <Position>
              <LatitudeDegrees>36.7014851979911327362060546875</LatitudeDegrees>
              <LongitudeDegrees>-4.43762739188969135284423828125</LongitudeDegrees>
            </Position>
            <AltitudeMeters>13</AltitudeMeters>
            <DistanceMeters>1188.473276043</DistanceMeters>
          </Trackpoint>
          <Trackpoint>
            <Time>2022-08-26T07:55:56.000Z</Time>
            <Position>
              <LatitudeDegrees>36.701504476368427276611328125</LatitudeDegrees>
              <LongitudeDegrees>-4.4376204349100589752197265625</LongitudeDegrees>
            </Position>
            <AltitudeMeters>13</AltitudeMeters>
            <DistanceMeters>1190.7058983122</DistanceMeters>
          </Trackpoint>
          <Trackpoint>
            <Time>2022-08-26T07:55:57.000Z</Time>
            <Position>
              <LatitudeDegrees>36.70150824822485446929931640625</LatitudeDegrees>
              <LongitudeDegrees>-4.43761817179620265960693359375</LongitudeDegrees>
            </Position>
            <AltitudeMeters>13</AltitudeMeters>
            <DistanceMeters>1191.1714322365</DistanceMeters>
          </Trackpoint>
          <Trackpoint>
            <Time>2022-08-26T07:56:01.000Z</Time>
            <Position>
              <LatitudeDegrees>36.70150279998779296875</LatitudeDegrees>
              <LongitudeDegrees>-4.43758917041122913360595703125</LongitudeDegrees>
            </Position>
            <AltitudeMeters>13</AltitudeMeters>
            <DistanceMeters>1193.8304827918</DistanceMeters>
          </Trackpoint>
          <Trackpoint>
            <Time>2022-08-26T07:56:03.000Z</Time>
            <Position>
              <LatitudeDegrees>36.70149743556976318359375</LatitudeDegrees>
              <LongitudeDegrees>-4.4375553913414478302001953125</LongitudeDegrees>
            </Position>
            <AltitudeMeters>13</AltitudeMeters>
            <DistanceMeters>1196.9038294954</DistanceMeters>
          </Trackpoint>
          <Trackpoint>
            <Time>2022-08-26T07:56:04.000Z</Time>
            <Position>
              <LatitudeDegrees>36.70149785466492176055908203125</LatitudeDegrees>
              <LongitudeDegrees>-4.43755765445530414581298828125</LongitudeDegrees>
            </Position>
            <AltitudeMeters>13</AltitudeMeters>
            <DistanceMeters>1197.0938829241</DistanceMeters>
          </Trackpoint>
          <Trackpoint>
            <Time>2022-08-26T07:56:05.000Z</Time>
            <Position>
              <LatitudeDegrees>36.701497100293636322021484375</LatitudeDegrees>
              <LongitudeDegrees>-4.43756125867366790771484375</LongitudeDegrees>
            </Position>
            <AltitudeMeters>13</AltitudeMeters>
            <DistanceMeters>1197.4230651189</DistanceMeters>
          </Trackpoint>
          <Trackpoint>
            <Time>2022-08-26T08:02:29.000Z</Time>
            <Position>
              <LatitudeDegrees>36.70222758315503597259521484375</LatitudeDegrees>
              <LongitudeDegrees>-4.43800474517047405242919921875</LongitudeDegrees>
            </Position>
            <AltitudeMeters>9</AltitudeMeters>
            <DistanceMeters>1287.8475625679</DistanceMeters>
          </Trackpoint>
          <Trackpoint>
            <Time>2022-08-26T08:02:30.000Z</Time>
            <Position>
              <LatitudeDegrees>36.70216019265353679656982421875</LatitudeDegrees>
              <LongitudeDegrees>-4.4379821978509426116943359375</LongitudeDegrees>
            </Position>
            <AltitudeMeters>9</AltitudeMeters>
            <DistanceMeters>1295.6130535693</DistanceMeters>
          </Trackpoint>
          <Trackpoint>
            <Time>2022-08-26T08:02:31.000Z</Time>
            <Position>
              <LatitudeDegrees>36.70216253958642482757568359375</LatitudeDegrees>
              <LongitudeDegrees>-4.43798840045928955078125</LongitudeDegrees>
            </Position>
            <AltitudeMeters>9</AltitudeMeters>
            <DistanceMeters>1296.2288970646</DistanceMeters>
          </Trackpoint>
          <Trackpoint>
            <Time>2022-08-26T08:02:38.000Z</Time>
            <Position>
              <LatitudeDegrees>36.70221048407256603240966796875</LatitudeDegrees>
              <LongitudeDegrees>-4.4380700401961803436279296875</LongitudeDegrees>
            </Position>
            <AltitudeMeters>9</AltitudeMeters>
            <DistanceMeters>1305.2594352747</DistanceMeters>
          </Trackpoint>
          <Trackpoint>
            <Time>2022-08-26T08:02:44.000Z</Time>
            <Position>
              <LatitudeDegrees>36.7021842487156391143798828125</LatitudeDegrees>
              <LongitudeDegrees>-4.43800558336079120635986328125</LongitudeDegrees>
            </Position>
            <AltitudeMeters>9</AltitudeMeters>
            <DistanceMeters>1311.7100625507</DistanceMeters>
          </Trackpoint>
          <Trackpoint>
            <Time>2022-08-26T08:02:51.000Z</Time>
            <Position>
              <LatitudeDegrees>36.7022041976451873779296875</LatitudeDegrees>
              <LongitudeDegrees>-4.43792981095612049102783203125</LongitudeDegrees>
            </Position>
            <AltitudeMeters>9</AltitudeMeters>
            <DistanceMeters>1318.8262882848</DistanceMeters>
          </Trackpoint>
          <Trackpoint>
            <Time>2022-08-26T08:02:57.000Z</Time>
            <Position>
              <LatitudeDegrees>36.70217963866889476776123046875</LatitudeDegrees>
              <LongitudeDegrees>-4.4378759153187274932861328125</LongitudeDegrees>
            </Position>
            <AltitudeMeters>9</AltitudeMeters>
            <DistanceMeters>1324.3582797045</DistanceMeters>
          </Trackpoint>
          <Trackpoint>
            <Time>2022-08-26T08:03:01.000Z</Time>
            <Position>
              <LatitudeDegrees>36.702148877084255218505859375</LatitudeDegrees>
              <LongitudeDegrees>-4.43783509545028209686279296875</LongitudeDegrees>
            </Position>
            <AltitudeMeters>9.19999980926513671875</AltitudeMeters>
            <DistanceMeters>1329.3559983285</DistanceMeters>
          </Trackpoint>
          <Trackpoint>
            <Time>2022-08-26T08:03:03.000Z</Time>
            <Position>
              <LatitudeDegrees>36.702159605920314788818359375</LatitudeDegrees>
              <LongitudeDegrees>-4.4378118775784969329833984375</LongitudeDegrees>
            </Position>
            <AltitudeMeters>9.19999980926513671875</AltitudeMeters>
            <DistanceMeters>1331.7487098584</DistanceMeters>
          </Trackpoint>
          <Trackpoint>
            <Time>2022-08-26T08:03:08.000Z</Time>
            <Position>
              <LatitudeDegrees>36.7021694965660572052001953125</LatitudeDegrees>
              <LongitudeDegrees>-4.4377508573234081268310546875</LongitudeDegrees>
            </Position>
            <AltitudeMeters>9.3999996185302734375</AltitudeMeters>
            <DistanceMeters>1337.3026941159</DistanceMeters>
          </Trackpoint>
          <Trackpoint>
            <Time>2022-08-26T08:03:09.000Z</Time>
            <Position>
              <LatitudeDegrees>36.7021728493273258209228515625</LatitudeDegrees>
              <LongitudeDegrees>-4.43774364888668060302734375</LongitudeDegrees>
            </Position>
            <AltitudeMeters>9.3999996185302734375</AltitudeMeters>
            <DistanceMeters>1338.0509352131</DistanceMeters>
          </Trackpoint>
          <Trackpoint>
            <Time>2022-08-26T08:03:12.000Z</Time>
            <Position>
              <LatitudeDegrees>36.70217863284051418304443359375</LatitudeDegrees>
              <LongitudeDegrees>-4.437727890908718109130859375</LongitudeDegrees>
            </Position>
            <AltitudeMeters>9.3999996185302734375</AltitudeMeters>
            <DistanceMeters>1339.5949365671</DistanceMeters>
          </Trackpoint>
          <Trackpoint>
            <Time>2022-08-26T08:03:14.000Z</Time>
            <Position>
              <LatitudeDegrees>36.702186763286590576171875</LatitudeDegrees>
              <LongitudeDegrees>-4.43772797472774982452392578125</LongitudeDegrees>
            </Position>
            <AltitudeMeters>9.3999996185302734375</AltitudeMeters>
            <DistanceMeters>1340.5014336473</DistanceMeters>
          </Trackpoint>
          <Trackpoint>
            <Time>2022-08-26T08:03:21.000Z</Time>
            <Position>
              <LatitudeDegrees>36.70221786014735698699951171875</LatitudeDegrees>
              <LongitudeDegrees>-4.437711797654628753662109375</LongitudeDegrees>
            </Position>
            <AltitudeMeters>9.19999980926513671875</AltitudeMeters>
            <DistanceMeters>1344.2522814314</DistanceMeters>
          </Trackpoint>
          <Trackpoint>
            <Time>2022-08-26T08:03:23.000Z</Time>
            <Position>
              <LatitudeDegrees>36.70222791843116283416748046875</LatitudeDegrees>
              <LongitudeDegrees>-4.43770936690270900726318359375</LongitudeDegrees>
            </Position>
            <AltitudeMeters>9.19999980926513671875</AltitudeMeters>
            <DistanceMeters>1345.3926020039</DistanceMeters>
          </Trackpoint>
          <Trackpoint>
            <Time>2022-08-26T08:03:26.000Z</Time>
            <Position>
              <LatitudeDegrees>36.70228667557239532470703125</LatitudeDegrees>
              <LongitudeDegrees>-4.43769193254411220550537109375</LongitudeDegrees>
            </Position>
            <AltitudeMeters>9</AltitudeMeters>
            <DistanceMeters>1352.1153642786</DistanceMeters>
          </Trackpoint>
          <Trackpoint>
            <Time>2022-08-26T08:03:33.000Z</Time>
            <Position>
              <LatitudeDegrees>36.702342331409454345703125</LatitudeDegrees>
              <LongitudeDegrees>-4.4376335106790065765380859375</LongitudeDegrees>
            </Position>
            <AltitudeMeters>8.80000019073486328125</AltitudeMeters>
            <DistanceMeters>1360.212175687</DistanceMeters>
          </Trackpoint>
          <Trackpoint>
            <Time>2022-08-26T08:03:36.000Z</Time>
            <Position>
              <LatitudeDegrees>36.7023490369319915771484375</LatitudeDegrees>
              <LongitudeDegrees>-4.4375929422676563262939453125</LongitudeDegrees>
            </Position>
            <AltitudeMeters>8.80000019073486328125</AltitudeMeters>
            <DistanceMeters>1363.9084583682</DistanceMeters>
          </Trackpoint>
          <Trackpoint>
            <Time>2022-08-26T08:03:38.000Z</Time>
            <Position>
              <LatitudeDegrees>36.7023609392344951629638671875</LatitudeDegrees>
              <LongitudeDegrees>-4.4375470094382762908935546875</LongitudeDegrees>
            </Position>
            <AltitudeMeters>8.80000019073486328125</AltitudeMeters>
            <DistanceMeters>1368.2162196304</DistanceMeters>
          </Trackpoint>
          <Trackpoint>
            <Time>2022-08-26T08:03:39.000Z</Time>
            <Position>
              <LatitudeDegrees>36.702368147671222686767578125</LatitudeDegrees>
              <LongitudeDegrees>-4.43752211518585681915283203125</LongitudeDegrees>
            </Position>
            <AltitudeMeters>8.6000003814697265625</AltitudeMeters>
            <DistanceMeters>1370.5785462891</DistanceMeters>
          </Trackpoint>
          <Trackpoint>
            <Time>2022-08-26T08:03:46.000Z</Time>
            <Position>
              <LatitudeDegrees>36.70241433195769786834716796875</LatitudeDegrees>
              <LongitudeDegrees>-4.4373969733715057373046875</LongitudeDegrees>
            </Position>
            <AltitudeMeters>8.6000003814697265625</AltitudeMeters>
            <DistanceMeters>1382.8719331034</DistanceMeters>
          </Trackpoint>
          <Trackpoint>
            <Time>2022-08-26T08:03:48.000Z</Time>
            <Position>
              <LatitudeDegrees>36.70239689759910106658935546875</LatitudeDegrees>
              <LongitudeDegrees>-4.43737744353711605072021484375</LongitudeDegrees>
            </Position>
            <AltitudeMeters>8.6000003814697265625</AltitudeMeters>
            <DistanceMeters>1385.4778144296</DistanceMeters>
          </Trackpoint>
          <Trackpoint>
            <Time>2022-08-26T08:03:50.000Z</Time>
            <Position>
              <LatitudeDegrees>36.70237124897539615631103515625</LatitudeDegrees>
              <LongitudeDegrees>-4.43735967390239238739013671875</LongitudeDegrees>
            </Position>
            <AltitudeMeters>8.6000003814697265625</AltitudeMeters>
            <DistanceMeters>1388.7420892654</DistanceMeters>
          </Trackpoint>
          <Trackpoint>
            <Time>2022-08-26T08:03:53.000Z</Time>
            <Position>
              <LatitudeDegrees>36.7023381404578685760498046875</LatitudeDegrees>
              <LongitudeDegrees>-4.43732681684195995330810546875</LongitudeDegrees>
            </Position>
            <AltitudeMeters>8.80000019073486328125</AltitudeMeters>
            <DistanceMeters>1393.4514276209</DistanceMeters>
          </Trackpoint>
          <Trackpoint>
            <Time>2022-08-26T08:03:55.000Z</Time>
            <Position>
              <LatitudeDegrees>36.70231894589960575103759765625</LatitudeDegrees>
              <LongitudeDegrees>-4.43731307052075862884521484375</LongitudeDegrees>
            </Position>
            <AltitudeMeters>8.80000019073486328125</AltitudeMeters>
            <DistanceMeters>1395.9148016019</DistanceMeters>
          </Trackpoint>
          <Trackpoint>
            <Time>2022-08-26T08:03:58.000Z</Time>
            <Position>
              <LatitudeDegrees>36.70229111798107624053955078125</LatitudeDegrees>
              <LongitudeDegrees>-4.4372789561748504638671875</LongitudeDegrees>
            </Position>
            <AltitudeMeters>9</AltitudeMeters>
            <DistanceMeters>1400.2590920811</DistanceMeters>
          </Trackpoint>
          <Trackpoint>
            <Time>2022-08-26T08:04:01.000Z</Time>
            <Position>
              <LatitudeDegrees>36.70226111076772212982177734375</LatitudeDegrees>
              <LongitudeDegrees>-4.437271244823932647705078125</LongitudeDegrees>
            </Position>
            <AltitudeMeters>9.19999980926513671875</AltitudeMeters>
            <DistanceMeters>1403.6694789301</DistanceMeters>
          </Trackpoint>
          <Trackpoint>
            <Time>2022-08-26T08:04:03.000Z</Time>
            <Position>
              <LatitudeDegrees>36.7022358812391757965087890625</LatitudeDegrees>
              <LongitudeDegrees>-4.437258504331111907958984375</LongitudeDegrees>
            </Position>
            <AltitudeMeters>9.3999996185302734375</AltitudeMeters>
            <DistanceMeters>1406.6984321597</DistanceMeters>
          </Trackpoint>
          <Trackpoint>
            <Time>2022-08-26T08:04:05.000Z</Time>
            <Position>
              <LatitudeDegrees>36.70220377855002880096435546875</LatitudeDegrees>
              <LongitudeDegrees>-4.43726730532944202423095703125</LongitudeDegrees>
            </Position>
            <AltitudeMeters>9.3999996185302734375</AltitudeMeters>
            <DistanceMeters>1410.3566521216</DistanceMeters>
          </Trackpoint>
          <Trackpoint>
            <Time>2022-08-26T08:04:06.000Z</Time>
            <Position>
              <LatitudeDegrees>36.702194474637508392333984375</LatitudeDegrees>
              <LongitudeDegrees>-4.43725976161658763885498046875</LongitudeDegrees>
            </Position>
            <AltitudeMeters>9.3999996185302734375</AltitudeMeters>
            <DistanceMeters>1411.5883391121</DistanceMeters>
          </Trackpoint>
          <Trackpoint>
            <Time>2022-08-26T08:04:09.000Z</Time>
            <Position>
              <LatitudeDegrees>36.702161617577075958251953125</LatitudeDegrees>
              <LongitudeDegrees>-4.43724651820957660675048828125</LongitudeDegrees>
            </Position>
            <AltitudeMeters>9.6000003814697265625</AltitudeMeters>
            <DistanceMeters>1415.4319318406</DistanceMeters>
          </Trackpoint>
          <Trackpoint>
            <Time>2022-08-26T08:04:11.000Z</Time>
            <Position>
              <LatitudeDegrees>36.7021396569907665252685546875</LatitudeDegrees>
              <LongitudeDegrees>-4.4372244738042354583740234375</LongitudeDegrees>
            </Position>
            <AltitudeMeters>9.6000003814697265625</AltitudeMeters>
            <DistanceMeters>1418.5692528831</DistanceMeters>
          </Trackpoint>
          <Trackpoint>
            <Time>2022-08-26T08:04:14.000Z</Time>
            <Position>
              <LatitudeDegrees>36.702117361128330230712890625</LatitudeDegrees>
              <LongitudeDegrees>-4.43715230561792850494384765625</LongitudeDegrees>
            </Position>
            <AltitudeMeters>9.6000003814697265625</AltitudeMeters>
            <DistanceMeters>1425.4716208332</DistanceMeters>
          </Trackpoint>
          <Trackpoint>
            <Time>2022-08-26T08:04:18.000Z</Time>
            <Position>
              <LatitudeDegrees>36.7020960710942745208740234375</LatitudeDegrees>
              <LongitudeDegrees>-4.43711408413946628570556640625</LongitudeDegrees>
            </Position>
            <AltitudeMeters>9.6000003814697265625</AltitudeMeters>
            <DistanceMeters>1429.6257123205</DistanceMeters>
          </Trackpoint>
          <Trackpoint>
            <Time>2022-08-26T08:04:19.000Z</Time>
            <Position>
              <LatitudeDegrees>36.70208148658275604248046875</LatitudeDegrees>
              <LongitudeDegrees>-4.437106288969516754150390625</LongitudeDegrees>
            </Position>
            <AltitudeMeters>9.80000019073486328125</AltitudeMeters>
            <DistanceMeters>1431.393311384</DistanceMeters>
          </Trackpoint>
          <Trackpoint>
            <Time>2022-08-26T08:04:20.000Z</Time>
            <Position>
              <LatitudeDegrees>36.7020692490041255950927734375</LatitudeDegrees>
              <LongitudeDegrees>-4.43709732033312320709228515625</LongitudeDegrees>
            </Position>
            <AltitudeMeters>9.80000019073486328125</AltitudeMeters>
            <DistanceMeters>1432.9720137304</DistanceMeters>
          </Trackpoint>
          <Trackpoint>
            <Time>2022-08-26T08:04:22.000Z</Time>
            <Position>
              <LatitudeDegrees>36.702054999768733978271484375</LatitudeDegrees>
              <LongitudeDegrees>-4.437078796327114105224609375</LongitudeDegrees>
            </Position>
            <AltitudeMeters>9.80000019073486328125</AltitudeMeters>
            <DistanceMeters>1435.2645024415</DistanceMeters>
          </Trackpoint>
          <Trackpoint>
            <Time>2022-08-26T08:04:23.000Z</Time>
            <Position>
              <LatitudeDegrees>36.7020390741527080535888671875</LatitudeDegrees>
              <LongitudeDegrees>-4.4370751082897186279296875</LongitudeDegrees>
            </Position>
            <AltitudeMeters>9.80000019073486328125</AltitudeMeters>
            <DistanceMeters>1437.0675075773</DistanceMeters>
          </Trackpoint>
          <Trackpoint>
            <Time>2022-08-26T08:04:25.000Z</Time>
            <Position>
              <LatitudeDegrees>36.70201803557574748992919921875</LatitudeDegrees>
              <LongitudeDegrees>-4.4370746053755283355712890625</LongitudeDegrees>
            </Position>
            <AltitudeMeters>10</AltitudeMeters>
            <DistanceMeters>1439.4106436122</DistanceMeters>
          </Trackpoint>
          <Trackpoint>
            <Time>2022-08-26T08:04:28.000Z</Time>
            <Position>
              <LatitudeDegrees>36.70201619155704975128173828125</LatitudeDegrees>
              <LongitudeDegrees>-4.43704468198120594024658203125</LongitudeDegrees>
            </Position>
            <AltitudeMeters>10</AltitudeMeters>
            <DistanceMeters>1442.0883069026</DistanceMeters>
          </Trackpoint>
          <Trackpoint>
            <Time>2022-08-26T08:04:29.000Z</Time>
            <Position>
              <LatitudeDegrees>36.70201887376606464385986328125</LatitudeDegrees>
              <LongitudeDegrees>-4.43703152239322662353515625</LongitudeDegrees>
            </Position>
            <AltitudeMeters>10</AltitudeMeters>
            <DistanceMeters>1443.3015267756</DistanceMeters>
          </Trackpoint>
          <Trackpoint>
            <Time>2022-08-26T08:04:30.000Z</Time>
            <Position>
              <LatitudeDegrees>36.70201887376606464385986328125</LatitudeDegrees>
              <LongitudeDegrees>-4.4370169378817081451416015625</LongitudeDegrees>
            </Position>
            <AltitudeMeters>10</AltitudeMeters>
            <DistanceMeters>1444.6044674387</DistanceMeters>
          </Trackpoint>
          <Trackpoint>
            <Time>2022-08-26T08:04:32.000Z</Time>
            <Position>
              <LatitudeDegrees>36.7020021937787532806396484375</LatitudeDegrees>
              <LongitudeDegrees>-4.43699288181960582733154296875</LongitudeDegrees>
            </Position>
            <AltitudeMeters>10</AltitudeMeters>
            <DistanceMeters>1447.4425703593</DistanceMeters>
          </Trackpoint>
          <Trackpoint>
            <Time>2022-08-26T08:04:34.000Z</Time>
            <Position>
              <LatitudeDegrees>36.70197981409728527069091796875</LatitudeDegrees>
              <LongitudeDegrees>-4.43697863258421421051025390625</LongitudeDegrees>
            </Position>
            <AltitudeMeters>10.19999980926513671875</AltitudeMeters>
            <DistanceMeters>1450.2390049107</DistanceMeters>
          </Trackpoint>
          <Trackpoint>
            <Time>2022-08-26T08:04:36.000Z</Time>
            <Position>
              <LatitudeDegrees>36.7019735276699066162109375</LatitudeDegrees>
              <LongitudeDegrees>-4.43695147521793842315673828125</LongitudeDegrees>
            </Position>
            <AltitudeMeters>10.19999980926513671875</AltitudeMeters>
            <DistanceMeters>1452.7639274778</DistanceMeters>
          </Trackpoint>
          <Trackpoint>
            <Time>2022-08-26T08:04:38.000Z</Time>
            <Position>
              <LatitudeDegrees>36.70196573249995708465576171875</LatitudeDegrees>
              <LongitudeDegrees>-4.43692423403263092041015625</LongitudeDegrees>
            </Position>
            <AltitudeMeters>10.19999980926513671875</AltitudeMeters>
            <DistanceMeters>1455.3436883851</DistanceMeters>
          </Trackpoint>
          <Trackpoint>
            <Time>2022-08-26T08:04:39.000Z</Time>
            <Position>
              <LatitudeDegrees>36.7019586078822612762451171875</LatitudeDegrees>
              <LongitudeDegrees>-4.43691425956785678863525390625</LongitudeDegrees>
            </Position>
            <AltitudeMeters>10</AltitudeMeters>
            <DistanceMeters>1456.5305716672</DistanceMeters>
          </Trackpoint>
          <Trackpoint>
            <Time>2022-08-26T08:04:41.000Z</Time>
            <Position>
              <LatitudeDegrees>36.7019421793520450592041015625</LatitudeDegrees>
              <LongitudeDegrees>-4.43689749576151371002197265625</LongitudeDegrees>
            </Position>
            <AltitudeMeters>10</AltitudeMeters>
            <DistanceMeters>1458.8928983259</DistanceMeters>
          </Trackpoint>
          <Trackpoint>
            <Time>2022-08-26T08:04:45.000Z</Time>
            <Position>
              <LatitudeDegrees>36.70194343663752079010009765625</LatitudeDegrees>
              <LongitudeDegrees>-4.4368157722055912017822265625</LongitudeDegrees>
            </Position>
            <AltitudeMeters>9.3999996185302734375</AltitudeMeters>
            <DistanceMeters>1466.1864694904</DistanceMeters>
          </Trackpoint>
          <Trackpoint>
            <Time>2022-08-26T08:04:46.000Z</Time>
            <Position>
              <LatitudeDegrees>36.7019388265907764434814453125</LatitudeDegrees>
              <LongitudeDegrees>-4.43678836338222026824951171875</LongitudeDegrees>
            </Position>
            <AltitudeMeters>9.19999980926513671875</AltitudeMeters>
            <DistanceMeters>1468.6862320589</DistanceMeters>
          </Trackpoint>
          <Trackpoint>
            <Time>2022-08-26T08:04:55.000Z</Time>
            <Position>
              <LatitudeDegrees>36.70197419822216033935546875</LatitudeDegrees>
              <LongitudeDegrees>-4.43664855323731899261474609375</LongitudeDegrees>
            </Position>
            <AltitudeMeters>8.19999980926513671875</AltitudeMeters>
            <DistanceMeters>1481.7688949728</DistanceMeters>
          </Trackpoint>
          <Trackpoint>
            <Time>2022-08-26T08:04:56.000Z</Time>
            <Position>
              <LatitudeDegrees>36.70199657790362834930419921875</LatitudeDegrees>
              <LongitudeDegrees>-4.4366363994777202606201171875</LongitudeDegrees>
            </Position>
            <AltitudeMeters>8</AltitudeMeters>
            <DistanceMeters>1484.4867254553</DistanceMeters>
          </Trackpoint>
          <Trackpoint>
            <Time>2022-08-26T08:04:57.000Z</Time>
            <Position>
              <LatitudeDegrees>36.7020176164805889129638671875</LatitudeDegrees>
              <LongitudeDegrees>-4.43662441335618495941162109375</LongitudeDegrees>
            </Position>
            <AltitudeMeters>8</AltitudeMeters>
            <DistanceMeters>1487.0612304776</DistanceMeters>
          </Trackpoint>
          <Trackpoint>
            <Time>2022-08-26T08:04:59.000Z</Time>
            <Position>
              <LatitudeDegrees>36.70204603113234043121337890625</LatitudeDegrees>
              <LongitudeDegrees>-4.43659055046737194061279296875</LongitudeDegrees>
            </Position>
            <AltitudeMeters>8</AltitudeMeters>
            <DistanceMeters>1491.4345246488</DistanceMeters>
          </Trackpoint>
          <Trackpoint>
            <Time>2022-08-26T08:05:00.000Z</Time>
            <Position>
              <LatitudeDegrees>36.7020591907203197479248046875</LatitudeDegrees>
              <LongitudeDegrees>-4.43658267147839069366455078125</LongitudeDegrees>
            </Position>
            <AltitudeMeters>8</AltitudeMeters>
            <DistanceMeters>1493.0583418558</DistanceMeters>
          </Trackpoint>
          <Trackpoint>
            <Time>2022-08-26T08:05:03.000Z</Time>
            <Position>
              <LatitudeDegrees>36.70210269279778003692626953125</LatitudeDegrees>
              <LongitudeDegrees>-4.436569176614284515380859375</LongitudeDegrees>
            </Position>
            <AltitudeMeters>8</AltitudeMeters>
            <DistanceMeters>1498.0488278875</DistanceMeters>
          </Trackpoint>
          <Trackpoint>
            <Time>2022-08-26T08:05:07.000Z</Time>
            <Position>
              <LatitudeDegrees>36.70213923789560794830322265625</LatitudeDegrees>
              <LongitudeDegrees>-4.43654604256153106689453125</LongitudeDegrees>
            </Position>
            <AltitudeMeters>8.19999980926513671875</AltitudeMeters>
            <DistanceMeters>1502.6101101772</DistanceMeters>
          </Trackpoint>
          <Trackpoint>
            <Time>2022-08-26T08:05:08.000Z</Time>
            <Position>
              <LatitudeDegrees>36.7021463625133037567138671875</LatitudeDegrees>
              <LongitudeDegrees>-4.43653657101094722747802734375</LongitudeDegrees>
            </Position>
            <AltitudeMeters>8.19999980926513671875</AltitudeMeters>
            <DistanceMeters>1503.7661600523</DistanceMeters>
          </Trackpoint>
          <Trackpoint>
            <Time>2022-08-26T08:05:12.000Z</Time>
            <Position>
              <LatitudeDegrees>36.702196486294269561767578125</LatitudeDegrees>
              <LongitudeDegrees>-4.4365022890269756317138671875</LongitudeDegrees>
            </Position>
            <AltitudeMeters>8.19999980926513671875</AltitudeMeters>
            <DistanceMeters>1510.1279838963</DistanceMeters>
          </Trackpoint>
          <Trackpoint>
            <Time>2022-08-26T08:05:13.000Z</Time>
            <Position>
              <LatitudeDegrees>36.70220813713967800140380859375</LatitudeDegrees>
              <LongitudeDegrees>-4.43649348802864551544189453125</LongitudeDegrees>
            </Position>
            <AltitudeMeters>8.19999980926513671875</AltitudeMeters>
            <DistanceMeters>1511.6424605111</DistanceMeters>
          </Trackpoint>
          <Trackpoint>
            <Time>2022-08-26T08:05:16.000Z</Time>
            <Position>
              <LatitudeDegrees>36.70224451459944248199462890625</LatitudeDegrees>
              <LongitudeDegrees>-4.4364670850336551666259765625</LongitudeDegrees>
            </Position>
            <AltitudeMeters>8.19999980926513671875</AltitudeMeters>
            <DistanceMeters>1516.3268052634</DistanceMeters>
          </Trackpoint>
          <Trackpoint>
            <Time>2022-08-26T08:05:17.000Z</Time>
            <Position>
              <LatitudeDegrees>36.70225323177874088287353515625</LatitudeDegrees>
              <LongitudeDegrees>-4.436457864940166473388671875</LongitudeDegrees>
            </Position>
            <AltitudeMeters>8.19999980926513671875</AltitudeMeters>
            <DistanceMeters>1517.6017224215</DistanceMeters>
          </Trackpoint>
          <Trackpoint>
            <Time>2022-08-26T08:05:18.000Z</Time>
            <Position>
              <LatitudeDegrees>36.7022620327770709991455078125</LatitudeDegrees>
              <LongitudeDegrees>-4.436448477208614349365234375</LongitudeDegrees>
            </Position>
            <AltitudeMeters>8.19999980926513671875</AltitudeMeters>
            <DistanceMeters>1518.8942254745</DistanceMeters>
          </Trackpoint>
          <Trackpoint>
            <Time>2022-08-26T08:05:20.000Z</Time>
            <Position>
              <LatitudeDegrees>36.7022792994976043701171875</LatitudeDegrees>
              <LongitudeDegrees>-4.43643347360193729400634765625</LongitudeDegrees>
            </Position>
            <AltitudeMeters>8.19999980926513671875</AltitudeMeters>
            <DistanceMeters>1521.2392876388</DistanceMeters>
          </Trackpoint>
          <Trackpoint>
            <Time>2022-08-26T08:05:24.000Z</Time>
            <Position>
              <LatitudeDegrees>36.70232531614601612091064453125</LatitudeDegrees>
              <LongitudeDegrees>-4.43639139644801616668701171875</LongitudeDegrees>
            </Position>
            <AltitudeMeters>8</AltitudeMeters>
            <DistanceMeters>1527.5897460001</DistanceMeters>
          </Trackpoint>
          <Trackpoint>
            <Time>2022-08-26T08:05:27.000Z</Time>
            <Position>
              <LatitudeDegrees>36.702345348894596099853515625</LatitudeDegrees>
              <LongitudeDegrees>-4.43636457435786724090576171875</LongitudeDegrees>
            </Position>
            <AltitudeMeters>8</AltitudeMeters>
            <DistanceMeters>1530.8609293619</DistanceMeters>
          </Trackpoint>
          <Trackpoint>
            <Time>2022-08-26T08:05:34.000Z</Time>
            <Position>
              <LatitudeDegrees>36.7024142481386661529541015625</LatitudeDegrees>
              <LongitudeDegrees>-4.4362920708954334259033203125</LongitudeDegrees>
            </Position>
            <AltitudeMeters>8</AltitudeMeters>
            <DistanceMeters>1540.8942384968</DistanceMeters>
          </Trackpoint>
          <Trackpoint>
            <Time>2022-08-26T08:05:36.000Z</Time>
            <Position>
              <LatitudeDegrees>36.70243444852530956268310546875</LatitudeDegrees>
              <LongitudeDegrees>-4.4362655840814113616943359375</LongitudeDegrees>
            </Position>
            <AltitudeMeters>8</AltitudeMeters>
            <DistanceMeters>1544.1557458249</DistanceMeters>
          </Trackpoint>
          <Trackpoint>
            <Time>2022-08-26T08:05:43.000Z</Time>
            <Position>
              <LatitudeDegrees>36.702488847076892852783203125</LatitudeDegrees>
              <LongitudeDegrees>-4.4362072460353374481201171875</LongitudeDegrees>
            </Position>
            <AltitudeMeters>8</AltitudeMeters>
            <DistanceMeters>1552.1408175071</DistanceMeters>
          </Trackpoint>
          <Trackpoint>
            <Time>2022-08-26T08:05:45.000Z</Time>
            <Position>
              <LatitudeDegrees>36.702505610883235931396484375</LatitudeDegrees>
              <LongitudeDegrees>-4.43618922494351863861083984375</LongitudeDegrees>
            </Position>
            <AltitudeMeters>8</AltitudeMeters>
            <DistanceMeters>1554.6078544998</DistanceMeters>
          </Trackpoint>
          <Trackpoint>
            <Time>2022-08-26T08:05:51.000Z</Time>
            <Position>
              <LatitudeDegrees>36.70257660560309886932373046875</LatitudeDegrees>
              <LongitudeDegrees>-4.43613943643867969512939453125</LongitudeDegrees>
            </Position>
            <AltitudeMeters>8</AltitudeMeters>
            <DistanceMeters>1563.6728253017</DistanceMeters>
          </Trackpoint>
          <Trackpoint>
            <Time>2022-08-26T08:05:52.000Z</Time>
            <Position>
              <LatitudeDegrees>36.7025906033813953399658203125</LatitudeDegrees>
              <LongitudeDegrees>-4.43613692186772823333740234375</LongitudeDegrees>
            </Position>
            <AltitudeMeters>8</AltitudeMeters>
            <DistanceMeters>1565.2457973122</DistanceMeters>
          </Trackpoint>
          <Trackpoint>
            <Time>2022-08-26T08:05:55.000Z</Time>
            <Position>
              <LatitudeDegrees>36.70261197723448276519775390625</LatitudeDegrees>
              <LongitudeDegrees>-4.4361033104360103607177734375</LongitudeDegrees>
            </Position>
            <AltitudeMeters>8</AltitudeMeters>
            <DistanceMeters>1569.0740885849</DistanceMeters>
          </Trackpoint>
          <Trackpoint>
            <Time>2022-08-26T08:05:57.000Z</Time>
            <Position>
              <LatitudeDegrees>36.70262672938406467437744140625</LatitudeDegrees>
              <LongitudeDegrees>-4.43607975728809833526611328125</LongitudeDegrees>
            </Position>
            <AltitudeMeters>8</AltitudeMeters>
            <DistanceMeters>1571.741615574</DistanceMeters>
          </Trackpoint>
          <Trackpoint>
            <Time>2022-08-26T08:06:04.000Z</Time>
            <Position>
              <LatitudeDegrees>36.702697388827800750732421875</LatitudeDegrees>
              <LongitudeDegrees>-4.43601152859628200531005859375</LongitudeDegrees>
            </Position>
            <AltitudeMeters>8.19999980926513671875</AltitudeMeters>
            <DistanceMeters>1581.6872406105</DistanceMeters>
          </Trackpoint>
          <Trackpoint>
            <Time>2022-08-26T08:06:05.000Z</Time>
            <Position>
              <LatitudeDegrees>36.70270702801644802093505859375</LatitudeDegrees>
              <LongitudeDegrees>-4.4360027275979518890380859375</LongitudeDegrees>
            </Position>
            <AltitudeMeters>8.3999996185302734375</AltitudeMeters>
            <DistanceMeters>1583.0176146117</DistanceMeters>
          </Trackpoint>
          <Trackpoint>
            <Time>2022-08-26T08:06:12.000Z</Time>
            <Position>
              <LatitudeDegrees>36.70275664888322353363037109375</LatitudeDegrees>
              <LongitudeDegrees>-4.43592804484069347381591796875</LongitudeDegrees>
            </Position>
            <AltitudeMeters>8.6000003814697265625</AltitudeMeters>
            <DistanceMeters>1591.6733955849</DistanceMeters>
          </Trackpoint>
          <Trackpoint>
            <Time>2022-08-26T08:06:22.000Z</Time>
            <Position>
              <LatitudeDegrees>36.70285505242645740509033203125</LatitudeDegrees>
              <LongitudeDegrees>-4.43582746200263500213623046875</LongitudeDegrees>
            </Position>
            <AltitudeMeters>8.80000019073486328125</AltitudeMeters>
            <DistanceMeters>1605.8336514949</DistanceMeters>
          </Trackpoint>
          <Trackpoint>
            <Time>2022-08-26T08:06:33.000Z</Time>
            <Position>
              <LatitudeDegrees>36.70298363082110881805419921875</LatitudeDegrees>
              <LongitudeDegrees>-4.43573190830647945404052734375</LongitudeDegrees>
            </Position>
            <AltitudeMeters>8.80000019073486328125</AltitudeMeters>
            <DistanceMeters>1622.4926232325</DistanceMeters>
          </Trackpoint>
          <Trackpoint>
            <Time>2022-08-26T08:06:36.000Z</Time>
            <Position>
              <LatitudeDegrees>36.70301062054932117462158203125</LatitudeDegrees>
              <LongitudeDegrees>-4.43571480922400951385498046875</LongitudeDegrees>
            </Position>
            <AltitudeMeters>8.80000019073486328125</AltitudeMeters>
            <DistanceMeters>1625.8630588373</DistanceMeters>
          </Trackpoint>
          <Trackpoint>
            <Time>2022-08-26T08:06:40.000Z</Time>
            <Position>
              <LatitudeDegrees>36.70303308404982089996337890625</LatitudeDegrees>
              <LongitudeDegrees>-4.435684718191623687744140625</LongitudeDegrees>
            </Position>
            <AltitudeMeters>8.80000019073486328125</AltitudeMeters>
            <DistanceMeters>1629.5311392483</DistanceMeters>
          </Trackpoint>
          <Trackpoint>
            <Time>2022-08-26T08:06:45.000Z</Time>
            <Position>
              <LatitudeDegrees>36.703046746551990509033203125</LatitudeDegrees>
              <LongitudeDegrees>-4.43564892746508121490478515625</LongitudeDegrees>
            </Position>
            <AltitudeMeters>8.80000019073486328125</AltitudeMeters>
            <DistanceMeters>1633.0676143118</DistanceMeters>
          </Trackpoint>
          <Trackpoint>
            <Time>2022-08-26T08:06:47.000Z</Time>
            <Position>
              <LatitudeDegrees>36.7030586488544940948486328125</LatitudeDegrees>
              <LongitudeDegrees>-4.43562612868845462799072265625</LongitudeDegrees>
            </Position>
            <AltitudeMeters>8.80000019073486328125</AltitudeMeters>
            <DistanceMeters>1635.4940540579</DistanceMeters>
          </Trackpoint>
          <Trackpoint>
            <Time>2022-08-26T08:06:49.000Z</Time>
            <Position>
              <LatitudeDegrees>36.70307482592761516571044921875</LatitudeDegrees>
              <LongitudeDegrees>-4.4356003962457180023193359375</LongitudeDegrees>
            </Position>
            <AltitudeMeters>9</AltitudeMeters>
            <DistanceMeters>1638.41371023</DistanceMeters>
          </Trackpoint>
          <Trackpoint>
            <Time>2022-08-26T08:06:53.000Z</Time>
            <Position>
              <LatitudeDegrees>36.703100390732288360595703125</LatitudeDegrees>
              <LongitudeDegrees>-4.4355444051325321197509765625</LongitudeDegrees>
            </Position>
            <AltitudeMeters>9</AltitudeMeters>
            <DistanceMeters>1644.1642006385</DistanceMeters>
          </Trackpoint>
          <Trackpoint>
            <Time>2022-08-26T08:06:54.000Z</Time>
            <Position>
              <LatitudeDegrees>36.70309645123779773712158203125</LatitudeDegrees>
              <LongitudeDegrees>-4.4355353526771068572998046875</LongitudeDegrees>
            </Position>
            <AltitudeMeters>9.19999980926513671875</AltitudeMeters>
            <DistanceMeters>1645.0855188168</DistanceMeters>
          </Trackpoint>
          <Trackpoint>
            <Time>2022-08-26T08:06:55.000Z</Time>
            <Position>
              <LatitudeDegrees>36.70309209264814853668212890625</LatitudeDegrees>
              <LongitudeDegrees>-4.43552269600331783294677734375</LongitudeDegrees>
            </Position>
            <AltitudeMeters>9.3999996185302734375</AltitudeMeters>
            <DistanceMeters>1646.313534601</DistanceMeters>
          </Trackpoint>
          <Trackpoint>
            <Time>2022-08-26T08:06:57.000Z</Time>
            <Position>
              <LatitudeDegrees>36.70309133827686309814453125</LatitudeDegrees>
              <LongitudeDegrees>-4.43552412092685699462890625</LongitudeDegrees>
            </Position>
            <AltitudeMeters>9.3999996185302734375</AltitudeMeters>
            <DistanceMeters>1646.4781256983</DistanceMeters>
          </Trackpoint>
          <Trackpoint>
            <Time>2022-08-26T08:06:59.000Z</Time>
            <Position>
              <LatitudeDegrees>36.70311505906283855438232421875</LatitudeDegrees>
              <LongitudeDegrees>-4.43552554585039615631103515625</LongitudeDegrees>
            </Position>
            <AltitudeMeters>9.19999980926513671875</AltitudeMeters>
            <DistanceMeters>1649.1218501862</DistanceMeters>
          </Trackpoint>
          <Trackpoint>
            <Time>2022-08-26T08:07:03.000Z</Time>
            <Position>
              <LatitudeDegrees>36.70313634909689426422119140625</LatitudeDegrees>
              <LongitudeDegrees>-4.43552068434655666351318359375</LongitudeDegrees>
            </Position>
            <AltitudeMeters>9.19999980926513671875</AltitudeMeters>
            <DistanceMeters>1651.5296103646</DistanceMeters>
          </Trackpoint>
          <Trackpoint>
            <Time>2022-08-26T08:07:04.000Z</Time>
            <Position>
              <LatitudeDegrees>36.70313752256333827972412109375</LatitudeDegrees>
              <LongitudeDegrees>-4.43551330827176570892333984375</LongitudeDegrees>
            </Position>
            <AltitudeMeters>9.19999980926513671875</AltitudeMeters>
            <DistanceMeters>1652.2015507059</DistanceMeters>
          </Trackpoint>
          <Trackpoint>
            <Time>2022-08-26T08:07:06.000Z</Time>
            <Position>
              <LatitudeDegrees>36.7031619139015674591064453125</LatitudeDegrees>
              <LongitudeDegrees>-4.43550643511116504669189453125</LongitudeDegrees>
            </Position>
            <AltitudeMeters>9.19999980926513671875</AltitudeMeters>
            <DistanceMeters>1654.9850387315</DistanceMeters>
          </Trackpoint>
          <Trackpoint>
            <Time>2022-08-26T08:07:07.000Z</Time>
            <Position>
              <LatitudeDegrees>36.70315914787352085113525390625</LatitudeDegrees>
              <LongitudeDegrees>-4.435488916933536529541015625</LongitudeDegrees>
            </Position>
            <AltitudeMeters>9.3999996185302734375</AltitudeMeters>
            <DistanceMeters>1656.5779767343</DistanceMeters>
          </Trackpoint>
          <Trackpoint>
            <Time>2022-08-26T08:07:11.000Z</Time>
            <Position>
              <LatitudeDegrees>36.7032417096197605133056640625</LatitudeDegrees>
              <LongitudeDegrees>-4.43545044399797916412353515625</LongitudeDegrees>
            </Position>
            <AltitudeMeters>9.80000019073486328125</AltitudeMeters>
            <DistanceMeters>1666.3873852071</DistanceMeters>
          </Trackpoint>
          <Trackpoint>
            <Time>2022-08-26T08:07:12.000Z</Time>
            <Position>
              <LatitudeDegrees>36.70326878316700458526611328125</LatitudeDegrees>
              <LongitudeDegrees>-4.43544633686542510986328125</LongitudeDegrees>
            </Position>
            <AltitudeMeters>9.80000019073486328125</AltitudeMeters>
            <DistanceMeters>1669.422295086</DistanceMeters>
          </Trackpoint>
          <Trackpoint>
            <Time>2022-08-26T08:07:15.000Z</Time>
            <Position>
              <LatitudeDegrees>36.70335679315030574798583984375</LatitudeDegrees>
              <LongitudeDegrees>-4.4354294054210186004638671875</LongitudeDegrees>
            </Position>
            <AltitudeMeters>10.19999980926513671875</AltitudeMeters>
            <DistanceMeters>1679.3338137201</DistanceMeters>
          </Trackpoint>
          <Trackpoint>
            <Time>2022-08-26T08:07:20.000Z</Time>
            <Position>
              <LatitudeDegrees>36.70343558304011821746826171875</LatitudeDegrees>
              <LongitudeDegrees>-4.4353663735091686248779296875</LongitudeDegrees>
            </Position>
            <AltitudeMeters>10.6000003814697265625</AltitudeMeters>
            <DistanceMeters>1689.751273041</DistanceMeters>
          </Trackpoint>
          <Trackpoint>
            <Time>2022-08-26T08:07:24.000Z</Time>
            <Position>
              <LatitudeDegrees>36.70356013812124729156494140625</LatitudeDegrees>
              <LongitudeDegrees>-4.4353740848600864410400390625</LongitudeDegrees>
            </Position>
            <AltitudeMeters>10.6000003814697265625</AltitudeMeters>
            <DistanceMeters>1703.6316804921</DistanceMeters>
          </Trackpoint>
          <Trackpoint>
            <Time>2022-08-26T08:07:25.000Z</Time>
            <Position>
              <LatitudeDegrees>36.7035753093659877777099609375</LatitudeDegrees>
              <LongitudeDegrees>-4.43536612205207347869873046875</LongitudeDegrees>
            </Position>
            <AltitudeMeters>10.6000003814697265625</AltitudeMeters>
            <DistanceMeters>1705.4644893848</DistanceMeters>
          </Trackpoint>
          <Trackpoint>
            <Time>2022-08-26T08:07:26.000Z</Time>
            <Position>
              <LatitudeDegrees>36.7035977728664875030517578125</LatitudeDegrees>
              <LongitudeDegrees>-4.43536159582436084747314453125</LongitudeDegrees>
            </Position>
            <AltitudeMeters>10.6000003814697265625</AltitudeMeters>
            <DistanceMeters>1707.9983371213</DistanceMeters>
          </Trackpoint>
          <Trackpoint>
            <Time>2022-08-26T08:07:29.000Z</Time>
            <Position>
              <LatitudeDegrees>36.70364865101873874664306640625</LatitudeDegrees>
              <LongitudeDegrees>-4.4353361986577510833740234375</LongitudeDegrees>
            </Position>
            <AltitudeMeters>10.6000003814697265625</AltitudeMeters>
            <DistanceMeters>1714.0978383262</DistanceMeters>
          </Trackpoint>
          <Trackpoint>
            <Time>2022-08-26T08:07:30.000Z</Time>
            <Position>
              <LatitudeDegrees>36.70367714948952198028564453125</LatitudeDegrees>
              <LongitudeDegrees>-4.43532052449882030487060546875</LongitudeDegrees>
            </Position>
            <AltitudeMeters>10.3999996185302734375</AltitudeMeters>
            <DistanceMeters>1717.5633832575</DistanceMeters>
          </Trackpoint>
          <Trackpoint>
            <Time>2022-08-26T08:07:32.000Z</Time>
            <Position>
              <LatitudeDegrees>36.70369257219135761260986328125</LatitudeDegrees>
              <LongitudeDegrees>-4.4353063590824604034423828125</LongitudeDegrees>
            </Position>
            <AltitudeMeters>10.3999996185302734375</AltitudeMeters>
            <DistanceMeters>1719.6946102401</DistanceMeters>
          </Trackpoint>
          <Trackpoint>
            <Time>2022-08-26T08:07:34.000Z</Time>
            <Position>
              <LatitudeDegrees>36.7037556879222393035888671875</LatitudeDegrees>
              <LongitudeDegrees>-4.4353234581649303436279296875</LongitudeDegrees>
            </Position>
            <AltitudeMeters>10</AltitudeMeters>
            <DistanceMeters>1726.8828017659</DistanceMeters>
          </Trackpoint>
          <Trackpoint>
            <Time>2022-08-26T08:07:36.000Z</Time>
            <Position>
              <LatitudeDegrees>36.70381025411188602447509765625</LatitudeDegrees>
              <LongitudeDegrees>-4.4353355281054973602294921875</LongitudeDegrees>
            </Position>
            <AltitudeMeters>9.3999996185302734375</AltitudeMeters>
            <DistanceMeters>1733.0514922376</DistanceMeters>
          </Trackpoint>
          <Trackpoint>
            <Time>2022-08-26T08:07:37.000Z</Time>
            <Position>
              <LatitudeDegrees>36.7038287781178951263427734375</LatitudeDegrees>
              <LongitudeDegrees>-4.43533259443938732147216796875</LongitudeDegrees>
            </Position>
            <AltitudeMeters>9.3999996185302734375</AltitudeMeters>
            <DistanceMeters>1735.1312534298</DistanceMeters>
          </Trackpoint>
          <Trackpoint>
            <Time>2022-08-26T08:07:38.000Z</Time>
            <Position>
              <LatitudeDegrees>36.70383539982140064239501953125</LatitudeDegrees>
              <LongitudeDegrees>-4.43531935103237628936767578125</LongitudeDegrees>
            </Position>
            <AltitudeMeters>9.3999996185302734375</AltitudeMeters>
            <DistanceMeters>1736.5278552026</DistanceMeters>
          </Trackpoint>
          <Trackpoint>
            <Time>2022-08-26T08:07:41.000Z</Time>
            <Position>
              <LatitudeDegrees>36.70385182835161685943603515625</LatitudeDegrees>
              <LongitudeDegrees>-4.4352818839251995086669921875</LongitudeDegrees>
            </Position>
            <AltitudeMeters>9.6000003814697265625</AltitudeMeters>
            <DistanceMeters>1740.3384146001</DistanceMeters>
          </Trackpoint>
          <Trackpoint>
            <Time>2022-08-26T08:07:42.000Z</Time>
            <Position>
              <LatitudeDegrees>36.70387026853859424591064453125</LatitudeDegrees>
              <LongitudeDegrees>-4.4352792017161846160888671875</LongitudeDegrees>
            </Position>
            <AltitudeMeters>9.3999996185302734375</AltitudeMeters>
            <DistanceMeters>1742.4029232781</DistanceMeters>
          </Trackpoint>
          <Trackpoint>
            <Time>2022-08-26T08:07:43.000Z</Time>
            <Position>
              <LatitudeDegrees>36.70388317666947841644287109375</LatitudeDegrees>
              <LongitudeDegrees>-4.43527325056493282318115234375</LongitudeDegrees>
            </Position>
            <AltitudeMeters>9.3999996185302734375</AltitudeMeters>
            <DistanceMeters>1743.9322335145</DistanceMeters>
          </Trackpoint>
          <Trackpoint>
            <Time>2022-08-26T08:07:45.000Z</Time>
            <Position>
              <LatitudeDegrees>36.703880913555622100830078125</LatitudeDegrees>
              <LongitudeDegrees>-4.435235448181629180908203125</LongitudeDegrees>
            </Position>
            <AltitudeMeters>9.6000003814697265625</AltitudeMeters>
            <DistanceMeters>1747.3147040398</DistanceMeters>
          </Trackpoint>
          <Trackpoint>
            <Time>2022-08-26T08:07:46.000Z</Time>
            <Position>
              <LatitudeDegrees>36.7038817517459392547607421875</LatitudeDegrees>
              <LongitudeDegrees>-4.43520938046276569366455078125</LongitudeDegrees>
            </Position>
            <AltitudeMeters>9.6000003814697265625</AltitudeMeters>
            <DistanceMeters>1749.6423736612</DistanceMeters>
          </Trackpoint>
          <Trackpoint>
            <Time>2022-08-26T08:07:47.000Z</Time>
            <Position>
              <LatitudeDegrees>36.70388435013592243194580078125</LatitudeDegrees>
              <LongitudeDegrees>-4.43518339656293392181396484375</LongitudeDegrees>
            </Position>
            <AltitudeMeters>9.80000019073486328125</AltitudeMeters>
            <DistanceMeters>1751.9777892927</DistanceMeters>
          </Trackpoint>
          <Trackpoint>
            <Time>2022-08-26T08:07:53.000Z</Time>
            <Position>
              <LatitudeDegrees>36.70389072038233280181884765625</LatitudeDegrees>
              <LongitudeDegrees>-4.43507627584040164947509765625</LongitudeDegrees>
            </Position>
            <AltitudeMeters>10</AltitudeMeters>
            <DistanceMeters>1761.5627774378</DistanceMeters>
          </Trackpoint>
          <Trackpoint>
            <Time>2022-08-26T08:07:55.000Z</Time>
            <Position>
              <LatitudeDegrees>36.70389608480036258697509765625</LatitudeDegrees>
              <LongitudeDegrees>-4.435047022998332977294921875</LongitudeDegrees>
            </Position>
            <AltitudeMeters>10.19999980926513671875</AltitudeMeters>
            <DistanceMeters>1764.2404407281</DistanceMeters>
          </Trackpoint>
          <Trackpoint>
            <Time>2022-08-26T08:07:58.000Z</Time>
            <Position>
              <LatitudeDegrees>36.7039052210748195648193359375</LatitudeDegrees>
              <LongitudeDegrees>-4.43500704132020473480224609375</LongitudeDegrees>
            </Position>
            <AltitudeMeters>10.19999980926513671875</AltitudeMeters>
            <DistanceMeters>1767.9501356618</DistanceMeters>
          </Trackpoint>
          <Trackpoint>
            <Time>2022-08-26T08:08:01.000Z</Time>
            <Position>
              <LatitudeDegrees>36.7039286904036998748779296875</LatitudeDegrees>
              <LongitudeDegrees>-4.43497150205075740814208984375</LongitudeDegrees>
            </Position>
            <AltitudeMeters>10</AltitudeMeters>
            <DistanceMeters>1772.0594230635</DistanceMeters>
          </Trackpoint>
          <Trackpoint>
            <Time>2022-08-26T08:08:07.000Z</Time>
            <Position>
              <LatitudeDegrees>36.70397588051855564117431640625</LatitudeDegrees>
              <LongitudeDegrees>-4.434911906719207763671875</LongitudeDegrees>
            </Position>
            <AltitudeMeters>9.3999996185302734375</AltitudeMeters>
            <DistanceMeters>1779.5333813777</DistanceMeters>
          </Trackpoint>
          <Trackpoint>
            <Time>2022-08-26T08:08:08.000Z</Time>
            <Position>
              <LatitudeDegrees>36.7039771378040313720703125</LatitudeDegrees>
              <LongitudeDegrees>-4.434902854263782501220703125</LongitudeDegrees>
            </Position>
            <AltitudeMeters>9.3999996185302734375</AltitudeMeters>
            <DistanceMeters>1780.3508320838</DistanceMeters>
          </Trackpoint>
          <Trackpoint>
            <Time>2022-08-26T08:08:11.000Z</Time>
            <Position>
              <LatitudeDegrees>36.703963391482830047607421875</LatitudeDegrees>
              <LongitudeDegrees>-4.43489355035126209259033203125</LongitudeDegrees>
            </Position>
            <AltitudeMeters>9.3999996185302734375</AltitudeMeters>
            <DistanceMeters>1782.0875086605</DistanceMeters>
          </Trackpoint>
          <Trackpoint>
            <Time>2022-08-26T08:08:17.000Z</Time>
            <Position>
              <LatitudeDegrees>36.70391988940536975860595703125</LatitudeDegrees>
              <LongitudeDegrees>-4.4348929636180400848388671875</LongitudeDegrees>
            </Position>
            <AltitudeMeters>9.6000003814697265625</AltitudeMeters>
            <DistanceMeters>1786.9292106803</DistanceMeters>
          </Trackpoint>
          <Trackpoint>
            <Time>2022-08-26T08:08:20.000Z</Time>
            <Position>
              <LatitudeDegrees>36.70392014086246490478515625</LatitudeDegrees>
              <LongitudeDegrees>-4.43490042351186275482177734375</LongitudeDegrees>
            </Position>
            <AltitudeMeters>9.6000003814697265625</AltitudeMeters>
            <DistanceMeters>1787.5875750698</DistanceMeters>
          </Trackpoint>
          <Trackpoint>
            <Time>2022-08-26T08:08:21.000Z</Time>
            <Position>
              <LatitudeDegrees>36.70393279753625392913818359375</LatitudeDegrees>
              <LongitudeDegrees>-4.43489640019834041595458984375</LongitudeDegrees>
            </Position>
            <AltitudeMeters>9.3999996185302734375</AltitudeMeters>
            <DistanceMeters>1789.0412042824</DistanceMeters>
          </Trackpoint>
          <Trackpoint>
            <Time>2022-08-26T08:08:22.000Z</Time>
            <Position>
              <LatitudeDegrees>36.70393480919301509857177734375</LatitudeDegrees>
              <LongitudeDegrees>-4.43488307297229766845703125</LongitudeDegrees>
            </Position>
            <AltitudeMeters>9.3999996185302734375</AltitudeMeters>
            <DistanceMeters>1790.2506968967</DistanceMeters>
          </Trackpoint>
          <Trackpoint>
            <Time>2022-08-26T08:08:24.000Z</Time>
            <Position>
              <LatitudeDegrees>36.7039501480758190155029296875</LatitudeDegrees>
              <LongitudeDegrees>-4.43487368524074554443359375</LongitudeDegrees>
            </Position>
            <AltitudeMeters>9.19999980926513671875</AltitudeMeters>
            <DistanceMeters>1792.1512311841</DistanceMeters>
          </Trackpoint>
          <Trackpoint>
            <Time>2022-08-26T08:08:26.000Z</Time>
            <Position>
              <LatitudeDegrees>36.703983508050441741943359375</LatitudeDegrees>
              <LongitudeDegrees>-4.43487326614558696746826171875</LongitudeDegrees>
            </Position>
            <AltitudeMeters>9.19999980926513671875</AltitudeMeters>
            <DistanceMeters>1795.8633595027</DistanceMeters>
          </Trackpoint>
          <Trackpoint>
            <Time>2022-08-26T08:08:27.000Z</Time>
            <Position>
              <LatitudeDegrees>36.70398853719234466552734375</LatitudeDegrees>
              <LongitudeDegrees>-4.4348676502704620361328125</LongitudeDegrees>
            </Position>
            <AltitudeMeters>9.19999980926513671875</AltitudeMeters>
            <DistanceMeters>1796.617610665</DistanceMeters>
          </Trackpoint>
          <Trackpoint>
            <Time>2022-08-26T08:08:29.000Z</Time>
            <Position>
              <LatitudeDegrees>36.70401024632155895233154296875</LatitudeDegrees>
              <LongitudeDegrees>-4.43486069329082965850830078125</LongitudeDegrees>
            </Position>
            <AltitudeMeters>9.19999980926513671875</AltitudeMeters>
            <DistanceMeters>1799.1101380156</DistanceMeters>
          </Trackpoint>
          <Trackpoint>
            <Time>2022-08-26T08:08:30.000Z</Time>
            <Position>
              <LatitudeDegrees>36.704016365110874176025390625</LatitudeDegrees>
              <LongitudeDegrees>-4.4348547421395778656005859375</LongitudeDegrees>
            </Position>
            <AltitudeMeters>9</AltitudeMeters>
            <DistanceMeters>1799.9706415127</DistanceMeters>
          </Trackpoint>
          <Trackpoint>
            <Time>2022-08-26T08:08:32.000Z</Time>
            <Position>
              <LatitudeDegrees>36.70401108451187610626220703125</LatitudeDegrees>
              <LongitudeDegrees>-4.4348332844674587249755859375</LongitudeDegrees>
            </Position>
            <AltitudeMeters>9</AltitudeMeters>
            <DistanceMeters>1801.9729786324</DistanceMeters>
          </Trackpoint>
          <Trackpoint>
            <Time>2022-08-26T08:08:33.000Z</Time>
            <Position>
              <LatitudeDegrees>36.70402248390018939971923828125</LatitudeDegrees>
              <LongitudeDegrees>-4.43482649512588977813720703125</LongitudeDegrees>
            </Position>
            <AltitudeMeters>8.80000019073486328125</AltitudeMeters>
            <DistanceMeters>1803.3760312561</DistanceMeters>
          </Trackpoint>
          <Trackpoint>
            <Time>2022-08-26T08:08:34.000Z</Time>
            <Position>
              <LatitudeDegrees>36.7040359787642955780029296875</LatitudeDegrees>
              <LongitudeDegrees>-4.43481878377497196197509765625</LongitudeDegrees>
            </Position>
            <AltitudeMeters>8.80000019073486328125</AltitudeMeters>
            <DistanceMeters>1805.027419486</DistanceMeters>
          </Trackpoint>
          <Trackpoint>
            <Time>2022-08-26T08:08:41.000Z</Time>
            <Position>
              <LatitudeDegrees>36.70413949526846408843994140625</LatitudeDegrees>
              <LongitudeDegrees>-4.43474452011287212371826171875</LongitudeDegrees>
            </Position>
            <AltitudeMeters>8.19999980926513671875</AltitudeMeters>
            <DistanceMeters>1818.3189361621</DistanceMeters>
          </Trackpoint>
          <Trackpoint>
            <Time>2022-08-26T08:08:47.000Z</Time>
            <Position>
              <LatitudeDegrees>36.704199425876140594482421875</LatitudeDegrees>
              <LongitudeDegrees>-4.4346502237021923065185546875</LongitudeDegrees>
            </Position>
            <AltitudeMeters>7.599999904632568359375</AltitudeMeters>
            <DistanceMeters>1829.0569548859</DistanceMeters>
          </Trackpoint>
          <Trackpoint>
            <Time>2022-08-26T08:08:54.000Z</Time>
            <Position>
              <LatitudeDegrees>36.70428014360368251800537109375</LatitudeDegrees>
              <LongitudeDegrees>-4.4345519877970218658447265625</LongitudeDegrees>
            </Position>
            <AltitudeMeters>7.400000095367431640625</AltitudeMeters>
            <DistanceMeters>1841.6091170022</DistanceMeters>
          </Trackpoint>
          <Trackpoint>
            <Time>2022-08-26T08:08:56.000Z</Time>
            <Position>
              <LatitudeDegrees>36.70430964790284633636474609375</LatitudeDegrees>
              <LongitudeDegrees>-4.43451686762273311614990234375</LongitudeDegrees>
            </Position>
            <AltitudeMeters>7.19999980926513671875</AltitudeMeters>
            <DistanceMeters>1846.1495646147</DistanceMeters>
          </Trackpoint>
          <Trackpoint>
            <Time>2022-08-26T08:08:58.000Z</Time>
            <Position>
              <LatitudeDegrees>36.704324148595333099365234375</LatitudeDegrees>
              <LongitudeDegrees>-4.43448753096163272857666015625</LongitudeDegrees>
            </Position>
            <AltitudeMeters>7.19999980926513671875</AltitudeMeters>
            <DistanceMeters>1849.2258481051</DistanceMeters>
          </Trackpoint>
          <Trackpoint>
            <Time>2022-08-26T08:09:00.000Z</Time>
            <Position>
              <LatitudeDegrees>36.70432783663272857666015625</LatitudeDegrees>
              <LongitudeDegrees>-4.43447277881205081939697265625</LongitudeDegrees>
            </Position>
            <AltitudeMeters>7</AltitudeMeters>
            <DistanceMeters>1850.602916024</DistanceMeters>
          </Trackpoint>
          <Trackpoint>
            <Time>2022-08-26T08:09:01.000Z</Time>
            <Position>
              <LatitudeDegrees>36.7043300159275531768798828125</LatitudeDegrees>
              <LongitudeDegrees>-4.4344628043472766876220703125</LongitudeDegrees>
            </Position>
            <AltitudeMeters>7</AltitudeMeters>
            <DistanceMeters>1851.5193204703</DistanceMeters>
          </Trackpoint>
          <Trackpoint>
            <Time>2022-08-26T08:09:02.000Z</Time>
            <Position>
              <LatitudeDegrees>36.7043283395469188690185546875</LatitudeDegrees>
              <LongitudeDegrees>-4.4344550929963588714599609375</LongitudeDegrees>
            </Position>
            <AltitudeMeters>7</AltitudeMeters>
            <DistanceMeters>1852.2367564307</DistanceMeters>
          </Trackpoint>
          <Trackpoint>
            <Time>2022-08-26T08:09:08.000Z</Time>
            <Position>
              <LatitudeDegrees>36.70434099622070789337158203125</LatitudeDegrees>
              <LongitudeDegrees>-4.43438954651355743408203125</LongitudeDegrees>
            </Position>
            <AltitudeMeters>6.80000019073486328125</AltitudeMeters>
            <DistanceMeters>1858.2527805653</DistanceMeters>
          </Trackpoint>
          <Trackpoint>
            <Time>2022-08-26T08:09:14.000Z</Time>
            <Position>
              <LatitudeDegrees>36.70436547137796878814697265625</LatitudeDegrees>
              <LongitudeDegrees>-4.43432877771556377410888671875</LongitudeDegrees>
            </Position>
            <AltitudeMeters>6.599999904632568359375</AltitudeMeters>
            <DistanceMeters>1864.3211124397</DistanceMeters>
          </Trackpoint>
          <Trackpoint>
            <Time>2022-08-26T08:09:18.000Z</Time>
            <Position>
              <LatitudeDegrees>36.70439128763973712921142578125</LatitudeDegrees>
              <LongitudeDegrees>-4.434301368892192840576171875</LongitudeDegrees>
            </Position>
            <AltitudeMeters>6.80000019073486328125</AltitudeMeters>
            <DistanceMeters>1868.0959582152</DistanceMeters>
          </Trackpoint>
          <Trackpoint>
            <Time>2022-08-26T08:09:20.000Z</Time>
            <Position>
              <LatitudeDegrees>36.704397238790988922119140625</LatitudeDegrees>
              <LongitudeDegrees>-4.4342884607613086700439453125</LongitudeDegrees>
            </Position>
            <AltitudeMeters>6.80000019073486328125</AltitudeMeters>
            <DistanceMeters>1869.4263322164</DistanceMeters>
          </Trackpoint>
          <Trackpoint>
            <Time>2022-08-26T08:09:25.000Z</Time>
            <Position>
              <LatitudeDegrees>36.70440939255058765411376953125</LatitudeDegrees>
              <LongitudeDegrees>-4.43428502418100833892822265625</LongitudeDegrees>
            </Position>
            <AltitudeMeters>6.80000019073486328125</AltitudeMeters>
            <DistanceMeters>1870.8099420624</DistanceMeters>
          </Trackpoint>
          <Trackpoint>
            <Time>2022-08-26T08:09:28.000Z</Time>
            <Position>
              <LatitudeDegrees>36.70443235896527767181396484375</LatitudeDegrees>
              <LongitudeDegrees>-4.43428871221840381622314453125</LongitudeDegrees>
            </Position>
            <AltitudeMeters>7</AltitudeMeters>
            <DistanceMeters>1873.3879521987</DistanceMeters>
          </Trackpoint>
          <Trackpoint>
            <Time>2022-08-26T08:09:36.000Z</Time>
            <Position>
              <LatitudeDegrees>36.704490445554256439208984375</LatitudeDegrees>
              <LongitudeDegrees>-4.4342747144401073455810546875</LongitudeDegrees>
            </Position>
            <AltitudeMeters>7.400000095367431640625</AltitudeMeters>
            <DistanceMeters>1879.9729675429</DistanceMeters>
          </Trackpoint>
          <Trackpoint>
            <Time>2022-08-26T08:09:39.000Z</Time>
            <Position>
              <LatitudeDegrees>36.70451886020600795745849609375</LatitudeDegrees>
              <LongitudeDegrees>-4.43425233475863933563232421875</LongitudeDegrees>
            </Position>
            <AltitudeMeters>7.400000095367431640625</AltitudeMeters>
            <DistanceMeters>1883.7141730289</DistanceMeters>
          </Trackpoint>
          <Trackpoint>
            <Time>2022-08-26T08:09:46.000Z</Time>
            <Position>
              <LatitudeDegrees>36.70463721267879009246826171875</LatitudeDegrees>
              <LongitudeDegrees>-4.4341640733182430267333984375</LongitudeDegrees>
            </Position>
            <AltitudeMeters>7.599999904632568359375</AltitudeMeters>
            <DistanceMeters>1899.0620906113</DistanceMeters>
          </Trackpoint>
          <Trackpoint>
            <Time>2022-08-26T08:09:59.000Z</Time>
            <Position>
              <LatitudeDegrees>36.7047792859375476837158203125</LatitudeDegrees>
              <LongitudeDegrees>-4.434031136333942413330078125</LongitudeDegrees>
            </Position>
            <AltitudeMeters>7.599999904632568359375</AltitudeMeters>
            <DistanceMeters>1918.8299313643</DistanceMeters>
          </Trackpoint>
          <Trackpoint>
            <Time>2022-08-26T08:10:00.000Z</Time>
            <Position>
              <LatitudeDegrees>36.70478674583137035369873046875</LatitudeDegrees>
              <LongitudeDegrees>-4.43402300588786602020263671875</LongitudeDegrees>
            </Position>
            <AltitudeMeters>7.599999904632568359375</AltitudeMeters>
            <DistanceMeters>1919.9299451113</DistanceMeters>
          </Trackpoint>
          <Trackpoint>
            <Time>2022-08-26T08:10:05.000Z</Time>
            <Position>
              <LatitudeDegrees>36.7048372887074947357177734375</LatitudeDegrees>
              <LongitudeDegrees>-4.43398746661841869354248046875</LongitudeDegrees>
            </Position>
            <AltitudeMeters>7.599999904632568359375</AltitudeMeters>
            <DistanceMeters>1926.3889661804</DistanceMeters>
          </Trackpoint>
          <Trackpoint>
            <Time>2022-08-26T08:10:06.000Z</Time>
            <Position>
              <LatitudeDegrees>36.70484676025807857513427734375</LatitudeDegrees>
              <LongitudeDegrees>-4.43397724069654941558837890625</LongitudeDegrees>
            </Position>
            <AltitudeMeters>7.599999904632568359375</AltitudeMeters>
            <DistanceMeters>1927.7855679532</DistanceMeters>
          </Trackpoint>
          <Trackpoint>
            <Time>2022-08-26T08:10:08.000Z</Time>
            <Position>
              <LatitudeDegrees>36.704864613711833953857421875</LatitudeDegrees>
              <LongitudeDegrees>-4.43395678885281085968017578125</LongitudeDegrees>
            </Position>
            <AltitudeMeters>7.599999904632568359375</AltitudeMeters>
            <DistanceMeters>1930.4850626634</DistanceMeters>
          </Trackpoint>
          <Trackpoint>
            <Time>2022-08-26T08:10:10.000Z</Time>
            <Position>
              <LatitudeDegrees>36.70487903058528900146484375</LatitudeDegrees>
              <LongitudeDegrees>-4.433935247361660003662109375</LongitudeDegrees>
            </Position>
            <AltitudeMeters>7.599999904632568359375</AltitudeMeters>
            <DistanceMeters>1932.9884349993</DistanceMeters>
          </Trackpoint>
          <Trackpoint>
            <Time>2022-08-26T08:10:13.000Z</Time>
            <Position>
              <LatitudeDegrees>36.704914234578609466552734375</LatitudeDegrees>
              <LongitudeDegrees>-4.43390716798603534698486328125</LongitudeDegrees>
            </Position>
            <AltitudeMeters>7.599999904632568359375</AltitudeMeters>
            <DistanceMeters>1937.6389224021</DistanceMeters>
          </Trackpoint>
          <Trackpoint>
            <Time>2022-08-26T08:10:19.000Z</Time>
            <Position>
              <LatitudeDegrees>36.70499998144805431365966796875</LatitudeDegrees>
              <LongitudeDegrees>-4.4338502548635005950927734375</LongitudeDegrees>
            </Position>
            <AltitudeMeters>7.599999904632568359375</AltitudeMeters>
            <DistanceMeters>1948.4494380853</DistanceMeters>
          </Trackpoint>
          <Trackpoint>
            <Time>2022-08-26T08:10:22.000Z</Time>
            <Position>
              <LatitudeDegrees>36.70500668697059154510498046875</LatitudeDegrees>
              <LongitudeDegrees>-4.4338214211165904998779296875</LongitudeDegrees>
            </Position>
            <AltitudeMeters>7.400000095367431640625</AltitudeMeters>
            <DistanceMeters>1951.1271013757</DistanceMeters>
          </Trackpoint>
          <Trackpoint>
            <Time>2022-08-26T08:10:30.000Z</Time>
            <Position>
              <LatitudeDegrees>36.7051061801612377166748046875</LatitudeDegrees>
              <LongitudeDegrees>-4.43376727402210235595703125</LongitudeDegrees>
            </Position>
            <AltitudeMeters>7.599999904632568359375</AltitudeMeters>
            <DistanceMeters>1963.2093286452</DistanceMeters>
          </Trackpoint>
          <Trackpoint>
            <Time>2022-08-26T08:10:37.000Z</Time>
            <Position>
              <LatitudeDegrees>36.7051584832370281219482421875</LatitudeDegrees>
              <LongitudeDegrees>-4.43375193513929843902587890625</LongitudeDegrees>
            </Position>
            <AltitudeMeters>7.80000019073486328125</AltitudeMeters>
            <DistanceMeters>1969.189975165</DistanceMeters>
          </Trackpoint>
          <Trackpoint>
            <Time>2022-08-26T08:10:38.000Z</Time>
            <Position>
              <LatitudeDegrees>36.70516594313085079193115234375</LatitudeDegrees>
              <LongitudeDegrees>-4.4337567128241062164306640625</LongitudeDegrees>
            </Position>
            <AltitudeMeters>8</AltitudeMeters>
            <DistanceMeters>1970.1258797622</DistanceMeters>
          </Trackpoint>
          <Trackpoint>
            <Time>2022-08-26T08:10:48.000Z</Time>
            <Position>
              <LatitudeDegrees>36.705241464078426361083984375</LatitudeDegrees>
              <LongitudeDegrees>-4.433790408074855804443359375</LongitudeDegrees>
            </Position>
            <AltitudeMeters>8.80000019073486328125</AltitudeMeters>
            <DistanceMeters>1979.0533348696</DistanceMeters>
          </Trackpoint>
          <Trackpoint>
            <Time>2022-08-26T08:10:49.000Z</Time>
            <Position>
              <LatitudeDegrees>36.70525026507675647735595703125</LatitudeDegrees>
              <LongitudeDegrees>-4.4337966106832027435302734375</LongitudeDegrees>
            </Position>
            <AltitudeMeters>8.80000019073486328125</AltitudeMeters>
            <DistanceMeters>1980.177706117</DistanceMeters>
          </Trackpoint>
          <Trackpoint>
            <Time>2022-08-26T08:10:50.000Z</Time>
            <Position>
              <LatitudeDegrees>36.7052560485899448394775390625</LatitudeDegrees>
              <LongitudeDegrees>-4.43379987962543964385986328125</LongitudeDegrees>
            </Position>
            <AltitudeMeters>9</AltitudeMeters>
            <DistanceMeters>1980.8888209326</DistanceMeters>
          </Trackpoint>
          <Trackpoint>
            <Time>2022-08-26T08:10:53.000Z</Time>
            <Position>
              <LatitudeDegrees>36.7052842117846012115478515625</LatitudeDegrees>
              <LongitudeDegrees>-4.43379619158804416656494140625</LongitudeDegrees>
            </Position>
            <AltitudeMeters>9.19999980926513671875</AltitudeMeters>
            <DistanceMeters>1984.0405004988</DistanceMeters>
          </Trackpoint>
          <Trackpoint>
            <Time>2022-08-26T08:10:54.000Z</Time>
            <Position>
              <LatitudeDegrees>36.70530491508543491363525390625</LatitudeDegrees>
              <LongitudeDegrees>-4.43380750715732574462890625</LongitudeDegrees>
            </Position>
            <AltitudeMeters>9.3999996185302734375</AltitudeMeters>
            <DistanceMeters>1986.5564662353</DistanceMeters>
          </Trackpoint>
          <Trackpoint>
            <Time>2022-08-26T08:10:59.000Z</Time>
            <Position>
              <LatitudeDegrees>36.70536509715020656585693359375</LatitudeDegrees>
              <LongitudeDegrees>-4.4338351674377918243408203125</LongitudeDegrees>
            </Position>
            <AltitudeMeters>9.80000019073486328125</AltitudeMeters>
            <DistanceMeters>1993.695496383</DistanceMeters>
          </Trackpoint>
          <Trackpoint>
            <Time>2022-08-26T08:11:02.000Z</Time>
            <Position>
              <LatitudeDegrees>36.70538504607975482940673828125</LatitudeDegrees>
              <LongitudeDegrees>-4.43384950049221515655517578125</LongitudeDegrees>
            </Position>
            <AltitudeMeters>9.80000019073486328125</AltitudeMeters>
            <DistanceMeters>1996.2576957458</DistanceMeters>
          </Trackpoint>
          <Trackpoint>
            <Time>2022-08-26T08:11:06.000Z</Time>
            <Position>
              <LatitudeDegrees>36.70541505329310894012451171875</LatitudeDegrees>
              <LongitudeDegrees>-4.43388663232326507568359375</LongitudeDegrees>
            </Position>
            <AltitudeMeters>9.80000019073486328125</AltitudeMeters>
            <DistanceMeters>2000.9612781346</DistanceMeters>
          </Trackpoint>
          <Trackpoint>
            <Time>2022-08-26T08:11:08.000Z</Time>
            <Position>
              <LatitudeDegrees>36.70544472523033618927001953125</LatitudeDegrees>
              <LongitudeDegrees>-4.4339028932154178619384765625</LongitudeDegrees>
            </Position>
            <AltitudeMeters>10</AltitudeMeters>
            <DistanceMeters>2004.5672884062</DistanceMeters>
          </Trackpoint>
          <Trackpoint>
            <Time>2022-08-26T08:11:11.000Z</Time>
            <Position>
              <LatitudeDegrees>36.705474816262722015380859375</LatitudeDegrees>
              <LongitudeDegrees>-4.4339464791119098663330078125</LongitudeDegrees>
            </Position>
            <AltitudeMeters>10.3999996185302734375</AltitudeMeters>
            <DistanceMeters>2009.6987309822</DistanceMeters>
          </Trackpoint>
          <Trackpoint>
            <Time>2022-08-26T08:11:15.000Z</Time>
            <Position>
              <LatitudeDegrees>36.7055048234760761260986328125</LatitudeDegrees>
              <LongitudeDegrees>-4.433994255959987640380859375</LongitudeDegrees>
            </Position>
            <AltitudeMeters>10.80000019073486328125</AltitudeMeters>
            <DistanceMeters>2015.1144200695</DistanceMeters>
          </Trackpoint>
          <Trackpoint>
            <Time>2022-08-26T08:11:18.000Z</Time>
            <Position>
              <LatitudeDegrees>36.7055051587522029876708984375</LatitudeDegrees>
              <LongitudeDegrees>-4.43402200005948543548583984375</LongitudeDegrees>
            </Position>
            <AltitudeMeters>11.19999980926513671875</AltitudeMeters>
            <DistanceMeters>2017.592413609</DistanceMeters>
          </Trackpoint>
          <Trackpoint>
            <Time>2022-08-26T08:11:23.000Z</Time>
            <Position>
              <LatitudeDegrees>36.70552141964435577392578125</LatitudeDegrees>
              <LongitudeDegrees>-4.4340758956968784332275390625</LongitudeDegrees>
            </Position>
            <AltitudeMeters>12</AltitudeMeters>
            <DistanceMeters>2022.7308903796</DistanceMeters>
          </Trackpoint>
          <Trackpoint>
            <Time>2022-08-26T08:11:24.000Z</Time>
            <Position>
              <LatitudeDegrees>36.7055328190326690673828125</LatitudeDegrees>
              <LongitudeDegrees>-4.43408469669520854949951171875</LongitudeDegrees>
            </Position>
            <AltitudeMeters>12</AltitudeMeters>
            <DistanceMeters>2024.2213261565</DistanceMeters>
          </Trackpoint>
          <Trackpoint>
            <Time>2022-08-26T08:11:30.000Z</Time>
            <Position>
              <LatitudeDegrees>36.70556123368442058563232421875</LatitudeDegrees>
              <LongitudeDegrees>-4.4341369159519672393798828125</LongitudeDegrees>
            </Position>
            <AltitudeMeters>12.80000019073486328125</AltitudeMeters>
            <DistanceMeters>2029.8544148851</DistanceMeters>
          </Trackpoint>
          <Trackpoint>
            <Time>2022-08-26T08:11:35.000Z</Time>
            <Position>
              <LatitudeDegrees>36.7055893130600452423095703125</LatitudeDegrees>
              <LongitudeDegrees>-4.4341737963259220123291015625</LongitudeDegrees>
            </Position>
            <AltitudeMeters>13.3999996185302734375</AltitudeMeters>
            <DistanceMeters>2034.3938679849</DistanceMeters>
          </Trackpoint>
          <Trackpoint>
            <Time>2022-08-26T08:11:36.000Z</Time>
            <Position>
              <LatitudeDegrees>36.70559383928775787353515625</LatitudeDegrees>
              <LongitudeDegrees>-4.43418209441006183624267578125</LongitudeDegrees>
            </Position>
            <AltitudeMeters>13.6000003814697265625</AltitudeMeters>
            <DistanceMeters>2035.2852975823</DistanceMeters>
          </Trackpoint>
          <Trackpoint>
            <Time>2022-08-26T08:11:41.000Z</Time>
            <Position>
              <LatitudeDegrees>36.70564522035419940948486328125</LatitudeDegrees>
              <LongitudeDegrees>-4.43424403667449951171875</LongitudeDegrees>
            </Position>
            <AltitudeMeters>14.80000019073486328125</AltitudeMeters>
            <DistanceMeters>2043.2380741674</DistanceMeters>
          </Trackpoint>
          <Trackpoint>
            <Time>2022-08-26T08:11:44.000Z</Time>
            <Position>
              <LatitudeDegrees>36.70567707158625125885009765625</LatitudeDegrees>
              <LongitudeDegrees>-4.434262812137603759765625</LongitudeDegrees>
            </Position>
            <AltitudeMeters>14.80000019073486328125</AltitudeMeters>
            <DistanceMeters>2047.1595815541</DistanceMeters>
          </Trackpoint>
          <Trackpoint>
            <Time>2022-08-26T08:11:46.000Z</Time>
            <Position>
              <LatitudeDegrees>36.7057090066373348236083984375</LatitudeDegrees>
              <LongitudeDegrees>-4.434271864593029022216796875</LongitudeDegrees>
            </Position>
            <AltitudeMeters>14.6000003814697265625</AltitudeMeters>
            <DistanceMeters>2050.8054384528</DistanceMeters>
          </Trackpoint>
          <Trackpoint>
            <Time>2022-08-26T08:11:49.000Z</Time>
            <Position>
              <LatitudeDegrees>36.70576541684567928314208984375</LatitudeDegrees>
              <LongitudeDegrees>-4.4342748820781707763671875</LongitudeDegrees>
            </Position>
            <AltitudeMeters>14</AltitudeMeters>
            <DistanceMeters>2057.0901464306</DistanceMeters>
          </Trackpoint>
          <Trackpoint>
            <Time>2022-08-26T08:11:51.000Z</Time>
            <Position>
              <LatitudeDegrees>36.70580581761896610260009765625</LatitudeDegrees>
              <LongitudeDegrees>-4.43427823483943939208984375</LongitudeDegrees>
            </Position>
            <AltitudeMeters>13.19999980926513671875</AltitudeMeters>
            <DistanceMeters>2061.5976592701</DistanceMeters>
          </Trackpoint>
          <Trackpoint>
            <Time>2022-08-26T08:11:57.000Z</Time>
            <Position>
              <LatitudeDegrees>36.70585325919091701507568359375</LatitudeDegrees>
              <LongitudeDegrees>-4.434302039444446563720703125</LongitudeDegrees>
            </Position>
            <AltitudeMeters>12.3999996185302734375</AltitudeMeters>
            <DistanceMeters>2067.2889582611</DistanceMeters>
          </Trackpoint>
          <Trackpoint>
            <Time>2022-08-26T08:12:05.000Z</Time>
            <Position>
              <LatitudeDegrees>36.70590053312480449676513671875</LatitudeDegrees>
              <LongitudeDegrees>-4.4343434460461139678955078125</LongitudeDegrees>
            </Position>
            <AltitudeMeters>12.19999980926513671875</AltitudeMeters>
            <DistanceMeters>2073.7185531131</DistanceMeters>
          </Trackpoint>
          <Trackpoint>
            <Time>2022-08-26T08:12:10.000Z</Time>
            <Position>
              <LatitudeDegrees>36.70591277070343494415283203125</LatitudeDegrees>
              <LongitudeDegrees>-4.43440354429185390472412109375</LongitudeDegrees>
            </Position>
            <AltitudeMeters>12.80000019073486328125</AltitudeMeters>
            <DistanceMeters>2079.2513606414</DistanceMeters>
          </Trackpoint>
          <Trackpoint>
            <Time>2022-08-26T08:12:14.000Z</Time>
            <Position>
              <LatitudeDegrees>36.7059309594333171844482421875</LatitudeDegrees>
              <LongitudeDegrees>-4.4344433583319187164306640625</LongitudeDegrees>
            </Position>
            <AltitudeMeters>13</AltitudeMeters>
            <DistanceMeters>2083.3408229011</DistanceMeters>
          </Trackpoint>
          <Trackpoint>
            <Time>2022-08-26T08:12:17.000Z</Time>
            <Position>
              <LatitudeDegrees>36.7059262655675411224365234375</LatitudeDegrees>
              <LongitudeDegrees>-4.43448199890553951263427734375</LongitudeDegrees>
            </Position>
            <AltitudeMeters>13.80000019073486328125</AltitudeMeters>
            <DistanceMeters>2086.8271508968</DistanceMeters>
          </Trackpoint>
          <Trackpoint>
            <Time>2022-08-26T08:12:18.000Z</Time>
            <Position>
              <LatitudeDegrees>36.705925762653350830078125</LatitudeDegrees>
              <LongitudeDegrees>-4.43449147045612335205078125</LongitudeDegrees>
            </Position>
            <AltitudeMeters>14</AltitudeMeters>
            <DistanceMeters>2087.671766809</DistanceMeters>
          </Trackpoint>
          <Trackpoint>
            <Time>2022-08-26T08:12:20.000Z</Time>
            <Position>
              <LatitudeDegrees>36.70593121089041233062744140625</LatitudeDegrees>
              <LongitudeDegrees>-4.43451024591922760009765625</LongitudeDegrees>
            </Position>
            <AltitudeMeters>14.19999980926513671875</AltitudeMeters>
            <DistanceMeters>2089.4546260037</DistanceMeters>
          </Trackpoint>
          <Trackpoint>
            <Time>2022-08-26T08:12:22.000Z</Time>
            <Position>
              <LatitudeDegrees>36.705941520631313323974609375</LatitudeDegrees>
              <LongitudeDegrees>-4.43452541716396808624267578125</LongitudeDegrees>
            </Position>
            <AltitudeMeters>14.3999996185302734375</AltitudeMeters>
            <DistanceMeters>2091.2298715301</DistanceMeters>
          </Trackpoint>
          <Trackpoint>
            <Time>2022-08-26T08:12:26.000Z</Time>
            <Position>
              <LatitudeDegrees>36.705948226153850555419921875</LatitudeDegrees>
              <LongitudeDegrees>-4.4345647282898426055908203125</LongitudeDegrees>
            </Position>
            <AltitudeMeters>15</AltitudeMeters>
            <DistanceMeters>2094.8157924517</DistanceMeters>
          </Trackpoint>
          <Trackpoint>
            <Time>2022-08-26T08:12:32.000Z</Time>
            <Position>
              <LatitudeDegrees>36.70599206350743770599365234375</LatitudeDegrees>
              <LongitudeDegrees>-4.43464896641671657562255859375</LongitudeDegrees>
            </Position>
            <AltitudeMeters>15.6000003814697265625</AltitudeMeters>
            <DistanceMeters>2103.7775724029</DistanceMeters>
          </Trackpoint>
          <Trackpoint>
            <Time>2022-08-26T08:12:34.000Z</Time>
            <Position>
              <LatitudeDegrees>36.70601150952279567718505859375</LatitudeDegrees>
              <LongitudeDegrees>-4.43464762531220912933349609375</LongitudeDegrees>
            </Position>
            <AltitudeMeters>15.19999980926513671875</AltitudeMeters>
            <DistanceMeters>2105.9445148919</DistanceMeters>
          </Trackpoint>
          <Trackpoint>
            <Time>2022-08-26T08:12:35.000Z</Time>
            <Position>
              <LatitudeDegrees>36.706023328006267547607421875</LatitudeDegrees>
              <LongitudeDegrees>-4.4346575997769832611083984375</LongitudeDegrees>
            </Position>
            <AltitudeMeters>15</AltitudeMeters>
            <DistanceMeters>2107.5346159593</DistanceMeters>
          </Trackpoint>
          <Trackpoint>
            <Time>2022-08-26T08:12:36.000Z</Time>
            <Position>
              <LatitudeDegrees>36.706031374633312225341796875</LatitudeDegrees>
              <LongitudeDegrees>-4.434671513736248016357421875</LongitudeDegrees>
            </Position>
            <AltitudeMeters>14.80000019073486328125</AltitudeMeters>
            <DistanceMeters>2109.0668756877</DistanceMeters>
          </Trackpoint>
          <Trackpoint>
            <Time>2022-08-26T08:12:37.000Z</Time>
            <Position>
              <LatitudeDegrees>36.70603263191878795623779296875</LatitudeDegrees>
              <LongitudeDegrees>-4.43468417041003704071044921875</LongitudeDegrees>
            </Position>
            <AltitudeMeters>14.80000019073486328125</AltitudeMeters>
            <DistanceMeters>2110.2071962601</DistanceMeters>
          </Trackpoint>
          <Trackpoint>
            <Time>2022-08-26T08:12:41.000Z</Time>
            <Position>
              <LatitudeDegrees>36.70602701604366302490234375</LatitudeDegrees>
              <LongitudeDegrees>-4.43474250845611095428466796875</LongitudeDegrees>
            </Position>
            <AltitudeMeters>15.3999996185302734375</AltitudeMeters>
            <DistanceMeters>2115.450914671</DistanceMeters>
          </Trackpoint>
          <Trackpoint>
            <Time>2022-08-26T08:12:42.000Z</Time>
            <Position>
              <LatitudeDegrees>36.7060258425772190093994140625</LatitudeDegrees>
              <LongitudeDegrees>-4.43475902080535888671875</LongitudeDegrees>
            </Position>
            <AltitudeMeters>15.3999996185302734375</AltitudeMeters>
            <DistanceMeters>2116.9291834217</DistanceMeters>
          </Trackpoint>
          <Trackpoint>
            <Time>2022-08-26T08:12:44.000Z</Time>
            <Position>
              <LatitudeDegrees>36.70603347010910511016845703125</LatitudeDegrees>
              <LongitudeDegrees>-4.43479866720736026763916015625</LongitudeDegrees>
            </Position>
            <AltitudeMeters>15.6000003814697265625</AltitudeMeters>
            <DistanceMeters>2120.5676023183</DistanceMeters>
          </Trackpoint>
          <Trackpoint>
            <Time>2022-08-26T08:12:47.000Z</Time>
            <Position>
              <LatitudeDegrees>36.706050150096416473388671875</LatitudeDegrees>
              <LongitudeDegrees>-4.43484242074191570281982421875</LongitudeDegrees>
            </Position>
            <AltitudeMeters>15.3999996185302734375</AltitudeMeters>
            <DistanceMeters>2124.8910567518</DistanceMeters>
          </Trackpoint>
          <Trackpoint>
            <Time>2022-08-26T08:12:49.000Z</Time>
            <Position>
              <LatitudeDegrees>36.70606263913214206695556640625</LatitudeDegrees>
              <LongitudeDegrees>-4.43488776683807373046875</LongitudeDegrees>
            </Position>
            <AltitudeMeters>15.3999996185302734375</AltitudeMeters>
            <DistanceMeters>2129.1693700821</DistanceMeters>
          </Trackpoint>
          <Trackpoint>
            <Time>2022-08-26T08:12:52.000Z</Time>
            <Position>
              <LatitudeDegrees>36.7060922272503376007080078125</LatitudeDegrees>
              <LongitudeDegrees>-4.4349160976707935333251953125</LongitudeDegrees>
            </Position>
            <AltitudeMeters>14.6000003814697265625</AltitudeMeters>
            <DistanceMeters>2133.3212872214</DistanceMeters>
          </Trackpoint>
          <Trackpoint>
            <Time>2022-08-26T08:12:57.000Z</Time>
            <Position>
              <LatitudeDegrees>36.706126593053340911865234375</LatitudeDegrees>
              <LongitudeDegrees>-4.43497024476528167724609375</LongitudeDegrees>
            </Position>
            <AltitudeMeters>14</AltitudeMeters>
            <DistanceMeters>2139.4826540641</DistanceMeters>
          </Trackpoint>
          <Trackpoint>
            <Time>2022-08-26T08:12:58.000Z</Time>
            <Position>
              <LatitudeDegrees>36.706143356859683990478515625</LatitudeDegrees>
              <LongitudeDegrees>-4.4349861703813076019287109375</LongitudeDegrees>
            </Position>
            <AltitudeMeters>13.6000003814697265625</AltitudeMeters>
            <DistanceMeters>2141.8257900989</DistanceMeters>
          </Trackpoint>
          <Trackpoint>
            <Time>2022-08-26T08:12:59.000Z</Time>
            <Position>
              <LatitudeDegrees>36.70615500770509243011474609375</LatitudeDegrees>
              <LongitudeDegrees>-4.4350079633295536041259765625</LongitudeDegrees>
            </Position>
            <AltitudeMeters>13.19999980926513671875</AltitudeMeters>
            <DistanceMeters>2144.163138222</DistanceMeters>
          </Trackpoint>
          <Trackpoint>
            <Time>2022-08-26T08:13:03.000Z</Time>
            <Position>
              <LatitudeDegrees>36.706188954412937164306640625</LatitudeDegrees>
              <LongitudeDegrees>-4.43506638519465923309326171875</LongitudeDegrees>
            </Position>
            <AltitudeMeters>12.6000003814697265625</AltitudeMeters>
            <DistanceMeters>2150.601154289</DistanceMeters>
          </Trackpoint>
          <Trackpoint>
            <Time>2022-08-26T08:13:04.000Z</Time>
            <Position>
              <LatitudeDegrees>36.70619842596352100372314453125</LatitudeDegrees>
              <LongitudeDegrees>-4.4350770302116870880126953125</LongitudeDegrees>
            </Position>
            <AltitudeMeters>12.6000003814697265625</AltitudeMeters>
            <DistanceMeters>2152.0170204445</DistanceMeters>
          </Trackpoint>
          <Trackpoint>
            <Time>2022-08-26T08:13:08.000Z</Time>
            <Position>
              <LatitudeDegrees>36.70622692443430423736572265625</LatitudeDegrees>
              <LongitudeDegrees>-4.43510225974023342132568359375</LongitudeDegrees>
            </Position>
            <AltitudeMeters>12.6000003814697265625</AltitudeMeters>
            <DistanceMeters>2155.9049952345</DistanceMeters>
          </Trackpoint>
          <Trackpoint>
            <Time>2022-08-26T08:13:10.000Z</Time>
            <Position>
              <LatitudeDegrees>36.70624821446835994720458984375</LatitudeDegrees>
              <LongitudeDegrees>-4.43512539379298686981201171875</LongitudeDegrees>
            </Position>
            <AltitudeMeters>12.3999996185302734375</AltitudeMeters>
            <DistanceMeters>2159.0466307247</DistanceMeters>
          </Trackpoint>
          <Trackpoint>
            <Time>2022-08-26T08:13:11.000Z</Time>
            <Position>
              <LatitudeDegrees>36.70625072903931140899658203125</LatitudeDegrees>
              <LongitudeDegrees>-4.43514048121869564056396484375</LongitudeDegrees>
            </Position>
            <AltitudeMeters>12.3999996185302734375</AltitudeMeters>
            <DistanceMeters>2160.4236986436</DistanceMeters>
          </Trackpoint>
          <Trackpoint>
            <Time>2022-08-26T08:13:18.000Z</Time>
            <Position>
              <LatitudeDegrees>36.7062813229858875274658203125</LatitudeDegrees>
              <LongitudeDegrees>-4.43517811596393585205078125</LongitudeDegrees>
            </Position>
            <AltitudeMeters>12.19999980926513671875</AltitudeMeters>
            <DistanceMeters>2165.2072343348</DistanceMeters>
          </Trackpoint>
          <Trackpoint>
            <Time>2022-08-26T08:13:23.000Z</Time>
            <Position>
              <LatitudeDegrees>36.70629523694515228271484375</LatitudeDegrees>
              <LongitudeDegrees>-4.4352243840694427490234375</LongitudeDegrees>
            </Position>
            <AltitudeMeters>12.19999980926513671875</AltitudeMeters>
            <DistanceMeters>2169.6175387075</DistanceMeters>
          </Trackpoint>
          <Trackpoint>
            <Time>2022-08-26T08:13:24.000Z</Time>
            <Position>
              <LatitudeDegrees>36.7062997631728649139404296875</LatitudeDegrees>
              <LongitudeDegrees>-4.43522815592586994171142578125</LongitudeDegrees>
            </Position>
            <AltitudeMeters>12.19999980926513671875</AltitudeMeters>
            <DistanceMeters>2170.2260065655</DistanceMeters>
          </Trackpoint>
          <Trackpoint>
            <Time>2022-08-26T08:13:30.000Z</Time>
            <Position>
              <LatitudeDegrees>36.706337817013263702392578125</LatitudeDegrees>
              <LongitudeDegrees>-4.43523838184773921966552734375</LongitudeDegrees>
            </Position>
            <AltitudeMeters>12</AltitudeMeters>
            <DistanceMeters>2174.5588496191</DistanceMeters>
          </Trackpoint>
          <Trackpoint>
            <Time>2022-08-26T08:13:34.000Z</Time>
            <Position>
              <LatitudeDegrees>36.70637092553079128265380859375</LatitudeDegrees>
              <LongitudeDegrees>-4.43527777679264545440673828125</LongitudeDegrees>
            </Position>
            <AltitudeMeters>12</AltitudeMeters>
            <DistanceMeters>2179.6514304527</DistanceMeters>
          </Trackpoint>
          <Trackpoint>
            <Time>2022-08-26T08:14:21.000Z</Time>
            <Position>
              <LatitudeDegrees>36.70640478841960430145263671875</LatitudeDegrees>
              <LongitudeDegrees>-4.4353040121495723724365234375</LongitudeDegrees>
            </Position>
            <AltitudeMeters>12</AltitudeMeters>
            <DistanceMeters>2184.0892899282</DistanceMeters>
          </Trackpoint>
          <Trackpoint>
            <Time>2022-08-26T08:14:22.000Z</Time>
            <Position>
              <LatitudeDegrees>36.70640478841960430145263671875</LatitudeDegrees>
              <LongitudeDegrees>-4.43530158139765262603759765625</LongitudeDegrees>
            </Position>
            <AltitudeMeters>12</AltitudeMeters>
            <DistanceMeters>2184.3220568903</DistanceMeters>
          </Trackpoint>
          <Trackpoint>
            <Time>2022-08-26T08:14:24.000Z</Time>
            <Position>
              <LatitudeDegrees>36.70640512369573116302490234375</LatitudeDegrees>
              <LongitudeDegrees>-4.43530015647411346435546875</LongitudeDegrees>
            </Position>
            <AltitudeMeters>12</AltitudeMeters>
            <DistanceMeters>2184.4564449586</DistanceMeters>
          </Trackpoint>
          <Trackpoint>
            <Time>2022-08-26T08:14:27.000Z</Time>
            <Position>
              <LatitudeDegrees>36.7063990049064159393310546875</LatitudeDegrees>
              <LongitudeDegrees>-4.43533661775290966033935546875</LongitudeDegrees>
            </Position>
            <AltitudeMeters>12.19999980926513671875</AltitudeMeters>
            <DistanceMeters>2187.7810221599</DistanceMeters>
          </Trackpoint>
          <Trackpoint>
            <Time>2022-08-26T08:14:32.000Z</Time>
            <Position>
              <LatitudeDegrees>36.706422306597232818603515625</LatitudeDegrees>
              <LongitudeDegrees>-4.43540769629180431365966796875</LongitudeDegrees>
            </Position>
            <AltitudeMeters>12.3999996185302734375</AltitudeMeters>
            <DistanceMeters>2194.6334959839</DistanceMeters>
          </Trackpoint>
          <Trackpoint>
            <Time>2022-08-26T08:14:35.000Z</Time>
            <Position>
              <LatitudeDegrees>36.70647217892110347747802734375</LatitudeDegrees>
              <LongitudeDegrees>-4.43542487919330596923828125</LongitudeDegrees>
            </Position>
            <AltitudeMeters>12.6000003814697265625</AltitudeMeters>
            <DistanceMeters>2200.3918326102</DistanceMeters>
          </Trackpoint>
          <Trackpoint>
            <Time>2022-08-26T08:14:39.000Z</Time>
            <Position>
              <LatitudeDegrees>36.7065746895968914031982421875</LatitudeDegrees>
              <LongitudeDegrees>-4.4354434870183467864990234375</LongitudeDegrees>
            </Position>
            <AltitudeMeters>12.80000019073486328125</AltitudeMeters>
            <DistanceMeters>2211.9218276409</DistanceMeters>
          </Trackpoint>
          <Trackpoint>
            <Time>2022-08-26T08:14:41.000Z</Time>
            <Position>
              <LatitudeDegrees>36.70658223330974578857421875</LatitudeDegrees>
              <LongitudeDegrees>-4.43547273986041545867919921875</LongitudeDegrees>
            </Position>
            <AltitudeMeters>12.80000019073486328125</AltitudeMeters>
            <DistanceMeters>2214.6661096516</DistanceMeters>
          </Trackpoint>
          <Trackpoint>
            <Time>2022-08-26T08:14:42.000Z</Time>
            <Position>
              <LatitudeDegrees>36.7065894417464733123779296875</LatitudeDegrees>
              <LongitudeDegrees>-4.43548497743904590606689453125</LongitudeDegrees>
            </Position>
            <AltitudeMeters>12.6000003814697265625</AltitudeMeters>
            <DistanceMeters>2216.0233626106</DistanceMeters>
          </Trackpoint>
          <Trackpoint>
            <Time>2022-08-26T08:14:46.000Z</Time>
            <Position>
              <LatitudeDegrees>36.70662246644496917724609375</LatitudeDegrees>
              <LongitudeDegrees>-4.435521103441715240478515625</LongitudeDegrees>
            </Position>
            <AltitudeMeters>12.3999996185302734375</AltitudeMeters>
            <DistanceMeters>2220.9114688155</DistanceMeters>
          </Trackpoint>
          <Trackpoint>
            <Time>2022-08-26T08:14:49.000Z</Time>
            <Position>
              <LatitudeDegrees>36.70664585195481777191162109375</LatitudeDegrees>
              <LongitudeDegrees>-4.43553912453353404998779296875</LongitudeDegrees>
            </Position>
            <AltitudeMeters>12.19999980926513671875</AltitudeMeters>
            <DistanceMeters>2223.9730402011</DistanceMeters>
          </Trackpoint>
          <Trackpoint>
            <Time>2022-08-26T08:14:50.000Z</Time>
            <Position>
              <LatitudeDegrees>36.7066504620015621185302734375</LatitudeDegrees>
              <LongitudeDegrees>-4.4355420581996440887451171875</LongitudeDegrees>
            </Position>
            <AltitudeMeters>12.3999996185302734375</AltitudeMeters>
            <DistanceMeters>2224.5588242098</DistanceMeters>
          </Trackpoint>
          <Trackpoint>
            <Time>2022-08-26T08:14:52.000Z</Time>
            <Position>
              <LatitudeDegrees>36.7066839896142482757568359375</LatitudeDegrees>
              <LongitudeDegrees>-4.43555228412151336669921875</LongitudeDegrees>
            </Position>
            <AltitudeMeters>12.3999996185302734375</AltitudeMeters>
            <DistanceMeters>2228.4000668355</DistanceMeters>
          </Trackpoint>
          <Trackpoint>
            <Time>2022-08-26T08:14:53.000Z</Time>
            <Position>
              <LatitudeDegrees>36.70669220387935638427734375</LatitudeDegrees>
              <LongitudeDegrees>-4.43556795828044414520263671875</LongitudeDegrees>
            </Position>
            <AltitudeMeters>12.3999996185302734375</AltitudeMeters>
            <DistanceMeters>2230.0731847923</DistanceMeters>
          </Trackpoint>
          <Trackpoint>
            <Time>2022-08-26T08:14:55.000Z</Time>
            <Position>
              <LatitudeDegrees>36.706728078424930572509765625</LatitudeDegrees>
              <LongitudeDegrees>-4.43559612147510051727294921875</LongitudeDegrees>
            </Position>
            <AltitudeMeters>12.3999996185302734375</AltitudeMeters>
            <DistanceMeters>2234.791143931</DistanceMeters>
          </Trackpoint>
          <Trackpoint>
            <Time>2022-08-26T08:14:56.000Z</Time>
            <Position>
              <LatitudeDegrees>36.70673285610973834991455078125</LatitudeDegrees>
              <LongitudeDegrees>-4.435609281063079833984375</LongitudeDegrees>
            </Position>
            <AltitudeMeters>12.3999996185302734375</AltitudeMeters>
            <DistanceMeters>2236.0801489992</DistanceMeters>
          </Trackpoint>
          <Trackpoint>
            <Time>2022-08-26T08:14:58.000Z</Time>
            <Position>
              <LatitudeDegrees>36.7067691497504711151123046875</LatitudeDegrees>
              <LongitudeDegrees>-4.435640461742877960205078125</LongitudeDegrees>
            </Position>
            <AltitudeMeters>12.3999996185302734375</AltitudeMeters>
            <DistanceMeters>2240.9848532356</DistanceMeters>
          </Trackpoint>
          <Trackpoint>
            <Time>2022-08-26T08:14:59.000Z</Time>
            <Position>
              <LatitudeDegrees>36.70678063295781612396240234375</LatitudeDegrees>
              <LongitudeDegrees>-4.4356453232467174530029296875</LongitudeDegrees>
            </Position>
            <AltitudeMeters>12.3999996185302734375</AltitudeMeters>
            <DistanceMeters>2242.3354366065</DistanceMeters>
          </Trackpoint>
          <Trackpoint>
            <Time>2022-08-26T08:15:01.000Z</Time>
            <Position>
              <LatitudeDegrees>36.70679991133511066436767578125</LatitudeDegrees>
              <LongitudeDegrees>-4.43565814755856990814208984375</LongitudeDegrees>
            </Position>
            <AltitudeMeters>12.3999996185302734375</AltitudeMeters>
            <DistanceMeters>2244.7655950363</DistanceMeters>
          </Trackpoint>
          <Trackpoint>
            <Time>2022-08-26T08:15:04.000Z</Time>
            <Position>
              <LatitudeDegrees>36.706787757575511932373046875</LatitudeDegrees>
              <LongitudeDegrees>-4.43571045063436031341552734375</LongitudeDegrees>
            </Position>
            <AltitudeMeters>12.80000019073486328125</AltitudeMeters>
            <DistanceMeters>2249.6240536216</DistanceMeters>
          </Trackpoint>
          <Trackpoint>
            <Time>2022-08-26T08:15:06.000Z</Time>
            <Position>
              <LatitudeDegrees>36.70679789967834949493408203125</LatitudeDegrees>
              <LongitudeDegrees>-4.43575370125472545623779296875</LongitudeDegrees>
            </Position>
            <AltitudeMeters>13</AltitudeMeters>
            <DistanceMeters>2253.6444810659</DistanceMeters>
          </Trackpoint>
          <Trackpoint>
            <Time>2022-08-26T08:15:07.000Z</Time>
            <Position>
              <LatitudeDegrees>36.70680309645831584930419921875</LatitudeDegrees>
              <LongitudeDegrees>-4.435753785073757171630859375</LongitudeDegrees>
            </Position>
            <AltitudeMeters>13</AltitudeMeters>
            <DistanceMeters>2254.2225060034</DistanceMeters>
          </Trackpoint>
          <Trackpoint>
            <Time>2022-08-26T08:15:09.000Z</Time>
            <Position>
              <LatitudeDegrees>36.70681650750339031219482421875</LatitudeDegrees>
              <LongitudeDegrees>-4.43576124496757984161376953125</LongitudeDegrees>
            </Position>
            <AltitudeMeters>12.80000019073486328125</AltitudeMeters>
            <DistanceMeters>2255.8574074155</DistanceMeters>
          </Trackpoint>
          <Trackpoint>
            <Time>2022-08-26T08:15:10.000Z</Time>
            <Position>
              <LatitudeDegrees>36.70683243311941623687744140625</LatitudeDegrees>
              <LongitudeDegrees>-4.43576417863368988037109375</LongitudeDegrees>
            </Position>
            <AltitudeMeters>12.6000003814697265625</AltitudeMeters>
            <DistanceMeters>2257.6503678764</DistanceMeters>
          </Trackpoint>
          <Trackpoint>
            <Time>2022-08-26T08:15:13.000Z</Time>
            <Position>
              <LatitudeDegrees>36.70688264071941375732421875</LatitudeDegrees>
              <LongitudeDegrees>-4.43576560355722904205322265625</LongitudeDegrees>
            </Position>
            <AltitudeMeters>12.19999980926513671875</AltitudeMeters>
            <DistanceMeters>2263.2408146002</DistanceMeters>
          </Trackpoint>
          <Trackpoint>
            <Time>2022-08-26T08:15:15.000Z</Time>
            <Position>
              <LatitudeDegrees>36.706938631832599639892578125</LatitudeDegrees>
              <LongitudeDegrees>-4.4357606582343578338623046875</LongitudeDegrees>
            </Position>
            <AltitudeMeters>11.3999996185302734375</AltitudeMeters>
            <DistanceMeters>2269.4887759051</DistanceMeters>
          </Trackpoint>
          <Trackpoint>
            <Time>2022-08-26T08:15:19.000Z</Time>
            <Position>
              <LatitudeDegrees>36.707045920193195343017578125</LatitudeDegrees>
              <LongitudeDegrees>-4.435770213603973388671875</LongitudeDegrees>
            </Position>
            <AltitudeMeters>11.19999980926513671875</AltitudeMeters>
            <DistanceMeters>2281.4598791611</DistanceMeters>
          </Trackpoint>
          <Trackpoint>
            <Time>2022-08-26T08:15:20.000Z</Time>
            <Position>
              <LatitudeDegrees>36.70704223215579986572265625</LatitudeDegrees>
              <LongitudeDegrees>-4.43578639067709445953369140625</LongitudeDegrees>
            </Position>
            <AltitudeMeters>11</AltitudeMeters>
            <DistanceMeters>2282.9593754214</DistanceMeters>
          </Trackpoint>
          <Trackpoint>
            <Time>2022-08-26T08:15:23.000Z</Time>
            <Position>
              <LatitudeDegrees>36.7070236243307590484619140625</LatitudeDegrees>
              <LongitudeDegrees>-4.435842297971248626708984375</LongitudeDegrees>
            </Position>
            <AltitudeMeters>11</AltitudeMeters>
            <DistanceMeters>2288.3600371321</DistanceMeters>
          </Trackpoint>
          <Trackpoint>
            <Time>2022-08-26T08:15:24.000Z</Time>
            <Position>
              <LatitudeDegrees>36.707038544118404388427734375</LatitudeDegrees>
              <LongitudeDegrees>-4.435850344598293304443359375</LongitudeDegrees>
            </Position>
            <AltitudeMeters>11</AltitudeMeters>
            <DistanceMeters>2290.1680436788</DistanceMeters>
          </Trackpoint>
          <Trackpoint>
            <Time>2022-08-26T08:15:25.000Z</Time>
            <Position>
              <LatitudeDegrees>36.70704265125095844268798828125</LatitudeDegrees>
              <LongitudeDegrees>-4.435861073434352874755859375</LongitudeDegrees>
            </Position>
            <AltitudeMeters>11</AltitudeMeters>
            <DistanceMeters>2291.2262163863</DistanceMeters>
          </Trackpoint>
          <Trackpoint>
            <Time>2022-08-26T08:15:27.000Z</Time>
            <Position>
              <LatitudeDegrees>36.707044579088687896728515625</LatitudeDegrees>
              <LongitudeDegrees>-4.4358909130096435546875</LongitudeDegrees>
            </Position>
            <AltitudeMeters>11.19999980926513671875</AltitudeMeters>
            <DistanceMeters>2293.8971264168</DistanceMeters>
          </Trackpoint>
          <Trackpoint>
            <Time>2022-08-26T08:15:28.000Z</Time>
            <Position>
              <LatitudeDegrees>36.70705237425863742828369140625</LatitudeDegrees>
              <LongitudeDegrees>-4.43590122275054454803466796875</LongitudeDegrees>
            </Position>
            <AltitudeMeters>11.19999980926513671875</AltitudeMeters>
            <DistanceMeters>2295.164940917</DistanceMeters>
          </Trackpoint>
          <Trackpoint>
            <Time>2022-08-26T08:15:31.000Z</Time>
            <Position>
              <LatitudeDegrees>36.7071302421391010284423828125</LatitudeDegrees>
              <LongitudeDegrees>-4.435927458107471466064453125</LongitudeDegrees>
            </Position>
            <AltitudeMeters>11</AltitudeMeters>
            <DistanceMeters>2304.142325406</DistanceMeters>
          </Trackpoint>
          <Trackpoint>
            <Time>2022-08-26T08:15:35.000Z</Time>
            <Position>
              <LatitudeDegrees>36.70716234482824802398681640625</LatitudeDegrees>
              <LongitudeDegrees>-4.43598143756389617919921875</LongitudeDegrees>
            </Position>
            <AltitudeMeters>11</AltitudeMeters>
            <DistanceMeters>2310.1388047397</DistanceMeters>
          </Trackpoint>
          <Trackpoint>
            <Time>2022-08-26T08:15:41.000Z</Time>
            <Position>
              <LatitudeDegrees>36.7072710581123828887939453125</LatitudeDegrees>
              <LongitudeDegrees>-4.4360017217695713043212890625</LongitudeDegrees>
            </Position>
            <AltitudeMeters>10.80000019073486328125</AltitudeMeters>
            <DistanceMeters>2322.3732866304</DistanceMeters>
          </Trackpoint>
          <Trackpoint>
            <Time>2022-08-26T08:15:44.000Z</Time>
            <Position>
              <LatitudeDegrees>36.707280613481998443603515625</LatitudeDegrees>
              <LongitudeDegrees>-4.4359725527465343475341796875</LongitudeDegrees>
            </Position>
            <AltitudeMeters>10.6000003814697265625</AltitudeMeters>
            <DistanceMeters>2325.1858205351</DistanceMeters>
          </Trackpoint>
          <Trackpoint>
            <Time>2022-08-26T08:15:45.000Z</Time>
            <Position>
              <LatitudeDegrees>36.7072908394038677215576171875</LatitudeDegrees>
              <LongitudeDegrees>-4.4359646737575531005859375</LongitudeDegrees>
            </Position>
            <AltitudeMeters>10.6000003814697265625</AltitudeMeters>
            <DistanceMeters>2326.5263373057</DistanceMeters>
          </Trackpoint>
          <Trackpoint>
            <Time>2022-08-26T08:15:48.000Z</Time>
            <Position>
              <LatitudeDegrees>36.70733920298516750335693359375</LatitudeDegrees>
              <LongitudeDegrees>-4.43595134653151035308837890625</LongitudeDegrees>
            </Position>
            <AltitudeMeters>11.3999996185302734375</AltitudeMeters>
            <DistanceMeters>2332.0395248874</DistanceMeters>
          </Trackpoint>
          <Trackpoint>
            <Time>2022-08-26T08:15:49.000Z</Time>
            <Position>
              <LatitudeDegrees>36.70735077001154422760009765625</LatitudeDegrees>
              <LongitudeDegrees>-4.4359464012086391448974609375</LongitudeDegrees>
            </Position>
            <AltitudeMeters>11.3999996185302734375</AltitudeMeters>
            <DistanceMeters>2333.4034148197</DistanceMeters>
          </Trackpoint>
          <Trackpoint>
            <Time>2022-08-26T08:15:50.000Z</Time>
            <Position>
              <LatitudeDegrees>36.70735781081020832061767578125</LatitudeDegrees>
              <LongitudeDegrees>-4.4359366782009601593017578125</LongitudeDegrees>
            </Position>
            <AltitudeMeters>11.6000003814697265625</AltitudeMeters>
            <DistanceMeters>2334.5749828371</DistanceMeters>
          </Trackpoint>
          <Trackpoint>
            <Time>2022-08-26T08:15:53.000Z</Time>
            <Position>
              <LatitudeDegrees>36.7073942720890045166015625</LatitudeDegrees>
              <LongitudeDegrees>-4.43589870817959308624267578125</LongitudeDegrees>
            </Position>
            <AltitudeMeters>12</AltitudeMeters>
            <DistanceMeters>2339.8607237046</DistanceMeters>
          </Trackpoint>
          <Trackpoint>
            <Time>2022-08-26T08:15:55.000Z</Time>
            <Position>
              <LatitudeDegrees>36.7074237763881683349609375</LatitudeDegrees>
              <LongitudeDegrees>-4.4358716346323490142822265625</LongitudeDegrees>
            </Position>
            <AltitudeMeters>12.19999980926513671875</AltitudeMeters>
            <DistanceMeters>2343.9391303554</DistanceMeters>
          </Trackpoint>
          <Trackpoint>
            <Time>2022-08-26T08:15:58.000Z</Time>
            <Position>
              <LatitudeDegrees>36.7074903286993503570556640625</LatitudeDegrees>
              <LongitudeDegrees>-4.43585445173084735870361328125</LongitudeDegrees>
            </Position>
            <AltitudeMeters>13.19999980926513671875</AltitudeMeters>
            <DistanceMeters>2351.5031613144</DistanceMeters>
          </Trackpoint>
          <Trackpoint>
            <Time>2022-08-26T08:16:04.000Z</Time>
            <Position>
              <LatitudeDegrees>36.707624606788158416748046875</LatitudeDegrees>
              <LongitudeDegrees>-4.43585805594921112060546875</LongitudeDegrees>
            </Position>
            <AltitudeMeters>14</AltitudeMeters>
            <DistanceMeters>2366.4522860993</DistanceMeters>
          </Trackpoint>
          <Trackpoint>
            <Time>2022-08-26T08:16:12.000Z</Time>
            <Position>
              <LatitudeDegrees>36.70776751823723316192626953125</LatitudeDegrees>
              <LongitudeDegrees>-4.4357542879879474639892578125</LongitudeDegrees>
            </Position>
            <AltitudeMeters>14.80000019073486328125</AltitudeMeters>
            <DistanceMeters>2384.8570742689</DistanceMeters>
          </Trackpoint>
          <Trackpoint>
            <Time>2022-08-26T08:16:18.000Z</Time>
            <Position>
              <LatitudeDegrees>36.70793750323355197906494140625</LatitudeDegrees>
              <LongitudeDegrees>-4.43567524664103984832763671875</LongitudeDegrees>
            </Position>
            <AltitudeMeters>13.80000019073486328125</AltitudeMeters>
            <DistanceMeters>2405.0488535725</DistanceMeters>
          </Trackpoint>
          <Trackpoint>
            <Time>2022-08-26T08:16:19.000Z</Time>
            <Position>
              <LatitudeDegrees>36.707969270646572113037109375</LatitudeDegrees>
              <LongitudeDegrees>-4.43567491136491298675537109375</LongitudeDegrees>
            </Position>
            <AltitudeMeters>13.6000003814697265625</AltitudeMeters>
            <DistanceMeters>2408.585328636</DistanceMeters>
          </Trackpoint>
          <Trackpoint>
            <Time>2022-08-26T08:16:21.000Z</Time>
            <Position>
              <LatitudeDegrees>36.70801361091434955596923828125</LatitudeDegrees>
              <LongitudeDegrees>-4.4356640987098217010498046875</LongitudeDegrees>
            </Position>
            <AltitudeMeters>13</AltitudeMeters>
            <DistanceMeters>2413.6136697186</DistanceMeters>
          </Trackpoint>
          <Trackpoint>
            <Time>2022-08-26T08:16:24.000Z</Time>
            <Position>
              <LatitudeDegrees>36.70806147158145904541015625</LatitudeDegrees>
              <LongitudeDegrees>-4.4356275536119937896728515625</LongitudeDegrees>
            </Position>
            <AltitudeMeters>12.3999996185302734375</AltitudeMeters>
            <DistanceMeters>2419.8594627217</DistanceMeters>
          </Trackpoint>
          <Trackpoint>
            <Time>2022-08-26T08:16:26.000Z</Time>
            <Position>
              <LatitudeDegrees>36.70808695256710052490234375</LatitudeDegrees>
              <LongitudeDegrees>-4.43560215644538402557373046875</LongitudeDegrees>
            </Position>
            <AltitudeMeters>12.19999980926513671875</AltitudeMeters>
            <DistanceMeters>2423.4904283795</DistanceMeters>
          </Trackpoint>
          <Trackpoint>
            <Time>2022-08-26T08:16:28.000Z</Time>
            <Position>
              <LatitudeDegrees>36.708097346127033233642578125</LatitudeDegrees>
              <LongitudeDegrees>-4.4355668686330318450927734375</LongitudeDegrees>
            </Position>
            <AltitudeMeters>12.19999980926513671875</AltitudeMeters>
            <DistanceMeters>2426.8447502557</DistanceMeters>
          </Trackpoint>
          <Trackpoint>
            <Time>2022-08-26T08:16:30.000Z</Time>
            <Position>
              <LatitudeDegrees>36.7081099189817905426025390625</LatitudeDegrees>
              <LongitudeDegrees>-4.4355427287518978118896484375</LongitudeDegrees>
            </Position>
            <AltitudeMeters>12</AltitudeMeters>
            <DistanceMeters>2429.413988641</DistanceMeters>
          </Trackpoint>
          <Trackpoint>
            <Time>2022-08-26T08:16:33.000Z</Time>
            <Position>
              <LatitudeDegrees>36.70812324620783329010009765625</LatitudeDegrees>
              <LongitudeDegrees>-4.4355202652513980865478515625</LongitudeDegrees>
            </Position>
            <AltitudeMeters>12</AltitudeMeters>
            <DistanceMeters>2431.9065159916</DistanceMeters>
          </Trackpoint>
          <Trackpoint>
            <Time>2022-08-26T08:16:35.000Z</Time>
            <Position>
              <LatitudeDegrees>36.7081533372402191162109375</LatitudeDegrees>
              <LongitudeDegrees>-4.435496963560581207275390625</LongitudeDegrees>
            </Position>
            <AltitudeMeters>11.80000019073486328125</AltitudeMeters>
            <DistanceMeters>2435.848693253</DistanceMeters>
          </Trackpoint>
          <Trackpoint>
            <Time>2022-08-26T08:16:40.000Z</Time>
            <Position>
              <LatitudeDegrees>36.708248555660247802734375</LatitudeDegrees>
              <LongitudeDegrees>-4.43543468602001667022705078125</LongitudeDegrees>
            </Position>
            <AltitudeMeters>11</AltitudeMeters>
            <DistanceMeters>2447.8152697161</DistanceMeters>
          </Trackpoint>
          <Trackpoint>
            <Time>2022-08-26T08:16:42.000Z</Time>
            <Position>
              <LatitudeDegrees>36.708282418549060821533203125</LatitudeDegrees>
              <LongitudeDegrees>-4.43541641347110271453857421875</LongitudeDegrees>
            </Position>
            <AltitudeMeters>10.6000003814697265625</AltitudeMeters>
            <DistanceMeters>2451.9201598054</DistanceMeters>
          </Trackpoint>
          <Trackpoint>
            <Time>2022-08-26T08:16:44.000Z</Time>
            <Position>
              <LatitudeDegrees>36.70830999501049518585205078125</LatitudeDegrees>
              <LongitudeDegrees>-4.435393698513507843017578125</LongitudeDegrees>
            </Position>
            <AltitudeMeters>10.3999996185302734375</AltitudeMeters>
            <DistanceMeters>2455.5980742297</DistanceMeters>
          </Trackpoint>
          <Trackpoint>
            <Time>2022-08-26T08:16:45.000Z</Time>
            <Position>
              <LatitudeDegrees>36.708329021930694580078125</LatitudeDegrees>
              <LongitudeDegrees>-4.43538137711584568023681640625</LongitudeDegrees>
            </Position>
            <AltitudeMeters>10.19999980926513671875</AltitudeMeters>
            <DistanceMeters>2457.9832258307</DistanceMeters>
          </Trackpoint>
          <Trackpoint>
            <Time>2022-08-26T08:16:46.000Z</Time>
            <Position>
              <LatitudeDegrees>36.70834712684154510498046875</LatitudeDegrees>
              <LongitudeDegrees>-4.4353747554123401641845703125</LongitudeDegrees>
            </Position>
            <AltitudeMeters>10</AltitudeMeters>
            <DistanceMeters>2460.0824345637</DistanceMeters>
          </Trackpoint>
          <Trackpoint>
            <Time>2022-08-26T08:22:29.000Z</Time>
            <Position>
              <LatitudeDegrees>36.70766475610435009002685546875</LatitudeDegrees>
              <LongitudeDegrees>-4.43553225137293338775634765625</LongitudeDegrees>
            </Position>
            <AltitudeMeters>15</AltitudeMeters>
            <DistanceMeters>2537.3209757422</DistanceMeters>
          </Trackpoint>
          <Trackpoint>
            <Time>2022-08-26T08:22:33.000Z</Time>
            <Position>
              <LatitudeDegrees>36.7076800949871540069580078125</LatitudeDegrees>
              <LongitudeDegrees>-4.4354830496013164520263671875</LongitudeDegrees>
            </Position>
            <AltitudeMeters>15</AltitudeMeters>
            <DistanceMeters>2542.0322311905</DistanceMeters>
          </Trackpoint>
          <Trackpoint>
            <Time>2022-08-26T08:22:34.000Z</Time>
            <Position>
              <LatitudeDegrees>36.7076908238232135772705078125</LatitudeDegrees>
              <LongitudeDegrees>-4.435463435947895050048828125</LongitudeDegrees>
            </Position>
            <AltitudeMeters>15</AltitudeMeters>
            <DistanceMeters>2544.1507089441</DistanceMeters>
          </Trackpoint>
          <Trackpoint>
            <Time>2022-08-26T08:22:35.000Z</Time>
            <Position>
              <LatitudeDegrees>36.70768990181386470794677734375</LatitudeDegrees>
              <LongitudeDegrees>-4.43544994108378887176513671875</LongitudeDegrees>
            </Position>
            <AltitudeMeters>15</AltitudeMeters>
            <DistanceMeters>2545.3602015584</DistanceMeters>
          </Trackpoint>
          <Trackpoint>
            <Time>2022-08-26T08:22:37.000Z</Time>
            <Position>
              <LatitudeDegrees>36.70767867006361484527587890625</LatitudeDegrees>
              <LongitudeDegrees>-4.43541683256626129150390625</LongitudeDegrees>
            </Position>
            <AltitudeMeters>15</AltitudeMeters>
            <DistanceMeters>2548.5686727124</DistanceMeters>
          </Trackpoint>
          <Trackpoint>
            <Time>2022-08-26T08:22:38.000Z</Time>
            <Position>
              <LatitudeDegrees>36.70766316354274749755859375</LatitudeDegrees>
              <LongitudeDegrees>-4.43539478816092014312744140625</LongitudeDegrees>
            </Position>
            <AltitudeMeters>15</AltitudeMeters>
            <DistanceMeters>2551.1866543817</DistanceMeters>
          </Trackpoint>
          <Trackpoint>
            <Time>2022-08-26T08:22:42.000Z</Time>
            <Position>
              <LatitudeDegrees>36.70763441361486911773681640625</LatitudeDegrees>
              <LongitudeDegrees>-4.43531013093888759613037109375</LongitudeDegrees>
            </Position>
            <AltitudeMeters>15</AltitudeMeters>
            <DistanceMeters>2559.3898324037</DistanceMeters>
          </Trackpoint>
          <Trackpoint>
            <Time>2022-08-26T08:22:43.000Z</Time>
            <Position>
              <LatitudeDegrees>36.70763726346194744110107421875</LatitudeDegrees>
              <LongitudeDegrees>-4.43530015647411346435546875</LongitudeDegrees>
            </Position>
            <AltitudeMeters>15</AltitudeMeters>
            <DistanceMeters>2560.3305488815</DistanceMeters>
          </Trackpoint>
          <Trackpoint>
            <Time>2022-08-26T08:22:48.000Z</Time>
            <Position>
              <LatitudeDegrees>36.7077402770519256591796875</LatitudeDegrees>
              <LongitudeDegrees>-4.435239136219024658203125</LongitudeDegrees>
            </Position>
            <AltitudeMeters>15</AltitudeMeters>
            <DistanceMeters>2573.02328672</DistanceMeters>
          </Trackpoint>
          <Trackpoint>
            <Time>2022-08-26T08:22:49.000Z</Time>
            <Position>
              <LatitudeDegrees>36.70775880105793476104736328125</LatitudeDegrees>
              <LongitudeDegrees>-4.43523301742970943450927734375</LongitudeDegrees>
            </Position>
            <AltitudeMeters>15</AltitudeMeters>
            <DistanceMeters>2575.1566311665</DistanceMeters>
          </Trackpoint>
          <Trackpoint>
            <Time>2022-08-26T08:22:51.000Z</Time>
            <Position>
              <LatitudeDegrees>36.7077840305864810943603515625</LatitudeDegrees>
              <LongitudeDegrees>-4.43522145040333271026611328125</LongitudeDegrees>
            </Position>
            <AltitudeMeters>15</AltitudeMeters>
            <DistanceMeters>2578.1495955553</DistanceMeters>
          </Trackpoint>
          <Trackpoint>
            <Time>2022-08-26T08:22:52.000Z</Time>
            <Position>
              <LatitudeDegrees>36.7077826894819736480712890625</LatitudeDegrees>
              <LongitudeDegrees>-4.43521172739565372467041015625</LongitudeDegrees>
            </Position>
            <AltitudeMeters>15</AltitudeMeters>
            <DistanceMeters>2579.0308370513</DistanceMeters>
          </Trackpoint>
          <Trackpoint>
            <Time>2022-08-26T08:22:54.000Z</Time>
            <Position>
              <LatitudeDegrees>36.70776952989399433135986328125</LatitudeDegrees>
              <LongitudeDegrees>-4.43518859334290027618408203125</LongitudeDegrees>
            </Position>
            <AltitudeMeters>15</AltitudeMeters>
            <DistanceMeters>2581.5629022706</DistanceMeters>
          </Trackpoint>
          <Trackpoint>
            <Time>2022-08-26T08:22:56.000Z</Time>
            <Position>
              <LatitudeDegrees>36.70777841471135616302490234375</LatitudeDegrees>
              <LongitudeDegrees>-4.43516612984240055084228515625</LongitudeDegrees>
            </Position>
            <AltitudeMeters>15</AltitudeMeters>
            <DistanceMeters>2583.7995654885</DistanceMeters>
          </Trackpoint>
          <Trackpoint>
            <Time>2022-08-26T08:23:01.000Z</Time>
            <Position>
              <LatitudeDegrees>36.7079017125070095062255859375</LatitudeDegrees>
              <LongitudeDegrees>-4.43510477431118488311767578125</LongitudeDegrees>
            </Position>
            <AltitudeMeters>14.80000019073486328125</AltitudeMeters>
            <DistanceMeters>2598.5746153372</DistanceMeters>
          </Trackpoint>
          <Trackpoint>
            <Time>2022-08-26T08:23:03.000Z</Time>
            <Position>
              <LatitudeDegrees>36.70797538943588733673095703125</LatitudeDegrees>
              <LongitudeDegrees>-4.43506303243339061737060546875</LongitudeDegrees>
            </Position>
            <AltitudeMeters>14.3999996185302734375</AltitudeMeters>
            <DistanceMeters>2607.581122801</DistanceMeters>
          </Trackpoint>
          <Trackpoint>
            <Time>2022-08-26T08:23:04.000Z</Time>
            <Position>
              <LatitudeDegrees>36.7080240882933139801025390625</LatitudeDegrees>
              <LongitudeDegrees>-4.4350500404834747314453125</LongitudeDegrees>
            </Position>
            <AltitudeMeters>14.3999996185302734375</AltitudeMeters>
            <DistanceMeters>2613.1237142583</DistanceMeters>
          </Trackpoint>
          <Trackpoint>
            <Time>2022-08-26T08:23:05.000Z</Time>
            <Position>
              <LatitudeDegrees>36.70805937610566616058349609375</LatitudeDegrees>
              <LongitudeDegrees>-4.43503553979098796844482421875</LongitudeDegrees>
            </Position>
            <AltitudeMeters>14.19999980926513671875</AltitudeMeters>
            <DistanceMeters>2617.2581954481</DistanceMeters>
          </Trackpoint>
          <Trackpoint>
            <Time>2022-08-26T08:23:08.000Z</Time>
            <Position>
              <LatitudeDegrees>36.7081721127033233642578125</LatitudeDegrees>
              <LongitudeDegrees>-4.43497971631586551666259765625</LongitudeDegrees>
            </Position>
            <AltitudeMeters>13.3999996185302734375</AltitudeMeters>
            <DistanceMeters>2630.7586792522</DistanceMeters>
          </Trackpoint>
          <Trackpoint>
            <Time>2022-08-26T08:23:09.000Z</Time>
            <Position>
              <LatitudeDegrees>36.7081962525844573974609375</LatitudeDegrees>
              <LongitudeDegrees>-4.43497166968882083892822265625</LongitudeDegrees>
            </Position>
            <AltitudeMeters>13.19999980926513671875</AltitudeMeters>
            <DistanceMeters>2633.5389212265</DistanceMeters>
          </Trackpoint>
          <Trackpoint>
            <Time>2022-08-26T08:23:10.000Z</Time>
            <Position>
              <LatitudeDegrees>36.70820706523954868316650390625</LatitudeDegrees>
              <LongitudeDegrees>-4.4349643774330615997314453125</LongitudeDegrees>
            </Position>
            <AltitudeMeters>13.19999980926513671875</AltitudeMeters>
            <DistanceMeters>2634.9061175635</DistanceMeters>
          </Trackpoint>
          <Trackpoint>
            <Time>2022-08-26T08:23:13.000Z</Time>
            <Position>
              <LatitudeDegrees>36.7082472145557403564453125</LatitudeDegrees>
              <LongitudeDegrees>-4.43493478931486606597900390625</LongitudeDegrees>
            </Position>
            <AltitudeMeters>12.80000019073486328125</AltitudeMeters>
            <DistanceMeters>2640.0970469706</DistanceMeters>
          </Trackpoint>
          <Trackpoint>
            <Time>2022-08-26T08:23:15.000Z</Time>
            <Position>
              <LatitudeDegrees>36.70825651846826076507568359375</LatitudeDegrees>
              <LongitudeDegrees>-4.43491525948047637939453125</LongitudeDegrees>
            </Position>
            <AltitudeMeters>13</AltitudeMeters>
            <DistanceMeters>2642.1218073775</DistanceMeters>
          </Trackpoint>
          <Trackpoint>
            <Time>2022-08-26T08:23:17.000Z</Time>
            <Position>
              <LatitudeDegrees>36.7082554288208484649658203125</LatitudeDegrees>
              <LongitudeDegrees>-4.4348902814090251922607421875</LongitudeDegrees>
            </Position>
            <AltitudeMeters>13.19999980926513671875</AltitudeMeters>
            <DistanceMeters>2644.3544296467</DistanceMeters>
          </Trackpoint>
          <Trackpoint>
            <Time>2022-08-26T08:23:20.000Z</Time>
            <Position>
              <LatitudeDegrees>36.70825752429664134979248046875</LatitudeDegrees>
              <LongitudeDegrees>-4.43485013209283351898193359375</LongitudeDegrees>
            </Position>
            <AltitudeMeters>13.3999996185302734375</AltitudeMeters>
            <DistanceMeters>2647.9441258853</DistanceMeters>
          </Trackpoint>
          <Trackpoint>
            <Time>2022-08-26T08:23:21.000Z</Time>
            <Position>
              <LatitudeDegrees>36.70825333334505558013916015625</LatitudeDegrees>
              <LongitudeDegrees>-4.4348381459712982177734375</LongitudeDegrees>
            </Position>
            <AltitudeMeters>13.3999996185302734375</AltitudeMeters>
            <DistanceMeters>2649.1156939028</DistanceMeters>
          </Trackpoint>
          <Trackpoint>
            <Time>2022-08-26T08:23:22.000Z</Time>
            <Position>
              <LatitudeDegrees>36.7082487232983112335205078125</LatitudeDegrees>
              <LongitudeDegrees>-4.43482800386846065521240234375</LongitudeDegrees>
            </Position>
            <AltitudeMeters>13.6000003814697265625</AltitudeMeters>
            <DistanceMeters>2650.1566594033</DistanceMeters>
          </Trackpoint>
          <Trackpoint>
            <Time>2022-08-26T08:23:23.000Z</Time>
            <Position>
              <LatitudeDegrees>36.7082577757537364959716796875</LatitudeDegrees>
              <LongitudeDegrees>-4.4348289258778095245361328125</LongitudeDegrees>
            </Position>
            <AltitudeMeters>13.3999996185302734375</AltitudeMeters>
            <DistanceMeters>2651.1712670687</DistanceMeters>
          </Trackpoint>
          <Trackpoint>
            <Time>2022-08-26T08:23:25.000Z</Time>
            <Position>
              <LatitudeDegrees>36.708275713026523590087890625</LatitudeDegrees>
              <LongitudeDegrees>-4.4348329491913318634033203125</LongitudeDegrees>
            </Position>
            <AltitudeMeters>13.3999996185302734375</AltitudeMeters>
            <DistanceMeters>2653.1960274756</DistanceMeters>
          </Trackpoint>
          <Trackpoint>
            <Time>2022-08-26T08:23:27.000Z</Time>
            <Position>
              <LatitudeDegrees>36.70830421149730682373046875</LatitudeDegrees>
              <LongitudeDegrees>-4.43481040187180042266845703125</LongitudeDegrees>
            </Position>
            <AltitudeMeters>13.19999980926513671875</AltitudeMeters>
            <DistanceMeters>2656.9516871255</DistanceMeters>
          </Trackpoint>
          <Trackpoint>
            <Time>2022-08-26T08:23:28.000Z</Time>
            <Position>
              <LatitudeDegrees>36.708325333893299102783203125</LatitudeDegrees>
              <LongitudeDegrees>-4.434800930321216583251953125</LongitudeDegrees>
            </Position>
            <AltitudeMeters>13</AltitudeMeters>
            <DistanceMeters>2659.4496428542</DistanceMeters>
          </Trackpoint>
          <Trackpoint>
            <Time>2022-08-26T08:23:29.000Z</Time>
            <Position>
              <LatitudeDegrees>36.70834737829864025115966796875</LatitudeDegrees>
              <LongitudeDegrees>-4.4347866810858249664306640625</LongitudeDegrees>
            </Position>
            <AltitudeMeters>12.80000019073486328125</AltitudeMeters>
            <DistanceMeters>2662.2135973892</DistanceMeters>
          </Trackpoint>
          <Trackpoint>
            <Time>2022-08-26T08:23:30.000Z</Time>
            <Position>
              <LatitudeDegrees>36.70837436802685260772705078125</LatitudeDegrees>
              <LongitudeDegrees>-4.43478156812489032745361328125</LongitudeDegrees>
            </Position>
            <AltitudeMeters>12.6000003814697265625</AltitudeMeters>
            <DistanceMeters>2665.2514812128</DistanceMeters>
          </Trackpoint>
          <Trackpoint>
            <Time>2022-08-26T08:23:34.000Z</Time>
            <Position>
              <LatitudeDegrees>36.70844594947993755340576171875</LatitudeDegrees>
              <LongitudeDegrees>-4.4347469508647918701171875</LongitudeDegrees>
            </Position>
            <AltitudeMeters>12.6000003814697265625</AltitudeMeters>
            <DistanceMeters>2673.7964913431</DistanceMeters>
          </Trackpoint>
          <Trackpoint>
            <Time>2022-08-26T08:23:37.000Z</Time>
            <Position>
              <LatitudeDegrees>36.708452403545379638671875</LatitudeDegrees>
              <LongitudeDegrees>-4.434705041348934173583984375</LongitudeDegrees>
            </Position>
            <AltitudeMeters>13</AltitudeMeters>
            <DistanceMeters>2677.6046802524</DistanceMeters>
          </Trackpoint>
          <Trackpoint>
            <Time>2022-08-26T08:23:39.000Z</Time>
            <Position>
              <LatitudeDegrees>36.708457767963409423828125</LatitudeDegrees>
              <LongitudeDegrees>-4.434694312512874603271484375</LongitudeDegrees>
            </Position>
            <AltitudeMeters>13</AltitudeMeters>
            <DistanceMeters>2678.7330599662</DistanceMeters>
          </Trackpoint>
          <Trackpoint>
            <Time>2022-08-26T08:23:41.000Z</Time>
            <Position>
              <LatitudeDegrees>36.708467490971088409423828125</LatitudeDegrees>
              <LongitudeDegrees>-4.43468148820102214813232421875</LongitudeDegrees>
            </Position>
            <AltitudeMeters>13</AltitudeMeters>
            <DistanceMeters>2680.3060319766</DistanceMeters>
          </Trackpoint>
          <Trackpoint>
            <Time>2022-08-26T08:23:45.000Z</Time>
            <Position>
              <LatitudeDegrees>36.70849330723285675048828125</LatitudeDegrees>
              <LongitudeDegrees>-4.43462918512523174285888671875</LongitudeDegrees>
            </Position>
            <AltitudeMeters>13.19999980926513671875</AltitudeMeters>
            <DistanceMeters>2685.786363559</DistanceMeters>
          </Trackpoint>
          <Trackpoint>
            <Time>2022-08-26T08:23:47.000Z</Time>
            <Position>
              <LatitudeDegrees>36.7085162736475467681884765625</LatitudeDegrees>
              <LongitudeDegrees>-4.43461510352790355682373046875</LongitudeDegrees>
            </Position>
            <AltitudeMeters>13.3999996185302734375</AltitudeMeters>
            <DistanceMeters>2688.6339956712</DistanceMeters>
          </Trackpoint>
          <Trackpoint>
            <Time>2022-08-26T08:23:49.000Z</Time>
            <Position>
              <LatitudeDegrees>36.70855156145989894866943359375</LatitudeDegrees>
              <LongitudeDegrees>-4.43462600000202655792236328125</LongitudeDegrees>
            </Position>
            <AltitudeMeters>13.19999980926513671875</AltitudeMeters>
            <DistanceMeters>2692.6812859585</DistanceMeters>
          </Trackpoint>
          <Trackpoint>
            <Time>2022-08-26T08:23:51.000Z</Time>
            <Position>
              <LatitudeDegrees>36.7086373083293437957763671875</LatitudeDegrees>
              <LongitudeDegrees>-4.43460856564342975616455078125</LongitudeDegrees>
            </Position>
            <AltitudeMeters>13.3999996185302734375</AltitudeMeters>
            <DistanceMeters>2702.3506919124</DistanceMeters>
          </Trackpoint>
          <Trackpoint>
            <Time>2022-08-26T08:24:00.000Z</Time>
            <Position>
              <LatitudeDegrees>36.7086870968341827392578125</LatitudeDegrees>
              <LongitudeDegrees>-4.43451217375695705413818359375</LongitudeDegrees>
            </Position>
            <AltitudeMeters>13.6000003814697265625</AltitudeMeters>
            <DistanceMeters>2712.5822937525</DistanceMeters>
          </Trackpoint>
          <Trackpoint>
            <Time>2022-08-26T08:24:01.000Z</Time>
            <Position>
              <LatitudeDegrees>36.70867376960813999176025390625</LatitudeDegrees>
              <LongitudeDegrees>-4.43451561033725738525390625</LongitudeDegrees>
            </Position>
            <AltitudeMeters>13.6000003814697265625</AltitudeMeters>
            <DistanceMeters>2714.0967703673</DistanceMeters>
          </Trackpoint>
          <Trackpoint>
            <Time>2022-08-26T08:24:07.000Z</Time>
            <Position>
              <LatitudeDegrees>36.70859749428927898406982421875</LatitudeDegrees>
              <LongitudeDegrees>-4.43444729782640933990478515625</LongitudeDegrees>
            </Position>
            <AltitudeMeters>14</AltitudeMeters>
            <DistanceMeters>2724.5479810467</DistanceMeters>
          </Trackpoint>
          <Trackpoint>
            <Time>2022-08-26T08:24:12.000Z</Time>
            <Position>
              <LatitudeDegrees>36.70859598554670810699462890625</LatitudeDegrees>
              <LongitudeDegrees>-4.4344044663012027740478515625</LongitudeDegrees>
            </Position>
            <AltitudeMeters>14</AltitudeMeters>
            <DistanceMeters>2728.3750927504</DistanceMeters>
          </Trackpoint>
          <Trackpoint>
            <Time>2022-08-26T08:24:18.000Z</Time>
            <Position>
              <LatitudeDegrees>36.70862666331231594085693359375</LatitudeDegrees>
              <LongitudeDegrees>-4.43430296145379543304443359375</LongitudeDegrees>
            </Position>
            <AltitudeMeters>14</AltitudeMeters>
            <DistanceMeters>2738.0547659464</DistanceMeters>
          </Trackpoint>
          <Trackpoint>
            <Time>2022-08-26T08:24:22.000Z</Time>
            <Position>
              <LatitudeDegrees>36.7086916230618953704833984375</LatitudeDegrees>
              <LongitudeDegrees>-4.43422886542975902557373046875</LongitudeDegrees>
            </Position>
            <AltitudeMeters>14</AltitudeMeters>
            <DistanceMeters>2747.8521999268</DistanceMeters>
          </Trackpoint>
          <Trackpoint>
            <Time>2022-08-26T08:24:24.000Z</Time>
            <Position>
              <LatitudeDegrees>36.7086966522037982940673828125</LatitudeDegrees>
              <LongitudeDegrees>-4.434197433292865753173828125</LongitudeDegrees>
            </Position>
            <AltitudeMeters>14</AltitudeMeters>
            <DistanceMeters>2750.7124882441</DistanceMeters>
          </Trackpoint>
          <Trackpoint>
            <Time>2022-08-26T08:24:34.000Z</Time>
            <Position>
              <LatitudeDegrees>36.708800084888935089111328125</LatitudeDegrees>
              <LongitudeDegrees>-4.434096850454807281494140625</LongitudeDegrees>
            </Position>
            <AltitudeMeters>14.19999980926513671875</AltitudeMeters>
            <DistanceMeters>2765.3101505201</DistanceMeters>
          </Trackpoint>
          <Trackpoint>
            <Time>2022-08-26T08:24:41.000Z</Time>
            <Position>
              <LatitudeDegrees>36.70883084647357463836669921875</LatitudeDegrees>
              <LongitudeDegrees>-4.4340178929269313812255859375</LongitudeDegrees>
            </Position>
            <AltitudeMeters>14.3999996185302734375</AltitudeMeters>
            <DistanceMeters>2773.1439490568</DistanceMeters>
          </Trackpoint>
          <Trackpoint>
            <Time>2022-08-26T08:24:45.000Z</Time>
            <Position>
              <LatitudeDegrees>36.70883302576839923858642578125</LatitudeDegrees>
              <LongitudeDegrees>-4.43399450741708278656005859375</LongitudeDegrees>
            </Position>
            <AltitudeMeters>14.6000003814697265625</AltitudeMeters>
            <DistanceMeters>2775.2431577898</DistanceMeters>
          </Trackpoint>
          <Trackpoint>
            <Time>2022-08-26T08:24:47.000Z</Time>
            <Position>
              <LatitudeDegrees>36.708830930292606353759765625</LatitudeDegrees>
              <LongitudeDegrees>-4.43397581577301025390625</LongitudeDegrees>
            </Position>
            <AltitudeMeters>14.6000003814697265625</AltitudeMeters>
            <DistanceMeters>2776.9270354585</DistanceMeters>
          </Trackpoint>
          <Trackpoint>
            <Time>2022-08-26T08:24:50.000Z</Time>
            <Position>
              <LatitudeDegrees>36.70883017592132091522216796875</LatitudeDegrees>
              <LongitudeDegrees>-4.43394564092159271240234375</LongitudeDegrees>
            </Position>
            <AltitudeMeters>14.80000019073486328125</AltitudeMeters>
            <DistanceMeters>2779.6198316604</DistanceMeters>
          </Trackpoint>
          <Trackpoint>
            <Time>2022-08-26T08:24:52.000Z</Time>
            <Position>
              <LatitudeDegrees>36.708845682442188262939453125</LatitudeDegrees>
              <LongitudeDegrees>-4.4339377619326114654541015625</LongitudeDegrees>
            </Position>
            <AltitudeMeters>14.80000019073486328125</AltitudeMeters>
            <DistanceMeters>2781.4843904368</DistanceMeters>
          </Trackpoint>
          <Trackpoint>
            <Time>2022-08-26T08:24:55.000Z</Time>
            <Position>
              <LatitudeDegrees>36.70885364525020122528076171875</LatitudeDegrees>
              <LongitudeDegrees>-4.43391387350857257843017578125</LongitudeDegrees>
            </Position>
            <AltitudeMeters>14.80000019073486328125</AltitudeMeters>
            <DistanceMeters>2783.7925813089</DistanceMeters>
          </Trackpoint>
          <Trackpoint>
            <Time>2022-08-26T08:24:59.000Z</Time>
            <Position>
              <LatitudeDegrees>36.7088753543794155120849609375</LatitudeDegrees>
              <LongitudeDegrees>-4.43386651575565338134765625</LongitudeDegrees>
            </Position>
            <AltitudeMeters>15</AltitudeMeters>
            <DistanceMeters>2788.6603241728</DistanceMeters>
          </Trackpoint>
          <Trackpoint>
            <Time>2022-08-26T08:25:00.000Z</Time>
            <Position>
              <LatitudeDegrees>36.7088813893496990203857421875</LatitudeDegrees>
              <LongitudeDegrees>-4.4338646717369556427001953125</LongitudeDegrees>
            </Position>
            <AltitudeMeters>15</AltitudeMeters>
            <DistanceMeters>2789.3586250592</DistanceMeters>
          </Trackpoint>
          <Trackpoint>
            <Time>2022-08-26T08:25:01.000Z</Time>
            <Position>
              <LatitudeDegrees>36.708887256681919097900390625</LatitudeDegrees>
              <LongitudeDegrees>-4.4338546134531497955322265625</LongitudeDegrees>
            </Position>
            <AltitudeMeters>15</AltitudeMeters>
            <DistanceMeters>2790.4668174596</DistanceMeters>
          </Trackpoint>
          <Trackpoint>
            <Time>2022-08-26T08:25:04.000Z</Time>
            <Position>
              <LatitudeDegrees>36.7089216224849224090576171875</LatitudeDegrees>
              <LongitudeDegrees>-4.43380574695765972137451171875</LongitudeDegrees>
            </Position>
            <AltitudeMeters>15.19999980926513671875</AltitudeMeters>
            <DistanceMeters>2796.2673402663</DistanceMeters>
          </Trackpoint>
          <Trackpoint>
            <Time>2022-08-26T08:25:06.000Z</Time>
            <Position>
              <LatitudeDegrees>36.7089601792395114898681640625</LatitudeDegrees>
              <LongitudeDegrees>-4.43378395400941371917724609375</LongitudeDegrees>
            </Position>
            <AltitudeMeters>15.19999980926513671875</AltitudeMeters>
            <DistanceMeters>2800.9785957146</DistanceMeters>
          </Trackpoint>
          <Trackpoint>
            <Time>2022-08-26T08:25:11.000Z</Time>
            <Position>
              <LatitudeDegrees>36.7090346105396747589111328125</LatitudeDegrees>
              <LongitudeDegrees>-4.43375788629055023193359375</LongitudeDegrees>
            </Position>
            <AltitudeMeters>14.3999996185302734375</AltitudeMeters>
            <DistanceMeters>2809.5836306849</DistanceMeters>
          </Trackpoint>
          <Trackpoint>
            <Time>2022-08-26T08:25:12.000Z</Time>
            <Position>
              <LatitudeDegrees>36.70903754420578479766845703125</LatitudeDegrees>
              <LongitudeDegrees>-4.43374447524547576904296875</LongitudeDegrees>
            </Position>
            <AltitudeMeters>14.3999996185302734375</AltitudeMeters>
            <DistanceMeters>2810.8262662195</DistanceMeters>
          </Trackpoint>
          <Trackpoint>
            <Time>2022-08-26T08:25:14.000Z</Time>
            <Position>
              <LatitudeDegrees>36.7090393044054508209228515625</LatitudeDegrees>
              <LongitudeDegrees>-4.43372435867786407470703125</LongitudeDegrees>
            </Position>
            <AltitudeMeters>14.6000003814697265625</AltitudeMeters>
            <DistanceMeters>2812.6317737926</DistanceMeters>
          </Trackpoint>
          <Trackpoint>
            <Time>2022-08-26T08:25:20.000Z</Time>
            <Position>
              <LatitudeDegrees>36.70904978178441524505615234375</LatitudeDegrees>
              <LongitudeDegrees>-4.43366124294698238372802734375</LongitudeDegrees>
            </Position>
            <AltitudeMeters>14.6000003814697265625</AltitudeMeters>
            <DistanceMeters>2818.382264201</DistanceMeters>
          </Trackpoint>
          <Trackpoint>
            <Time>2022-08-26T08:25:27.000Z</Time>
            <Position>
              <LatitudeDegrees>36.7090134881436824798583984375</LatitudeDegrees>
              <LongitudeDegrees>-4.4335820339620113372802734375</LongitudeDegrees>
            </Position>
            <AltitudeMeters>15.19999980926513671875</AltitudeMeters>
            <DistanceMeters>2826.523563919</DistanceMeters>
          </Trackpoint>
          <Trackpoint>
            <Time>2022-08-26T08:25:29.000Z</Time>
            <Position>
              <LatitudeDegrees>36.70894852839410305023193359375</LatitudeDegrees>
              <LongitudeDegrees>-4.4335377775132656097412109375</LongitudeDegrees>
            </Position>
            <AltitudeMeters>16</AltitudeMeters>
            <DistanceMeters>2834.7618923024</DistanceMeters>
          </Trackpoint>
          <Trackpoint>
            <Time>2022-08-26T08:25:34.000Z</Time>
            <Position>
              <LatitudeDegrees>36.70889287255704402923583984375</LatitudeDegrees>
              <LongitudeDegrees>-4.43346493877470493316650390625</LongitudeDegrees>
            </Position>
            <AltitudeMeters>16.200000762939453125</AltitudeMeters>
            <DistanceMeters>2843.7407854687</DistanceMeters>
          </Trackpoint>
          <Trackpoint>
            <Time>2022-08-26T08:25:37.000Z</Time>
            <Position>
              <LatitudeDegrees>36.708863116800785064697265625</LatitudeDegrees>
              <LongitudeDegrees>-4.43341062404215335845947265625</LongitudeDegrees>
            </Position>
            <AltitudeMeters>16.3999996185302734375</AltitudeMeters>
            <DistanceMeters>2849.6109448967</DistanceMeters>
          </Trackpoint>
          <Trackpoint>
            <Time>2022-08-26T08:25:41.000Z</Time>
            <Position>
              <LatitudeDegrees>36.7088699899613857269287109375</LatitudeDegrees>
              <LongitudeDegrees>-4.43338371813297271728515625</LongitudeDegrees>
            </Position>
            <AltitudeMeters>16.200000762939453125</AltitudeMeters>
            <DistanceMeters>2852.1287045484</DistanceMeters>
          </Trackpoint>
          <Trackpoint>
            <Time>2022-08-26T08:25:43.000Z</Time>
            <Position>
              <LatitudeDegrees>36.70885263942182064056396484375</LatitudeDegrees>
              <LongitudeDegrees>-4.4333709776401519775390625</LongitudeDegrees>
            </Position>
            <AltitudeMeters>16.3999996185302734375</AltitudeMeters>
            <DistanceMeters>2854.3694014272</DistanceMeters>
          </Trackpoint>
          <Trackpoint>
            <Time>2022-08-26T08:25:44.000Z</Time>
            <Position>
              <LatitudeDegrees>36.708855740725994110107421875</LatitudeDegrees>
              <LongitudeDegrees>-4.43336754105985164642333984375</LongitudeDegrees>
            </Position>
            <AltitudeMeters>16.3999996185302734375</AltitudeMeters>
            <DistanceMeters>2854.8251335396</DistanceMeters>
          </Trackpoint>
          <Trackpoint>
            <Time>2022-08-26T08:25:49.000Z</Time>
            <Position>
              <LatitudeDegrees>36.709003262221813201904296875</LatitudeDegrees>
              <LongitudeDegrees>-4.43334708921611309051513671875</LongitudeDegrees>
            </Position>
            <AltitudeMeters>15.19999980926513671875</AltitudeMeters>
            <DistanceMeters>2871.3455763436</DistanceMeters>
          </Trackpoint>
          <Trackpoint>
            <Time>2022-08-26T08:25:50.000Z</Time>
            <Position>
              <LatitudeDegrees>36.709032766520977020263671875</LatitudeDegrees>
              <LongitudeDegrees>-4.43334055133163928985595703125</LongitudeDegrees>
            </Position>
            <AltitudeMeters>14.80000019073486328125</AltitudeMeters>
            <DistanceMeters>2874.6810004814</DistanceMeters>
          </Trackpoint>
          <Trackpoint>
            <Time>2022-08-26T08:25:51.000Z</Time>
            <Position>
              <LatitudeDegrees>36.70904810540378093719482421875</LatitudeDegrees>
              <LongitudeDegrees>-4.433333091437816619873046875</LongitudeDegrees>
            </Position>
            <AltitudeMeters>14.6000003814697265625</AltitudeMeters>
            <DistanceMeters>2876.5138093741</DistanceMeters>
          </Trackpoint>
          <Trackpoint>
            <Time>2022-08-26T08:25:53.000Z</Time>
            <Position>
              <LatitudeDegrees>36.709070987999439239501953125</LatitudeDegrees>
              <LongitudeDegrees>-4.4333141483366489410400390625</LongitudeDegrees>
            </Position>
            <AltitudeMeters>14.19999980926513671875</AltitudeMeters>
            <DistanceMeters>2879.5694760842</DistanceMeters>
          </Trackpoint>
          <Trackpoint>
            <Time>2022-08-26T08:25:58.000Z</Time>
            <Position>
              <LatitudeDegrees>36.7091556452214717864990234375</LatitudeDegrees>
              <LongitudeDegrees>-4.43329478614032268524169921875</LongitudeDegrees>
            </Position>
            <AltitudeMeters>12.80000019073486328125</AltitudeMeters>
            <DistanceMeters>2889.1488099245</DistanceMeters>
          </Trackpoint>
          <Trackpoint>
            <Time>2022-08-26T08:27:10.000Z</Time>
            <Position>
              <LatitudeDegrees>36.70959862880408763885498046875</LatitudeDegrees>
              <LongitudeDegrees>-4.43320074118673801422119140625</LongitudeDegrees>
            </Position>
            <AltitudeMeters>6.80000019073486328125</AltitudeMeters>
            <DistanceMeters>2939.1626615603</DistanceMeters>
          </Trackpoint>
          <Trackpoint>
            <Time>2022-08-26T08:27:11.000Z</Time>
            <Position>
              <LatitudeDegrees>36.709611117839813232421875</LatitudeDegrees>
              <LongitudeDegrees>-4.433200657367706298828125</LongitudeDegrees>
            </Position>
            <AltitudeMeters>6.599999904632568359375</AltitudeMeters>
            <DistanceMeters>2940.5527825475</DistanceMeters>
          </Trackpoint>
          <Trackpoint>
            <Time>2022-08-26T08:27:14.000Z</Time>
            <Position>
              <LatitudeDegrees>36.70963232405483722686767578125</LatitudeDegrees>
              <LongitudeDegrees>-4.43319856189191341400146484375</LongitudeDegrees>
            </Position>
            <AltitudeMeters>6.599999904632568359375</AltitudeMeters>
            <DistanceMeters>2942.9227419454</DistanceMeters>
          </Trackpoint>
          <Trackpoint>
            <Time>2022-08-26T08:27:18.000Z</Time>
            <Position>
              <LatitudeDegrees>36.70967205427587032318115234375</LatitudeDegrees>
              <LongitudeDegrees>-4.43321348167955875396728515625</LongitudeDegrees>
            </Position>
            <AltitudeMeters>6.400000095367431640625</AltitudeMeters>
            <DistanceMeters>2947.5410793693</DistanceMeters>
          </Trackpoint>
          <Trackpoint>
            <Time>2022-08-26T08:27:19.000Z</Time>
            <Position>
              <LatitudeDegrees>36.7096763290464878082275390625</LatitudeDegrees>
              <LongitudeDegrees>-4.43322069011628627777099609375</LongitudeDegrees>
            </Position>
            <AltitudeMeters>6.400000095367431640625</AltitudeMeters>
            <DistanceMeters>2948.3474077788</DistanceMeters>
          </Trackpoint>
          <Trackpoint>
            <Time>2022-08-26T08:27:24.000Z</Time>
            <Position>
              <LatitudeDegrees>36.70970474369823932647705078125</LatitudeDegrees>
              <LongitudeDegrees>-4.4332735799252986907958984375</LongitudeDegrees>
            </Position>
            <AltitudeMeters>6.19999980926513671875</AltitudeMeters>
            <DistanceMeters>2954.0283842099</DistanceMeters>
          </Trackpoint>
          <Trackpoint>
            <Time>2022-08-26T08:27:27.000Z</Time>
            <Position>
              <LatitudeDegrees>36.70973382890224456787109375</LatitudeDegrees>
              <LongitudeDegrees>-4.433308281004428863525390625</LongitudeDegrees>
            </Position>
            <AltitudeMeters>6.19999980926513671875</AltitudeMeters>
            <DistanceMeters>2958.5077624992</DistanceMeters>
          </Trackpoint>
          <Trackpoint>
            <Time>2022-08-26T08:27:31.000Z</Time>
            <Position>
              <LatitudeDegrees>36.7097537778317928314208984375</LatitudeDegrees>
              <LongitudeDegrees>-4.433280117809772491455078125</LongitudeDegrees>
            </Position>
            <AltitudeMeters>6</AltitudeMeters>
            <DistanceMeters>2961.8593912221</DistanceMeters>
          </Trackpoint>
          <Trackpoint>
            <Time>2022-08-26T08:27:35.000Z</Time>
            <Position>
              <LatitudeDegrees>36.70970675535500049591064453125</LatitudeDegrees>
              <LongitudeDegrees>-4.43327399902045726776123046875</LongitudeDegrees>
            </Position>
            <AltitudeMeters>6.19999980926513671875</AltitudeMeters>
            <DistanceMeters>2967.1211603521</DistanceMeters>
          </Trackpoint>
          <Trackpoint>
            <Time>2022-08-26T08:27:37.000Z</Time>
            <Position>
              <LatitudeDegrees>36.70967808924615383148193359375</LatitudeDegrees>
              <LongitudeDegrees>-4.43329118192195892333984375</LongitudeDegrees>
            </Position>
            <AltitudeMeters>6.400000095367431640625</AltitudeMeters>
            <DistanceMeters>2970.660187906</DistanceMeters>
          </Trackpoint>
          <Trackpoint>
            <Time>2022-08-26T08:27:40.000Z</Time>
            <Position>
              <LatitudeDegrees>36.70965646393597126007080078125</LatitudeDegrees>
              <LongitudeDegrees>-4.43329109810292720794677734375</LongitudeDegrees>
            </Position>
            <AltitudeMeters>6.400000095367431640625</AltitudeMeters>
            <DistanceMeters>2973.0641947538</DistanceMeters>
          </Trackpoint>
          <Trackpoint>
            <Time>2022-08-26T08:27:41.000Z</Time>
            <Position>
              <LatitudeDegrees>36.70966920442879199981689453125</LatitudeDegrees>
              <LongitudeDegrees>-4.43327500484883785247802734375</LongitudeDegrees>
            </Position>
            <AltitudeMeters>6.400000095367431640625</AltitudeMeters>
            <DistanceMeters>2975.0800157776</DistanceMeters>
          </Trackpoint>
          <Trackpoint>
            <Time>2022-08-26T08:27:45.000Z</Time>
            <Position>
              <LatitudeDegrees>36.70970859937369823455810546875</LatitudeDegrees>
              <LongitudeDegrees>-4.43324290215969085693359375</LongitudeDegrees>
            </Position>
            <AltitudeMeters>6.19999980926513671875</AltitudeMeters>
            <DistanceMeters>2980.3177034579</DistanceMeters>
          </Trackpoint>
          <Trackpoint>
            <Time>2022-08-26T08:27:46.000Z</Time>
            <Position>
              <LatitudeDegrees>36.709716729819774627685546875</LatitudeDegrees>
              <LongitudeDegrees>-4.43323552608489990234375</LongitudeDegrees>
            </Position>
            <AltitudeMeters>6.19999980926513671875</AltitudeMeters>
            <DistanceMeters>2981.4420747054</DistanceMeters>
          </Trackpoint>
          <Trackpoint>
            <Time>2022-08-26T08:27:48.000Z</Time>
            <Position>
              <LatitudeDegrees>36.70972444117069244384765625</LatitudeDegrees>
              <LongitudeDegrees>-4.43322588689625263214111328125</LongitudeDegrees>
            </Position>
            <AltitudeMeters>6.19999980926513671875</AltitudeMeters>
            <DistanceMeters>2982.6590104213</DistanceMeters>
          </Trackpoint>
          <Trackpoint>
            <Time>2022-08-26T08:27:50.000Z</Time>
            <Position>
              <LatitudeDegrees>36.70971161685883998870849609375</LatitudeDegrees>
              <LongitudeDegrees>-4.433211050927639007568359375</LongitudeDegrees>
            </Position>
            <AltitudeMeters>6.19999980926513671875</AltitudeMeters>
            <DistanceMeters>2984.6041587525</DistanceMeters>
          </Trackpoint>
          <Trackpoint>
            <Time>2022-08-26T08:27:53.000Z</Time>
            <Position>
              <LatitudeDegrees>36.7097182385623455047607421875</LatitudeDegrees>
              <LongitudeDegrees>-4.43318129517138004302978515625</LongitudeDegrees>
            </Position>
            <AltitudeMeters>6.19999980926513671875</AltitudeMeters>
            <DistanceMeters>2987.3582945902</DistanceMeters>
          </Trackpoint>
          <Trackpoint>
            <Time>2022-08-26T08:27:55.000Z</Time>
            <Position>
              <LatitudeDegrees>36.7096957750618457794189453125</LatitudeDegrees>
              <LongitudeDegrees>-4.43317375145852565765380859375</LongitudeDegrees>
            </Position>
            <AltitudeMeters>6.400000095367431640625</AltitudeMeters>
            <DistanceMeters>2989.9467915907</DistanceMeters>
          </Trackpoint>
          <Trackpoint>
            <Time>2022-08-26T08:27:57.000Z</Time>
            <Position>
              <LatitudeDegrees>36.709731481969356536865234375</LatitudeDegrees>
              <LongitudeDegrees>-4.4331441633403301239013671875</LongitudeDegrees>
            </Position>
            <AltitudeMeters>6.19999980926513671875</AltitudeMeters>
            <DistanceMeters>2994.7180411875</DistanceMeters>
          </Trackpoint>
          <Trackpoint>
            <Time>2022-08-26T08:27:58.000Z</Time>
            <Position>
              <LatitudeDegrees>36.70978252775967121124267578125</LatitudeDegrees>
              <LongitudeDegrees>-4.433113150298595428466796875</LongitudeDegrees>
            </Position>
            <AltitudeMeters>6</AltitudeMeters>
            <DistanceMeters>3001.037139069</DistanceMeters>
          </Trackpoint>
          <Trackpoint>
            <Time>2022-08-26T08:28:00.000Z</Time>
            <Position>
              <LatitudeDegrees>36.70986383222043514251708984375</LatitudeDegrees>
              <LongitudeDegrees>-4.43306109867990016937255859375</LongitudeDegrees>
            </Position>
            <AltitudeMeters>6.19999980926513671875</AltitudeMeters>
            <DistanceMeters>3011.2089931721</DistanceMeters>
          </Trackpoint>
          <Trackpoint>
            <Time>2022-08-26T08:28:02.000Z</Time>
            <Position>
              <LatitudeDegrees>36.7099190689623355865478515625</LatitudeDegrees>
              <LongitudeDegrees>-4.43300175480544567108154296875</LongitudeDegrees>
            </Position>
            <AltitudeMeters>6.400000095367431640625</AltitudeMeters>
            <DistanceMeters>3019.3230727473</DistanceMeters>
          </Trackpoint>
          <Trackpoint>
            <Time>2022-08-26T08:28:04.000Z</Time>
            <Position>
              <LatitudeDegrees>36.70998101122677326202392578125</LatitudeDegrees>
              <LongitudeDegrees>-4.43293469958007335662841796875</LongitudeDegrees>
            </Position>
            <AltitudeMeters>6.80000019073486328125</AltitudeMeters>
            <DistanceMeters>3028.4515745644</DistanceMeters>
          </Trackpoint>
          <Trackpoint>
            <Time>2022-08-26T08:28:08.000Z</Time>
            <Position>
              <LatitudeDegrees>36.71011629514396190643310546875</LatitudeDegrees>
              <LongitudeDegrees>-4.432800002396106719970703125</LongitudeDegrees>
            </Position>
            <AltitudeMeters>7</AltitudeMeters>
            <DistanceMeters>3047.7176403856</DistanceMeters>
          </Trackpoint>
          <Trackpoint>
            <Time>2022-08-26T08:28:09.000Z</Time>
            <Position>
              <LatitudeDegrees>36.71013188548386096954345703125</LatitudeDegrees>
              <LongitudeDegrees>-4.43277846090495586395263671875</LongitudeDegrees>
            </Position>
            <AltitudeMeters>7</AltitudeMeters>
            <DistanceMeters>3050.3061373861</DistanceMeters>
          </Trackpoint>
          <Trackpoint>
            <Time>2022-08-26T08:28:14.000Z</Time>
            <Position>
              <LatitudeDegrees>36.71020112000405788421630859375</LatitudeDegrees>
              <LongitudeDegrees>-4.4326814822852611541748046875</LongitudeDegrees>
            </Position>
            <AltitudeMeters>7.19999980926513671875</AltitudeMeters>
            <DistanceMeters>3061.8931636038</DistanceMeters>
          </Trackpoint>
          <Trackpoint>
            <Time>2022-08-26T08:28:16.000Z</Time>
            <Position>
              <LatitudeDegrees>36.7102348990738391876220703125</LatitudeDegrees>
              <LongitudeDegrees>-4.43264342844486236572265625</LongitudeDegrees>
            </Position>
            <AltitudeMeters>7.400000095367431640625</AltitudeMeters>
            <DistanceMeters>3066.9590768732</DistanceMeters>
          </Trackpoint>
          <Trackpoint>
            <Time>2022-08-26T08:28:20.000Z</Time>
            <Position>
              <LatitudeDegrees>36.71030488796532154083251953125</LatitudeDegrees>
              <LongitudeDegrees>-4.43258768878877162933349609375</LongitudeDegrees>
            </Position>
            <AltitudeMeters>7.599999904632568359375</AltitudeMeters>
            <DistanceMeters>3076.2006385923</DistanceMeters>
          </Trackpoint>
          <Trackpoint>
            <Time>2022-08-26T08:28:23.000Z</Time>
            <Position>
              <LatitudeDegrees>36.710345707833766937255859375</LatitudeDegrees>
              <LongitudeDegrees>-4.4325487129390239715576171875</LongitudeDegrees>
            </Position>
            <AltitudeMeters>7.80000019073486328125</AltitudeMeters>
            <DistanceMeters>3081.9212152269</DistanceMeters>
          </Trackpoint>
          <Trackpoint>
            <Time>2022-08-26T08:28:25.000Z</Time>
            <Position>
              <LatitudeDegrees>36.71036490239202976226806640625</LatitudeDegrees>
              <LongitudeDegrees>-4.43251602351665496826171875</LongitudeDegrees>
            </Position>
            <AltitudeMeters>7.80000019073486328125</AltitudeMeters>
            <DistanceMeters>3085.5372283202</DistanceMeters>
          </Trackpoint>
          <Trackpoint>
            <Time>2022-08-26T08:28:26.000Z</Time>
            <Position>
              <LatitudeDegrees>36.71036859042942523956298828125</LatitudeDegrees>
              <LongitudeDegrees>-4.4325108267366886138916015625</LongitudeDegrees>
            </Position>
            <AltitudeMeters>7.80000019073486328125</AltitudeMeters>
            <DistanceMeters>3086.1675642335</DistanceMeters>
          </Trackpoint>
          <Trackpoint>
            <Time>2022-08-26T08:28:27.000Z</Time>
            <Position>
              <LatitudeDegrees>36.71036674641072750091552734375</LatitudeDegrees>
              <LongitudeDegrees>-4.43250688724219799041748046875</LongitudeDegrees>
            </Position>
            <AltitudeMeters>7.80000019073486328125</AltitudeMeters>
            <DistanceMeters>3086.5707284382</DistanceMeters>
          </Trackpoint>
          <Trackpoint>
            <Time>2022-08-26T08:28:37.000Z</Time>
            <Position>
              <LatitudeDegrees>36.71038091182708740234375</LatitudeDegrees>
              <LongitudeDegrees>-4.432431198656558990478515625</LongitudeDegrees>
            </Position>
            <AltitudeMeters>7.80000019073486328125</AltitudeMeters>
            <DistanceMeters>3093.5057257086</DistanceMeters>
          </Trackpoint>
          <Trackpoint>
            <Time>2022-08-26T08:28:38.000Z</Time>
            <Position>
              <LatitudeDegrees>36.710395328700542449951171875</LatitudeDegrees>
              <LongitudeDegrees>-4.432423822581768035888671875</LongitudeDegrees>
            </Position>
            <AltitudeMeters>7.80000019073486328125</AltitudeMeters>
            <DistanceMeters>3095.2424022854</DistanceMeters>
          </Trackpoint>
          <Trackpoint>
            <Time>2022-08-26T08:28:39.000Z</Time>
            <Position>
              <LatitudeDegrees>36.71041737310588359832763671875</LatitudeDegrees>
              <LongitudeDegrees>-4.4324099086225032806396484375</LongitudeDegrees>
            </Position>
            <AltitudeMeters>7.80000019073486328125</AltitudeMeters>
            <DistanceMeters>3097.9916156244</DistanceMeters>
          </Trackpoint>
          <Trackpoint>
            <Time>2022-08-26T08:28:43.000Z</Time>
            <Position>
              <LatitudeDegrees>36.71049599535763263702392578125</LatitudeDegrees>
              <LongitudeDegrees>-4.43236758001148700714111328125</LongitudeDegrees>
            </Position>
            <AltitudeMeters>7.400000095367431640625</AltitudeMeters>
            <DistanceMeters>3107.5227524415</DistanceMeters>
          </Trackpoint>
          <Trackpoint>
            <Time>2022-08-26T08:28:48.000Z</Time>
            <Position>
              <LatitudeDegrees>36.71058165840804576873779296875</LatitudeDegrees>
              <LongitudeDegrees>-4.43232357501983642578125</LongitudeDegrees>
            </Position>
            <AltitudeMeters>7.19999980926513671875</AltitudeMeters>
            <DistanceMeters>3117.8343551359</DistanceMeters>
          </Trackpoint>
          <Trackpoint>
            <Time>2022-08-26T08:28:53.000Z</Time>
            <Position>
              <LatitudeDegrees>36.71058534644544124603271484375</LatitudeDegrees>
              <LongitudeDegrees>-4.43229935131967067718505859375</LongitudeDegrees>
            </Position>
            <AltitudeMeters>7.19999980926513671875</AltitudeMeters>
            <DistanceMeters>3120.0343826298</DistanceMeters>
          </Trackpoint>
          <Trackpoint>
            <Time>2022-08-26T08:28:56.000Z</Time>
            <Position>
              <LatitudeDegrees>36.71059481799602508544921875</LatitudeDegrees>
              <LongitudeDegrees>-4.43229566328227519989013671875</LongitudeDegrees>
            </Position>
            <AltitudeMeters>7</AltitudeMeters>
            <DistanceMeters>3121.1343963768</DistanceMeters>
          </Trackpoint>
          <Trackpoint>
            <Time>2022-08-26T08:28:58.000Z</Time>
            <Position>
              <LatitudeDegrees>36.71060361899435520172119140625</LatitudeDegrees>
              <LongitudeDegrees>-4.43227487616240978240966796875</LongitudeDegrees>
            </Position>
            <AltitudeMeters>7</AltitudeMeters>
            <DistanceMeters>3123.2314531782</DistanceMeters>
          </Trackpoint>
          <Trackpoint>
            <Time>2022-08-26T08:29:00.000Z</Time>
            <Position>
              <LatitudeDegrees>36.71061401255428791046142578125</LatitudeDegrees>
              <LongitudeDegrees>-4.43225174210965633392333984375</LongitudeDegrees>
            </Position>
            <AltitudeMeters>7</AltitudeMeters>
            <DistanceMeters>3125.5975992842</DistanceMeters>
          </Trackpoint>
          <Trackpoint>
            <Time>2022-08-26T08:29:01.000Z</Time>
            <Position>
              <LatitudeDegrees>36.71062004752457141876220703125</LatitudeDegrees>
              <LongitudeDegrees>-4.43224621005356311798095703125</LongitudeDegrees>
            </Position>
            <AltitudeMeters>7</AltitudeMeters>
            <DistanceMeters>3126.426022974</DistanceMeters>
          </Trackpoint>
          <Trackpoint>
            <Time>2022-08-26T08:29:08.000Z</Time>
            <Position>
              <LatitudeDegrees>36.710674278438091278076171875</LatitudeDegrees>
              <LongitudeDegrees>-4.43225182592868804931640625</LongitudeDegrees>
            </Position>
            <AltitudeMeters>7</AltitudeMeters>
            <DistanceMeters>3132.4839294332</DistanceMeters>
          </Trackpoint>
          <Trackpoint>
            <Time>2022-08-26T08:29:10.000Z</Time>
            <Position>
              <LatitudeDegrees>36.71069330535829067230224609375</LatitudeDegrees>
              <LongitudeDegrees>-4.432256855070590972900390625</LongitudeDegrees>
            </Position>
            <AltitudeMeters>7</AltitudeMeters>
            <DistanceMeters>3134.648787321</DistanceMeters>
          </Trackpoint>
          <Trackpoint>
            <Time>2022-08-26T08:29:11.000Z</Time>
            <Position>
              <LatitudeDegrees>36.7106974124908447265625</LatitudeDegrees>
              <LongitudeDegrees>-4.4322551786899566650390625</LongitudeDegrees>
            </Position>
            <AltitudeMeters>7</AltitudeMeters>
            <DistanceMeters>3135.1333303919</DistanceMeters>
          </Trackpoint>
          <Trackpoint>
            <Time>2022-08-26T08:29:13.000Z</Time>
            <Position>
              <LatitudeDegrees>36.71070872806012630462646484375</LatitudeDegrees>
              <LongitudeDegrees>-4.4322379119694232940673828125</LongitudeDegrees>
            </Position>
            <AltitudeMeters>7</AltitudeMeters>
            <DistanceMeters>3137.1220921882</DistanceMeters>
          </Trackpoint>
          <Trackpoint>
            <Time>2022-08-26T08:29:16.000Z</Time>
            <Position>
              <LatitudeDegrees>36.710727252066135406494140625</LatitudeDegrees>
              <LongitudeDegrees>-4.4322234950959682464599609375</LongitudeDegrees>
            </Position>
            <AltitudeMeters>7</AltitudeMeters>
            <DistanceMeters>3139.5522506181</DistanceMeters>
          </Trackpoint>
          <Trackpoint>
            <Time>2022-08-26T08:29:18.000Z</Time>
            <Position>
              <LatitudeDegrees>36.71074661426246166229248046875</LatitudeDegrees>
              <LongitudeDegrees>-4.43222458474338054656982421875</LongitudeDegrees>
            </Position>
            <AltitudeMeters>7</AltitudeMeters>
            <DistanceMeters>3141.7108426233</DistanceMeters>
          </Trackpoint>
          <Trackpoint>
            <Time>2022-08-26T08:29:19.000Z</Time>
            <Position>
              <LatitudeDegrees>36.7107518948614597320556640625</LatitudeDegrees>
              <LongitudeDegrees>-4.43222072906792163848876953125</LongitudeDegrees>
            </Position>
            <AltitudeMeters>7</AltitudeMeters>
            <DistanceMeters>3142.3960900057</DistanceMeters>
          </Trackpoint>
          <Trackpoint>
            <Time>2022-08-26T08:29:21.000Z</Time>
            <Position>
              <LatitudeDegrees>36.7107522301375865936279296875</LatitudeDegrees>
              <LongitudeDegrees>-4.432209245860576629638671875</LongitudeDegrees>
            </Position>
            <AltitudeMeters>7</AltitudeMeters>
            <DistanceMeters>3143.4195590416</DistanceMeters>
          </Trackpoint>
          <Trackpoint>
            <Time>2022-08-26T08:29:23.000Z</Time>
            <Position>
              <LatitudeDegrees>36.7107559181749820709228515625</LatitudeDegrees>
              <LongitudeDegrees>-4.43219139240682125091552734375</LongitudeDegrees>
            </Position>
            <AltitudeMeters>7</AltitudeMeters>
            <DistanceMeters>3145.0654700153</DistanceMeters>
          </Trackpoint>
          <Trackpoint>
            <Time>2022-08-26T08:29:24.000Z</Time>
            <Position>
              <LatitudeDegrees>36.71076287515461444854736328125</LatitudeDegrees>
              <LongitudeDegrees>-4.43217764608561992645263671875</LongitudeDegrees>
            </Position>
            <AltitudeMeters>7</AltitudeMeters>
            <DistanceMeters>3146.5128738066</DistanceMeters>
          </Trackpoint>
          <Trackpoint>
            <Time>2022-08-26T08:29:27.000Z</Time>
            <Position>
              <LatitudeDegrees>36.7107927985489368438720703125</LatitudeDegrees>
              <LongitudeDegrees>-4.43213858641684055328369140625</LongitudeDegrees>
            </Position>
            <AltitudeMeters>7</AltitudeMeters>
            <DistanceMeters>3151.3330798904</DistanceMeters>
          </Trackpoint>
          <Trackpoint>
            <Time>2022-08-26T08:29:29.000Z</Time>
            <Position>
              <LatitudeDegrees>36.71081802807748317718505859375</LatitudeDegrees>
              <LongitudeDegrees>-4.432111345231533050537109375</LongitudeDegrees>
            </Position>
            <AltitudeMeters>7</AltitudeMeters>
            <DistanceMeters>3155.0476399998</DistanceMeters>
          </Trackpoint>
          <Trackpoint>
            <Time>2022-08-26T08:29:33.000Z</Time>
            <Position>
              <LatitudeDegrees>36.710871420800685882568359375</LatitudeDegrees>
              <LongitudeDegrees>-4.43206231109797954559326171875</LongitudeDegrees>
            </Position>
            <AltitudeMeters>7</AltitudeMeters>
            <DistanceMeters>3162.4279801755</DistanceMeters>
          </Trackpoint>
          <Trackpoint>
            <Time>2022-08-26T08:29:36.000Z</Time>
            <Position>
              <LatitudeDegrees>36.71090033836662769317626953125</LatitudeDegrees>
              <LongitudeDegrees>-4.4320340640842914581298828125</LongitudeDegrees>
            </Position>
            <AltitudeMeters>7</AltitudeMeters>
            <DistanceMeters>3166.5174424353</DistanceMeters>
          </Trackpoint>
          <Trackpoint>
            <Time>2022-08-26T08:29:37.000Z</Time>
            <Position>
              <LatitudeDegrees>36.71090754680335521697998046875</LatitudeDegrees>
              <LongitudeDegrees>-4.43202727474272251129150390625</LongitudeDegrees>
            </Position>
            <AltitudeMeters>7</AltitudeMeters>
            <DistanceMeters>3167.5231106518</DistanceMeters>
          </Trackpoint>
          <Trackpoint>
            <Time>2022-08-26T08:29:39.000Z</Time>
            <Position>
              <LatitudeDegrees>36.71092498116195201873779296875</LatitudeDegrees>
              <LongitudeDegrees>-4.4320052303373813629150390625</LongitudeDegrees>
            </Position>
            <AltitudeMeters>6.80000019073486328125</AltitudeMeters>
            <DistanceMeters>3170.2870651868</DistanceMeters>
          </Trackpoint>
          <Trackpoint>
            <Time>2022-08-26T08:29:41.000Z</Time>
            <Position>
              <LatitudeDegrees>36.71093939803540706634521484375</LatitudeDegrees>
              <LongitudeDegrees>-4.4319837726652622222900390625</LongitudeDegrees>
            </Position>
            <AltitudeMeters>6.80000019073486328125</AltitudeMeters>
            <DistanceMeters>3172.7850209156</DistanceMeters>
          </Trackpoint>
          <Trackpoint>
            <Time>2022-08-26T08:29:43.000Z</Time>
            <Position>
              <LatitudeDegrees>36.710958592593669891357421875</LatitudeDegrees>
              <LongitudeDegrees>-4.4319445453584194183349609375</LongitudeDegrees>
            </Position>
            <AltitudeMeters>6.80000019073486328125</AltitudeMeters>
            <DistanceMeters>3176.8855089766</DistanceMeters>
          </Trackpoint>
          <Trackpoint>
            <Time>2022-08-26T08:29:48.000Z</Time>
            <Position>
              <LatitudeDegrees>36.71099673025310039520263671875</LatitudeDegrees>
              <LongitudeDegrees>-4.4318409450352191925048828125</LongitudeDegrees>
            </Position>
            <AltitudeMeters>7</AltitudeMeters>
            <DistanceMeters>3187.0573630797</DistanceMeters>
          </Trackpoint>
          <Trackpoint>
            <Time>2022-08-26T08:29:49.000Z</Time>
            <Position>
              <LatitudeDegrees>36.71100745908915996551513671875</LatitudeDegrees>
              <LongitudeDegrees>-4.431831724941730499267578125</LongitudeDegrees>
            </Position>
            <AltitudeMeters>7</AltitudeMeters>
            <DistanceMeters>3188.5109922924</DistanceMeters>
          </Trackpoint>
          <Trackpoint>
            <Time>2022-08-26T08:29:51.000Z</Time>
            <Position>
              <LatitudeDegrees>36.71103604137897491455078125</LatitudeDegrees>
              <LongitudeDegrees>-4.43179811351001262664794921875</LongitudeDegrees>
            </Position>
            <AltitudeMeters>7</AltitudeMeters>
            <DistanceMeters>3192.8832539305</DistanceMeters>
          </Trackpoint>
          <Trackpoint>
            <Time>2022-08-26T08:29:52.000Z</Time>
            <Position>
              <LatitudeDegrees>36.71105205081403255462646484375</LatitudeDegrees>
              <LongitudeDegrees>-4.431784786283969879150390625</LongitudeDegrees>
            </Position>
            <AltitudeMeters>7</AltitudeMeters>
            <DistanceMeters>3195.0271543269</DistanceMeters>
          </Trackpoint>
          <Trackpoint>
            <Time>2022-08-26T08:29:56.000Z</Time>
            <Position>
              <LatitudeDegrees>36.71107870526611804962158203125</LatitudeDegrees>
              <LongitudeDegrees>-4.4317581318318843841552734375</LongitudeDegrees>
            </Position>
            <AltitudeMeters>7</AltitudeMeters>
            <DistanceMeters>3198.8305978276</DistanceMeters>
          </Trackpoint>
          <Trackpoint>
            <Time>2022-08-26T08:30:03.000Z</Time>
            <Position>
              <LatitudeDegrees>36.71110468916594982147216796875</LatitudeDegrees>
              <LongitudeDegrees>-4.43171915598213672637939453125</LongitudeDegrees>
            </Position>
            <AltitudeMeters>7</AltitudeMeters>
            <DistanceMeters>3203.3541089885</DistanceMeters>
          </Trackpoint>
          <Trackpoint>
            <Time>2022-08-26T08:30:09.000Z</Time>
            <Position>
              <LatitudeDegrees>36.7111344449222087860107421875</LatitudeDegrees>
              <LongitudeDegrees>-4.43167246878147125244140625</LongitudeDegrees>
            </Position>
            <AltitudeMeters>7</AltitudeMeters>
            <DistanceMeters>3208.6756049932</DistanceMeters>
          </Trackpoint>
          <Trackpoint>
            <Time>2022-08-26T08:30:11.000Z</Time>
            <Position>
              <LatitudeDegrees>36.71113318763673305511474609375</LatitudeDegrees>
              <LongitudeDegrees>-4.43166450597345829010009765625</LongitudeDegrees>
            </Position>
            <AltitudeMeters>7</AltitudeMeters>
            <DistanceMeters>3209.3993068888</DistanceMeters>
          </Trackpoint>
          <Trackpoint>
            <Time>2022-08-26T08:30:15.000Z</Time>
            <Position>
              <LatitudeDegrees>36.71116051264107227325439453125</LatitudeDegrees>
              <LongitudeDegrees>-4.43162058480083942413330078125</LongitudeDegrees>
            </Position>
            <AltitudeMeters>7.19999980926513671875</AltitudeMeters>
            <DistanceMeters>3214.3589367372</DistanceMeters>
          </Trackpoint>
          <Trackpoint>
            <Time>2022-08-26T08:30:16.000Z</Time>
            <Position>
              <LatitudeDegrees>36.71116654761135578155517578125</LatitudeDegrees>
              <LongitudeDegrees>-4.43161069415509700775146484375</LongitudeDegrees>
            </Position>
            <AltitudeMeters>7.19999980926513671875</AltitudeMeters>
            <DistanceMeters>3215.4671291377</DistanceMeters>
          </Trackpoint>
          <Trackpoint>
            <Time>2022-08-26T08:30:18.000Z</Time>
            <Position>
              <LatitudeDegrees>36.71117140911519527435302734375</LatitudeDegrees>
              <LongitudeDegrees>-4.43158135749399662017822265625</LongitudeDegrees>
            </Position>
            <AltitudeMeters>7.400000095367431640625</AltitudeMeters>
            <DistanceMeters>3218.1397290829</DistanceMeters>
          </Trackpoint>
          <Trackpoint>
            <Time>2022-08-26T08:30:21.000Z</Time>
            <Position>
              <LatitudeDegrees>36.71117057092487812042236328125</LatitudeDegrees>
              <LongitudeDegrees>-4.4315579719841480255126953125</LongitudeDegrees>
            </Position>
            <AltitudeMeters>7.599999904632568359375</AltitudeMeters>
            <DistanceMeters>3220.2281559843</DistanceMeters>
          </Trackpoint>
          <Trackpoint>
            <Time>2022-08-26T08:30:23.000Z</Time>
            <Position>
              <LatitudeDegrees>36.711179874837398529052734375</LatitudeDegrees>
              <LongitudeDegrees>-4.4315425492823123931884765625</LongitudeDegrees>
            </Position>
            <AltitudeMeters>7.80000019073486328125</AltitudeMeters>
            <DistanceMeters>3221.951784468</DistanceMeters>
          </Trackpoint>
          <Trackpoint>
            <Time>2022-08-26T08:30:29.000Z</Time>
            <Position>
              <LatitudeDegrees>36.7112068645656108856201171875</LatitudeDegrees>
              <LongitudeDegrees>-4.4314845465123653411865234375</LongitudeDegrees>
            </Position>
            <AltitudeMeters>8</AltitudeMeters>
            <DistanceMeters>3227.9362045048</DistanceMeters>
          </Trackpoint>
          <Trackpoint>
            <Time>2022-08-26T08:30:35.000Z</Time>
            <Position>
              <LatitudeDegrees>36.71123293228447437286376953125</LatitudeDegrees>
              <LongitudeDegrees>-4.4314369373023509979248046875</LongitudeDegrees>
            </Position>
            <AltitudeMeters>8.19999980926513671875</AltitudeMeters>
            <DistanceMeters>3233.0808283062</DistanceMeters>
          </Trackpoint>
          <Trackpoint>
            <Time>2022-08-26T08:30:38.000Z</Time>
            <Position>
              <LatitudeDegrees>36.71122639440000057220458984375</LatitudeDegrees>
              <LongitudeDegrees>-4.4314241968095302581787109375</LongitudeDegrees>
            </Position>
            <AltitudeMeters>8.3999996185302734375</AltitudeMeters>
            <DistanceMeters>3234.4247089887</DistanceMeters>
          </Trackpoint>
          <Trackpoint>
            <Time>2022-08-26T08:30:41.000Z</Time>
            <Position>
              <LatitudeDegrees>36.7112363688647747039794921875</LatitudeDegrees>
              <LongitudeDegrees>-4.43142159841954708099365234375</LongitudeDegrees>
            </Position>
            <AltitudeMeters>8.3999996185302734375</AltitudeMeters>
            <DistanceMeters>3235.5570829795</DistanceMeters>
          </Trackpoint>
          <Trackpoint>
            <Time>2022-08-26T08:30:42Z</Time>
            <Position>
              <LatitudeDegrees>36.711447</LatitudeDegrees>
              <LongitudeDegrees>-4.431192</LongitudeDegrees>
            </Position>
            <AltitudeMeters>7.00</AltitudeMeters>
            <DistanceMeters>3266.690479927</DistanceMeters>
          </Trackpoint>
          <Trackpoint>
            <Time>2022-08-26T08:30:43Z</Time>
            <Position>
              <LatitudeDegrees>36.711460</LatitudeDegrees>
              <LongitudeDegrees>-4.431176</LongitudeDegrees>
            </Position>
            <AltitudeMeters>7.00</AltitudeMeters>
            <DistanceMeters>3268.7241404226</DistanceMeters>
          </Trackpoint>
          <Trackpoint>
            <Time>2022-08-26T08:30:45Z</Time>
            <Position>
              <LatitudeDegrees>36.711476</LatitudeDegrees>
              <LongitudeDegrees>-4.431133</LongitudeDegrees>
            </Position>
            <AltitudeMeters>7.00</AltitudeMeters>
            <DistanceMeters>3272.9546973023</DistanceMeters>
          </Trackpoint>
          <Trackpoint>
            <Time>2022-08-26T08:30:47Z</Time>
            <Position>
              <LatitudeDegrees>36.711476</LatitudeDegrees>
              <LongitudeDegrees>-4.431101</LongitudeDegrees>
            </Position>
            <AltitudeMeters>7.20</AltitudeMeters>
            <DistanceMeters>3275.8118268243</DistanceMeters>
          </Trackpoint>
          <Trackpoint>
            <Time>2022-08-26T08:30:51Z</Time>
            <Position>
              <LatitudeDegrees>36.711421</LatitudeDegrees>
              <LongitudeDegrees>-4.431042</LongitudeDegrees>
            </Position>
            <AltitudeMeters>7.40</AltitudeMeters>
            <DistanceMeters>3283.8863021586</DistanceMeters>
          </Trackpoint>
          <Trackpoint>
            <Time>2022-08-26T08:30:54Z</Time>
            <Position>
              <LatitudeDegrees>36.711426</LatitudeDegrees>
              <LongitudeDegrees>-4.430969</LongitudeDegrees>
            </Position>
            <AltitudeMeters>7.60</AltitudeMeters>
            <DistanceMeters>3290.423145566</DistanceMeters>
          </Trackpoint>
          <Trackpoint>
            <Time>2022-08-26T08:30:55Z</Time>
            <Position>
              <LatitudeDegrees>36.711434</LatitudeDegrees>
              <LongitudeDegrees>-4.430911</LongitudeDegrees>
            </Position>
            <AltitudeMeters>7.80</AltitudeMeters>
            <DistanceMeters>3295.6737477585</DistanceMeters>
          </Trackpoint>
          <Trackpoint>
            <Time>2022-08-26T08:30:59Z</Time>
            <Position>
              <LatitudeDegrees>36.711450</LatitudeDegrees>
              <LongitudeDegrees>-4.430842</LongitudeDegrees>
            </Position>
            <AltitudeMeters>8.20</AltitudeMeters>
            <DistanceMeters>3302.0822411592</DistanceMeters>
          </Trackpoint>
          <Trackpoint>
            <Time>2022-08-26T08:31:00Z</Time>
            <Position>
              <LatitudeDegrees>36.711452</LatitudeDegrees>
              <LongitudeDegrees>-4.430820</LongitudeDegrees>
            </Position>
            <AltitudeMeters>8.20</AltitudeMeters>
            <DistanceMeters>3304.0619010231</DistanceMeters>
          </Trackpoint>
          <Trackpoint>
            <Time>2022-08-26T08:31:05Z</Time>
            <Position>
              <LatitudeDegrees>36.711436</LatitudeDegrees>
              <LongitudeDegrees>-4.430716</LongitudeDegrees>
            </Position>
            <AltitudeMeters>8.60</AltitudeMeters>
            <DistanceMeters>3313.5107298289</DistanceMeters>
          </Trackpoint>
          <Trackpoint>
            <Time>2022-08-26T08:31:12Z</Time>
            <Position>
              <LatitudeDegrees>36.711460</LatitudeDegrees>
              <LongitudeDegrees>-4.430523</LongitudeDegrees>
            </Position>
            <AltitudeMeters>9.20</AltitudeMeters>
            <DistanceMeters>3330.9371887581</DistanceMeters>
          </Trackpoint>
          <Trackpoint>
            <Time>2022-08-26T08:31:21Z</Time>
            <Position>
              <LatitudeDegrees>36.711433</LatitudeDegrees>
              <LongitudeDegrees>-4.430370</LongitudeDegrees>
            </Position>
            <AltitudeMeters>9.80</AltitudeMeters>
            <DistanceMeters>3344.9154860111</DistanceMeters>
          </Trackpoint>
          <Trackpoint>
            <Time>2022-08-26T08:31:26Z</Time>
            <Position>
              <LatitudeDegrees>36.711412</LatitudeDegrees>
              <LongitudeDegrees>-4.430308</LongitudeDegrees>
            </Position>
            <AltitudeMeters>10.20</AltitudeMeters>
            <DistanceMeters>3350.9209939261</DistanceMeters>
          </Trackpoint>
          <Trackpoint>
            <Time>2022-08-26T08:31:28Z</Time>
            <Position>
              <LatitudeDegrees>36.711414</LatitudeDegrees>
              <LongitudeDegrees>-4.430274</LongitudeDegrees>
            </Position>
            <AltitudeMeters>10.40</AltitudeMeters>
            <DistanceMeters>3353.961848786</DistanceMeters>
          </Trackpoint>
          <Trackpoint>
            <Time>2022-08-26T08:31:29Z</Time>
            <Position>
              <LatitudeDegrees>36.711413</LatitudeDegrees>
              <LongitudeDegrees>-4.430261</LongitudeDegrees>
            </Position>
            <AltitudeMeters>10.60</AltitudeMeters>
            <DistanceMeters>3355.1256835966</DistanceMeters>
          </Trackpoint>
          <Trackpoint>
            <Time>2022-08-26T08:31:31Z</Time>
            <Position>
              <LatitudeDegrees>36.711403</LatitudeDegrees>
              <LongitudeDegrees>-4.430241</LongitudeDegrees>
            </Position>
            <AltitudeMeters>10.60</AltitudeMeters>
            <DistanceMeters>3357.2291895884</DistanceMeters>
          </Trackpoint>
          <Trackpoint>
            <Time>2022-08-26T08:31:33Z</Time>
            <Position>
              <LatitudeDegrees>36.711388</LatitudeDegrees>
              <LongitudeDegrees>-4.430218</LongitudeDegrees>
            </Position>
            <AltitudeMeters>10.80</AltitudeMeters>
            <DistanceMeters>3359.8763275373</DistanceMeters>
          </Trackpoint>
          <Trackpoint>
            <Time>2022-08-26T08:31:36Z</Time>
            <Position>
              <LatitudeDegrees>36.711358</LatitudeDegrees>
              <LongitudeDegrees>-4.430186</LongitudeDegrees>
            </Position>
            <AltitudeMeters>11.00</AltitudeMeters>
            <DistanceMeters>3364.2702214183</DistanceMeters>
          </Trackpoint>
          <Trackpoint>
            <Time>2022-08-26T08:31:39Z</Time>
            <Position>
              <LatitudeDegrees>36.711350</LatitudeDegrees>
              <LongitudeDegrees>-4.430150</LongitudeDegrees>
            </Position>
            <AltitudeMeters>11.20</AltitudeMeters>
            <DistanceMeters>3367.6042916189</DistanceMeters>
          </Trackpoint>
          <Trackpoint>
            <Time>2022-08-26T08:31:46Z</Time>
            <Position>
              <LatitudeDegrees>36.711276</LatitudeDegrees>
              <LongitudeDegrees>-4.430106</LongitudeDegrees>
            </Position>
            <AltitudeMeters>11.60</AltitudeMeters>
            <DistanceMeters>3376.7288357069</DistanceMeters>
          </Trackpoint>
          <Trackpoint>
            <Time>2022-08-26T08:32:15Z</Time>
            <Position>
              <LatitudeDegrees>36.711013</LatitudeDegrees>
              <LongitudeDegrees>-4.430255</LongitudeDegrees>
            </Position>
            <AltitudeMeters>11.00</AltitudeMeters>
            <DistanceMeters>3408.8787761436</DistanceMeters>
          </Trackpoint>
          <Trackpoint>
            <Time>2022-08-26T08:32:22Z</Time>
            <Position>
              <LatitudeDegrees>36.710976</LatitudeDegrees>
              <LongitudeDegrees>-4.430189</LongitudeDegrees>
            </Position>
            <AltitudeMeters>11.40</AltitudeMeters>
            <DistanceMeters>3416.064454755</DistanceMeters>
          </Trackpoint>
          <Trackpoint>
            <Time>2022-08-26T08:32:28Z</Time>
            <Position>
              <LatitudeDegrees>36.710962</LatitudeDegrees>
              <LongitudeDegrees>-4.430090</LongitudeDegrees>
            </Position>
            <AltitudeMeters>12.00</AltitudeMeters>
            <DistanceMeters>3425.0342920509</DistanceMeters>
          </Trackpoint>
          <Trackpoint>
            <Time>2022-08-26T08:32:33Z</Time>
            <Position>
              <LatitudeDegrees>36.710947</LatitudeDegrees>
              <LongitudeDegrees>-4.429992</LongitudeDegrees>
            </Position>
            <AltitudeMeters>12.20</AltitudeMeters>
            <DistanceMeters>3433.9364238671</DistanceMeters>
          </Trackpoint>
          <Trackpoint>
            <Time>2022-08-26T08:32:35Z</Time>
            <Position>
              <LatitudeDegrees>36.710946</LatitudeDegrees>
              <LongitudeDegrees>-4.429959</LongitudeDegrees>
            </Position>
            <AltitudeMeters>12.40</AltitudeMeters>
            <DistanceMeters>3436.883784303</DistanceMeters>
          </Trackpoint>
          <Trackpoint>
            <Time>2022-08-26T08:32:38Z</Time>
            <Position>
              <LatitudeDegrees>36.710913</LatitudeDegrees>
              <LongitudeDegrees>-4.429923</LongitudeDegrees>
            </Position>
            <AltitudeMeters>12.20</AltitudeMeters>
            <DistanceMeters>3441.76264498</DistanceMeters>
          </Trackpoint>
          <Trackpoint>
            <Time>2022-08-26T08:32:40Z</Time>
            <Position>
              <LatitudeDegrees>36.710885</LatitudeDegrees>
              <LongitudeDegrees>-4.429912</LongitudeDegrees>
            </Position>
            <AltitudeMeters>12.20</AltitudeMeters>
            <DistanceMeters>3445.0296849793</DistanceMeters>
          </Trackpoint>
          <Trackpoint>
            <Time>2022-08-26T08:32:43Z</Time>
            <Position>
              <LatitudeDegrees>36.710845</LatitudeDegrees>
              <LongitudeDegrees>-4.429888</LongitudeDegrees>
            </Position>
            <AltitudeMeters>12.00</AltitudeMeters>
            <DistanceMeters>3449.9701603236</DistanceMeters>
          </Trackpoint>
          <Trackpoint>
            <Time>2022-08-26T08:32:45Z</Time>
            <Position>
              <LatitudeDegrees>36.710823</LatitudeDegrees>
              <LongitudeDegrees>-4.429862</LongitudeDegrees>
            </Position>
            <AltitudeMeters>12.00</AltitudeMeters>
            <DistanceMeters>3453.3432740661</DistanceMeters>
          </Trackpoint>
          <Trackpoint>
            <Time>2022-08-26T08:32:47Z</Time>
            <Position>
              <LatitudeDegrees>36.710783</LatitudeDegrees>
              <LongitudeDegrees>-4.429852</LongitudeDegrees>
            </Position>
            <AltitudeMeters>11.80</AltitudeMeters>
            <DistanceMeters>3457.8837216785</DistanceMeters>
          </Trackpoint>
          <Trackpoint>
            <Time>2022-08-26T08:32:49Z</Time>
            <Position>
              <LatitudeDegrees>36.710761</LatitudeDegrees>
              <LongitudeDegrees>-4.429828</LongitudeDegrees>
            </Position>
            <AltitudeMeters>11.80</AltitudeMeters>
            <DistanceMeters>3461.1369123573</DistanceMeters>
          </Trackpoint>
          <Trackpoint>
            <Time>2022-08-26T08:32:52Z</Time>
            <Position>
              <LatitudeDegrees>36.710749</LatitudeDegrees>
              <LongitudeDegrees>-4.429773</LongitudeDegrees>
            </Position>
            <AltitudeMeters>11.80</AltitudeMeters>
            <DistanceMeters>3466.2223955138</DistanceMeters>
          </Trackpoint>
          <Trackpoint>
            <Time>2022-08-26T08:32:54Z</Time>
            <Position>
              <LatitudeDegrees>36.710756</LatitudeDegrees>
              <LongitudeDegrees>-4.429713</LongitudeDegrees>
            </Position>
            <AltitudeMeters>12.00</AltitudeMeters>
            <DistanceMeters>3471.633080113</DistanceMeters>
          </Trackpoint>
          <Trackpoint>
            <Time>2022-08-26T08:32:56Z</Time>
            <Position>
              <LatitudeDegrees>36.710758</LatitudeDegrees>
              <LongitudeDegrees>-4.429664</LongitudeDegrees>
            </Position>
            <AltitudeMeters>12.00</AltitudeMeters>
            <DistanceMeters>3476.0115332977</DistanceMeters>
          </Trackpoint>
          <Trackpoint>
            <Time>2022-08-26T08:32:59Z</Time>
            <Position>
              <LatitudeDegrees>36.710700</LatitudeDegrees>
              <LongitudeDegrees>-4.429662</LongitudeDegrees>
            </Position>
            <AltitudeMeters>11.80</AltitudeMeters>
            <DistanceMeters>3482.4691561589</DistanceMeters>
          </Trackpoint>
          <Trackpoint>
            <Time>2022-08-26T08:33:00Z</Time>
            <Position>
              <LatitudeDegrees>36.710678</LatitudeDegrees>
              <LongitudeDegrees>-4.429667</LongitudeDegrees>
            </Position>
            <AltitudeMeters>11.80</AltitudeMeters>
            <DistanceMeters>3484.9580580133</DistanceMeters>
          </Trackpoint>
          <Trackpoint>
            <Time>2022-08-26T08:33:01Z</Time>
            <Position>
              <LatitudeDegrees>36.710660</LatitudeDegrees>
              <LongitudeDegrees>-4.429673</LongitudeDegrees>
            </Position>
            <AltitudeMeters>12.00</AltitudeMeters>
            <DistanceMeters>3487.0312961538</DistanceMeters>
          </Trackpoint>
          <Trackpoint>
            <Time>2022-08-26T08:33:05Z</Time>
            <Position>
              <LatitudeDegrees>36.710610</LatitudeDegrees>
              <LongitudeDegrees>-4.429704</LongitudeDegrees>
            </Position>
            <AltitudeMeters>12.00</AltitudeMeters>
            <DistanceMeters>3493.2452004719</DistanceMeters>
          </Trackpoint>
          <Trackpoint>
            <Time>2022-08-26T08:33:09Z</Time>
            <Position>
              <LatitudeDegrees>36.710566</LatitudeDegrees>
              <LongitudeDegrees>-4.429725</LongitudeDegrees>
            </Position>
            <AltitudeMeters>12.20</AltitudeMeters>
            <DistanceMeters>3498.4880577745</DistanceMeters>
          </Trackpoint>
          <Trackpoint>
            <Time>2022-08-26T08:33:12Z</Time>
            <Position>
              <LatitudeDegrees>36.710517</LatitudeDegrees>
              <LongitudeDegrees>-4.429738</LongitudeDegrees>
            </Position>
            <AltitudeMeters>12.40</AltitudeMeters>
            <DistanceMeters>3504.0639481246</DistanceMeters>
          </Trackpoint>
          <Trackpoint>
            <Time>2022-08-26T08:33:18Z</Time>
            <Position>
              <LatitudeDegrees>36.710415</LatitudeDegrees>
              <LongitudeDegrees>-4.429797</LongitudeDegrees>
            </Position>
            <AltitudeMeters>12.60</AltitudeMeters>
            <DistanceMeters>3516.5779237395</DistanceMeters>
          </Trackpoint>
          <Trackpoint>
            <Time>2022-08-26T08:33:23Z</Time>
            <Position>
              <LatitudeDegrees>36.710340</LatitudeDegrees>
              <LongitudeDegrees>-4.429851</LongitudeDegrees>
            </Position>
            <AltitudeMeters>12.80</AltitudeMeters>
            <DistanceMeters>3526.215993898</DistanceMeters>
          </Trackpoint>
          <Trackpoint>
            <Time>2022-08-26T08:33:24Z</Time>
            <Position>
              <LatitudeDegrees>36.710327</LatitudeDegrees>
              <LongitudeDegrees>-4.429868</LongitudeDegrees>
            </Position>
            <AltitudeMeters>12.80</AltitudeMeters>
            <DistanceMeters>3528.3108965572</DistanceMeters>
          </Trackpoint>
          <Trackpoint>
            <Time>2022-08-26T08:33:25Z</Time>
            <Position>
              <LatitudeDegrees>36.710314</LatitudeDegrees>
              <LongitudeDegrees>-4.429882</LongitudeDegrees>
            </Position>
            <AltitudeMeters>13.00</AltitudeMeters>
            <DistanceMeters>3530.2256317964</DistanceMeters>
          </Trackpoint>
          <Trackpoint>
            <Time>2022-08-26T08:33:26Z</Time>
            <Position>
              <LatitudeDegrees>36.710305</LatitudeDegrees>
              <LongitudeDegrees>-4.429905</LongitudeDegrees>
            </Position>
            <AltitudeMeters>13.00</AltitudeMeters>
            <DistanceMeters>3532.5102289567</DistanceMeters>
          </Trackpoint>
          <Trackpoint>
            <Time>2022-08-26T08:33:28Z</Time>
            <Position>
              <LatitudeDegrees>36.710275</LatitudeDegrees>
              <LongitudeDegrees>-4.429972</LongitudeDegrees>
            </Position>
            <AltitudeMeters>13.00</AltitudeMeters>
            <DistanceMeters>3539.3580889854</DistanceMeters>
          </Trackpoint>
          <Trackpoint>
            <Time>2022-08-26T08:33:36Z</Time>
            <Position>
              <LatitudeDegrees>36.710147</LatitudeDegrees>
              <LongitudeDegrees>-4.430110</LongitudeDegrees>
            </Position>
            <AltitudeMeters>13.20</AltitudeMeters>
            <DistanceMeters>3558.1887300207</DistanceMeters>
          </Trackpoint>
          <Trackpoint>
            <Time>2022-08-26T08:33:43Z</Time>
            <Position>
              <LatitudeDegrees>36.710061</LatitudeDegrees>
              <LongitudeDegrees>-4.430191</LongitudeDegrees>
            </Position>
            <AltitudeMeters>13.40</AltitudeMeters>
            <DistanceMeters>3570.1828180573</DistanceMeters>
          </Trackpoint>
          <Trackpoint>
            <Time>2022-08-26T08:33:47Z</Time>
            <Position>
              <LatitudeDegrees>36.710028</LatitudeDegrees>
              <LongitudeDegrees>-4.430204</LongitudeDegrees>
            </Position>
            <AltitudeMeters>13.60</AltitudeMeters>
            <DistanceMeters>3574.0346248538</DistanceMeters>
          </Trackpoint>
          <Trackpoint>
            <Time>2022-08-26T08:33:52Z</Time>
            <Position>
              <LatitudeDegrees>36.709969</LatitudeDegrees>
              <LongitudeDegrees>-4.430217</LongitudeDegrees>
            </Position>
            <AltitudeMeters>13.80</AltitudeMeters>
            <DistanceMeters>3580.702765255</DistanceMeters>
          </Trackpoint>
          <Trackpoint>
            <Time>2022-08-26T08:33:55Z</Time>
            <Position>
              <LatitudeDegrees>36.709925</LatitudeDegrees>
              <LongitudeDegrees>-4.430224</LongitudeDegrees>
            </Position>
            <AltitudeMeters>13.40</AltitudeMeters>
            <DistanceMeters>3585.6395836963</DistanceMeters>
          </Trackpoint>
          <Trackpoint>
            <Time>2022-08-26T08:33:57Z</Time>
            <Position>
              <LatitudeDegrees>36.709892</LatitudeDegrees>
              <LongitudeDegrees>-4.430238</LongitudeDegrees>
            </Position>
            <AltitudeMeters>13.40</AltitudeMeters>
            <DistanceMeters>3589.5205845348</DistanceMeters>
          </Trackpoint>
          <Trackpoint>
            <Time>2022-08-26T08:33:59Z</Time>
            <Position>
              <LatitudeDegrees>36.709864</LatitudeDegrees>
              <LongitudeDegrees>-4.430252</LongitudeDegrees>
            </Position>
            <AltitudeMeters>13.20</AltitudeMeters>
            <DistanceMeters>3592.880286241</DistanceMeters>
          </Trackpoint>
          <Trackpoint>
            <Time>2022-08-26T08:34:00Z</Time>
            <Position>
              <LatitudeDegrees>36.709848</LatitudeDegrees>
              <LongitudeDegrees>-4.430259</LongitudeDegrees>
            </Position>
            <AltitudeMeters>13.20</AltitudeMeters>
            <DistanceMeters>3594.766512664</DistanceMeters>
          </Trackpoint>
          <Trackpoint>
            <Time>2022-08-26T08:34:02Z</Time>
            <Position>
              <LatitudeDegrees>36.709819</LatitudeDegrees>
              <LongitudeDegrees>-4.430268</LongitudeDegrees>
            </Position>
            <AltitudeMeters>13.00</AltitudeMeters>
            <DistanceMeters>3598.092447667</DistanceMeters>
          </Trackpoint>
          <Trackpoint>
            <Time>2022-08-26T08:34:04Z</Time>
            <Position>
              <LatitudeDegrees>36.709795</LatitudeDegrees>
              <LongitudeDegrees>-4.430285</LongitudeDegrees>
            </Position>
            <AltitudeMeters>13.00</AltitudeMeters>
            <DistanceMeters>3601.1643249243</DistanceMeters>
          </Trackpoint>
          <Trackpoint>
            <Time>2022-08-26T08:34:06Z</Time>
            <Position>
              <LatitudeDegrees>36.709772</LatitudeDegrees>
              <LongitudeDegrees>-4.430301</LongitudeDegrees>
            </Position>
            <AltitudeMeters>12.80</AltitudeMeters>
            <DistanceMeters>3604.0963264207</DistanceMeters>
          </Trackpoint>
          <Trackpoint>
            <Time>2022-08-26T08:34:08Z</Time>
            <Position>
              <LatitudeDegrees>36.709756</LatitudeDegrees>
              <LongitudeDegrees>-4.430306</LongitudeDegrees>
            </Position>
            <AltitudeMeters>12.80</AltitudeMeters>
            <DistanceMeters>3605.9340556145</DistanceMeters>
          </Trackpoint>
          <Trackpoint>
            <Time>2022-08-26T08:34:13Z</Time>
            <Position>
              <LatitudeDegrees>36.709700</LatitudeDegrees>
              <LongitudeDegrees>-4.430346</LongitudeDegrees>
            </Position>
            <AltitudeMeters>12.60</AltitudeMeters>
            <DistanceMeters>3613.1172204324</DistanceMeters>
          </Trackpoint>
          <Trackpoint>
            <Time>2022-08-26T08:34:14Z</Time>
            <Position>
              <LatitudeDegrees>36.709689</LatitudeDegrees>
              <LongitudeDegrees>-4.430360</LongitudeDegrees>
            </Position>
            <AltitudeMeters>12.60</AltitudeMeters>
            <DistanceMeters>3614.8694264679</DistanceMeters>
          </Trackpoint>
          <Trackpoint>
            <Time>2022-08-26T08:34:22Z</Time>
            <Position>
              <LatitudeDegrees>36.709570</LatitudeDegrees>
              <LongitudeDegrees>-4.430430</LongitudeDegrees>
            </Position>
            <AltitudeMeters>11.80</AltitudeMeters>
            <DistanceMeters>3629.5134100582</DistanceMeters>
          </Trackpoint>
          <Trackpoint>
            <Time>2022-08-26T08:34:28Z</Time>
            <Position>
              <LatitudeDegrees>36.709494</LatitudeDegrees>
              <LongitudeDegrees>-4.430486</LongitudeDegrees>
            </Position>
            <AltitudeMeters>11.40</AltitudeMeters>
            <DistanceMeters>3639.3384554619</DistanceMeters>
          </Trackpoint>
          <Trackpoint>
            <Time>2022-08-26T08:34:31Z</Time>
            <Position>
              <LatitudeDegrees>36.709454</LatitudeDegrees>
              <LongitudeDegrees>-4.430527</LongitudeDegrees>
            </Position>
            <AltitudeMeters>11.20</AltitudeMeters>
            <DistanceMeters>3645.0999275835</DistanceMeters>
          </Trackpoint>
          <Trackpoint>
            <Time>2022-08-26T08:34:36Z</Time>
            <Position>
              <LatitudeDegrees>36.709403</LatitudeDegrees>
              <LongitudeDegrees>-4.430572</LongitudeDegrees>
            </Position>
            <AltitudeMeters>11.00</AltitudeMeters>
            <DistanceMeters>3652.0518315765</DistanceMeters>
          </Trackpoint>
          <Trackpoint>
            <Time>2022-08-26T08:34:37Z</Time>
            <Position>
              <LatitudeDegrees>36.709397</LatitudeDegrees>
              <LongitudeDegrees>-4.430575</LongitudeDegrees>
            </Position>
            <AltitudeMeters>11.00</AltitudeMeters>
            <DistanceMeters>3652.7629463921</DistanceMeters>
          </Trackpoint>
          <Trackpoint>
            <Time>2022-08-26T08:34:42Z</Time>
            <Position>
              <LatitudeDegrees>36.709328</LatitudeDegrees>
              <LongitudeDegrees>-4.430533</LongitudeDegrees>
            </Position>
            <AltitudeMeters>10.00</AltitudeMeters>
            <DistanceMeters>3661.3079565223</DistanceMeters>
          </Trackpoint>
          <Trackpoint>
            <Time>2022-08-26T08:34:47Z</Time>
            <Position>
              <LatitudeDegrees>36.709311</LatitudeDegrees>
              <LongitudeDegrees>-4.430525</LongitudeDegrees>
            </Position>
            <AltitudeMeters>9.80</AltitudeMeters>
            <DistanceMeters>3663.3304857876</DistanceMeters>
          </Trackpoint>
          <Trackpoint>
            <Time>2022-08-26T08:34:53Z</Time>
            <Position>
              <LatitudeDegrees>36.709299</LatitudeDegrees>
              <LongitudeDegrees>-4.430540</LongitudeDegrees>
            </Position>
            <AltitudeMeters>9.80</AltitudeMeters>
            <DistanceMeters>3665.2214935274</DistanceMeters>
          </Trackpoint>
          <Trackpoint>
            <Time>2022-08-26T08:34:58Z</Time>
            <Position>
              <LatitudeDegrees>36.709265</LatitudeDegrees>
              <LongitudeDegrees>-4.430541</LongitudeDegrees>
            </Position>
            <AltitudeMeters>9.60</AltitudeMeters>
            <DistanceMeters>3669.0070887668</DistanceMeters>
          </Trackpoint>
          <Trackpoint>
            <Time>2022-08-26T08:35:01Z</Time>
            <Position>
              <LatitudeDegrees>36.709233</LatitudeDegrees>
              <LongitudeDegrees>-4.430558</LongitudeDegrees>
            </Position>
            <AltitudeMeters>9.40</AltitudeMeters>
            <DistanceMeters>3672.8787714626</DistanceMeters>
          </Trackpoint>
          <Trackpoint>
            <Time>2022-08-26T08:35:03Z</Time>
            <Position>
              <LatitudeDegrees>36.709220</LatitudeDegrees>
              <LongitudeDegrees>-4.430559</LongitudeDegrees>
            </Position>
            <AltitudeMeters>9.20</AltitudeMeters>
            <DistanceMeters>3674.3324006752</DistanceMeters>
          </Trackpoint>
          <Trackpoint>
            <Time>2022-08-26T08:35:07Z</Time>
            <Position>
              <LatitudeDegrees>36.709212</LatitudeDegrees>
              <LongitudeDegrees>-4.430560</LongitudeDegrees>
            </Position>
            <AltitudeMeters>9.20</AltitudeMeters>
            <DistanceMeters>3675.2238302726</DistanceMeters>
          </Trackpoint>
          <Trackpoint>
            <Time>2022-08-26T08:35:10Z</Time>
            <Position>
              <LatitudeDegrees>36.709213</LatitudeDegrees>
              <LongitudeDegrees>-4.430578</LongitudeDegrees>
            </Position>
            <AltitudeMeters>9.20</AltitudeMeters>
            <DistanceMeters>3676.8308778335</DistanceMeters>
          </Trackpoint>
          <Trackpoint>
            <Time>2022-08-26T08:35:15Z</Time>
            <Position>
              <LatitudeDegrees>36.709139</LatitudeDegrees>
              <LongitudeDegrees>-4.430690</LongitudeDegrees>
            </Position>
            <AltitudeMeters>9.20</AltitudeMeters>
            <DistanceMeters>3689.7810353506</DistanceMeters>
          </Trackpoint>
          <Trackpoint>
            <Time>2022-08-26T08:35:17Z</Time>
            <Position>
              <LatitudeDegrees>36.709107</LatitudeDegrees>
              <LongitudeDegrees>-4.430722</LongitudeDegrees>
            </Position>
            <AltitudeMeters>9.00</AltitudeMeters>
            <DistanceMeters>3694.3462753698</DistanceMeters>
          </Trackpoint>
          <Trackpoint>
            <Time>2022-08-26T08:35:22Z</Time>
            <Position>
              <LatitudeDegrees>36.709050</LatitudeDegrees>
              <LongitudeDegrees>-4.430791</LongitudeDegrees>
            </Position>
            <AltitudeMeters>9.00</AltitudeMeters>
            <DistanceMeters>3703.1863139187</DistanceMeters>
          </Trackpoint>
          <Trackpoint>
            <Time>2022-08-26T08:35:28Z</Time>
            <Position>
              <LatitudeDegrees>36.708966</LatitudeDegrees>
              <LongitudeDegrees>-4.430854</LongitudeDegrees>
            </Position>
            <AltitudeMeters>8.80</AltitudeMeters>
            <DistanceMeters>3714.0953641731</DistanceMeters>
          </Trackpoint>
          <Trackpoint>
            <Time>2022-08-26T08:35:33Z</Time>
            <Position>
              <LatitudeDegrees>36.708902</LatitudeDegrees>
              <LongitudeDegrees>-4.430886</LongitudeDegrees>
            </Position>
            <AltitudeMeters>8.60</AltitudeMeters>
            <DistanceMeters>3721.7696171379</DistanceMeters>
          </Trackpoint>
          <Trackpoint>
            <Time>2022-08-26T08:35:34Z</Time>
            <Position>
              <LatitudeDegrees>36.708891</LatitudeDegrees>
              <LongitudeDegrees>-4.430893</LongitudeDegrees>
            </Position>
            <AltitudeMeters>8.60</AltitudeMeters>
            <DistanceMeters>3723.1401119027</DistanceMeters>
          </Trackpoint>
          <Trackpoint>
            <Time>2022-08-26T08:35:40Z</Time>
            <Position>
              <LatitudeDegrees>36.708856</LatitudeDegrees>
              <LongitudeDegrees>-4.430940</LongitudeDegrees>
            </Position>
            <AltitudeMeters>8.60</AltitudeMeters>
            <DistanceMeters>3728.8638447178</DistanceMeters>
          </Trackpoint>
          <Trackpoint>
            <Time>2022-08-26T08:35:43Z</Time>
            <Position>
              <LatitudeDegrees>36.708844</LatitudeDegrees>
              <LongitudeDegrees>-4.430967</LongitudeDegrees>
            </Position>
            <AltitudeMeters>8.80</AltitudeMeters>
            <DistanceMeters>3731.6212573394</DistanceMeters>
          </Trackpoint>
          <Trackpoint>
            <Time>2022-08-26T08:35:45Z</Time>
            <Position>
              <LatitudeDegrees>36.708834</LatitudeDegrees>
              <LongitudeDegrees>-4.430989</LongitudeDegrees>
            </Position>
            <AltitudeMeters>8.80</AltitudeMeters>
            <DistanceMeters>3733.8800165543</DistanceMeters>
          </Trackpoint>
          <Trackpoint>
            <Time>2022-08-26T08:35:52Z</Time>
            <Position>
              <LatitudeDegrees>36.708742</LatitudeDegrees>
              <LongitudeDegrees>-4.431095</LongitudeDegrees>
            </Position>
            <AltitudeMeters>8.80</AltitudeMeters>
            <DistanceMeters>3747.8194995046</DistanceMeters>
          </Trackpoint>
          <Trackpoint>
            <Time>2022-08-26T08:35:53Z</Time>
            <Position>
              <LatitudeDegrees>36.708726</LatitudeDegrees>
              <LongitudeDegrees>-4.431112</LongitudeDegrees>
            </Position>
            <AltitudeMeters>8.80</AltitudeMeters>
            <DistanceMeters>3750.1587785228</DistanceMeters>
          </Trackpoint>
          <Trackpoint>
            <Time>2022-08-26T08:35:58Z</Time>
            <Position>
              <LatitudeDegrees>36.708664</LatitudeDegrees>
              <LongitudeDegrees>-4.431159</LongitudeDegrees>
            </Position>
            <AltitudeMeters>8.80</AltitudeMeters>
            <DistanceMeters>3758.233813012</DistanceMeters>
          </Trackpoint>
          <Trackpoint>
            <Time>2022-08-26T08:35:59Z</Time>
            <Position>
              <LatitudeDegrees>36.708654</LatitudeDegrees>
              <LongitudeDegrees>-4.431170</LongitudeDegrees>
            </Position>
            <AltitudeMeters>8.80</AltitudeMeters>
            <DistanceMeters>3759.7181777422</DistanceMeters>
          </Trackpoint>
          <Trackpoint>
            <Time>2022-08-26T08:36:02Z</Time>
            <Position>
              <LatitudeDegrees>36.708614</LatitudeDegrees>
              <LongitudeDegrees>-4.431223</LongitudeDegrees>
            </Position>
            <AltitudeMeters>8.80</AltitudeMeters>
            <DistanceMeters>3766.2134465701</DistanceMeters>
          </Trackpoint>
          <Trackpoint>
            <Time>2022-08-26T08:36:05Z</Time>
            <Position>
              <LatitudeDegrees>36.708593</LatitudeDegrees>
              <LongitudeDegrees>-4.431251</LongitudeDegrees>
            </Position>
            <AltitudeMeters>8.60</AltitudeMeters>
            <DistanceMeters>3769.6370469008</DistanceMeters>
          </Trackpoint>
          <Trackpoint>
            <Time>2022-08-26T08:36:11Z</Time>
            <Position>
              <LatitudeDegrees>36.708544</LatitudeDegrees>
              <LongitudeDegrees>-4.431298</LongitudeDegrees>
            </Position>
            <AltitudeMeters>8.60</AltitudeMeters>
            <DistanceMeters>3776.5164822441</DistanceMeters>
          </Trackpoint>
          <Trackpoint>
            <Time>2022-08-26T08:36:18Z</Time>
            <Position>
              <LatitudeDegrees>36.708467</LatitudeDegrees>
              <LongitudeDegrees>-4.431344</LongitudeDegrees>
            </Position>
            <AltitudeMeters>8.20</AltitudeMeters>
            <DistanceMeters>3786.0191536811</DistanceMeters>
          </Trackpoint>
          <Trackpoint>
            <Time>2022-08-26T08:36:21Z</Time>
            <Position>
              <LatitudeDegrees>36.708449</LatitudeDegrees>
              <LongitudeDegrees>-4.431391</LongitudeDegrees>
            </Position>
            <AltitudeMeters>8.40</AltitudeMeters>
            <DistanceMeters>3790.6667275486</DistanceMeters>
          </Trackpoint>
          <Trackpoint>
            <Time>2022-08-26T08:36:24Z</Time>
            <Position>
              <LatitudeDegrees>36.708428</LatitudeDegrees>
              <LongitudeDegrees>-4.431430</LongitudeDegrees>
            </Position>
            <AltitudeMeters>8.40</AltitudeMeters>
            <DistanceMeters>3794.8586875627</DistanceMeters>
          </Trackpoint>
          <Trackpoint>
            <Time>2022-08-26T08:36:26Z</Time>
            <Position>
              <LatitudeDegrees>36.708414</LatitudeDegrees>
              <LongitudeDegrees>-4.431450</LongitudeDegrees>
            </Position>
            <AltitudeMeters>8.40</AltitudeMeters>
            <DistanceMeters>3797.2286469607</DistanceMeters>
          </Trackpoint>
          <Trackpoint>
            <Time>2022-08-26T08:36:27Z</Time>
            <Position>
              <LatitudeDegrees>36.708407</LatitudeDegrees>
              <LongitudeDegrees>-4.431462</LongitudeDegrees>
            </Position>
            <AltitudeMeters>8.40</AltitudeMeters>
            <DistanceMeters>3798.5522159351</DistanceMeters>
          </Trackpoint>
          <Trackpoint>
            <Time>2022-08-26T08:36:29Z</Time>
            <Position>
              <LatitudeDegrees>36.708382</LatitudeDegrees>
              <LongitudeDegrees>-4.431488</LongitudeDegrees>
            </Position>
            <AltitudeMeters>8.20</AltitudeMeters>
            <DistanceMeters>3802.1757130235</DistanceMeters>
          </Trackpoint>
          <Trackpoint>
            <Time>2022-08-26T08:36:31Z</Time>
            <Position>
              <LatitudeDegrees>36.708360</LatitudeDegrees>
              <LongitudeDegrees>-4.431511</LongitudeDegrees>
            </Position>
            <AltitudeMeters>8.20</AltitudeMeters>
            <DistanceMeters>3805.3714940639</DistanceMeters>
          </Trackpoint>
          <Trackpoint>
            <Time>2022-08-26T08:36:34Z</Time>
            <Position>
              <LatitudeDegrees>36.708321</LatitudeDegrees>
              <LongitudeDegrees>-4.431544</LongitudeDegrees>
            </Position>
            <AltitudeMeters>8.20</AltitudeMeters>
            <DistanceMeters>3810.6160734416</DistanceMeters>
          </Trackpoint>
          <Trackpoint>
            <Time>2022-08-26T08:36:37Z</Time>
            <Position>
              <LatitudeDegrees>36.708277</LatitudeDegrees>
              <LongitudeDegrees>-4.431574</LongitudeDegrees>
            </Position>
            <AltitudeMeters>8.00</AltitudeMeters>
            <DistanceMeters>3816.1976291146</DistanceMeters>
          </Trackpoint>
          <Trackpoint>
            <Time>2022-08-26T08:36:39Z</Time>
            <Position>
              <LatitudeDegrees>36.708252</LatitudeDegrees>
              <LongitudeDegrees>-4.431603</LongitudeDegrees>
            </Position>
            <AltitudeMeters>8.00</AltitudeMeters>
            <DistanceMeters>3819.9975096698</DistanceMeters>
          </Trackpoint>
          <Trackpoint>
            <Time>2022-08-26T08:36:41Z</Time>
            <Position>
              <LatitudeDegrees>36.708235</LatitudeDegrees>
              <LongitudeDegrees>-4.431626</LongitudeDegrees>
            </Position>
            <AltitudeMeters>7.80</AltitudeMeters>
            <DistanceMeters>3822.7890963103</DistanceMeters>
          </Trackpoint>
          <Trackpoint>
            <Time>2022-08-26T08:36:44Z</Time>
            <Position>
              <LatitudeDegrees>36.708212</LatitudeDegrees>
              <LongitudeDegrees>-4.431659</LongitudeDegrees>
            </Position>
            <AltitudeMeters>7.80</AltitudeMeters>
            <DistanceMeters>3826.690981609</DistanceMeters>
          </Trackpoint>
          <Trackpoint>
            <Time>2022-08-26T08:36:46Z</Time>
            <Position>
              <LatitudeDegrees>36.708196</LatitudeDegrees>
              <LongitudeDegrees>-4.431683</LongitudeDegrees>
            </Position>
            <AltitudeMeters>7.80</AltitudeMeters>
            <DistanceMeters>3829.4777119049</DistanceMeters>
          </Trackpoint>
          <Trackpoint>
            <Time>2022-08-26T08:36:49Z</Time>
            <Position>
              <LatitudeDegrees>36.708171</LatitudeDegrees>
              <LongitudeDegrees>-4.431702</LongitudeDegrees>
            </Position>
            <AltitudeMeters>7.80</AltitudeMeters>
            <DistanceMeters>3832.7364493748</DistanceMeters>
          </Trackpoint>
          <Trackpoint>
            <Time>2022-08-26T08:36:54Z</Time>
            <Position>
              <LatitudeDegrees>36.708139</LatitudeDegrees>
              <LongitudeDegrees>-4.431742</LongitudeDegrees>
            </Position>
            <AltitudeMeters>7.80</AltitudeMeters>
            <DistanceMeters>3837.7791366808</DistanceMeters>
          </Trackpoint>
          <Trackpoint>
            <Time>2022-08-26T08:36:55Z</Time>
            <Position>
              <LatitudeDegrees>36.708133</LatitudeDegrees>
              <LongitudeDegrees>-4.431756</LongitudeDegrees>
            </Position>
            <AltitudeMeters>8.00</AltitudeMeters>
            <DistanceMeters>3839.1950028364</DistanceMeters>
          </Trackpoint>
          <Trackpoint>
            <Time>2022-08-26T08:36:57Z</Time>
            <Position>
              <LatitudeDegrees>36.708117</LatitudeDegrees>
              <LongitudeDegrees>-4.431776</LongitudeDegrees>
            </Position>
            <AltitudeMeters>8.00</AltitudeMeters>
            <DistanceMeters>3841.7163464894</DistanceMeters>
          </Trackpoint>
          <Trackpoint>
            <Time>2022-08-26T08:36:59Z</Time>
            <Position>
              <LatitudeDegrees>36.708128</LatitudeDegrees>
              <LongitudeDegrees>-4.431785</LongitudeDegrees>
            </Position>
            <AltitudeMeters>8.00</AltitudeMeters>
            <DistanceMeters>3843.1823472376</DistanceMeters>
          </Trackpoint>
          <Trackpoint>
            <Time>2022-08-26T08:37:00Z</Time>
            <Position>
              <LatitudeDegrees>36.708132</LatitudeDegrees>
              <LongitudeDegrees>-4.431786</LongitudeDegrees>
            </Position>
            <AltitudeMeters>8.00</AltitudeMeters>
            <DistanceMeters>3843.6280620363</DistanceMeters>
          </Trackpoint>
          <Trackpoint>
            <Time>2022-08-26T08:37:02Z</Time>
            <Position>
              <LatitudeDegrees>36.708142</LatitudeDegrees>
              <LongitudeDegrees>-4.431783</LongitudeDegrees>
            </Position>
            <AltitudeMeters>8.00</AltitudeMeters>
            <DistanceMeters>3844.7762741948</DistanceMeters>
          </Trackpoint>
          <Trackpoint>
            <Time>2022-08-26T08:37:04Z</Time>
            <Position>
              <LatitudeDegrees>36.708143</LatitudeDegrees>
              <LongitudeDegrees>-4.431784</LongitudeDegrees>
            </Position>
            <AltitudeMeters>8.00</AltitudeMeters>
            <DistanceMeters>3844.9408652921</DistanceMeters>
          </Trackpoint>
          <Trackpoint>
            <Time>2022-08-26T08:37:10Z</Time>
            <Position>
              <LatitudeDegrees>36.708114</LatitudeDegrees>
              <LongitudeDegrees>-4.431832</LongitudeDegrees>
            </Position>
            <AltitudeMeters>8.20</AltitudeMeters>
            <DistanceMeters>3850.3046161766</DistanceMeters>
          </Trackpoint>
          <Trackpoint>
            <Time>2022-08-26T08:37:15Z</Time>
            <Position>
              <LatitudeDegrees>36.708046</LatitudeDegrees>
              <LongitudeDegrees>-4.431898</LongitudeDegrees>
            </Position>
            <AltitudeMeters>8.20</AltitudeMeters>
            <DistanceMeters>3859.8943136955</DistanceMeters>
          </Trackpoint>
          <Trackpoint>
            <Time>2022-08-26T08:37:19Z</Time>
            <Position>
              <LatitudeDegrees>36.708016</LatitudeDegrees>
              <LongitudeDegrees>-4.431945</LongitudeDegrees>
            </Position>
            <AltitudeMeters>8.20</AltitudeMeters>
            <DistanceMeters>3865.2546964472</DistanceMeters>
          </Trackpoint>
          <Trackpoint>
            <Time>2022-08-26T08:37:24Z</Time>
            <Position>
              <LatitudeDegrees>36.707928</LatitudeDegrees>
              <LongitudeDegrees>-4.432015</LongitudeDegrees>
            </Position>
            <AltitudeMeters>8.00</AltitudeMeters>
            <DistanceMeters>3876.8712993232</DistanceMeters>
          </Trackpoint>
          <Trackpoint>
            <Time>2022-08-26T08:37:25Z</Time>
            <Position>
              <LatitudeDegrees>36.707901</LatitudeDegrees>
              <LongitudeDegrees>-4.432030</LongitudeDegrees>
            </Position>
            <AltitudeMeters>8.00</AltitudeMeters>
            <DistanceMeters>3880.1617493922</DistanceMeters>
          </Trackpoint>
          <Trackpoint>
            <Time>2022-08-26T08:37:30Z</Time>
            <Position>
              <LatitudeDegrees>36.707814</LatitudeDegrees>
              <LongitudeDegrees>-4.432098</LongitudeDegrees>
            </Position>
            <AltitudeMeters>7.80</AltitudeMeters>
            <DistanceMeters>3891.5886871001</DistanceMeters>
          </Trackpoint>
          <Trackpoint>
            <Time>2022-08-26T08:37:33Z</Time>
            <Position>
              <LatitudeDegrees>36.707796</LatitudeDegrees>
              <LongitudeDegrees>-4.432120</LongitudeDegrees>
            </Position>
            <AltitudeMeters>7.60</AltitudeMeters>
            <DistanceMeters>3894.3931828805</DistanceMeters>
          </Trackpoint>
          <Trackpoint>
            <Time>2022-08-26T08:37:36Z</Time>
            <Position>
              <LatitudeDegrees>36.707772</LatitudeDegrees>
              <LongitudeDegrees>-4.432145</LongitudeDegrees>
            </Position>
            <AltitudeMeters>7.60</AltitudeMeters>
            <DistanceMeters>3897.8730295023</DistanceMeters>
          </Trackpoint>
          <Trackpoint>
            <Time>2022-08-26T08:37:39Z</Time>
            <Position>
              <LatitudeDegrees>36.707740</LatitudeDegrees>
              <LongitudeDegrees>-4.432190</LongitudeDegrees>
            </Position>
            <AltitudeMeters>7.60</AltitudeMeters>
            <DistanceMeters>3903.2401464059</DistanceMeters>
          </Trackpoint>
          <Trackpoint>
            <Time>2022-08-26T08:37:42Z</Time>
            <Position>
              <LatitudeDegrees>36.707694</LatitudeDegrees>
              <LongitudeDegrees>-4.432236</LongitudeDegrees>
            </Position>
            <AltitudeMeters>7.40</AltitudeMeters>
            <DistanceMeters>3909.8031841658</DistanceMeters>
          </Trackpoint>
          <Trackpoint>
            <Time>2022-08-26T08:37:43Z</Time>
            <Position>
              <LatitudeDegrees>36.707672</LatitudeDegrees>
              <LongitudeDegrees>-4.432256</LongitudeDegrees>
            </Position>
            <AltitudeMeters>7.40</AltitudeMeters>
            <DistanceMeters>3912.8336276553</DistanceMeters>
          </Trackpoint>
          <Trackpoint>
            <Time>2022-08-26T08:37:46Z</Time>
            <Position>
              <LatitudeDegrees>36.707624</LatitudeDegrees>
              <LongitudeDegrees>-4.432312</LongitudeDegrees>
            </Position>
            <AltitudeMeters>7.40</AltitudeMeters>
            <DistanceMeters>3920.1488332578</DistanceMeters>
          </Trackpoint>
          <Trackpoint>
            <Time>2022-08-26T08:37:50Z</Time>
            <Position>
              <LatitudeDegrees>36.707564</LatitudeDegrees>
              <LongitudeDegrees>-4.432387</LongitudeDegrees>
            </Position>
            <AltitudeMeters>7.20</AltitudeMeters>
            <DistanceMeters>3929.6029168539</DistanceMeters>
          </Trackpoint>
          <Trackpoint>
            <Time>2022-08-26T08:37:51Z</Time>
            <Position>
              <LatitudeDegrees>36.707554</LatitudeDegrees>
              <LongitudeDegrees>-4.432411</LongitudeDegrees>
            </Position>
            <AltitudeMeters>7.20</AltitudeMeters>
            <DistanceMeters>3932.0144245213</DistanceMeters>
          </Trackpoint>
          <Trackpoint>
            <Time>2022-08-26T08:37:59Z</Time>
            <Position>
              <LatitudeDegrees>36.707436</LatitudeDegrees>
              <LongitudeDegrees>-4.432516</LongitudeDegrees>
            </Position>
            <AltitudeMeters>6.80</AltitudeMeters>
            <DistanceMeters>3948.1474308545</DistanceMeters>
          </Trackpoint>
          <Trackpoint>
            <Time>2022-08-26T08:38:01Z</Time>
            <Position>
              <LatitudeDegrees>36.707417</LatitudeDegrees>
              <LongitudeDegrees>-4.432536</LongitudeDegrees>
            </Position>
            <AltitudeMeters>6.80</AltitudeMeters>
            <DistanceMeters>3950.9146505466</DistanceMeters>
          </Trackpoint>
          <Trackpoint>
            <Time>2022-08-26T08:38:03Z</Time>
            <Position>
              <LatitudeDegrees>36.707394</LatitudeDegrees>
              <LongitudeDegrees>-4.432558</LongitudeDegrees>
            </Position>
            <AltitudeMeters>6.80</AltitudeMeters>
            <DistanceMeters>3954.1399641846</DistanceMeters>
          </Trackpoint>
          <Trackpoint>
            <Time>2022-08-26T08:38:07Z</Time>
            <Position>
              <LatitudeDegrees>36.707371</LatitudeDegrees>
              <LongitudeDegrees>-4.432589</LongitudeDegrees>
            </Position>
            <AltitudeMeters>6.80</AltitudeMeters>
            <DistanceMeters>3957.9100225824</DistanceMeters>
          </Trackpoint>
          <Trackpoint>
            <Time>2022-08-26T08:38:10Z</Time>
            <Position>
              <LatitudeDegrees>36.707384</LatitudeDegrees>
              <LongitudeDegrees>-4.432577</LongitudeDegrees>
            </Position>
            <AltitudeMeters>6.80</AltitudeMeters>
            <DistanceMeters>3959.7130277182</DistanceMeters>
          </Trackpoint>
          <Trackpoint>
            <Time>2022-08-26T08:38:14Z</Time>
            <Position>
              <LatitudeDegrees>36.707394</LatitudeDegrees>
              <LongitudeDegrees>-4.432587</LongitudeDegrees>
            </Position>
            <AltitudeMeters>6.80</AltitudeMeters>
            <DistanceMeters>3961.1415924792</DistanceMeters>
          </Trackpoint>
          <Trackpoint>
            <Time>2022-08-26T08:38:19Z</Time>
            <Position>
              <LatitudeDegrees>36.707353</LatitudeDegrees>
              <LongitudeDegrees>-4.432640</LongitudeDegrees>
            </Position>
            <AltitudeMeters>6.80</AltitudeMeters>
            <DistanceMeters>3967.7135674967</DistanceMeters>
          </Trackpoint>
          <Trackpoint>
            <Time>2022-08-26T08:38:20Z</Time>
            <Position>
              <LatitudeDegrees>36.707347</LatitudeDegrees>
              <LongitudeDegrees>-4.432645</LongitudeDegrees>
            </Position>
            <AltitudeMeters>6.80</AltitudeMeters>
            <DistanceMeters>3968.5142768245</DistanceMeters>
          </Trackpoint>
          <Trackpoint>
            <Time>2022-08-26T08:38:26Z</Time>
            <Position>
              <LatitudeDegrees>36.707299</LatitudeDegrees>
              <LongitudeDegrees>-4.432677</LongitudeDegrees>
            </Position>
            <AltitudeMeters>6.80</AltitudeMeters>
            <DistanceMeters>3974.5721832837</DistanceMeters>
          </Trackpoint>
          <Trackpoint>
            <Time>2022-08-26T08:38:30Z</Time>
            <Position>
              <LatitudeDegrees>36.707282</LatitudeDegrees>
              <LongitudeDegrees>-4.432719</LongitudeDegrees>
            </Position>
            <AltitudeMeters>6.80</AltitudeMeters>
            <DistanceMeters>3978.7706007496</DistanceMeters>
          </Trackpoint>
          <Trackpoint>
            <Time>2022-08-26T08:38:32Z</Time>
            <Position>
              <LatitudeDegrees>36.707269</LatitudeDegrees>
              <LongitudeDegrees>-4.432759</LongitudeDegrees>
            </Position>
            <AltitudeMeters>6.80</AltitudeMeters>
            <DistanceMeters>3982.6212351806</DistanceMeters>
          </Trackpoint>
          <Trackpoint>
            <Time>2022-08-26T08:38:33Z</Time>
            <Position>
              <LatitudeDegrees>36.707261</LatitudeDegrees>
              <LongitudeDegrees>-4.432778</LongitudeDegrees>
            </Position>
            <AltitudeMeters>6.80</AltitudeMeters>
            <DistanceMeters>3984.5359704198</DistanceMeters>
          </Trackpoint>
          <Trackpoint>
            <Time>2022-08-26T08:38:34Z</Time>
            <Position>
              <LatitudeDegrees>36.707253</LatitudeDegrees>
              <LongitudeDegrees>-4.432794</LongitudeDegrees>
            </Position>
            <AltitudeMeters>6.80</AltitudeMeters>
            <DistanceMeters>3986.2171646165</DistanceMeters>
          </Trackpoint>
          <Trackpoint>
            <Time>2022-08-26T08:38:39Z</Time>
            <Position>
              <LatitudeDegrees>36.707229</LatitudeDegrees>
              <LongitudeDegrees>-4.432842</LongitudeDegrees>
            </Position>
            <AltitudeMeters>7.00</AltitudeMeters>
            <DistanceMeters>3991.265221245</DistanceMeters>
          </Trackpoint>
          <Trackpoint>
            <Time>2022-08-26T08:38:44Z</Time>
            <Position>
              <LatitudeDegrees>36.707193</LatitudeDegrees>
              <LongitudeDegrees>-4.432910</LongitudeDegrees>
            </Position>
            <AltitudeMeters>7.40</AltitudeMeters>
            <DistanceMeters>3998.5364726902</DistanceMeters>
          </Trackpoint>
          <Trackpoint>
            <Time>2022-08-26T08:38:46Z</Time>
            <Position>
              <LatitudeDegrees>36.707183</LatitudeDegrees>
              <LongitudeDegrees>-4.432929</LongitudeDegrees>
            </Position>
            <AltitudeMeters>7.40</AltitudeMeters>
            <DistanceMeters>4000.5634617829</DistanceMeters>
          </Trackpoint>
          <Trackpoint>
            <Time>2022-08-26T08:38:49Z</Time>
            <Position>
              <LatitudeDegrees>36.707160</LatitudeDegrees>
              <LongitudeDegrees>-4.432955</LongitudeDegrees>
            </Position>
            <AltitudeMeters>7.60</AltitudeMeters>
            <DistanceMeters>4004.0185683021</DistanceMeters>
          </Trackpoint>
          <Trackpoint>
            <Time>2022-08-26T08:38:51Z</Time>
            <Position>
              <LatitudeDegrees>36.707141</LatitudeDegrees>
              <LongitudeDegrees>-4.432972</LongitudeDegrees>
            </Position>
            <AltitudeMeters>7.60</AltitudeMeters>
            <DistanceMeters>4006.6209820534</DistanceMeters>
          </Trackpoint>
          <Trackpoint>
            <Time>2022-08-26T08:39:01Z</Time>
            <Position>
              <LatitudeDegrees>36.706998</LatitudeDegrees>
              <LongitudeDegrees>-4.433107</LongitudeDegrees>
            </Position>
            <AltitudeMeters>8.20</AltitudeMeters>
            <DistanceMeters>4026.5815690403</DistanceMeters>
          </Trackpoint>
          <Trackpoint>
            <Time>2022-08-26T08:39:08Z</Time>
            <Position>
              <LatitudeDegrees>36.706904</LatitudeDegrees>
              <LongitudeDegrees>-4.433204</LongitudeDegrees>
            </Position>
            <AltitudeMeters>8.80</AltitudeMeters>
            <DistanceMeters>4040.1600851902</DistanceMeters>
          </Trackpoint>
          <Trackpoint>
            <Time>2022-08-26T08:39:13Z</Time>
            <Position>
              <LatitudeDegrees>36.706848</LatitudeDegrees>
              <LongitudeDegrees>-4.433273</LongitudeDegrees>
            </Position>
            <AltitudeMeters>9.00</AltitudeMeters>
            <DistanceMeters>4048.9211153678</DistanceMeters>
          </Trackpoint>
          <Trackpoint>
            <Time>2022-08-26T08:39:14Z</Time>
            <Position>
              <LatitudeDegrees>36.706837</LatitudeDegrees>
              <LongitudeDegrees>-4.433282</LongitudeDegrees>
            </Position>
            <AltitudeMeters>9.20</AltitudeMeters>
            <DistanceMeters>4050.3809434539</DistanceMeters>
          </Trackpoint>
          <Trackpoint>
            <Time>2022-08-26T08:39:18Z</Time>
            <Position>
              <LatitudeDegrees>36.706810</LatitudeDegrees>
              <LongitudeDegrees>-4.433314</LongitudeDegrees>
            </Position>
            <AltitudeMeters>9.20</AltitudeMeters>
            <DistanceMeters>4054.5263307063</DistanceMeters>
          </Trackpoint>
          <Trackpoint>
            <Time>2022-08-26T08:39:20Z</Time>
            <Position>
              <LatitudeDegrees>36.706793</LatitudeDegrees>
              <LongitudeDegrees>-4.433329</LongitudeDegrees>
            </Position>
            <AltitudeMeters>9.40</AltitudeMeters>
            <DistanceMeters>4056.8462284542</DistanceMeters>
          </Trackpoint>
          <Trackpoint>
            <Time>2022-08-26T08:39:23Z</Time>
            <Position>
              <LatitudeDegrees>36.706766</LatitudeDegrees>
              <LongitudeDegrees>-4.433357</LongitudeDegrees>
            </Position>
            <AltitudeMeters>9.40</AltitudeMeters>
            <DistanceMeters>4060.7550504434</DistanceMeters>
          </Trackpoint>
          <Trackpoint>
            <Time>2022-08-26T08:39:26Z</Time>
            <Position>
              <LatitudeDegrees>36.706736</LatitudeDegrees>
              <LongitudeDegrees>-4.433388</LongitudeDegrees>
            </Position>
            <AltitudeMeters>9.60</AltitudeMeters>
            <DistanceMeters>4065.0910185194</DistanceMeters>
          </Trackpoint>
          <Trackpoint>
            <Time>2022-08-26T08:39:28Z</Time>
            <Position>
              <LatitudeDegrees>36.706716</LatitudeDegrees>
              <LongitudeDegrees>-4.433412</LongitudeDegrees>
            </Position>
            <AltitudeMeters>9.80</AltitudeMeters>
            <DistanceMeters>4068.1790212274</DistanceMeters>
          </Trackpoint>
          <Trackpoint>
            <Time>2022-08-26T08:39:30Z</Time>
            <Position>
              <LatitudeDegrees>36.706704</LatitudeDegrees>
              <LongitudeDegrees>-4.433437</LongitudeDegrees>
            </Position>
            <AltitudeMeters>9.80</AltitudeMeters>
            <DistanceMeters>4070.7779627774</DistanceMeters>
          </Trackpoint>
          <Trackpoint>
            <Time>2022-08-26T08:39:35Z</Time>
            <Position>
              <LatitudeDegrees>36.706662</LatitudeDegrees>
              <LongitudeDegrees>-4.433488</LongitudeDegrees>
            </Position>
            <AltitudeMeters>10.20</AltitudeMeters>
            <DistanceMeters>4077.3023616276</DistanceMeters>
          </Trackpoint>
          <Trackpoint>
            <Time>2022-08-26T08:39:44Z</Time>
            <Position>
              <LatitudeDegrees>36.706585</LatitudeDegrees>
              <LongitudeDegrees>-4.433585</LongitudeDegrees>
            </Position>
            <AltitudeMeters>10.60</AltitudeMeters>
            <DistanceMeters>4089.4828442114</DistanceMeters>
          </Trackpoint>
          <Trackpoint>
            <Time>2022-08-26T08:39:50Z</Time>
            <Position>
              <LatitudeDegrees>36.706535</LatitudeDegrees>
              <LongitudeDegrees>-4.433669</LongitudeDegrees>
            </Position>
            <AltitudeMeters>11.00</AltitudeMeters>
            <DistanceMeters>4098.8182214272</DistanceMeters>
          </Trackpoint>
          <Trackpoint>
            <Time>2022-08-26T08:39:51Z</Time>
            <Position>
              <LatitudeDegrees>36.706529</LatitudeDegrees>
              <LongitudeDegrees>-4.433685</LongitudeDegrees>
            </Position>
            <AltitudeMeters>11.00</AltitudeMeters>
            <DistanceMeters>4100.3940612103</DistanceMeters>
          </Trackpoint>
          <Trackpoint>
            <Time>2022-08-26T08:39:52Z</Time>
            <Position>
              <LatitudeDegrees>36.706516</LatitudeDegrees>
              <LongitudeDegrees>-4.433703</LongitudeDegrees>
            </Position>
            <AltitudeMeters>11.00</AltitudeMeters>
            <DistanceMeters>4102.5526532156</DistanceMeters>
          </Trackpoint>
          <Trackpoint>
            <Time>2022-08-26T08:39:57Z</Time>
            <Position>
              <LatitudeDegrees>36.706460</LatitudeDegrees>
              <LongitudeDegrees>-4.433768</LongitudeDegrees>
            </Position>
            <AltitudeMeters>11.00</AltitudeMeters>
            <DistanceMeters>4111.0669619774</DistanceMeters>
          </Trackpoint>
          <Trackpoint>
            <Time>2022-08-26T08:39:59Z</Time>
            <Position>
              <LatitudeDegrees>36.706447</LatitudeDegrees>
              <LongitudeDegrees>-4.433794</LongitudeDegrees>
            </Position>
            <AltitudeMeters>11.00</AltitudeMeters>
            <DistanceMeters>4113.8013546514</DistanceMeters>
          </Trackpoint>
          <Trackpoint>
            <Time>2022-08-26T08:40:01Z</Time>
            <Position>
              <LatitudeDegrees>36.706412</LatitudeDegrees>
              <LongitudeDegrees>-4.433828</LongitudeDegrees>
            </Position>
            <AltitudeMeters>10.80</AltitudeMeters>
            <DistanceMeters>4118.7390875723</DistanceMeters>
          </Trackpoint>
          <Trackpoint>
            <Time>2022-08-26T08:40:03Z</Time>
            <Position>
              <LatitudeDegrees>36.706387</LatitudeDegrees>
              <LongitudeDegrees>-4.433858</LongitudeDegrees>
            </Position>
            <AltitudeMeters>10.80</AltitudeMeters>
            <DistanceMeters>4122.6014296449</DistanceMeters>
          </Trackpoint>
          <Trackpoint>
            <Time>2022-08-26T08:40:04Z</Time>
            <Position>
              <LatitudeDegrees>36.706379</LatitudeDegrees>
              <LongitudeDegrees>-4.433867</LongitudeDegrees>
            </Position>
            <AltitudeMeters>10.80</AltitudeMeters>
            <DistanceMeters>4123.7958969229</DistanceMeters>
          </Trackpoint>
          <Trackpoint>
            <Time>2022-08-26T08:40:05Z</Time>
            <Position>
              <LatitudeDegrees>36.706373</LatitudeDegrees>
              <LongitudeDegrees>-4.433880</LongitudeDegrees>
            </Position>
            <AltitudeMeters>10.80</AltitudeMeters>
            <DistanceMeters>4125.1330413189</DistanceMeters>
          </Trackpoint>
          <Trackpoint>
            <Time>2022-08-26T08:40:10Z</Time>
            <Position>
              <LatitudeDegrees>36.706331</LatitudeDegrees>
              <LongitudeDegrees>-4.433934</LongitudeDegrees>
            </Position>
            <AltitudeMeters>10.60</AltitudeMeters>
            <DistanceMeters>4131.8457219649</DistanceMeters>
          </Trackpoint>
          <Trackpoint>
            <Time>2022-08-26T08:40:12Z</Time>
            <Position>
              <LatitudeDegrees>36.706309</LatitudeDegrees>
              <LongitudeDegrees>-4.433959</LongitudeDegrees>
            </Position>
            <AltitudeMeters>10.60</AltitudeMeters>
            <DistanceMeters>4135.1566905246</DistanceMeters>
          </Trackpoint>
          <Trackpoint>
            <Time>2022-08-26T08:40:13Z</Time>
            <Position>
              <LatitudeDegrees>36.706297</LatitudeDegrees>
              <LongitudeDegrees>-4.433972</LongitudeDegrees>
            </Position>
            <AltitudeMeters>10.60</AltitudeMeters>
            <DistanceMeters>4136.9242895882</DistanceMeters>
          </Trackpoint>
          <Trackpoint>
            <Time>2022-08-26T08:40:15Z</Time>
            <Position>
              <LatitudeDegrees>36.706292</LatitudeDegrees>
              <LongitudeDegrees>-4.433997</LongitudeDegrees>
            </Position>
            <AltitudeMeters>10.60</AltitudeMeters>
            <DistanceMeters>4139.2246427776</DistanceMeters>
          </Trackpoint>
          <Trackpoint>
            <Time>2022-08-26T08:40:17Z</Time>
            <Position>
              <LatitudeDegrees>36.706283</LatitudeDegrees>
              <LongitudeDegrees>-4.434015</LongitudeDegrees>
            </Position>
            <AltitudeMeters>10.60</AltitudeMeters>
            <DistanceMeters>4141.1156505174</DistanceMeters>
          </Trackpoint>
          <Trackpoint>
            <Time>2022-08-26T08:40:20Z</Time>
            <Position>
              <LatitudeDegrees>36.706258</LatitudeDegrees>
              <LongitudeDegrees>-4.434042</LongitudeDegrees>
            </Position>
            <AltitudeMeters>10.60</AltitudeMeters>
            <DistanceMeters>4144.7960193394</DistanceMeters>
          </Trackpoint>
          <Trackpoint>
            <Time>2022-08-26T08:40:21Z</Time>
            <Position>
              <LatitudeDegrees>36.706249</LatitudeDegrees>
              <LongitudeDegrees>-4.434047</LongitudeDegrees>
            </Position>
            <AltitudeMeters>10.60</AltitudeMeters>
            <DistanceMeters>4145.891920871</DistanceMeters>
          </Trackpoint>
          <Trackpoint>
            <Time>2022-08-26T08:40:22Z</Time>
            <Position>
              <LatitudeDegrees>36.706242</LatitudeDegrees>
              <LongitudeDegrees>-4.434055</LongitudeDegrees>
            </Position>
            <AltitudeMeters>10.60</AltitudeMeters>
            <DistanceMeters>4146.9500935786</DistanceMeters>
          </Trackpoint>
          <Trackpoint>
            <Time>2022-08-26T08:40:25Z</Time>
            <Position>
              <LatitudeDegrees>36.706226</LatitudeDegrees>
              <LongitudeDegrees>-4.434079</LongitudeDegrees>
            </Position>
            <AltitudeMeters>10.60</AltitudeMeters>
            <DistanceMeters>4149.7335816042</DistanceMeters>
          </Trackpoint>
          <Trackpoint>
            <Time>2022-08-26T08:40:28Z</Time>
            <Position>
              <LatitudeDegrees>36.706188</LatitudeDegrees>
              <LongitudeDegrees>-4.434116</LongitudeDegrees>
            </Position>
            <AltitudeMeters>10.40</AltitudeMeters>
            <DistanceMeters>4155.0990157622</DistanceMeters>
          </Trackpoint>
          <Trackpoint>
            <Time>2022-08-26T08:40:32Z</Time>
            <Position>
              <LatitudeDegrees>36.706152</LatitudeDegrees>
              <LongitudeDegrees>-4.434148</LongitudeDegrees>
            </Position>
            <AltitudeMeters>10.40</AltitudeMeters>
            <DistanceMeters>4160.0202620497</DistanceMeters>
          </Trackpoint>
          <Trackpoint>
            <Time>2022-08-26T08:40:38Z</Time>
            <Position>
              <LatitudeDegrees>36.706079</LatitudeDegrees>
              <LongitudeDegrees>-4.434225</LongitudeDegrees>
            </Position>
            <AltitudeMeters>10.20</AltitudeMeters>
            <DistanceMeters>4170.6615570182</DistanceMeters>
          </Trackpoint>
          <Trackpoint>
            <Time>2022-08-26T08:40:40Z</Time>
            <Position>
              <LatitudeDegrees>36.706075</LatitudeDegrees>
              <LongitudeDegrees>-4.434249</LongitudeDegrees>
            </Position>
            <AltitudeMeters>10.20</AltitudeMeters>
            <DistanceMeters>4172.8512991473</DistanceMeters>
          </Trackpoint>
          <Trackpoint>
            <Time>2022-08-26T08:40:44Z</Time>
            <Position>
              <LatitudeDegrees>36.706073</LatitudeDegrees>
              <LongitudeDegrees>-4.434267</LongitudeDegrees>
            </Position>
            <AltitudeMeters>10.20</AltitudeMeters>
            <DistanceMeters>4174.4723334607</DistanceMeters>
          </Trackpoint>
          <Trackpoint>
            <Time>2022-08-26T08:40:46Z</Time>
            <Position>
              <LatitudeDegrees>36.706066</LatitudeDegrees>
              <LongitudeDegrees>-4.434290</LongitudeDegrees>
            </Position>
            <AltitudeMeters>10.20</AltitudeMeters>
            <DistanceMeters>4176.6682525897</DistanceMeters>
          </Trackpoint>
          <Trackpoint>
            <Time>2022-08-26T08:40:48Z</Time>
            <Position>
              <LatitudeDegrees>36.706050</LatitudeDegrees>
              <LongitudeDegrees>-4.434310</LongitudeDegrees>
            </Position>
            <AltitudeMeters>10.20</AltitudeMeters>
            <DistanceMeters>4179.1895962427</DistanceMeters>
          </Trackpoint>
          <Trackpoint>
            <Time>2022-08-26T08:40:52Z</Time>
            <Position>
              <LatitudeDegrees>36.706016</LatitudeDegrees>
              <LongitudeDegrees>-4.434348</LongitudeDegrees>
            </Position>
            <AltitudeMeters>10.20</AltitudeMeters>
            <DistanceMeters>4184.2706383162</DistanceMeters>
          </Trackpoint>
          <Trackpoint>
            <Time>2022-08-26T08:40:57Z</Time>
            <Position>
              <LatitudeDegrees>36.705980</LatitudeDegrees>
              <LongitudeDegrees>-4.434404</LongitudeDegrees>
            </Position>
            <AltitudeMeters>10.20</AltitudeMeters>
            <DistanceMeters>4190.6749030834</DistanceMeters>
          </Trackpoint>
          <Trackpoint>
            <Time>2022-08-26T08:41:01Z</Time>
            <Position>
              <LatitudeDegrees>36.705946</LatitudeDegrees>
              <LongitudeDegrees>-4.434442</LongitudeDegrees>
            </Position>
            <AltitudeMeters>10.00</AltitudeMeters>
            <DistanceMeters>4195.7550564745</DistanceMeters>
          </Trackpoint>
          <Trackpoint>
            <Time>2022-08-26T08:41:08Z</Time>
            <Position>
              <LatitudeDegrees>36.705886</LatitudeDegrees>
              <LongitudeDegrees>-4.434473</LongitudeDegrees>
            </Position>
            <AltitudeMeters>9.80</AltitudeMeters>
            <DistanceMeters>4202.9833358206</DistanceMeters>
          </Trackpoint>
          <Trackpoint>
            <Time>2022-08-26T08:41:16Z</Time>
            <Position>
              <LatitudeDegrees>36.705817</LatitudeDegrees>
              <LongitudeDegrees>-4.434448</LongitudeDegrees>
            </Position>
            <AltitudeMeters>9.40</AltitudeMeters>
            <DistanceMeters>4210.9802728202</DistanceMeters>
          </Trackpoint>
          <Trackpoint>
            <Time>2022-08-26T08:41:21Z</Time>
            <Position>
              <LatitudeDegrees>36.705766</LatitudeDegrees>
              <LongitudeDegrees>-4.434466</LongitudeDegrees>
            </Position>
            <AltitudeMeters>9.20</AltitudeMeters>
            <DistanceMeters>4216.8795875783</DistanceMeters>
          </Trackpoint>
          <Trackpoint>
            <Time>2022-08-26T08:41:29Z</Time>
            <Position>
              <LatitudeDegrees>36.705705</LatitudeDegrees>
              <LongitudeDegrees>-4.434476</LongitudeDegrees>
            </Position>
            <AltitudeMeters>9.00</AltitudeMeters>
            <DistanceMeters>4223.728106911</DistanceMeters>
          </Trackpoint>
          <Trackpoint>
            <Time>2022-08-26T08:41:38Z</Time>
            <Position>
              <LatitudeDegrees>36.705600</LatitudeDegrees>
              <LongitudeDegrees>-4.434531</LongitudeDegrees>
            </Position>
            <AltitudeMeters>9.40</AltitudeMeters>
            <DistanceMeters>4236.4034025719</DistanceMeters>
          </Trackpoint>
          <Trackpoint>
            <Time>2022-08-26T08:41:47Z</Time>
            <Position>
              <LatitudeDegrees>36.705514</LatitudeDegrees>
              <LongitudeDegrees>-4.434574</LongitudeDegrees>
            </Position>
            <AltitudeMeters>9.60</AltitudeMeters>
            <DistanceMeters>4246.7158809491</DistanceMeters>
          </Trackpoint>
          <Trackpoint>
            <Time>2022-08-26T08:41:51Z</Time>
            <Position>
              <LatitudeDegrees>36.705481</LatitudeDegrees>
              <LongitudeDegrees>-4.434581</LongitudeDegrees>
            </Position>
            <AltitudeMeters>9.60</AltitudeMeters>
            <DistanceMeters>4250.441364474</DistanceMeters>
          </Trackpoint>
          <Trackpoint>
            <Time>2022-08-26T08:41:53Z</Time>
            <Position>
              <LatitudeDegrees>36.705468</LatitudeDegrees>
              <LongitudeDegrees>-4.434589</LongitudeDegrees>
            </Position>
            <AltitudeMeters>9.80</AltitudeMeters>
            <DistanceMeters>4252.0568186183</DistanceMeters>
          </Trackpoint>
          <Trackpoint>
            <Time>2022-08-26T08:41:55Z</Time>
            <Position>
              <LatitudeDegrees>36.705446</LatitudeDegrees>
              <LongitudeDegrees>-4.434594</LongitudeDegrees>
            </Position>
            <AltitudeMeters>9.80</AltitudeMeters>
            <DistanceMeters>4254.5457204726</DistanceMeters>
          </Trackpoint>
          <Trackpoint>
            <Time>2022-08-26T08:42:00Z</Time>
            <Position>
              <LatitudeDegrees>36.705385</LatitudeDegrees>
              <LongitudeDegrees>-4.434627</LongitudeDegrees>
            </Position>
            <AltitudeMeters>10.00</AltitudeMeters>
            <DistanceMeters>4261.9456112526</DistanceMeters>
          </Trackpoint>
          <Trackpoint>
            <Time>2022-08-26T08:42:08Z</Time>
            <Position>
              <LatitudeDegrees>36.705285</LatitudeDegrees>
              <LongitudeDegrees>-4.434670</LongitudeDegrees>
            </Position>
            <AltitudeMeters>10.40</AltitudeMeters>
            <DistanceMeters>4273.7185736385</DistanceMeters>
          </Trackpoint>
          <Trackpoint>
            <Time>2022-08-26T08:42:15Z</Time>
            <Position>
              <LatitudeDegrees>36.705205</LatitudeDegrees>
              <LongitudeDegrees>-4.434724</LongitudeDegrees>
            </Position>
            <AltitudeMeters>10.60</AltitudeMeters>
            <DistanceMeters>4283.8428216459</DistanceMeters>
          </Trackpoint>
          <Trackpoint>
            <Time>2022-08-26T08:42:17Z</Time>
            <Position>
              <LatitudeDegrees>36.705196</LatitudeDegrees>
              <LongitudeDegrees>-4.434743</LongitudeDegrees>
            </Position>
            <AltitudeMeters>10.80</AltitudeMeters>
            <DistanceMeters>4285.8110449041</DistanceMeters>
          </Trackpoint>
          <Trackpoint>
            <Time>2022-08-26T08:42:21Z</Time>
            <Position>
              <LatitudeDegrees>36.705165</LatitudeDegrees>
              <LongitudeDegrees>-4.434787</LongitudeDegrees>
            </Position>
            <AltitudeMeters>11.20</AltitudeMeters>
            <DistanceMeters>4291.0375141945</DistanceMeters>
          </Trackpoint>
          <Trackpoint>
            <Time>2022-08-26T08:42:29Z</Time>
            <Position>
              <LatitudeDegrees>36.705077</LatitudeDegrees>
              <LongitudeDegrees>-4.434893</LongitudeDegrees>
            </Position>
            <AltitudeMeters>12.00</AltitudeMeters>
            <DistanceMeters>4304.6532209112</DistanceMeters>
          </Trackpoint>
          <Trackpoint>
            <Time>2022-08-26T08:42:35Z</Time>
            <Position>
              <LatitudeDegrees>36.705034</LatitudeDegrees>
              <LongitudeDegrees>-4.434974</LongitudeDegrees>
            </Position>
            <AltitudeMeters>12.40</AltitudeMeters>
            <DistanceMeters>4313.322032604</DistanceMeters>
          </Trackpoint>
          <Trackpoint>
            <Time>2022-08-26T08:42:42Z</Time>
            <Position>
              <LatitudeDegrees>36.704958</LatitudeDegrees>
              <LongitudeDegrees>-4.435119</LongitudeDegrees>
            </Position>
            <AltitudeMeters>13.60</AltitudeMeters>
            <DistanceMeters>4328.7807499833</DistanceMeters>
          </Trackpoint>
          <Trackpoint>
            <Time>2022-08-26T08:42:47Z</Time>
            <Position>
              <LatitudeDegrees>36.704877</LatitudeDegrees>
              <LongitudeDegrees>-4.435078</LongitudeDegrees>
            </Position>
            <AltitudeMeters>13.20</AltitudeMeters>
            <DistanceMeters>4338.5102048171</DistanceMeters>
          </Trackpoint>
          <Trackpoint>
            <Time>2022-08-26T08:42:48Z</Time>
            <Position>
              <LatitudeDegrees>36.704870</LatitudeDegrees>
              <LongitudeDegrees>-4.435067</LongitudeDegrees>
            </Position>
            <AltitudeMeters>13.20</AltitudeMeters>
            <DistanceMeters>4339.7636932699</DistanceMeters>
          </Trackpoint>
          <Trackpoint>
            <Time>2022-08-26T08:42:49Z</Time>
            <Position>
              <LatitudeDegrees>36.704863</LatitudeDegrees>
              <LongitudeDegrees>-4.435055</LongitudeDegrees>
            </Position>
            <AltitudeMeters>13.00</AltitudeMeters>
            <DistanceMeters>4341.0872622443</DistanceMeters>
          </Trackpoint>
          <Trackpoint>
            <Time>2022-08-26T08:42:50Z</Time>
            <Position>
              <LatitudeDegrees>36.704856</LatitudeDegrees>
              <LongitudeDegrees>-4.435039</LongitudeDegrees>
            </Position>
            <AltitudeMeters>12.80</AltitudeMeters>
            <DistanceMeters>4342.7166309793</DistanceMeters>
          </Trackpoint>
          <Trackpoint>
            <Time>2022-08-26T08:42:55Z</Time>
            <Position>
              <LatitudeDegrees>36.704823</LatitudeDegrees>
              <LongitudeDegrees>-4.434967</LongitudeDegrees>
            </Position>
            <AltitudeMeters>12.00</AltitudeMeters>
            <DistanceMeters>4350.1171318835</DistanceMeters>
          </Trackpoint>
          <Trackpoint>
            <Time>2022-08-26T08:42:58Z</Time>
            <Position>
              <LatitudeDegrees>36.704809</LatitudeDegrees>
              <LongitudeDegrees>-4.434945</LongitudeDegrees>
            </Position>
            <AltitudeMeters>11.80</AltitudeMeters>
            <DistanceMeters>4352.6223071525</DistanceMeters>
          </Trackpoint>
          <Trackpoint>
            <Time>2022-08-26T08:43:01Z</Time>
            <Position>
              <LatitudeDegrees>36.704791</LatitudeDegrees>
              <LongitudeDegrees>-4.434943</LongitudeDegrees>
            </Position>
            <AltitudeMeters>11.60</AltitudeMeters>
            <DistanceMeters>4354.6336435855</DistanceMeters>
          </Trackpoint>
          <Trackpoint>
            <Time>2022-08-26T08:43:04Z</Time>
            <Position>
              <LatitudeDegrees>36.704768</LatitudeDegrees>
              <LongitudeDegrees>-4.434940</LongitudeDegrees>
            </Position>
            <AltitudeMeters>11.40</AltitudeMeters>
            <DistanceMeters>4357.2081486078</DistanceMeters>
          </Trackpoint>
          <Trackpoint>
            <Time>2022-08-26T08:43:08Z</Time>
            <Position>
              <LatitudeDegrees>36.704761</LatitudeDegrees>
              <LongitudeDegrees>-4.434957</LongitudeDegrees>
            </Position>
            <AltitudeMeters>11.40</AltitudeMeters>
            <DistanceMeters>4358.9133420323</DistanceMeters>
          </Trackpoint>
          <Trackpoint>
            <Time>2022-08-26T08:43:11Z</Time>
            <Position>
              <LatitudeDegrees>36.704767</LatitudeDegrees>
              <LongitudeDegrees>-4.434959</LongitudeDegrees>
            </Position>
            <AltitudeMeters>11.60</AltitudeMeters>
            <DistanceMeters>4359.5985894147</DistanceMeters>
          </Trackpoint>
          <Trackpoint>
            <Time>2022-08-26T08:43:17Z</Time>
            <Position>
              <LatitudeDegrees>36.704749</LatitudeDegrees>
              <LongitudeDegrees>-4.434956</LongitudeDegrees>
            </Position>
            <AltitudeMeters>11.40</AltitudeMeters>
            <DistanceMeters>4361.6211186801</DistanceMeters>
          </Trackpoint>
          <Trackpoint>
            <Time>2022-08-26T08:43:22Z</Time>
            <Position>
              <LatitudeDegrees>36.704755</LatitudeDegrees>
              <LongitudeDegrees>-4.434969</LongitudeDegrees>
            </Position>
            <AltitudeMeters>11.60</AltitudeMeters>
            <DistanceMeters>4362.9582630761</DistanceMeters>
          </Trackpoint>
          <Trackpoint>
            <Time>2022-08-26T08:43:24Z</Time>
            <Position>
              <LatitudeDegrees>36.704768</LatitudeDegrees>
              <LongitudeDegrees>-4.434977</LongitudeDegrees>
            </Position>
            <AltitudeMeters>11.60</AltitudeMeters>
            <DistanceMeters>4364.5709198951</DistanceMeters>
          </Trackpoint>
          <Trackpoint>
            <Time>2022-08-26T08:43:27Z</Time>
            <Position>
              <LatitudeDegrees>36.704786</LatitudeDegrees>
              <LongitudeDegrees>-4.434983</LongitudeDegrees>
            </Position>
            <AltitudeMeters>11.80</AltitudeMeters>
            <DistanceMeters>4366.6419791195</DistanceMeters>
          </Trackpoint>
          <Trackpoint>
            <Time>2022-08-26T08:43:28Z</Time>
            <Position>
              <LatitudeDegrees>36.704793</LatitudeDegrees>
              <LongitudeDegrees>-4.434991</LongitudeDegrees>
            </Position>
            <AltitudeMeters>12.00</AltitudeMeters>
            <DistanceMeters>4367.7001518271</DistanceMeters>
          </Trackpoint>
          <Trackpoint>
            <Time>2022-08-26T08:43:31Z</Time>
            <Position>
              <LatitudeDegrees>36.704795</LatitudeDegrees>
              <LongitudeDegrees>-4.435011</LongitudeDegrees>
            </Position>
            <AltitudeMeters>12.20</AltitudeMeters>
            <DistanceMeters>4369.5006510477</DistanceMeters>
          </Trackpoint>
          <Trackpoint>
            <Time>2022-08-26T08:43:32Z</Time>
            <Position>
              <LatitudeDegrees>36.704782</LatitudeDegrees>
              <LongitudeDegrees>-4.435009</LongitudeDegrees>
            </Position>
            <AltitudeMeters>12.00</AltitudeMeters>
            <DistanceMeters>4370.9573829943</DistanceMeters>
          </Trackpoint>
          <Trackpoint>
            <Time>2022-08-26T08:43:34Z</Time>
            <Position>
              <LatitudeDegrees>36.704757</LatitudeDegrees>
              <LongitudeDegrees>-4.435008</LongitudeDegrees>
            </Position>
            <AltitudeMeters>11.80</AltitudeMeters>
            <DistanceMeters>4373.7408710199</DistanceMeters>
          </Trackpoint>
          <Trackpoint>
            <Time>2022-08-26T08:43:36Z</Time>
            <Position>
              <LatitudeDegrees>36.704737</LatitudeDegrees>
              <LongitudeDegrees>-4.435016</LongitudeDegrees>
            </Position>
            <AltitudeMeters>11.80</AltitudeMeters>
            <DistanceMeters>4376.0801500382</DistanceMeters>
          </Trackpoint>
          <Trackpoint>
            <Time>2022-08-26T08:43:41Z</Time>
            <Position>
              <LatitudeDegrees>36.704649</LatitudeDegrees>
              <LongitudeDegrees>-4.435065</LongitudeDegrees>
            </Position>
            <AltitudeMeters>11.40</AltitudeMeters>
            <DistanceMeters>4386.8059681373</DistanceMeters>
          </Trackpoint>
          <Trackpoint>
            <Time>2022-08-26T08:43:46Z</Time>
            <Position>
              <LatitudeDegrees>36.704605</LatitudeDegrees>
              <LongitudeDegrees>-4.435111</LongitudeDegrees>
            </Position>
            <AltitudeMeters>11.20</AltitudeMeters>
            <DistanceMeters>4393.1961172498</DistanceMeters>
          </Trackpoint>
          <Trackpoint>
            <Time>2022-08-26T08:43:47Z</Time>
            <Position>
              <LatitudeDegrees>36.704597</LatitudeDegrees>
              <LongitudeDegrees>-4.435115</LongitudeDegrees>
            </Position>
            <AltitudeMeters>11.20</AltitudeMeters>
            <DistanceMeters>4394.1558400208</DistanceMeters>
          </Trackpoint>
          <Trackpoint>
            <Time>2022-08-26T08:43:54Z</Time>
            <Position>
              <LatitudeDegrees>36.704532</LatitudeDegrees>
              <LongitudeDegrees>-4.435193</LongitudeDegrees>
            </Position>
            <AltitudeMeters>11.20</AltitudeMeters>
            <DistanceMeters>4404.1949975149</DistanceMeters>
          </Trackpoint>
          <Trackpoint>
            <Time>2022-08-26T08:44:01Z</Time>
            <Position>
              <LatitudeDegrees>36.704423</LatitudeDegrees>
              <LongitudeDegrees>-4.435370</LongitudeDegrees>
            </Position>
            <AltitudeMeters>11.20</AltitudeMeters>
            <DistanceMeters>4424.111200413</DistanceMeters>
          </Trackpoint>
          <Trackpoint>
            <Time>2022-08-26T08:44:06Z</Time>
            <Position>
              <LatitudeDegrees>36.704341</LatitudeDegrees>
              <LongitudeDegrees>-4.435439</LongitudeDegrees>
            </Position>
            <AltitudeMeters>10.40</AltitudeMeters>
            <DistanceMeters>4435.1203641428</DistanceMeters>
          </Trackpoint>
          <Trackpoint>
            <Time>2022-08-26T08:44:07Z</Time>
            <Position>
              <LatitudeDegrees>36.704322</LatitudeDegrees>
              <LongitudeDegrees>-4.435425</LongitudeDegrees>
            </Position>
            <AltitudeMeters>10.20</AltitudeMeters>
            <DistanceMeters>4437.5782333707</DistanceMeters>
          </Trackpoint>
          <Trackpoint>
            <Time>2022-08-26T08:44:11Z</Time>
            <Position>
              <LatitudeDegrees>36.704256</LatitudeDegrees>
              <LongitudeDegrees>-4.435406</LongitudeDegrees>
            </Position>
            <AltitudeMeters>9.80</AltitudeMeters>
            <DistanceMeters>4445.1171524668</DistanceMeters>
          </Trackpoint>
          <Trackpoint>
            <Time>2022-08-26T08:44:13Z</Time>
            <Position>
              <LatitudeDegrees>36.704229</LatitudeDegrees>
              <LongitudeDegrees>-4.435405</LongitudeDegrees>
            </Position>
            <AltitudeMeters>9.60</AltitudeMeters>
            <DistanceMeters>4448.1236631554</DistanceMeters>
          </Trackpoint>
          <Trackpoint>
            <Time>2022-08-26T08:44:16Z</Time>
            <Position>
              <LatitudeDegrees>36.704191</LatitudeDegrees>
              <LongitudeDegrees>-4.435380</LongitudeDegrees>
            </Position>
            <AltitudeMeters>9.20</AltitudeMeters>
            <DistanceMeters>4452.9053107329</DistanceMeters>
          </Trackpoint>
          <Trackpoint>
            <Time>2022-08-26T08:44:17Z</Time>
            <Position>
              <LatitudeDegrees>36.704182</LatitudeDegrees>
              <LongitudeDegrees>-4.435367</LongitudeDegrees>
            </Position>
            <AltitudeMeters>9.20</AltitudeMeters>
            <DistanceMeters>4454.4375704614</DistanceMeters>
          </Trackpoint>
          <Trackpoint>
            <Time>2022-08-26T08:44:18Z</Time>
            <Position>
              <LatitudeDegrees>36.704167</LatitudeDegrees>
              <LongitudeDegrees>-4.435358</LongitudeDegrees>
            </Position>
            <AltitudeMeters>9.00</AltitudeMeters>
            <DistanceMeters>4456.2899821458</DistanceMeters>
          </Trackpoint>
          <Trackpoint>
            <Time>2022-08-26T08:44:22Z</Time>
            <Position>
              <LatitudeDegrees>36.704100</LatitudeDegrees>
              <LongitudeDegrees>-4.435345</LongitudeDegrees>
            </Position>
            <AltitudeMeters>8.60</AltitudeMeters>
            <DistanceMeters>4463.8366828907</DistanceMeters>
          </Trackpoint>
          <Trackpoint>
            <Time>2022-08-26T08:44:23Z</Time>
            <Position>
              <LatitudeDegrees>36.704089</LatitudeDegrees>
              <LongitudeDegrees>-4.435337</LongitudeDegrees>
            </Position>
            <AltitudeMeters>8.40</AltitudeMeters>
            <DistanceMeters>4465.255734351</DistanceMeters>
          </Trackpoint>
          <Trackpoint>
            <Time>2022-08-26T08:44:25Z</Time>
            <Position>
              <LatitudeDegrees>36.704068</LatitudeDegrees>
              <LongitudeDegrees>-4.435318</LongitudeDegrees>
            </Position>
            <AltitudeMeters>8.20</AltitudeMeters>
            <DistanceMeters>4468.1427328889</DistanceMeters>
          </Trackpoint>
          <Trackpoint>
            <Time>2022-08-26T08:44:28Z</Time>
            <Position>
              <LatitudeDegrees>36.704040</LatitudeDegrees>
              <LongitudeDegrees>-4.435258</LongitudeDegrees>
            </Position>
            <AltitudeMeters>7.80</AltitudeMeters>
            <DistanceMeters>4474.3384455164</DistanceMeters>
          </Trackpoint>
          <Trackpoint>
            <Time>2022-08-26T08:44:29Z</Time>
            <Position>
              <LatitudeDegrees>36.704028</LatitudeDegrees>
              <LongitudeDegrees>-4.435245</LongitudeDegrees>
            </Position>
            <AltitudeMeters>7.80</AltitudeMeters>
            <DistanceMeters>4476.10604458</DistanceMeters>
          </Trackpoint>
          <Trackpoint>
            <Time>2022-08-26T08:44:33Z</Time>
            <Position>
              <LatitudeDegrees>36.703975</LatitudeDegrees>
              <LongitudeDegrees>-4.435202</LongitudeDegrees>
            </Position>
            <AltitudeMeters>8.00</AltitudeMeters>
            <DistanceMeters>4483.1431561479</DistanceMeters>
          </Trackpoint>
          <Trackpoint>
            <Time>2022-08-26T08:44:36Z</Time>
            <Position>
              <LatitudeDegrees>36.703932</LatitudeDegrees>
              <LongitudeDegrees>-4.435169</LongitudeDegrees>
            </Position>
            <AltitudeMeters>8.00</AltitudeMeters>
            <DistanceMeters>4488.7626025018</DistanceMeters>
          </Trackpoint>
          <Trackpoint>
            <Time>2022-08-26T08:44:39Z</Time>
            <Position>
              <LatitudeDegrees>36.703896</LatitudeDegrees>
              <LongitudeDegrees>-4.435130</LongitudeDegrees>
            </Position>
            <AltitudeMeters>8.00</AltitudeMeters>
            <DistanceMeters>4494.0705059019</DistanceMeters>
          </Trackpoint>
          <Trackpoint>
            <Time>2022-08-26T08:44:42Z</Time>
            <Position>
              <LatitudeDegrees>36.703871</LatitudeDegrees>
              <LongitudeDegrees>-4.435108</LongitudeDegrees>
            </Position>
            <AltitudeMeters>8.00</AltitudeMeters>
            <DistanceMeters>4497.4769187117</DistanceMeters>
          </Trackpoint>
          <Trackpoint>
            <Time>2022-08-26T08:44:45Z</Time>
            <Position>
              <LatitudeDegrees>36.703852</LatitudeDegrees>
              <LongitudeDegrees>-4.435088</LongitudeDegrees>
            </Position>
            <AltitudeMeters>8.00</AltitudeMeters>
            <DistanceMeters>4500.2441384038</DistanceMeters>
          </Trackpoint>
          <Trackpoint>
            <Time>2022-08-26T08:44:46Z</Time>
            <Position>
              <LatitudeDegrees>36.703854</LatitudeDegrees>
              <LongitudeDegrees>-4.435089</LongitudeDegrees>
            </Position>
            <AltitudeMeters>8.00</AltitudeMeters>
            <DistanceMeters>4500.4769053659</DistanceMeters>
          </Trackpoint>
          <Trackpoint>
            <Time>2022-08-26T08:44:50Z</Time>
            <Position>
              <LatitudeDegrees>36.703804</LatitudeDegrees>
              <LongitudeDegrees>-4.435098</LongitudeDegrees>
            </Position>
            <AltitudeMeters>8.20</AltitudeMeters>
            <DistanceMeters>4506.0987616033</DistanceMeters>
          </Trackpoint>
          <Trackpoint>
            <Time>2022-08-26T08:44:51Z</Time>
            <Position>
              <LatitudeDegrees>36.703796</LatitudeDegrees>
              <LongitudeDegrees>-4.435111</LongitudeDegrees>
            </Position>
            <AltitudeMeters>8.40</AltitudeMeters>
            <DistanceMeters>4507.5647623515</DistanceMeters>
          </Trackpoint>
          <Trackpoint>
            <Time>2022-08-26T08:44:57Z</Time>
            <Position>
              <LatitudeDegrees>36.703746</LatitudeDegrees>
              <LongitudeDegrees>-4.435146</LongitudeDegrees>
            </Position>
            <AltitudeMeters>8.60</AltitudeMeters>
            <DistanceMeters>4513.9478419308</DistanceMeters>
          </Trackpoint>
          <Trackpoint>
            <Time>2022-08-26T08:45:04Z</Time>
            <Position>
              <LatitudeDegrees>36.703732</LatitudeDegrees>
              <LongitudeDegrees>-4.435127</LongitudeDegrees>
            </Position>
            <AltitudeMeters>8.60</AltitudeMeters>
            <DistanceMeters>4516.2521172939</DistanceMeters>
          </Trackpoint>
          <Trackpoint>
            <Time>2022-08-26T08:45:07Z</Time>
            <Position>
              <LatitudeDegrees>36.703707</LatitudeDegrees>
              <LongitudeDegrees>-4.435114</LongitudeDegrees>
            </Position>
            <AltitudeMeters>8.60</AltitudeMeters>
            <DistanceMeters>4519.267625042</DistanceMeters>
          </Trackpoint>
          <Trackpoint>
            <Time>2022-08-26T08:45:10Z</Time>
            <Position>
              <LatitudeDegrees>36.703690</LatitudeDegrees>
              <LongitudeDegrees>-4.435099</LongitudeDegrees>
            </Position>
            <AltitudeMeters>8.80</AltitudeMeters>
            <DistanceMeters>4521.5875227899</DistanceMeters>
          </Trackpoint>
          <Trackpoint>
            <Time>2022-08-26T08:45:11Z</Time>
            <Position>
              <LatitudeDegrees>36.703680</LatitudeDegrees>
              <LongitudeDegrees>-4.435095</LongitudeDegrees>
            </Position>
            <AltitudeMeters>8.80</AltitudeMeters>
            <DistanceMeters>4522.7552306057</DistanceMeters>
          </Trackpoint>
          <Trackpoint>
            <Time>2022-08-26T08:45:17Z</Time>
            <Position>
              <LatitudeDegrees>36.703623</LatitudeDegrees>
              <LongitudeDegrees>-4.435077</LongitudeDegrees>
            </Position>
            <AltitudeMeters>8.80</AltitudeMeters>
            <DistanceMeters>4529.2989774297</DistanceMeters>
          </Trackpoint>
          <Trackpoint>
            <Time>2022-08-26T08:45:19Z</Time>
            <Position>
              <LatitudeDegrees>36.703592</LatitudeDegrees>
              <LongitudeDegrees>-4.435114</LongitudeDegrees>
            </Position>
            <AltitudeMeters>9.00</AltitudeMeters>
            <DistanceMeters>4534.0749561878</DistanceMeters>
          </Trackpoint>
          <Trackpoint>
            <Time>2022-08-26T08:45:22Z</Time>
            <Position>
              <LatitudeDegrees>36.703597</LatitudeDegrees>
              <LongitudeDegrees>-4.435178</LongitudeDegrees>
            </Position>
            <AltitudeMeters>9.20</AltitudeMeters>
            <DistanceMeters>4539.812870331</DistanceMeters>
          </Trackpoint>
          <Trackpoint>
            <Time>2022-08-26T08:45:23Z</Time>
            <Position>
              <LatitudeDegrees>36.703598</LatitudeDegrees>
              <LongitudeDegrees>-4.435198</LongitudeDegrees>
            </Position>
            <AltitudeMeters>9.20</AltitudeMeters>
            <DistanceMeters>4541.6007872924</DistanceMeters>
          </Trackpoint>
          <Trackpoint>
            <Time>2022-08-26T08:45:25Z</Time>
            <Position>
              <LatitudeDegrees>36.703588</LatitudeDegrees>
              <LongitudeDegrees>-4.435224</LongitudeDegrees>
            </Position>
            <AltitudeMeters>9.40</AltitudeMeters>
            <DistanceMeters>4544.1752923147</DistanceMeters>
          </Trackpoint>
          <Trackpoint>
            <Time>2022-08-26T08:45:26Z</Time>
            <Position>
              <LatitudeDegrees>36.703586</LatitudeDegrees>
              <LongitudeDegrees>-4.435238</LongitudeDegrees>
            </Position>
            <AltitudeMeters>9.40</AltitudeMeters>
            <DistanceMeters>4545.4466631039</DistanceMeters>
          </Trackpoint>
          <Trackpoint>
            <Time>2022-08-26T08:45:30Z</Time>
            <Position>
              <LatitudeDegrees>36.703576</LatitudeDegrees>
              <LongitudeDegrees>-4.435299</LongitudeDegrees>
            </Position>
            <AltitudeMeters>9.60</AltitudeMeters>
            <DistanceMeters>4551.0022729971</DistanceMeters>
          </Trackpoint>
          <Trackpoint>
            <Time>2022-08-26T08:45:32Z</Time>
            <Position>
              <LatitudeDegrees>36.703546</LatitudeDegrees>
              <LongitudeDegrees>-4.435330</LongitudeDegrees>
            </Position>
            <AltitudeMeters>9.80</AltitudeMeters>
            <DistanceMeters>4555.3371996493</DistanceMeters>
          </Trackpoint>
          <Trackpoint>
            <Time>2022-08-26T08:45:36Z</Time>
            <Position>
              <LatitudeDegrees>36.703477</LatitudeDegrees>
              <LongitudeDegrees>-4.435410</LongitudeDegrees>
            </Position>
            <AltitudeMeters>9.40</AltitudeMeters>
            <DistanceMeters>4565.8229142545</DistanceMeters>
          </Trackpoint>
          <Trackpoint>
            <Time>2022-08-26T08:45:38Z</Time>
            <Position>
              <LatitudeDegrees>36.703469</LatitudeDegrees>
              <LongitudeDegrees>-4.435434</LongitudeDegrees>
            </Position>
            <AltitudeMeters>9.40</AltitudeMeters>
            <DistanceMeters>4568.1428120023</DistanceMeters>
          </Trackpoint>
          <Trackpoint>
            <Time>2022-08-26T08:45:41Z</Time>
            <Position>
              <LatitudeDegrees>36.703440</LatitudeDegrees>
              <LongitudeDegrees>-4.435461</LongitudeDegrees>
            </Position>
            <AltitudeMeters>9.40</AltitudeMeters>
            <DistanceMeters>4572.1699719561</DistanceMeters>
          </Trackpoint>
          <Trackpoint>
            <Time>2022-08-26T08:45:42Z</Time>
            <Position>
              <LatitudeDegrees>36.703432</LatitudeDegrees>
              <LongitudeDegrees>-4.435477</LongitudeDegrees>
            </Position>
            <AltitudeMeters>9.20</AltitudeMeters>
            <DistanceMeters>4573.8538496249</DistanceMeters>
          </Trackpoint>
          <Trackpoint>
            <Time>2022-08-26T08:45:45Z</Time>
            <Position>
              <LatitudeDegrees>36.703394</LatitudeDegrees>
              <LongitudeDegrees>-4.435519</LongitudeDegrees>
            </Position>
            <AltitudeMeters>9.20</AltitudeMeters>
            <DistanceMeters>4579.5045442995</DistanceMeters>
          </Trackpoint>
          <Trackpoint>
            <Time>2022-08-26T08:45:46Z</Time>
            <Position>
              <LatitudeDegrees>36.703378</LatitudeDegrees>
              <LongitudeDegrees>-4.435524</LongitudeDegrees>
            </Position>
            <AltitudeMeters>9.20</AltitudeMeters>
            <DistanceMeters>4581.3398149917</DistanceMeters>
          </Trackpoint>
          <Trackpoint>
            <Time>2022-08-26T08:45:50Z</Time>
            <Position>
              <LatitudeDegrees>36.703304</LatitudeDegrees>
              <LongitudeDegrees>-4.435545</LongitudeDegrees>
            </Position>
            <AltitudeMeters>9.20</AltitudeMeters>
            <DistanceMeters>4589.7865086634</DistanceMeters>
          </Trackpoint>
          <Trackpoint>
            <Time>2022-08-26T08:45:51Z</Time>
            <Position>
              <LatitudeDegrees>36.703287</LatitudeDegrees>
              <LongitudeDegrees>-4.435526</LongitudeDegrees>
            </Position>
            <AltitudeMeters>9.40</AltitudeMeters>
            <DistanceMeters>4592.3256964432</DistanceMeters>
          </Trackpoint>
          <Trackpoint>
            <Time>2022-08-26T08:45:54Z</Time>
            <Position>
              <LatitudeDegrees>36.703254</LatitudeDegrees>
              <LongitudeDegrees>-4.435513</LongitudeDegrees>
            </Position>
            <AltitudeMeters>9.60</AltitudeMeters>
            <DistanceMeters>4596.1775032397</DistanceMeters>
          </Trackpoint>
          <Trackpoint>
            <Time>2022-08-26T08:45:57Z</Time>
            <Position>
              <LatitudeDegrees>36.703200</LatitudeDegrees>
              <LongitudeDegrees>-4.435490</LongitudeDegrees>
            </Position>
            <AltitudeMeters>10.00</AltitudeMeters>
            <DistanceMeters>4602.5286725395</DistanceMeters>
          </Trackpoint>
          <Trackpoint>
            <Time>2022-08-26T08:45:58Z</Time>
            <Position>
              <LatitudeDegrees>36.703190</LatitudeDegrees>
              <LongitudeDegrees>-4.435507</LongitudeDegrees>
            </Position>
            <AltitudeMeters>10.00</AltitudeMeters>
            <DistanceMeters>4604.410105495</DistanceMeters>
          </Trackpoint>
          <Trackpoint>
            <Time>2022-08-26T08:46:00Z</Time>
            <Position>
              <LatitudeDegrees>36.703179</LatitudeDegrees>
              <LongitudeDegrees>-4.435548</LongitudeDegrees>
            </Position>
            <AltitudeMeters>9.60</AltitudeMeters>
            <DistanceMeters>4608.2677687747</DistanceMeters>
          </Trackpoint>
          <Trackpoint>
            <Time>2022-08-26T08:46:02Z</Time>
            <Position>
              <LatitudeDegrees>36.703160</LatitudeDegrees>
              <LongitudeDegrees>-4.435562</LongitudeDegrees>
            </Position>
            <AltitudeMeters>9.60</AltitudeMeters>
            <DistanceMeters>4610.723800343</DistanceMeters>
          </Trackpoint>
          <Trackpoint>
            <Time>2022-08-26T08:46:03Z</Time>
            <Position>
              <LatitudeDegrees>36.703144</LatitudeDegrees>
              <LongitudeDegrees>-4.435564</LongitudeDegrees>
            </Position>
            <AltitudeMeters>9.60</AltitudeMeters>
            <DistanceMeters>4612.5117173045</DistanceMeters>
          </Trackpoint>
          <Trackpoint>
            <Time>2022-08-26T08:46:04Z</Time>
            <Position>
              <LatitudeDegrees>36.703129</LatitudeDegrees>
              <LongitudeDegrees>-4.435566</LongitudeDegrees>
            </Position>
            <AltitudeMeters>9.60</AltitudeMeters>
            <DistanceMeters>4614.190223739</DistanceMeters>
          </Trackpoint>
          <Trackpoint>
            <Time>2022-08-26T08:46:06Z</Time>
            <Position>
              <LatitudeDegrees>36.703098</LatitudeDegrees>
              <LongitudeDegrees>-4.435581</LongitudeDegrees>
            </Position>
            <AltitudeMeters>9.60</AltitudeMeters>
            <DistanceMeters>4617.8926089218</DistanceMeters>
          </Trackpoint>
          <Trackpoint>
            <Time>2022-08-26T08:46:08Z</Time>
            <Position>
              <LatitudeDegrees>36.703074</LatitudeDegrees>
              <LongitudeDegrees>-4.435584</LongitudeDegrees>
            </Position>
            <AltitudeMeters>9.60</AltitudeMeters>
            <DistanceMeters>4620.5770084826</DistanceMeters>
          </Trackpoint>
          <Trackpoint>
            <Time>2022-08-26T08:46:09Z</Time>
            <Position>
              <LatitudeDegrees>36.703064</LatitudeDegrees>
              <LongitudeDegrees>-4.435587</LongitudeDegrees>
            </Position>
            <AltitudeMeters>9.60</AltitudeMeters>
            <DistanceMeters>4621.7173290551</DistanceMeters>
          </Trackpoint>
          <Trackpoint>
            <Time>2022-08-26T08:46:10Z</Time>
            <Position>
              <LatitudeDegrees>36.703051</LatitudeDegrees>
              <LongitudeDegrees>-4.435594</LongitudeDegrees>
            </Position>
            <AltitudeMeters>9.60</AltitudeMeters>
            <DistanceMeters>4623.2931688382</DistanceMeters>
          </Trackpoint>
          <Trackpoint>
            <Time>2022-08-26T08:46:11Z</Time>
            <Position>
              <LatitudeDegrees>36.703047</LatitudeDegrees>
              <LongitudeDegrees>-4.435607</LongitudeDegrees>
            </Position>
            <AltitudeMeters>9.40</AltitudeMeters>
            <DistanceMeters>4624.532165608</DistanceMeters>
          </Trackpoint>
          <Trackpoint>
            <Time>2022-08-26T08:46:13Z</Time>
            <Position>
              <LatitudeDegrees>36.703024</LatitudeDegrees>
              <LongitudeDegrees>-4.435628</LongitudeDegrees>
            </Position>
            <AltitudeMeters>9.40</AltitudeMeters>
            <DistanceMeters>4627.7038379048</DistanceMeters>
          </Trackpoint>
          <Trackpoint>
            <Time>2022-08-26T08:46:14Z</Time>
            <Position>
              <LatitudeDegrees>36.703008</LatitudeDegrees>
              <LongitudeDegrees>-4.435636</LongitudeDegrees>
            </Position>
            <AltitudeMeters>9.40</AltitudeMeters>
            <DistanceMeters>4629.6232834469</DistanceMeters>
          </Trackpoint>
          <Trackpoint>
            <Time>2022-08-26T08:46:15Z</Time>
            <Position>
              <LatitudeDegrees>36.702992</LatitudeDegrees>
              <LongitudeDegrees>-4.435644</LongitudeDegrees>
            </Position>
            <AltitudeMeters>9.40</AltitudeMeters>
            <DistanceMeters>4631.542728989</DistanceMeters>
          </Trackpoint>
          <Trackpoint>
            <Time>2022-08-26T08:46:18Z</Time>
            <Position>
              <LatitudeDegrees>36.702994</LatitudeDegrees>
              <LongitudeDegrees>-4.435647</LongitudeDegrees>
            </Position>
            <AltitudeMeters>9.20</AltitudeMeters>
            <DistanceMeters>4631.8982863968</DistanceMeters>
          </Trackpoint>
          <Trackpoint>
            <Time>2022-08-26T08:46:23Z</Time>
            <Position>
              <LatitudeDegrees>36.702998</LatitudeDegrees>
              <LongitudeDegrees>-4.435678</LongitudeDegrees>
            </Position>
            <AltitudeMeters>9.20</AltitudeMeters>
            <DistanceMeters>4634.6995604694</DistanceMeters>
          </Trackpoint>
          <Trackpoint>
            <Time>2022-08-26T08:46:27Z</Time>
            <Position>
              <LatitudeDegrees>36.702889</LatitudeDegrees>
              <LongitudeDegrees>-4.435756</LongitudeDegrees>
            </Position>
            <AltitudeMeters>8.80</AltitudeMeters>
            <DistanceMeters>4648.6862532909</DistanceMeters>
          </Trackpoint>
          <Trackpoint>
            <Time>2022-08-26T08:46:29Z</Time>
            <Position>
              <LatitudeDegrees>36.702840</LatitudeDegrees>
              <LongitudeDegrees>-4.435796</LongitudeDegrees>
            </Position>
            <AltitudeMeters>8.60</AltitudeMeters>
            <DistanceMeters>4655.2044209528</DistanceMeters>
          </Trackpoint>
          <Trackpoint>
            <Time>2022-08-26T08:46:33Z</Time>
            <Position>
              <LatitudeDegrees>36.702800</LatitudeDegrees>
              <LongitudeDegrees>-4.435834</LongitudeDegrees>
            </Position>
            <AltitudeMeters>8.40</AltitudeMeters>
            <DistanceMeters>4660.8005182632</DistanceMeters>
          </Trackpoint>
          <Trackpoint>
            <Time>2022-08-26T08:46:35Z</Time>
            <Position>
              <LatitudeDegrees>36.702771</LatitudeDegrees>
              <LongitudeDegrees>-4.435866</LongitudeDegrees>
            </Position>
            <AltitudeMeters>8.20</AltitudeMeters>
            <DistanceMeters>4665.1103752498</DistanceMeters>
          </Trackpoint>
          <Trackpoint>
            <Time>2022-08-26T08:46:41Z</Time>
            <Position>
              <LatitudeDegrees>36.702703</LatitudeDegrees>
              <LongitudeDegrees>-4.435928</LongitudeDegrees>
            </Position>
            <AltitudeMeters>8.00</AltitudeMeters>
            <DistanceMeters>4674.4848461124</DistanceMeters>
          </Trackpoint>
          <Trackpoint>
            <Time>2022-08-26T08:46:45Z</Time>
            <Position>
              <LatitudeDegrees>36.702658</LatitudeDegrees>
              <LongitudeDegrees>-4.435971</LongitudeDegrees>
            </Position>
            <AltitudeMeters>7.80</AltitudeMeters>
            <DistanceMeters>4680.794648569</DistanceMeters>
          </Trackpoint>
          <Trackpoint>
            <Time>2022-08-26T08:46:47Z</Time>
            <Position>
              <LatitudeDegrees>36.702644</LatitudeDegrees>
              <LongitudeDegrees>-4.435976</LongitudeDegrees>
            </Position>
            <AltitudeMeters>7.80</AltitudeMeters>
            <DistanceMeters>4682.4156828824</DistanceMeters>
          </Trackpoint>
          <Trackpoint>
            <Time>2022-08-26T08:46:49Z</Time>
            <Position>
              <LatitudeDegrees>36.702627</LatitudeDegrees>
              <LongitudeDegrees>-4.436008</LongitudeDegrees>
            </Position>
            <AltitudeMeters>7.60</AltitudeMeters>
            <DistanceMeters>4685.8406017574</DistanceMeters>
          </Trackpoint>
          <Trackpoint>
            <Time>2022-08-26T08:46:54Z</Time>
            <Position>
              <LatitudeDegrees>36.702572</LatitudeDegrees>
              <LongitudeDegrees>-4.436104</LongitudeDegrees>
            </Position>
            <AltitudeMeters>7.00</AltitudeMeters>
            <DistanceMeters>4696.3692872606</DistanceMeters>
          </Trackpoint>
          <Trackpoint>
            <Time>2022-08-26T08:46:55Z</Time>
            <Position>
              <LatitudeDegrees>36.702560</LatitudeDegrees>
              <LongitudeDegrees>-4.436113</LongitudeDegrees>
            </Position>
            <AltitudeMeters>7.00</AltitudeMeters>
            <DistanceMeters>4697.9249416204</DistanceMeters>
          </Trackpoint>
          <Trackpoint>
            <Time>2022-08-26T08:46:57Z</Time>
            <Position>
              <LatitudeDegrees>36.702546</LatitudeDegrees>
              <LongitudeDegrees>-4.436145</LongitudeDegrees>
            </Position>
            <AltitudeMeters>6.80</AltitudeMeters>
            <DistanceMeters>4701.1781322991</DistanceMeters>
          </Trackpoint>
          <Trackpoint>
            <Time>2022-08-26T08:46:58Z</Time>
            <Position>
              <LatitudeDegrees>36.702539</LatitudeDegrees>
              <LongitudeDegrees>-4.436166</LongitudeDegrees>
            </Position>
            <AltitudeMeters>6.80</AltitudeMeters>
            <DistanceMeters>4703.2095714281</DistanceMeters>
          </Trackpoint>
          <Trackpoint>
            <Time>2022-08-26T08:46:59Z</Time>
            <Position>
              <LatitudeDegrees>36.702538</LatitudeDegrees>
              <LongitudeDegrees>-4.436189</LongitudeDegrees>
            </Position>
            <AltitudeMeters>6.80</AltitudeMeters>
            <DistanceMeters>4705.2653135753</DistanceMeters>
          </Trackpoint>
          <Trackpoint>
            <Time>2022-08-26T08:47:01Z</Time>
            <Position>
              <LatitudeDegrees>36.702522</LatitudeDegrees>
              <LongitudeDegrees>-4.436228</LongitudeDegrees>
            </Position>
            <AltitudeMeters>6.80</AltitudeMeters>
            <DistanceMeters>4709.1741355645</DistanceMeters>
          </Trackpoint>
          <Trackpoint>
            <Time>2022-08-26T08:47:03Z</Time>
            <Position>
              <LatitudeDegrees>36.702481</LatitudeDegrees>
              <LongitudeDegrees>-4.436245</LongitudeDegrees>
            </Position>
            <AltitudeMeters>6.80</AltitudeMeters>
            <DistanceMeters>4713.9821492601</DistanceMeters>
          </Trackpoint>
          <Trackpoint>
            <Time>2022-08-26T08:47:10Z</Time>
            <Position>
              <LatitudeDegrees>36.702416</LatitudeDegrees>
              <LongitudeDegrees>-4.436305</LongitudeDegrees>
            </Position>
            <AltitudeMeters>6.80</AltitudeMeters>
            <DistanceMeters>4722.9826390122</DistanceMeters>
          </Trackpoint>
          <Trackpoint>
            <Time>2022-08-26T08:47:16Z</Time>
            <Position>
              <LatitudeDegrees>36.702392</LatitudeDegrees>
              <LongitudeDegrees>-4.436310</LongitudeDegrees>
            </Position>
            <AltitudeMeters>6.80</AltitudeMeters>
            <DistanceMeters>4725.6888156502</DistanceMeters>
          </Trackpoint>
          <Trackpoint>
            <Time>2022-08-26T08:47:23Z</Time>
            <Position>
              <LatitudeDegrees>36.702354</LatitudeDegrees>
              <LongitudeDegrees>-4.436348</LongitudeDegrees>
            </Position>
            <AltitudeMeters>6.80</AltitudeMeters>
            <DistanceMeters>4731.1095046054</DistanceMeters>
          </Trackpoint>
          <Trackpoint>
            <Time>2022-08-26T08:47:27Z</Time>
            <Position>
              <LatitudeDegrees>36.702334</LatitudeDegrees>
              <LongitudeDegrees>-4.436407</LongitudeDegrees>
            </Position>
            <AltitudeMeters>6.80</AltitudeMeters>
            <DistanceMeters>4736.8253437016</DistanceMeters>
          </Trackpoint>
          <Trackpoint>
            <Time>2022-08-26T08:47:30Z</Time>
            <Position>
              <LatitudeDegrees>36.702308</LatitudeDegrees>
              <LongitudeDegrees>-4.436446</LongitudeDegrees>
            </Position>
            <AltitudeMeters>6.80</AltitudeMeters>
            <DistanceMeters>4741.3528456097</DistanceMeters>
          </Trackpoint>
          <Trackpoint>
            <Time>2022-08-26T08:47:34Z</Time>
            <Position>
              <LatitudeDegrees>36.702286</LatitudeDegrees>
              <LongitudeDegrees>-4.436473</LongitudeDegrees>
            </Position>
            <AltitudeMeters>6.80</AltitudeMeters>
            <DistanceMeters>4744.7882946215</DistanceMeters>
          </Trackpoint>
          <Trackpoint>
            <Time>2022-08-26T08:47:37Z</Time>
            <Position>
              <LatitudeDegrees>36.702241</LatitudeDegrees>
              <LongitudeDegrees>-4.436511</LongitudeDegrees>
            </Position>
            <AltitudeMeters>6.80</AltitudeMeters>
            <DistanceMeters>4750.836504247</DistanceMeters>
          </Trackpoint>
          <Trackpoint>
            <Time>2022-08-26T08:47:41Z</Time>
            <Position>
              <LatitudeDegrees>36.702188</LatitudeDegrees>
              <LongitudeDegrees>-4.436576</LongitudeDegrees>
            </Position>
            <AltitudeMeters>6.80</AltitudeMeters>
            <DistanceMeters>4759.1098336521</DistanceMeters>
          </Trackpoint>
          <Trackpoint>
            <Time>2022-08-26T08:47:49Z</Time>
            <Position>
              <LatitudeDegrees>36.702078</LatitudeDegrees>
              <LongitudeDegrees>-4.436677</LongitudeDegrees>
            </Position>
            <AltitudeMeters>6.80</AltitudeMeters>
            <DistanceMeters>4774.3126230864</DistanceMeters>
          </Trackpoint>
          <Trackpoint>
            <Time>2022-08-26T08:47:51Z</Time>
            <Position>
              <LatitudeDegrees>36.702062</LatitudeDegrees>
              <LongitudeDegrees>-4.436677</LongitudeDegrees>
            </Position>
            <AltitudeMeters>6.80</AltitudeMeters>
            <DistanceMeters>4776.0904101252</DistanceMeters>
          </Trackpoint>
          <Trackpoint>
            <Time>2022-08-26T08:47:54Z</Time>
            <Position>
              <LatitudeDegrees>36.702034</LatitudeDegrees>
              <LongitudeDegrees>-4.436670</LongitudeDegrees>
            </Position>
            <AltitudeMeters>6.80</AltitudeMeters>
            <DistanceMeters>4779.2677715249</DistanceMeters>
          </Trackpoint>
          <Trackpoint>
            <Time>2022-08-26T08:47:55Z</Time>
            <Position>
              <LatitudeDegrees>36.702024</LatitudeDegrees>
              <LongitudeDegrees>-4.436659</LongitudeDegrees>
            </Position>
            <AltitudeMeters>6.80</AltitudeMeters>
            <DistanceMeters>4780.7521362551</DistanceMeters>
          </Trackpoint>
          <Trackpoint>
            <Time>2022-08-26T08:47:57Z</Time>
            <Position>
              <LatitudeDegrees>36.702030</LatitudeDegrees>
              <LongitudeDegrees>-4.436653</LongitudeDegrees>
            </Position>
            <AltitudeMeters>6.80</AltitudeMeters>
            <DistanceMeters>4781.6020810272</DistanceMeters>
          </Trackpoint>
          <Trackpoint>
            <Time>2022-08-26T08:47:58Z</Time>
            <Position>
              <LatitudeDegrees>36.702032</LatitudeDegrees>
              <LongitudeDegrees>-4.436666</LongitudeDegrees>
            </Position>
            <AltitudeMeters>6.80</AltitudeMeters>
            <DistanceMeters>4782.7813315402</DistanceMeters>
          </Trackpoint>
          <Trackpoint>
            <Time>2022-08-26T08:47:59Z</Time>
            <Position>
              <LatitudeDegrees>36.702030</LatitudeDegrees>
              <LongitudeDegrees>-4.436676</LongitudeDegrees>
            </Position>
            <AltitudeMeters>6.80</AltitudeMeters>
            <DistanceMeters>4783.7026497185</DistanceMeters>
          </Trackpoint>
          <Trackpoint>
            <Time>2022-08-26T08:48:03Z</Time>
            <Position>
              <LatitudeDegrees>36.702010</LatitudeDegrees>
              <LongitudeDegrees>-4.436715</LongitudeDegrees>
            </Position>
            <AltitudeMeters>6.80</AltitudeMeters>
            <DistanceMeters>4787.8360387193</DistanceMeters>
          </Trackpoint>
          <Trackpoint>
            <Time>2022-08-26T08:48:04Z</Time>
            <Position>
              <LatitudeDegrees>36.702004</LatitudeDegrees>
              <LongitudeDegrees>-4.436733</LongitudeDegrees>
            </Position>
            <AltitudeMeters>6.80</AltitudeMeters>
            <DistanceMeters>4789.5727152961</DistanceMeters>
          </Trackpoint>
          <Trackpoint>
            <Time>2022-08-26T08:48:05Z</Time>
            <Position>
              <LatitudeDegrees>36.701997</LatitudeDegrees>
              <LongitudeDegrees>-4.436753</LongitudeDegrees>
            </Position>
            <AltitudeMeters>6.80</AltitudeMeters>
            <DistanceMeters>4791.5201834233</DistanceMeters>
          </Trackpoint>
          <Trackpoint>
            <Time>2022-08-26T08:48:07Z</Time>
            <Position>
              <LatitudeDegrees>36.701981</LatitudeDegrees>
              <LongitudeDegrees>-4.436789</LongitudeDegrees>
            </Position>
            <AltitudeMeters>6.80</AltitudeMeters>
            <DistanceMeters>4795.1931841321</DistanceMeters>
          </Trackpoint>
          <Trackpoint>
            <Time>2022-08-26T08:48:08Z</Time>
            <Position>
              <LatitudeDegrees>36.701972</LatitudeDegrees>
              <LongitudeDegrees>-4.436799</LongitudeDegrees>
            </Position>
            <AltitudeMeters>6.80</AltitudeMeters>
            <DistanceMeters>4796.5303285282</DistanceMeters>
          </Trackpoint>
          <Trackpoint>
            <Time>2022-08-26T08:48:11Z</Time>
            <Position>
              <LatitudeDegrees>36.701952</LatitudeDegrees>
              <LongitudeDegrees>-4.436821</LongitudeDegrees>
            </Position>
            <AltitudeMeters>6.60</AltitudeMeters>
            <DistanceMeters>4799.4975367333</DistanceMeters>
          </Trackpoint>
          <Trackpoint>
            <Time>2022-08-26T08:48:13Z</Time>
            <Position>
              <LatitudeDegrees>36.701929</LatitudeDegrees>
              <LongitudeDegrees>-4.436842</LongitudeDegrees>
            </Position>
            <AltitudeMeters>6.80</AltitudeMeters>
            <DistanceMeters>4802.6692090302</DistanceMeters>
          </Trackpoint>
          <Trackpoint>
            <Time>2022-08-26T08:48:14Z</Time>
            <Position>
              <LatitudeDegrees>36.701922</LatitudeDegrees>
              <LongitudeDegrees>-4.436859</LongitudeDegrees>
            </Position>
            <AltitudeMeters>6.60</AltitudeMeters>
            <DistanceMeters>4804.3744024547</DistanceMeters>
          </Trackpoint>
          <Trackpoint>
            <Time>2022-08-26T08:48:18Z</Time>
            <Position>
              <LatitudeDegrees>36.701893</LatitudeDegrees>
              <LongitudeDegrees>-4.436922</LongitudeDegrees>
            </Position>
            <AltitudeMeters>6.60</AltitudeMeters>
            <DistanceMeters>4810.8571469175</DistanceMeters>
          </Trackpoint>
          <Trackpoint>
            <Time>2022-08-26T08:48:23Z</Time>
            <Position>
              <LatitudeDegrees>36.701846</LatitudeDegrees>
              <LongitudeDegrees>-4.436974</LongitudeDegrees>
            </Position>
            <AltitudeMeters>6.60</AltitudeMeters>
            <DistanceMeters>4817.8504933282</DistanceMeters>
          </Trackpoint>
          <Trackpoint>
            <Time>2022-08-26T08:48:29Z</Time>
            <Position>
              <LatitudeDegrees>36.701770</LatitudeDegrees>
              <LongitudeDegrees>-4.437053</LongitudeDegrees>
            </Position>
            <AltitudeMeters>6.80</AltitudeMeters>
            <DistanceMeters>4828.8621174814</DistanceMeters>
          </Trackpoint>
          <Trackpoint>
            <Time>2022-08-26T08:48:35Z</Time>
            <Position>
              <LatitudeDegrees>36.701678</LatitudeDegrees>
              <LongitudeDegrees>-4.437055</LongitudeDegrees>
            </Position>
            <AltitudeMeters>7.00</AltitudeMeters>
            <DistanceMeters>4839.1034229595</DistanceMeters>
          </Trackpoint>
          <Trackpoint>
            <Time>2022-08-26T08:48:42Z</Time>
            <Position>
              <LatitudeDegrees>36.701656</LatitudeDegrees>
              <LongitudeDegrees>-4.437081</LongitudeDegrees>
            </Position>
            <AltitudeMeters>7.00</AltitudeMeters>
            <DistanceMeters>4842.4765367019</DistanceMeters>
          </Trackpoint>
          <Trackpoint>
            <Time>2022-08-26T08:48:48Z</Time>
            <Position>
              <LatitudeDegrees>36.701588</LatitudeDegrees>
              <LongitudeDegrees>-4.437145</LongitudeDegrees>
            </Position>
            <AltitudeMeters>7.40</AltitudeMeters>
            <DistanceMeters>4851.9582792146</DistanceMeters>
          </Trackpoint>
          <Trackpoint>
            <Time>2022-08-26T08:48:49Z</Time>
            <Position>
              <LatitudeDegrees>36.701578</LatitudeDegrees>
              <LongitudeDegrees>-4.437159</LongitudeDegrees>
            </Position>
            <AltitudeMeters>7.40</AltitudeMeters>
            <DistanceMeters>4853.634093576</DistanceMeters>
          </Trackpoint>
          <Trackpoint>
            <Time>2022-08-26T08:48:52Z</Time>
            <Position>
              <LatitudeDegrees>36.701555</LatitudeDegrees>
              <LongitudeDegrees>-4.437193</LongitudeDegrees>
            </Position>
            <AltitudeMeters>7.40</AltitudeMeters>
            <DistanceMeters>4857.6048004994</DistanceMeters>
          </Trackpoint>
          <Trackpoint>
            <Time>2022-08-26T08:48:54Z</Time>
            <Position>
              <LatitudeDegrees>36.701531</LatitudeDegrees>
              <LongitudeDegrees>-4.437217</LongitudeDegrees>
            </Position>
            <AltitudeMeters>7.60</AltitudeMeters>
            <DistanceMeters>4861.0284008301</DistanceMeters>
          </Trackpoint>
          <Trackpoint>
            <Time>2022-08-26T08:48:56Z</Time>
            <Position>
              <LatitudeDegrees>36.701511</LatitudeDegrees>
              <LongitudeDegrees>-4.437231</LongitudeDegrees>
            </Position>
            <AltitudeMeters>7.60</AltitudeMeters>
            <DistanceMeters>4863.5817741268</DistanceMeters>
          </Trackpoint>
          <Trackpoint>
            <Time>2022-08-26T08:49:00Z</Time>
            <Position>
              <LatitudeDegrees>36.701458</LatitudeDegrees>
              <LongitudeDegrees>-4.437273</LongitudeDegrees>
            </Position>
            <AltitudeMeters>7.40</AltitudeMeters>
            <DistanceMeters>4870.5712457493</DistanceMeters>
          </Trackpoint>
          <Trackpoint>
            <Time>2022-08-26T08:49:03Z</Time>
            <Position>
              <LatitudeDegrees>36.701391</LatitudeDegrees>
              <LongitudeDegrees>-4.437291</LongitudeDegrees>
            </Position>
            <AltitudeMeters>7.40</AltitudeMeters>
            <DistanceMeters>4878.1994704841</DistanceMeters>
          </Trackpoint>
          <Trackpoint>
            <Time>2022-08-26T08:49:04Z</Time>
            <Position>
              <LatitudeDegrees>36.701379</LatitudeDegrees>
              <LongitudeDegrees>-4.437300</LongitudeDegrees>
            </Position>
            <AltitudeMeters>7.40</AltitudeMeters>
            <DistanceMeters>4879.7551248439</DistanceMeters>
          </Trackpoint>
          <Trackpoint>
            <Time>2022-08-26T08:49:10Z</Time>
            <Position>
              <LatitudeDegrees>36.701347</LatitudeDegrees>
              <LongitudeDegrees>-4.437368</LongitudeDegrees>
            </Position>
            <AltitudeMeters>7.40</AltitudeMeters>
            <DistanceMeters>4886.7915947786</DistanceMeters>
          </Trackpoint>
          <Trackpoint>
            <Time>2022-08-26T08:49:12Z</Time>
            <Position>
              <LatitudeDegrees>36.701336</LatitudeDegrees>
              <LongitudeDegrees>-4.437381</LongitudeDegrees>
            </Position>
            <AltitudeMeters>7.40</AltitudeMeters>
            <DistanceMeters>4888.4781516498</DistanceMeters>
          </Trackpoint>
          <Trackpoint>
            <Time>2022-08-26T08:49:13Z</Time>
            <Position>
              <LatitudeDegrees>36.701328</LatitudeDegrees>
              <LongitudeDegrees>-4.437386</LongitudeDegrees>
            </Position>
            <AltitudeMeters>7.40</AltitudeMeters>
            <DistanceMeters>4889.4702596744</DistanceMeters>
          </Trackpoint>
          <Trackpoint>
            <Time>2022-08-26T08:49:14Z</Time>
            <Position>
              <LatitudeDegrees>36.701321</LatitudeDegrees>
              <LongitudeDegrees>-4.437392</LongitudeDegrees>
            </Position>
            <AltitudeMeters>7.40</AltitudeMeters>
            <DistanceMeters>4890.4109761521</DistanceMeters>
          </Trackpoint>
          <Trackpoint>
            <Time>2022-08-26T08:49:23Z</Time>
            <Position>
              <LatitudeDegrees>36.701232</LatitudeDegrees>
              <LongitudeDegrees>-4.437506</LongitudeDegrees>
            </Position>
            <AltitudeMeters>7.60</AltitudeMeters>
            <DistanceMeters>4904.6103968037</DistanceMeters>
          </Trackpoint>
          <Trackpoint>
            <Time>2022-08-26T08:49:28Z</Time>
            <Position>
              <LatitudeDegrees>36.701226</LatitudeDegrees>
              <LongitudeDegrees>-4.437558</LongitudeDegrees>
            </Position>
            <AltitudeMeters>7.60</AltitudeMeters>
            <DistanceMeters>4909.2995583642</DistanceMeters>
          </Trackpoint>
          <Trackpoint>
            <Time>2022-08-26T08:49:36Z</Time>
            <Position>
              <LatitudeDegrees>36.701131</LatitudeDegrees>
              <LongitudeDegrees>-4.437664</LongitudeDegrees>
            </Position>
            <AltitudeMeters>7.60</AltitudeMeters>
            <DistanceMeters>4923.4862543779</DistanceMeters>
          </Trackpoint>
          <Trackpoint>
            <Time>2022-08-26T08:49:46Z</Time>
            <Position>
              <LatitudeDegrees>36.701001</LatitudeDegrees>
              <LongitudeDegrees>-4.437764</LongitudeDegrees>
            </Position>
            <AltitudeMeters>7.60</AltitudeMeters>
            <DistanceMeters>4940.4862122164</DistanceMeters>
          </Trackpoint>
          <Trackpoint>
            <Time>2022-08-26T08:49:52Z</Time>
            <Position>
              <LatitudeDegrees>36.700933</LatitudeDegrees>
              <LongitudeDegrees>-4.437738</LongitudeDegrees>
            </Position>
            <AltitudeMeters>7.40</AltitudeMeters>
            <DistanceMeters>4948.4025706293</DistanceMeters>
          </Trackpoint>
          <Trackpoint>
            <Time>2022-08-26T08:49:54Z</Time>
            <Position>
              <LatitudeDegrees>36.700915</LatitudeDegrees>
              <LongitudeDegrees>-4.437732</LongitudeDegrees>
            </Position>
            <AltitudeMeters>7.20</AltitudeMeters>
            <DistanceMeters>4950.4758087698</DistanceMeters>
          </Trackpoint>
          <Trackpoint>
            <Time>2022-08-26T08:50:00Z</Time>
            <Position>
              <LatitudeDegrees>36.700863</LatitudeDegrees>
              <LongitudeDegrees>-4.437750</LongitudeDegrees>
            </Position>
            <AltitudeMeters>7.20</AltitudeMeters>
            <DistanceMeters>4956.4813166848</DistanceMeters>
          </Trackpoint>
          <Trackpoint>
            <Time>2022-08-26T08:50:04Z</Time>
            <Position>
              <LatitudeDegrees>36.700861</LatitudeDegrees>
              <LongitudeDegrees>-4.437772</LongitudeDegrees>
            </Position>
            <AltitudeMeters>7.20</AltitudeMeters>
            <DistanceMeters>4958.4564098532</DistanceMeters>
          </Trackpoint>
          <Trackpoint>
            <Time>2022-08-26T08:50:05Z</Time>
            <Position>
              <LatitudeDegrees>36.700858</LatitudeDegrees>
              <LongitudeDegrees>-4.437784</LongitudeDegrees>
            </Position>
            <AltitudeMeters>7.20</AltitudeMeters>
            <DistanceMeters>4959.5807811007</DistanceMeters>
          </Trackpoint>
          <Trackpoint>
            <Time>2022-08-26T08:50:06Z</Time>
            <Position>
              <LatitudeDegrees>36.700859</LatitudeDegrees>
              <LongitudeDegrees>-4.437794</LongitudeDegrees>
            </Position>
            <AltitudeMeters>7.40</AltitudeMeters>
            <DistanceMeters>4960.4772613311</DistanceMeters>
          </Trackpoint>
          <Trackpoint>
            <Time>2022-08-26T08:50:08Z</Time>
            <Position>
              <LatitudeDegrees>36.700869</LatitudeDegrees>
              <LongitudeDegrees>-4.437828</LongitudeDegrees>
            </Position>
            <AltitudeMeters>7.40</AltitudeMeters>
            <DistanceMeters>4963.7081696197</DistanceMeters>
          </Trackpoint>
          <Trackpoint>
            <Time>2022-08-26T08:50:10Z</Time>
            <Position>
              <LatitudeDegrees>36.700884</LatitudeDegrees>
              <LongitudeDegrees>-4.437843</LongitudeDegrees>
            </Position>
            <AltitudeMeters>7.40</AltitudeMeters>
            <DistanceMeters>4965.8478538854</DistanceMeters>
          </Trackpoint>
          <Trackpoint>
            <Time>2022-08-26T08:50:11Z</Time>
            <Position>
              <LatitudeDegrees>36.700891</LatitudeDegrees>
              <LongitudeDegrees>-4.437840</LongitudeDegrees>
            </Position>
            <AltitudeMeters>7.60</AltitudeMeters>
            <DistanceMeters>4966.6708093722</DistanceMeters>
          </Trackpoint>
          <Trackpoint>
            <Time>2022-08-26T08:50:14Z</Time>
            <Position>
              <LatitudeDegrees>36.700924</LatitudeDegrees>
              <LongitudeDegrees>-4.437860</LongitudeDegrees>
            </Position>
            <AltitudeMeters>7.60</AltitudeMeters>
            <DistanceMeters>4970.7558529789</DistanceMeters>
          </Trackpoint>
          <Trackpoint>
            <Time>2022-08-26T08:50:18Z</Time>
            <Position>
              <LatitudeDegrees>36.700958</LatitudeDegrees>
              <LongitudeDegrees>-4.437899</LongitudeDegrees>
            </Position>
            <AltitudeMeters>7.80</AltitudeMeters>
            <DistanceMeters>4975.8978432383</DistanceMeters>
          </Trackpoint>
          <Trackpoint>
            <Time>2022-08-26T08:50:20Z</Time>
            <Position>
              <LatitudeDegrees>36.700968</LatitudeDegrees>
              <LongitudeDegrees>-4.437929</LongitudeDegrees>
            </Position>
            <AltitudeMeters>7.80</AltitudeMeters>
            <DistanceMeters>4978.7988829219</DistanceMeters>
          </Trackpoint>
          <Trackpoint>
            <Time>2022-08-26T08:50:23Z</Time>
            <Position>
              <LatitudeDegrees>36.700985</LatitudeDegrees>
              <LongitudeDegrees>-4.437961</LongitudeDegrees>
            </Position>
            <AltitudeMeters>8.00</AltitudeMeters>
            <DistanceMeters>4982.223801797</DistanceMeters>
          </Trackpoint>
          <Trackpoint>
            <Time>2022-08-26T08:50:26Z</Time>
            <Position>
              <LatitudeDegrees>36.701007</LatitudeDegrees>
              <LongitudeDegrees>-4.437987</LongitudeDegrees>
            </Position>
            <AltitudeMeters>8.20</AltitudeMeters>
            <DistanceMeters>4985.5969155394</DistanceMeters>
          </Trackpoint>
          <Trackpoint>
            <Time>2022-08-26T08:50:33Z</Time>
            <Position>
              <LatitudeDegrees>36.701072</LatitudeDegrees>
              <LongitudeDegrees>-4.438041</LongitudeDegrees>
            </Position>
            <AltitudeMeters>8.40</AltitudeMeters>
            <DistanceMeters>4994.2891333005</DistanceMeters>
          </Trackpoint>
          <Trackpoint>
            <Time>2022-08-26T08:50:35Z</Time>
            <Position>
              <LatitudeDegrees>36.701078</LatitudeDegrees>
              <LongitudeDegrees>-4.438067</LongitudeDegrees>
            </Position>
            <AltitudeMeters>8.40</AltitudeMeters>
            <DistanceMeters>4996.7006409679</DistanceMeters>
          </Trackpoint>
          <Trackpoint>
            <Time>2022-08-26T08:50:44Z</Time>
            <Position>
              <LatitudeDegrees>36.701129</LatitudeDegrees>
              <LongitudeDegrees>-4.438135</LongitudeDegrees>
            </Position>
            <AltitudeMeters>8.80</AltitudeMeters>
            <DistanceMeters>5005.0099107608</DistanceMeters>
          </Trackpoint>
          <Trackpoint>
            <Time>2022-08-26T08:50:53Z</Time>
            <Position>
              <LatitudeDegrees>36.701175</LatitudeDegrees>
              <LongitudeDegrees>-4.438246</LongitudeDegrees>
            </Position>
            <AltitudeMeters>9.00</AltitudeMeters>
            <DistanceMeters>5016.1608816886</DistanceMeters>
          </Trackpoint>
          <Trackpoint>
            <Time>2022-08-26T08:50:54Z</Time>
            <Position>
              <LatitudeDegrees>36.701175</LatitudeDegrees>
              <LongitudeDegrees>-4.438262</LongitudeDegrees>
            </Position>
            <AltitudeMeters>9.00</AltitudeMeters>
            <DistanceMeters>5017.5894464496</DistanceMeters>
          </Trackpoint>
          <Trackpoint>
            <Time>2022-08-26T08:50:57Z</Time>
            <Position>
              <LatitudeDegrees>36.701179</LatitudeDegrees>
              <LongitudeDegrees>-4.438312</LongitudeDegrees>
            </Position>
            <AltitudeMeters>8.80</AltitudeMeters>
            <DistanceMeters>5022.0738617114</DistanceMeters>
          </Trackpoint>
          <Trackpoint>
            <Time>2022-08-26T08:50:59Z</Time>
            <Position>
              <LatitudeDegrees>36.701178</LatitudeDegrees>
              <LongitudeDegrees>-4.438350</LongitudeDegrees>
            </Position>
            <AltitudeMeters>8.80</AltitudeMeters>
            <DistanceMeters>5025.4656632076</DistanceMeters>
          </Trackpoint>
          <Trackpoint>
            <Time>2022-08-26T08:51:03Z</Time>
            <Position>
              <LatitudeDegrees>36.701205</LatitudeDegrees>
              <LongitudeDegrees>-4.438401</LongitudeDegrees>
            </Position>
            <AltitudeMeters>8.60</AltitudeMeters>
            <DistanceMeters>5030.9195674795</DistanceMeters>
          </Trackpoint>
          <Trackpoint>
            <Time>2022-08-26T08:51:06Z</Time>
            <Position>
              <LatitudeDegrees>36.701228</LatitudeDegrees>
              <LongitudeDegrees>-4.438437</LongitudeDegrees>
            </Position>
            <AltitudeMeters>8.60</AltitudeMeters>
            <DistanceMeters>5035.0277559943</DistanceMeters>
          </Trackpoint>
          <Trackpoint>
            <Time>2022-08-26T08:51:09Z</Time>
            <Position>
              <LatitudeDegrees>36.701243</LatitudeDegrees>
              <LongitudeDegrees>-4.438478</LongitudeDegrees>
            </Position>
            <AltitudeMeters>8.60</AltitudeMeters>
            <DistanceMeters>5039.0504288604</DistanceMeters>
          </Trackpoint>
          <Trackpoint>
            <Time>2022-08-26T08:51:13Z</Time>
            <Position>
              <LatitudeDegrees>36.701267</LatitudeDegrees>
              <LongitudeDegrees>-4.438541</LongitudeDegrees>
            </Position>
            <AltitudeMeters>8.40</AltitudeMeters>
            <DistanceMeters>5045.2744973003</DistanceMeters>
          </Trackpoint>
          <Trackpoint>
            <Time>2022-08-26T08:51:27Z</Time>
            <Position>
              <LatitudeDegrees>36.701286</LatitudeDegrees>
              <LongitudeDegrees>-4.438795</LongitudeDegrees>
            </Position>
            <AltitudeMeters>8.20</AltitudeMeters>
            <DistanceMeters>5068.0392965992</DistanceMeters>
          </Trackpoint>
          <Trackpoint>
            <Time>2022-08-26T08:51:33Z</Time>
            <Position>
              <LatitudeDegrees>36.701306</LatitudeDegrees>
              <LongitudeDegrees>-4.438899</LongitudeDegrees>
            </Position>
            <AltitudeMeters>8.20</AltitudeMeters>
            <DistanceMeters>5077.5827420469</DistanceMeters>
          </Trackpoint>
          <Trackpoint>
            <Time>2022-08-26T08:51:36Z</Time>
            <Position>
              <LatitudeDegrees>36.701323</LatitudeDegrees>
              <LongitudeDegrees>-4.438942</LongitudeDegrees>
            </Position>
            <AltitudeMeters>8.20</AltitudeMeters>
            <DistanceMeters>5081.8599999157</DistanceMeters>
          </Trackpoint>
          <Trackpoint>
            <Time>2022-08-26T08:51:45Z</Time>
            <Position>
              <LatitudeDegrees>36.701348</LatitudeDegrees>
              <LongitudeDegrees>-4.439073</LongitudeDegrees>
            </Position>
            <AltitudeMeters>8.20</AltitudeMeters>
            <DistanceMeters>5093.8770287702</DistanceMeters>
          </Trackpoint>
          <Trackpoint>
            <Time>2022-08-26T08:51:46Z</Time>
            <Position>
              <LatitudeDegrees>36.701353</LatitudeDegrees>
              <LongitudeDegrees>-4.439083</LongitudeDegrees>
            </Position>
            <AltitudeMeters>8.20</AltitudeMeters>
            <DistanceMeters>5094.9352014778</DistanceMeters>
          </Trackpoint>
          <Trackpoint>
            <Time>2022-08-26T08:51:47Z</Time>
            <Position>
              <LatitudeDegrees>36.701353</LatitudeDegrees>
              <LongitudeDegrees>-4.439094</LongitudeDegrees>
            </Position>
            <AltitudeMeters>8.20</AltitudeMeters>
            <DistanceMeters>5095.9135613825</DistanceMeters>
          </Trackpoint>
          <Trackpoint>
            <Time>2022-08-26T08:51:53Z</Time>
            <Position>
              <LatitudeDegrees>36.701314</LatitudeDegrees>
              <LongitudeDegrees>-4.439162</LongitudeDegrees>
            </Position>
            <AltitudeMeters>8.20</AltitudeMeters>
            <DistanceMeters>5103.3742176003</DistanceMeters>
          </Trackpoint>
          <Trackpoint>
            <Time>2022-08-26T08:52:01Z</Time>
            <Position>
              <LatitudeDegrees>36.701241</LatitudeDegrees>
              <LongitudeDegrees>-4.439169</LongitudeDegrees>
            </Position>
            <AltitudeMeters>8.40</AltitudeMeters>
            <DistanceMeters>5111.5232778019</DistanceMeters>
          </Trackpoint>
          <Trackpoint>
            <Time>2022-08-26T08:52:09Z</Time>
            <Position>
              <LatitudeDegrees>36.701177</LatitudeDegrees>
              <LongitudeDegrees>-4.439193</LongitudeDegrees>
            </Position>
            <AltitudeMeters>8.40</AltitudeMeters>
            <DistanceMeters>5118.9621156445</DistanceMeters>
          </Trackpoint>
          <Trackpoint>
            <Time>2022-08-26T08:52:18Z</Time>
            <Position>
              <LatitudeDegrees>36.701073</LatitudeDegrees>
              <LongitudeDegrees>-4.439217</LongitudeDegrees>
            </Position>
            <AltitudeMeters>8.60</AltitudeMeters>
            <DistanceMeters>5130.7339274468</DistanceMeters>
          </Trackpoint>
          <Trackpoint>
            <Time>2022-08-26T08:52:26Z</Time>
            <Position>
              <LatitudeDegrees>36.701003</LatitudeDegrees>
              <LongitudeDegrees>-4.439253</LongitudeDegrees>
            </Position>
            <AltitudeMeters>8.60</AltitudeMeters>
            <DistanceMeters>5139.1608201811</DistanceMeters>
          </Trackpoint>
          <Trackpoint>
            <Time>2022-08-26T08:52:34Z</Time>
            <Position>
              <LatitudeDegrees>36.700913</LatitudeDegrees>
              <LongitudeDegrees>-4.439273</LongitudeDegrees>
            </Position>
            <AltitudeMeters>8.80</AltitudeMeters>
            <DistanceMeters>5149.3357809392</DistanceMeters>
          </Trackpoint>
          <Trackpoint>
            <Time>2022-08-26T08:52:38Z</Time>
            <Position>
              <LatitudeDegrees>36.700870</LatitudeDegrees>
              <LongitudeDegrees>-4.439291</LongitudeDegrees>
            </Position>
            <AltitudeMeters>8.80</AltitudeMeters>
            <DistanceMeters>5154.3829430773</DistanceMeters>
          </Trackpoint>
          <Trackpoint>
            <Time>2022-08-26T08:52:47Z</Time>
            <Position>
              <LatitudeDegrees>36.700776</LatitudeDegrees>
              <LongitudeDegrees>-4.439327</LongitudeDegrees>
            </Position>
            <AltitudeMeters>9.00</AltitudeMeters>
            <DistanceMeters>5165.3271165935</DistanceMeters>
          </Trackpoint>
          <Trackpoint>
            <Time>2022-08-26T08:52:50Z</Time>
            <Position>
              <LatitudeDegrees>36.700754</LatitudeDegrees>
              <LongitudeDegrees>-4.439345</LongitudeDegrees>
            </Position>
            <AltitudeMeters>9.00</AltitudeMeters>
            <DistanceMeters>5168.2560366371</DistanceMeters>
          </Trackpoint>
          <Trackpoint>
            <Time>2022-08-26T08:52:54Z</Time>
            <Position>
              <LatitudeDegrees>36.700733</LatitudeDegrees>
              <LongitudeDegrees>-4.439329</LongitudeDegrees>
            </Position>
            <AltitudeMeters>9.00</AltitudeMeters>
            <DistanceMeters>5170.9953784422</DistanceMeters>
          </Trackpoint>
          <Trackpoint>
            <Time>2022-08-26T08:53:00Z</Time>
            <Position>
              <LatitudeDegrees>36.700675</LatitudeDegrees>
              <LongitudeDegrees>-4.439322</LongitudeDegrees>
            </Position>
            <AltitudeMeters>9.00</AltitudeMeters>
            <DistanceMeters>5177.4809081874</DistanceMeters>
          </Trackpoint>
          <Trackpoint>
            <Time>2022-08-26T08:53:01Z</Time>
            <Position>
              <LatitudeDegrees>36.700664</LatitudeDegrees>
              <LongitudeDegrees>-4.439328</LongitudeDegrees>
            </Position>
            <AltitudeMeters>9.00</AltitudeMeters>
            <DistanceMeters>5178.8112821886</DistanceMeters>
          </Trackpoint>
          <Trackpoint>
            <Time>2022-08-26T08:53:05Z</Time>
            <Position>
              <LatitudeDegrees>36.700624</LatitudeDegrees>
              <LongitudeDegrees>-4.439361</LongitudeDegrees>
            </Position>
            <AltitudeMeters>9.00</AltitudeMeters>
            <DistanceMeters>5184.1488744529</DistanceMeters>
          </Trackpoint>
          <Trackpoint>
            <Time>2022-08-26T08:53:09Z</Time>
            <Position>
              <LatitudeDegrees>36.700587</LatitudeDegrees>
              <LongitudeDegrees>-4.439390</LongitudeDegrees>
            </Position>
            <AltitudeMeters>9.00</AltitudeMeters>
            <DistanceMeters>5189.012905732</DistanceMeters>
          </Trackpoint>
          <Trackpoint>
            <Time>2022-08-26T08:53:12Z</Time>
            <Position>
              <LatitudeDegrees>36.700549</LatitudeDegrees>
              <LongitudeDegrees>-4.439411</LongitudeDegrees>
            </Position>
            <AltitudeMeters>9.00</AltitudeMeters>
            <DistanceMeters>5193.6390576071</DistanceMeters>
          </Trackpoint>
          <Trackpoint>
            <Time>2022-08-26T08:53:21Z</Time>
            <Position>
              <LatitudeDegrees>36.700415</LatitudeDegrees>
              <LongitudeDegrees>-4.439443</LongitudeDegrees>
            </Position>
            <AltitudeMeters>9.00</AltitudeMeters>
            <DistanceMeters>5208.8243146702</DistanceMeters>
          </Trackpoint>
          <Trackpoint>
            <Time>2022-08-26T08:53:24Z</Time>
            <Position>
              <LatitudeDegrees>36.700381</LatitudeDegrees>
              <LongitudeDegrees>-4.439451</LongitudeDegrees>
            </Position>
            <AltitudeMeters>9.00</AltitudeMeters>
            <DistanceMeters>5212.6772934755</DistanceMeters>
          </Trackpoint>
          <Trackpoint>
            <Time>2022-08-26T08:53:26Z</Time>
            <Position>
              <LatitudeDegrees>36.700360</LatitudeDegrees>
              <LongitudeDegrees>-4.439458</LongitudeDegrees>
            </Position>
            <AltitudeMeters>9.00</AltitudeMeters>
            <DistanceMeters>5215.096278704</DistanceMeters>
          </Trackpoint>
          <Trackpoint>
            <Time>2022-08-26T08:53:31Z</Time>
            <Position>
              <LatitudeDegrees>36.700296</LatitudeDegrees>
              <LongitudeDegrees>-4.439474</LongitudeDegrees>
            </Position>
            <AltitudeMeters>9.00</AltitudeMeters>
            <DistanceMeters>5222.361318058</DistanceMeters>
          </Trackpoint>
          <Trackpoint>
            <Time>2022-08-26T08:53:34Z</Time>
            <Position>
              <LatitudeDegrees>36.700250</LatitudeDegrees>
              <LongitudeDegrees>-4.439491</LongitudeDegrees>
            </Position>
            <AltitudeMeters>9.00</AltitudeMeters>
            <DistanceMeters>5227.7014474019</DistanceMeters>
          </Trackpoint>
          <Trackpoint>
            <Time>2022-08-26T08:53:36Z</Time>
            <Position>
              <LatitudeDegrees>36.700229</LatitudeDegrees>
              <LongitudeDegrees>-4.439504</LongitudeDegrees>
            </Position>
            <AltitudeMeters>9.00</AltitudeMeters>
            <DistanceMeters>5230.3107916948</DistanceMeters>
          </Trackpoint>
          <Trackpoint>
            <Time>2022-08-26T08:53:39Z</Time>
            <Position>
              <LatitudeDegrees>36.700208</LatitudeDegrees>
              <LongitudeDegrees>-4.439516</LongitudeDegrees>
            </Position>
            <AltitudeMeters>9.00</AltitudeMeters>
            <DistanceMeters>5232.8817868245</DistanceMeters>
          </Trackpoint>
          <Trackpoint>
            <Time>2022-08-26T08:53:41Z</Time>
            <Position>
              <LatitudeDegrees>36.700173</LatitudeDegrees>
              <LongitudeDegrees>-4.439532</LongitudeDegrees>
            </Position>
            <AltitudeMeters>8.80</AltitudeMeters>
            <DistanceMeters>5237.0315284765</DistanceMeters>
          </Trackpoint>
          <Trackpoint>
            <Time>2022-08-26T08:53:45Z</Time>
            <Position>
              <LatitudeDegrees>36.700131</LatitudeDegrees>
              <LongitudeDegrees>-4.439562</LongitudeDegrees>
            </Position>
            <AltitudeMeters>8.80</AltitudeMeters>
            <DistanceMeters>5242.4187973292</DistanceMeters>
          </Trackpoint>
          <Trackpoint>
            <Time>2022-08-26T08:53:48Z</Time>
            <Position>
              <LatitudeDegrees>36.700095</LatitudeDegrees>
              <LongitudeDegrees>-4.439577</LongitudeDegrees>
            </Position>
            <AltitudeMeters>8.60</AltitudeMeters>
            <DistanceMeters>5246.6429458888</DistanceMeters>
          </Trackpoint>
          <Trackpoint>
            <Time>2022-08-26T08:53:50Z</Time>
            <Position>
              <LatitudeDegrees>36.700065</LatitudeDegrees>
              <LongitudeDegrees>-4.439582</LongitudeDegrees>
            </Position>
            <AltitudeMeters>8.60</AltitudeMeters>
            <DistanceMeters>5250.0107012263</DistanceMeters>
          </Trackpoint>
          <Trackpoint>
            <Time>2022-08-26T08:53:52Z</Time>
            <Position>
              <LatitudeDegrees>36.700040</LatitudeDegrees>
              <LongitudeDegrees>-4.439581</LongitudeDegrees>
            </Position>
            <AltitudeMeters>8.60</AltitudeMeters>
            <DistanceMeters>5252.794189252</DistanceMeters>
          </Trackpoint>
          <Trackpoint>
            <Time>2022-08-26T08:53:59Z</Time>
            <Position>
              <LatitudeDegrees>36.699952</LatitudeDegrees>
              <LongitudeDegrees>-4.439597</LongitudeDegrees>
            </Position>
            <AltitudeMeters>8.60</AltitudeMeters>
            <DistanceMeters>5262.6924885714</DistanceMeters>
          </Trackpoint>
          <Trackpoint>
            <Time>2022-08-26T08:54:04Z</Time>
            <Position>
              <LatitudeDegrees>36.699894</LatitudeDegrees>
              <LongitudeDegrees>-4.439625</LongitudeDegrees>
            </Position>
            <AltitudeMeters>8.60</AltitudeMeters>
            <DistanceMeters>5269.6151048173</DistanceMeters>
          </Trackpoint>
          <Trackpoint>
            <Time>2022-08-26T08:54:09Z</Time>
            <Position>
              <LatitudeDegrees>36.699826</LatitudeDegrees>
              <LongitudeDegrees>-4.439679</LongitudeDegrees>
            </Position>
            <AltitudeMeters>8.20</AltitudeMeters>
            <DistanceMeters>5278.5869553188</DistanceMeters>
          </Trackpoint>
          <Trackpoint>
            <Time>2022-08-26T08:54:11Z</Time>
            <Position>
              <LatitudeDegrees>36.699802</LatitudeDegrees>
              <LongitudeDegrees>-4.439703</LongitudeDegrees>
            </Position>
            <AltitudeMeters>8.00</AltitudeMeters>
            <DistanceMeters>5282.0131922308</DistanceMeters>
          </Trackpoint>
          <Trackpoint>
            <Time>2022-08-26T08:54:13Z</Time>
            <Position>
              <LatitudeDegrees>36.699766</LatitudeDegrees>
              <LongitudeDegrees>-4.439732</LongitudeDegrees>
            </Position>
            <AltitudeMeters>7.80</AltitudeMeters>
            <DistanceMeters>5286.7834954328</DistanceMeters>
          </Trackpoint>
          <Trackpoint>
            <Time>2022-08-26T08:54:17Z</Time>
            <Position>
              <LatitudeDegrees>36.699706</LatitudeDegrees>
              <LongitudeDegrees>-4.439793</LongitudeDegrees>
            </Position>
            <AltitudeMeters>7.60</AltitudeMeters>
            <DistanceMeters>5295.3990179572</DistanceMeters>
          </Trackpoint>
          <Trackpoint>
            <Time>2022-08-26T08:54:26Z</Time>
            <Position>
              <LatitudeDegrees>36.699593</LatitudeDegrees>
              <LongitudeDegrees>-4.439881</LongitudeDegrees>
            </Position>
            <AltitudeMeters>7.00</AltitudeMeters>
            <DistanceMeters>5310.2268398221</DistanceMeters>
          </Trackpoint>
          <Trackpoint>
            <Time>2022-08-26T08:54:33Z</Time>
            <Position>
              <LatitudeDegrees>36.699514</LatitudeDegrees>
              <LongitudeDegrees>-4.439934</LongitudeDegrees>
            </Position>
            <AltitudeMeters>6.60</AltitudeMeters>
            <DistanceMeters>5320.2114301463</DistanceMeters>
          </Trackpoint>
          <Trackpoint>
            <Time>2022-08-26T08:54:34Z</Time>
            <Position>
              <LatitudeDegrees>36.699502</LatitudeDegrees>
              <LongitudeDegrees>-4.439943</LongitudeDegrees>
            </Position>
            <AltitudeMeters>6.40</AltitudeMeters>
            <DistanceMeters>5321.7699841439</DistanceMeters>
          </Trackpoint>
          <Trackpoint>
            <Time>2022-08-26T08:54:42Z</Time>
            <Position>
              <LatitudeDegrees>36.699417</LatitudeDegrees>
              <LongitudeDegrees>-4.440014</LongitudeDegrees>
            </Position>
            <AltitudeMeters>6.00</AltitudeMeters>
            <DistanceMeters>5333.1565480498</DistanceMeters>
          </Trackpoint>
          <Trackpoint>
            <Time>2022-08-26T08:54:54Z</Time>
            <Position>
              <LatitudeDegrees>36.699255</LatitudeDegrees>
              <LongitudeDegrees>-4.440117</LongitudeDegrees>
            </Position>
            <AltitudeMeters>5.20</AltitudeMeters>
            <DistanceMeters>5353.3952305044</DistanceMeters>
          </Trackpoint>
          <Trackpoint>
            <Time>2022-08-26T08:55:02Z</Time>
            <Position>
              <LatitudeDegrees>36.699182</LatitudeDegrees>
              <LongitudeDegrees>-4.440181</LongitudeDegrees>
            </Position>
            <AltitudeMeters>4.80</AltitudeMeters>
            <DistanceMeters>5363.3263178024</DistanceMeters>
          </Trackpoint>
          <Trackpoint>
            <Time>2022-08-26T08:55:09Z</Time>
            <Position>
              <LatitudeDegrees>36.699120</LatitudeDegrees>
              <LongitudeDegrees>-4.440210</LongitudeDegrees>
            </Position>
            <AltitudeMeters>4.60</AltitudeMeters>
            <DistanceMeters>5370.6956379701</DistanceMeters>
          </Trackpoint>
          <Trackpoint>
            <Time>2022-08-26T08:55:12Z</Time>
            <Position>
              <LatitudeDegrees>36.699102</LatitudeDegrees>
              <LongitudeDegrees>-4.440223</LongitudeDegrees>
            </Position>
            <AltitudeMeters>4.40</AltitudeMeters>
            <DistanceMeters>5373.0116400011</DistanceMeters>
          </Trackpoint>
          <Trackpoint>
            <Time>2022-08-26T08:55:15Z</Time>
            <Position>
              <LatitudeDegrees>36.699069</LatitudeDegrees>
              <LongitudeDegrees>-4.440233</LongitudeDegrees>
            </Position>
            <AltitudeMeters>4.20</AltitudeMeters>
            <DistanceMeters>5376.7912670904</DistanceMeters>
          </Trackpoint>
          <Trackpoint>
            <Time>2022-08-26T08:55:16Z</Time>
            <Position>
              <LatitudeDegrees>36.699063</LatitudeDegrees>
              <LongitudeDegrees>-4.440236</LongitudeDegrees>
            </Position>
            <AltitudeMeters>4.20</AltitudeMeters>
            <DistanceMeters>5377.5023819059</DistanceMeters>
          </Trackpoint>
          <Trackpoint>
            <Time>2022-08-26T08:55:23Z</Time>
            <Position>
              <LatitudeDegrees>36.698988</LatitudeDegrees>
              <LongitudeDegrees>-4.440279</LongitudeDegrees>
            </Position>
            <AltitudeMeters>4.20</AltitudeMeters>
            <DistanceMeters>5386.6895536427</DistanceMeters>
          </Trackpoint>
          <Trackpoint>
            <Time>2022-08-26T08:55:28Z</Time>
            <Position>
              <LatitudeDegrees>36.698936</LatitudeDegrees>
              <LongitudeDegrees>-4.440324</LongitudeDegrees>
            </Position>
            <AltitudeMeters>4.20</AltitudeMeters>
            <DistanceMeters>5393.7337193179</DistanceMeters>
          </Trackpoint>
          <Trackpoint>
            <Time>2022-08-26T08:55:31Z</Time>
            <Position>
              <LatitudeDegrees>36.698904</LatitudeDegrees>
              <LongitudeDegrees>-4.440356</LongitudeDegrees>
            </Position>
            <AltitudeMeters>4.20</AltitudeMeters>
            <DistanceMeters>5398.2999482335</DistanceMeters>
          </Trackpoint>
          <Trackpoint>
            <Time>2022-08-26T08:55:35Z</Time>
            <Position>
              <LatitudeDegrees>36.698858</LatitudeDegrees>
              <LongitudeDegrees>-4.440389</LongitudeDegrees>
            </Position>
            <AltitudeMeters>4.20</AltitudeMeters>
            <DistanceMeters>5404.2061471213</DistanceMeters>
          </Trackpoint>
          <Trackpoint>
            <Time>2022-08-26T08:55:36Z</Time>
            <Position>
              <LatitudeDegrees>36.698849</LatitudeDegrees>
              <LongitudeDegrees>-4.440399</LongitudeDegrees>
            </Position>
            <AltitudeMeters>4.20</AltitudeMeters>
            <DistanceMeters>5405.5432915174</DistanceMeters>
          </Trackpoint>
          <Trackpoint>
            <Time>2022-08-26T08:55:38Z</Time>
            <Position>
              <LatitudeDegrees>36.698829</LatitudeDegrees>
              <LongitudeDegrees>-4.440416</LongitudeDegrees>
            </Position>
            <AltitudeMeters>4.20</AltitudeMeters>
            <DistanceMeters>5408.2377639075</DistanceMeters>
          </Trackpoint>
          <Trackpoint>
            <Time>2022-08-26T08:55:41Z</Time>
            <Position>
              <LatitudeDegrees>36.698794</LatitudeDegrees>
              <LongitudeDegrees>-4.440441</LongitudeDegrees>
            </Position>
            <AltitudeMeters>4.20</AltitudeMeters>
            <DistanceMeters>5412.7272104906</DistanceMeters>
          </Trackpoint>
          <Trackpoint>
            <Time>2022-08-26T08:55:45Z</Time>
            <Position>
              <LatitudeDegrees>36.698754</LatitudeDegrees>
              <LongitudeDegrees>-4.440462</LongitudeDegrees>
            </Position>
            <AltitudeMeters>4.40</AltitudeMeters>
            <DistanceMeters>5417.5577091741</DistanceMeters>
          </Trackpoint>
          <Trackpoint>
            <Time>2022-08-26T08:55:55Z</Time>
            <Position>
              <LatitudeDegrees>36.698653</LatitudeDegrees>
              <LongitudeDegrees>-4.440537</LongitudeDegrees>
            </Position>
            <AltitudeMeters>4.40</AltitudeMeters>
            <DistanceMeters>5430.6410623021</DistanceMeters>
          </Trackpoint>
          <Trackpoint>
            <Time>2022-08-26T08:55:56Z</Time>
            <Position>
              <LatitudeDegrees>36.698639</LatitudeDegrees>
              <LongitudeDegrees>-4.440553</LongitudeDegrees>
            </Position>
            <AltitudeMeters>4.40</AltitudeMeters>
            <DistanceMeters>5432.7552732281</DistanceMeters>
          </Trackpoint>
          <Trackpoint>
            <Time>2022-08-26T08:56:02Z</Time>
            <Position>
              <LatitudeDegrees>36.698532</LatitudeDegrees>
              <LongitudeDegrees>-4.440654</LongitudeDegrees>
            </Position>
            <AltitudeMeters>4.60</AltitudeMeters>
            <DistanceMeters>5447.6904983124</DistanceMeters>
          </Trackpoint>
          <Trackpoint>
            <Time>2022-08-26T08:56:06Z</Time>
            <Position>
              <LatitudeDegrees>36.698484</LatitudeDegrees>
              <LongitudeDegrees>-4.440685</LongitudeDegrees>
            </Position>
            <AltitudeMeters>4.60</AltitudeMeters>
            <DistanceMeters>5453.7057718981</DistanceMeters>
          </Trackpoint>
          <Trackpoint>
            <Time>2022-08-26T08:56:14Z</Time>
            <Position>
              <LatitudeDegrees>36.698405</LatitudeDegrees>
              <LongitudeDegrees>-4.440735</LongitudeDegrees>
            </Position>
            <AltitudeMeters>4.80</AltitudeMeters>
            <DistanceMeters>5463.5656807717</DistanceMeters>
          </Trackpoint>
          <Trackpoint>
            <Time>2022-08-26T08:56:24Z</Time>
            <Position>
              <LatitudeDegrees>36.698305</LatitudeDegrees>
              <LongitudeDegrees>-4.440733</LongitudeDegrees>
            </Position>
            <AltitudeMeters>4.80</AltitudeMeters>
            <DistanceMeters>5474.6971994895</DistanceMeters>
          </Trackpoint>
          <Trackpoint>
            <Time>2022-08-26T08:56:27Z</Time>
            <Position>
              <LatitudeDegrees>36.698248</LatitudeDegrees>
              <LongitudeDegrees>-4.440736</LongitudeDegrees>
            </Position>
            <AltitudeMeters>5.00</AltitudeMeters>
            <DistanceMeters>5481.0469468327</DistanceMeters>
          </Trackpoint>
          <Trackpoint>
            <Time>2022-08-26T08:56:28Z</Time>
            <Position>
              <LatitudeDegrees>36.698240</LatitudeDegrees>
              <LongitudeDegrees>-4.440744</LongitudeDegrees>
            </Position>
            <AltitudeMeters>5.00</AltitudeMeters>
            <DistanceMeters>5482.1912200013</DistanceMeters>
          </Trackpoint>
          <Trackpoint>
            <Time>2022-08-26T08:56:29Z</Time>
            <Position>
              <LatitudeDegrees>36.698234</LatitudeDegrees>
              <LongitudeDegrees>-4.440754</LongitudeDegrees>
            </Position>
            <AltitudeMeters>5.00</AltitudeMeters>
            <DistanceMeters>5483.3075311359</DistanceMeters>
          </Trackpoint>
          <Trackpoint>
            <Time>2022-08-26T08:56:33Z</Time>
            <Position>
              <LatitudeDegrees>36.698201</LatitudeDegrees>
              <LongitudeDegrees>-4.440797</LongitudeDegrees>
            </Position>
            <AltitudeMeters>5.00</AltitudeMeters>
            <DistanceMeters>5488.6196859611</DistanceMeters>
          </Trackpoint>
          <Trackpoint>
            <Time>2022-08-26T08:56:35Z</Time>
            <Position>
              <LatitudeDegrees>36.698178</LatitudeDegrees>
              <LongitudeDegrees>-4.440819</LongitudeDegrees>
            </Position>
            <AltitudeMeters>5.00</AltitudeMeters>
            <DistanceMeters>5491.8449995991</DistanceMeters>
          </Trackpoint>
          <Trackpoint>
            <Time>2022-08-26T08:56:36Z</Time>
            <Position>
              <LatitudeDegrees>36.698169</LatitudeDegrees>
              <LongitudeDegrees>-4.440842</LongitudeDegrees>
            </Position>
            <AltitudeMeters>5.20</AltitudeMeters>
            <DistanceMeters>5494.1295967594</DistanceMeters>
          </Trackpoint>
          <Trackpoint>
            <Time>2022-08-26T08:56:38Z</Time>
            <Position>
              <LatitudeDegrees>36.698151</LatitudeDegrees>
              <LongitudeDegrees>-4.440862</LongitudeDegrees>
            </Position>
            <AltitudeMeters>5.20</AltitudeMeters>
            <DistanceMeters>5496.8139963202</DistanceMeters>
          </Trackpoint>
          <Trackpoint>
            <Time>2022-08-26T08:56:40Z</Time>
            <Position>
              <LatitudeDegrees>36.698124</LatitudeDegrees>
              <LongitudeDegrees>-4.440884</LongitudeDegrees>
            </Position>
            <AltitudeMeters>5.20</AltitudeMeters>
            <DistanceMeters>5500.4049501158</DistanceMeters>
          </Trackpoint>
          <Trackpoint>
            <Time>2022-08-26T08:56:41Z</Time>
            <Position>
              <LatitudeDegrees>36.698119</LatitudeDegrees>
              <LongitudeDegrees>-4.440905</LongitudeDegrees>
            </Position>
            <AltitudeMeters>5.20</AltitudeMeters>
            <DistanceMeters>5502.3616699251</DistanceMeters>
          </Trackpoint>
          <Trackpoint>
            <Time>2022-08-26T08:56:44Z</Time>
            <Position>
              <LatitudeDegrees>36.698088</LatitudeDegrees>
              <LongitudeDegrees>-4.440958</LongitudeDegrees>
            </Position>
            <AltitudeMeters>5.40</AltitudeMeters>
            <DistanceMeters>5508.2164261268</DistanceMeters>
          </Trackpoint>
          <Trackpoint>
            <Time>2022-08-26T08:56:47Z</Time>
            <Position>
              <LatitudeDegrees>36.698039</LatitudeDegrees>
              <LongitudeDegrees>-4.440977</LongitudeDegrees>
            </Position>
            <AltitudeMeters>5.60</AltitudeMeters>
            <DistanceMeters>5513.9275237548</DistanceMeters>
          </Trackpoint>
          <Trackpoint>
            <Time>2022-08-26T08:56:48Z</Time>
            <Position>
              <LatitudeDegrees>36.698019</LatitudeDegrees>
              <LongitudeDegrees>-4.440982</LongitudeDegrees>
            </Position>
            <AltitudeMeters>5.60</AltitudeMeters>
            <DistanceMeters>5516.196255465</DistanceMeters>
          </Trackpoint>
          <Trackpoint>
            <Time>2022-08-26T08:56:53Z</Time>
            <Position>
              <LatitudeDegrees>36.697966</LatitudeDegrees>
              <LongitudeDegrees>-4.441006</LongitudeDegrees>
            </Position>
            <AltitudeMeters>5.80</AltitudeMeters>
            <DistanceMeters>5522.4723365231</DistanceMeters>
          </Trackpoint>
          <Trackpoint>
            <Time>2022-08-26T08:57:02Z</Time>
            <Position>
              <LatitudeDegrees>36.697872</LatitudeDegrees>
              <LongitudeDegrees>-4.441071</LongitudeDegrees>
            </Position>
            <AltitudeMeters>6.20</AltitudeMeters>
            <DistanceMeters>5534.4351393504</DistanceMeters>
          </Trackpoint>
          <Trackpoint>
            <Time>2022-08-26T08:57:04Z</Time>
            <Position>
              <LatitudeDegrees>36.697851</LatitudeDegrees>
              <LongitudeDegrees>-4.441077</LongitudeDegrees>
            </Position>
            <AltitudeMeters>6.20</AltitudeMeters>
            <DistanceMeters>5536.8335051888</DistanceMeters>
          </Trackpoint>
          <Trackpoint>
            <Time>2022-08-26T08:57:12Z</Time>
            <Position>
              <LatitudeDegrees>36.697773</LatitudeDegrees>
              <LongitudeDegrees>-4.441119</LongitudeDegrees>
            </Position>
            <AltitudeMeters>6.60</AltitudeMeters>
            <DistanceMeters>5546.2894988938</DistanceMeters>
          </Trackpoint>
          <Trackpoint>
            <Time>2022-08-26T08:57:15Z</Time>
            <Position>
              <LatitudeDegrees>36.697757</LatitudeDegrees>
              <LongitudeDegrees>-4.441138</LongitudeDegrees>
            </Position>
            <AltitudeMeters>6.60</AltitudeMeters>
            <DistanceMeters>5548.7492044081</DistanceMeters>
          </Trackpoint>
          <Trackpoint>
            <Time>2022-08-26T08:57:18Z</Time>
            <Position>
              <LatitudeDegrees>36.697748</LatitudeDegrees>
              <LongitudeDegrees>-4.441155</LongitudeDegrees>
            </Position>
            <AltitudeMeters>6.60</AltitudeMeters>
            <DistanceMeters>5550.5671724987</DistanceMeters>
          </Trackpoint>
          <Trackpoint>
            <Time>2022-08-26T08:57:25Z</Time>
            <Position>
              <LatitudeDegrees>36.697686</LatitudeDegrees>
              <LongitudeDegrees>-4.441201</LongitudeDegrees>
            </Position>
            <AltitudeMeters>6.80</AltitudeMeters>
            <DistanceMeters>5558.5967892897</DistanceMeters>
          </Trackpoint>
          <Trackpoint>
            <Time>2022-08-26T08:57:26Z</Time>
            <Position>
              <LatitudeDegrees>36.697675</LatitudeDegrees>
              <LongitudeDegrees>-4.441203</LongitudeDegrees>
            </Position>
            <AltitudeMeters>6.80</AltitudeMeters>
            <DistanceMeters>5559.8321365765</DistanceMeters>
          </Trackpoint>
          <Trackpoint>
            <Time>2022-08-26T08:57:28Z</Time>
            <Position>
              <LatitudeDegrees>36.697652</LatitudeDegrees>
              <LongitudeDegrees>-4.441206</LongitudeDegrees>
            </Position>
            <AltitudeMeters>6.80</AltitudeMeters>
            <DistanceMeters>5562.4048872511</DistanceMeters>
          </Trackpoint>
          <Trackpoint>
            <Time>2022-08-26T08:57:30Z</Time>
            <Position>
              <LatitudeDegrees>36.697615</LatitudeDegrees>
              <LongitudeDegrees>-4.441233</LongitudeDegrees>
            </Position>
            <AltitudeMeters>7.00</AltitudeMeters>
            <DistanceMeters>5567.1770830551</DistanceMeters>
          </Trackpoint>
          <Trackpoint>
            <Time>2022-08-26T08:57:32Z</Time>
            <Position>
              <LatitudeDegrees>36.697587</LatitudeDegrees>
              <LongitudeDegrees>-4.441256</LongitudeDegrees>
            </Position>
            <AltitudeMeters>7.00</AltitudeMeters>
            <DistanceMeters>5570.9110404771</DistanceMeters>
          </Trackpoint>
          <Trackpoint>
            <Time>2022-08-26T08:57:35Z</Time>
            <Position>
              <LatitudeDegrees>36.697549</LatitudeDegrees>
              <LongitudeDegrees>-4.441301</LongitudeDegrees>
            </Position>
            <AltitudeMeters>7.00</AltitudeMeters>
            <DistanceMeters>5576.7433897434</DistanceMeters>
          </Trackpoint>
          <Trackpoint>
            <Time>2022-08-26T08:57:36Z</Time>
            <Position>
              <LatitudeDegrees>36.697536</LatitudeDegrees>
              <LongitudeDegrees>-4.441316</LongitudeDegrees>
            </Position>
            <AltitudeMeters>7.00</AltitudeMeters>
            <DistanceMeters>5578.7161955999</DistanceMeters>
          </Trackpoint>
          <Trackpoint>
            <Time>2022-08-26T08:57:41Z</Time>
            <Position>
              <LatitudeDegrees>36.697469</LatitudeDegrees>
              <LongitudeDegrees>-4.441380</LongitudeDegrees>
            </Position>
            <AltitudeMeters>7.00</AltitudeMeters>
            <DistanceMeters>5588.1089506194</DistanceMeters>
          </Trackpoint>
          <Trackpoint>
            <Time>2022-08-26T08:57:46Z</Time>
            <Position>
              <LatitudeDegrees>36.697381</LatitudeDegrees>
              <LongitudeDegrees>-4.441430</LongitudeDegrees>
            </Position>
            <AltitudeMeters>7.20</AltitudeMeters>
            <DistanceMeters>5598.8721681077</DistanceMeters>
          </Trackpoint>
          <Trackpoint>
            <Time>2022-08-26T08:57:47Z</Time>
            <Position>
              <LatitudeDegrees>36.697380</LatitudeDegrees>
              <LongitudeDegrees>-4.441440</LongitudeDegrees>
            </Position>
            <AltitudeMeters>7.20</AltitudeMeters>
            <DistanceMeters>5599.7736706756</DistanceMeters>
          </Trackpoint>
          <Trackpoint>
            <Time>2022-08-26T08:57:49Z</Time>
            <Position>
              <LatitudeDegrees>36.697383</LatitudeDegrees>
              <LongitudeDegrees>-4.441464</LongitudeDegrees>
            </Position>
            <AltitudeMeters>7.20</AltitudeMeters>
            <DistanceMeters>5601.9406131647</DistanceMeters>
          </Trackpoint>
          <Trackpoint>
            <Time>2022-08-26T08:57:52Z</Time>
            <Position>
              <LatitudeDegrees>36.697353</LatitudeDegrees>
              <LongitudeDegrees>-4.441485</LongitudeDegrees>
            </Position>
            <AltitudeMeters>7.20</AltitudeMeters>
            <DistanceMeters>5605.7689044374</DistanceMeters>
          </Trackpoint>
          <Trackpoint>
            <Time>2022-08-26T08:57:53Z</Time>
            <Position>
              <LatitudeDegrees>36.697335</LatitudeDegrees>
              <LongitudeDegrees>-4.441493</LongitudeDegrees>
            </Position>
            <AltitudeMeters>7.20</AltitudeMeters>
            <DistanceMeters>5607.8980118501</DistanceMeters>
          </Trackpoint>
          <Trackpoint>
            <Time>2022-08-26T08:57:55Z</Time>
            <Position>
              <LatitudeDegrees>36.697304</LatitudeDegrees>
              <LongitudeDegrees>-4.441513</LongitudeDegrees>
            </Position>
            <AltitudeMeters>7.20</AltitudeMeters>
            <DistanceMeters>5611.7825012294</DistanceMeters>
          </Trackpoint>
          <Trackpoint>
            <Time>2022-08-26T08:57:58Z</Time>
            <Position>
              <LatitudeDegrees>36.697269</LatitudeDegrees>
              <LongitudeDegrees>-4.441542</LongitudeDegrees>
            </Position>
            <AltitudeMeters>7.40</AltitudeMeters>
            <DistanceMeters>5616.4591287693</DistanceMeters>
          </Trackpoint>
          <Trackpoint>
            <Time>2022-08-26T08:58:06Z</Time>
            <Position>
              <LatitudeDegrees>36.697182</LatitudeDegrees>
              <LongitudeDegrees>-4.441606</LongitudeDegrees>
            </Position>
            <AltitudeMeters>7.40</AltitudeMeters>
            <DistanceMeters>5627.7012348847</DistanceMeters>
          </Trackpoint>
          <Trackpoint>
            <Time>2022-08-26T08:58:07Z</Time>
            <Position>
              <LatitudeDegrees>36.697168</LatitudeDegrees>
              <LongitudeDegrees>-4.441618</LongitudeDegrees>
            </Position>
            <AltitudeMeters>7.40</AltitudeMeters>
            <DistanceMeters>5629.5922426244</DistanceMeters>
          </Trackpoint>
          <Trackpoint>
            <Time>2022-08-26T08:58:12Z</Time>
            <Position>
              <LatitudeDegrees>36.697102</LatitudeDegrees>
              <LongitudeDegrees>-4.441653</LongitudeDegrees>
            </Position>
            <AltitudeMeters>7.40</AltitudeMeters>
            <DistanceMeters>5637.5744866315</DistanceMeters>
          </Trackpoint>
          <Trackpoint>
            <Time>2022-08-26T08:58:16Z</Time>
            <Position>
              <LatitudeDegrees>36.697067</LatitudeDegrees>
              <LongitudeDegrees>-4.441685</LongitudeDegrees>
            </Position>
            <AltitudeMeters>7.40</AltitudeMeters>
            <DistanceMeters>5642.4040505305</DistanceMeters>
          </Trackpoint>
          <Trackpoint>
            <Time>2022-08-26T08:58:18Z</Time>
            <Position>
              <LatitudeDegrees>36.697049</LatitudeDegrees>
              <LongitudeDegrees>-4.441692</LongitudeDegrees>
            </Position>
            <AltitudeMeters>7.40</AltitudeMeters>
            <DistanceMeters>5644.5032592635</DistanceMeters>
          </Trackpoint>
          <Trackpoint>
            <Time>2022-08-26T08:58:19Z</Time>
            <Position>
              <LatitudeDegrees>36.697042</LatitudeDegrees>
              <LongitudeDegrees>-4.441703</LongitudeDegrees>
            </Position>
            <AltitudeMeters>7.40</AltitudeMeters>
            <DistanceMeters>5645.7567477163</DistanceMeters>
          </Trackpoint>
          <Trackpoint>
            <Time>2022-08-26T08:58:23Z</Time>
            <Position>
              <LatitudeDegrees>36.697027</LatitudeDegrees>
              <LongitudeDegrees>-4.441797</LongitudeDegrees>
            </Position>
            <AltitudeMeters>7.20</AltitudeMeters>
            <DistanceMeters>5654.3102077968</DistanceMeters>
          </Trackpoint>
          <Trackpoint>
            <Time>2022-08-26T08:58:25Z</Time>
            <Position>
              <LatitudeDegrees>36.697012</LatitudeDegrees>
              <LongitudeDegrees>-4.441820</LongitudeDegrees>
            </Position>
            <AltitudeMeters>7.20</AltitudeMeters>
            <DistanceMeters>5656.9573457457</DistanceMeters>
          </Trackpoint>
          <Trackpoint>
            <Time>2022-08-26T08:58:27Z</Time>
            <Position>
              <LatitudeDegrees>36.697002</LatitudeDegrees>
              <LongitudeDegrees>-4.441836</LongitudeDegrees>
            </Position>
            <AltitudeMeters>7.20</AltitudeMeters>
            <DistanceMeters>5658.7703399061</DistanceMeters>
          </Trackpoint>
          <Trackpoint>
            <Time>2022-08-26T08:58:32Z</Time>
            <Position>
              <LatitudeDegrees>36.696973</LatitudeDegrees>
              <LongitudeDegrees>-4.441858</LongitudeDegrees>
            </Position>
            <AltitudeMeters>7.20</AltitudeMeters>
            <DistanceMeters>5662.5499669954</DistanceMeters>
          </Trackpoint>
          <Trackpoint>
            <Time>2022-08-26T08:58:34Z</Time>
            <Position>
              <LatitudeDegrees>36.696965</LatitudeDegrees>
              <LongitudeDegrees>-4.441863</LongitudeDegrees>
            </Position>
            <AltitudeMeters>7.20</AltitudeMeters>
            <DistanceMeters>5663.5466155839</DistanceMeters>
          </Trackpoint>
          <Trackpoint>
            <Time>2022-08-26T08:58:37Z</Time>
            <Position>
              <LatitudeDegrees>36.696952</LatitudeDegrees>
              <LongitudeDegrees>-4.441874</LongitudeDegrees>
            </Position>
            <AltitudeMeters>7.20</AltitudeMeters>
            <DistanceMeters>5665.2936604711</DistanceMeters>
          </Trackpoint>
          <Trackpoint>
            <Time>2022-08-26T08:58:42Z</Time>
            <Position>
              <LatitudeDegrees>36.696932</LatitudeDegrees>
              <LongitudeDegrees>-4.441888</LongitudeDegrees>
            </Position>
            <AltitudeMeters>7.20</AltitudeMeters>
            <DistanceMeters>5667.8470337679</DistanceMeters>
          </Trackpoint>
          <Trackpoint>
            <Time>2022-08-26T08:58:44Z</Time>
            <Position>
              <LatitudeDegrees>36.696928</LatitudeDegrees>
              <LongitudeDegrees>-4.441897</LongitudeDegrees>
            </Position>
            <AltitudeMeters>7.20</AltitudeMeters>
            <DistanceMeters>5668.7584979925</DistanceMeters>
          </Trackpoint>
          <Trackpoint>
            <Time>2022-08-26T08:58:48Z</Time>
            <Position>
              <LatitudeDegrees>36.696922</LatitudeDegrees>
              <LongitudeDegrees>-4.441923</LongitudeDegrees>
            </Position>
            <AltitudeMeters>7.20</AltitudeMeters>
            <DistanceMeters>5671.1737473343</DistanceMeters>
          </Trackpoint>
          <Trackpoint>
            <Time>2022-08-26T08:58:51Z</Time>
            <Position>
              <LatitudeDegrees>36.696939</LatitudeDegrees>
              <LongitudeDegrees>-4.441951</LongitudeDegrees>
            </Position>
            <AltitudeMeters>7.20</AltitudeMeters>
            <DistanceMeters>5674.3110683768</DistanceMeters>
          </Trackpoint>
          <Trackpoint>
            <Time>2022-08-26T08:58:53Z</Time>
            <Position>
              <LatitudeDegrees>36.696955</LatitudeDegrees>
              <LongitudeDegrees>-4.441975</LongitudeDegrees>
            </Position>
            <AltitudeMeters>7.00</AltitudeMeters>
            <DistanceMeters>5677.0977986726</DistanceMeters>
          </Trackpoint>
          <Trackpoint>
            <Time>2022-08-26T08:58:54Z</Time>
            <Position>
              <LatitudeDegrees>36.696963</LatitudeDegrees>
              <LongitudeDegrees>-4.441986</LongitudeDegrees>
            </Position>
            <AltitudeMeters>7.00</AltitudeMeters>
            <DistanceMeters>5678.4281726738</DistanceMeters>
          </Trackpoint>
          <Trackpoint>
            <Time>2022-08-26T08:59:02Z</Time>
            <Position>
              <LatitudeDegrees>36.697046</LatitudeDegrees>
              <LongitudeDegrees>-4.442033</LongitudeDegrees>
            </Position>
            <AltitudeMeters>6.80</AltitudeMeters>
            <DistanceMeters>5688.5733592817</DistanceMeters>
          </Trackpoint>
          <Trackpoint>
            <Time>2022-08-26T08:59:03Z</Time>
            <Position>
              <LatitudeDegrees>36.697055</LatitudeDegrees>
              <LongitudeDegrees>-4.442026</LongitudeDegrees>
            </Position>
            <AltitudeMeters>6.80</AltitudeMeters>
            <DistanceMeters>5689.7526097947</DistanceMeters>
          </Trackpoint>
          <Trackpoint>
            <Time>2022-08-26T08:59:06Z</Time>
            <Position>
              <LatitudeDegrees>36.697081</LatitudeDegrees>
              <LongitudeDegrees>-4.442028</LongitudeDegrees>
            </Position>
            <AltitudeMeters>6.60</AltitudeMeters>
            <DistanceMeters>5692.650535103</DistanceMeters>
          </Trackpoint>
          <Trackpoint>
            <Time>2022-08-26T08:59:09Z</Time>
            <Position>
              <LatitudeDegrees>36.697110</LatitudeDegrees>
              <LongitudeDegrees>-4.442033</LongitudeDegrees>
            </Position>
            <AltitudeMeters>6.60</AltitudeMeters>
            <DistanceMeters>5695.909272573</DistanceMeters>
          </Trackpoint>
          <Trackpoint>
            <Time>2022-08-26T08:59:11Z</Time>
            <Position>
              <LatitudeDegrees>36.697117</LatitudeDegrees>
              <LongitudeDegrees>-4.442061</LongitudeDegrees>
            </Position>
            <AltitudeMeters>6.60</AltitudeMeters>
            <DistanceMeters>5698.5289783002</DistanceMeters>
          </Trackpoint>
          <Trackpoint>
            <Time>2022-08-26T08:59:19Z</Time>
            <Position>
              <LatitudeDegrees>36.697184</LatitudeDegrees>
              <LongitudeDegrees>-4.442162</LongitudeDegrees>
            </Position>
            <AltitudeMeters>6.40</AltitudeMeters>
            <DistanceMeters>5710.2269173679</DistanceMeters>
          </Trackpoint>
          <Trackpoint>
            <Time>2022-08-26T08:59:22Z</Time>
            <Position>
              <LatitudeDegrees>36.697212</LatitudeDegrees>
              <LongitudeDegrees>-4.442195</LongitudeDegrees>
            </Position>
            <AltitudeMeters>6.40</AltitudeMeters>
            <DistanceMeters>5714.5126116509</DistanceMeters>
          </Trackpoint>
          <Trackpoint>
            <Time>2022-08-26T08:59:25Z</Time>
            <Position>
              <LatitudeDegrees>36.697231</LatitudeDegrees>
              <LongitudeDegrees>-4.442226</LongitudeDegrees>
            </Position>
            <AltitudeMeters>6.60</AltitudeMeters>
            <DistanceMeters>5717.9937555129</DistanceMeters>
          </Trackpoint>
          <Trackpoint>
            <Time>2022-08-26T08:59:32Z</Time>
            <Position>
              <LatitudeDegrees>36.697282</LatitudeDegrees>
              <LongitudeDegrees>-4.442321</LongitudeDegrees>
            </Position>
            <AltitudeMeters>6.80</AltitudeMeters>
            <DistanceMeters>5728.1966335993</DistanceMeters>
          </Trackpoint>
          <Trackpoint>
            <Time>2022-08-26T08:59:35Z</Time>
            <Position>
              <LatitudeDegrees>36.697297</LatitudeDegrees>
              <LongitudeDegrees>-4.442362</LongitudeDegrees>
            </Position>
            <AltitudeMeters>6.80</AltitudeMeters>
            <DistanceMeters>5732.2193064654</DistanceMeters>
          </Trackpoint>
          <Trackpoint>
            <Time>2022-08-26T08:59:38Z</Time>
            <Position>
              <LatitudeDegrees>36.697317</LatitudeDegrees>
              <LongitudeDegrees>-4.442402</LongitudeDegrees>
            </Position>
            <AltitudeMeters>7.00</AltitudeMeters>
            <DistanceMeters>5736.426318449</DistanceMeters>
          </Trackpoint>
          <Trackpoint>
            <Time>2022-08-26T08:59:40Z</Time>
            <Position>
              <LatitudeDegrees>36.697319</LatitudeDegrees>
              <LongitudeDegrees>-4.442435</LongitudeDegrees>
            </Position>
            <AltitudeMeters>7.00</AltitudeMeters>
            <DistanceMeters>5739.3782709839</DistanceMeters>
          </Trackpoint>
          <Trackpoint>
            <Time>2022-08-26T08:59:42Z</Time>
            <Position>
              <LatitudeDegrees>36.697317</LatitudeDegrees>
              <LongitudeDegrees>-4.442476</LongitudeDegrees>
            </Position>
            <AltitudeMeters>7.20</AltitudeMeters>
            <DistanceMeters>5743.0438887693</DistanceMeters>
          </Trackpoint>
          <Trackpoint>
            <Time>2022-08-26T08:59:43Z</Time>
            <Position>
              <LatitudeDegrees>36.697327</LatitudeDegrees>
              <LongitudeDegrees>-4.442493</LongitudeDegrees>
            </Position>
            <AltitudeMeters>7.20</AltitudeMeters>
            <DistanceMeters>5744.9253217248</DistanceMeters>
          </Trackpoint>
          <Trackpoint>
            <Time>2022-08-26T08:59:45Z</Time>
            <Position>
              <LatitudeDegrees>36.697343</LatitudeDegrees>
              <LongitudeDegrees>-4.442527</LongitudeDegrees>
            </Position>
            <AltitudeMeters>7.20</AltitudeMeters>
            <DistanceMeters>5748.4451604826</DistanceMeters>
          </Trackpoint>
          <Trackpoint>
            <Time>2022-08-26T08:59:48Z</Time>
            <Position>
              <LatitudeDegrees>36.697357</LatitudeDegrees>
              <LongitudeDegrees>-4.442575</LongitudeDegrees>
            </Position>
            <AltitudeMeters>7.40</AltitudeMeters>
            <DistanceMeters>5753.0024816059</DistanceMeters>
          </Trackpoint>
          <Trackpoint>
            <Time>2022-08-26T08:59:50Z</Time>
            <Position>
              <LatitudeDegrees>36.697371</LatitudeDegrees>
              <LongitudeDegrees>-4.442604</LongitudeDegrees>
            </Position>
            <AltitudeMeters>7.40</AltitudeMeters>
            <DistanceMeters>5756.0224778325</DistanceMeters>
          </Trackpoint>
          <Trackpoint>
            <Time>2022-08-26T08:59:51Z</Time>
            <Position>
              <LatitudeDegrees>36.697369</LatitudeDegrees>
              <LongitudeDegrees>-4.442622</LongitudeDegrees>
            </Position>
            <AltitudeMeters>7.60</AltitudeMeters>
            <DistanceMeters>5757.6407244666</DistanceMeters>
          </Trackpoint>
          <Trackpoint>
            <Time>2022-08-26T08:59:53Z</Time>
            <Position>
              <LatitudeDegrees>36.697379</LatitudeDegrees>
              <LongitudeDegrees>-4.442658</LongitudeDegrees>
            </Position>
            <AltitudeMeters>7.60</AltitudeMeters>
            <DistanceMeters>5761.0405035547</DistanceMeters>
          </Trackpoint>
          <Trackpoint>
            <Time>2022-08-26T08:59:55Z</Time>
            <Position>
              <LatitudeDegrees>36.697392</LatitudeDegrees>
              <LongitudeDegrees>-4.442692</LongitudeDegrees>
            </Position>
            <AltitudeMeters>7.60</AltitudeMeters>
            <DistanceMeters>5764.4028919481</DistanceMeters>
          </Trackpoint>
          <Trackpoint>
            <Time>2022-08-26T08:59:59Z</Time>
            <Position>
              <LatitudeDegrees>36.697427</LatitudeDegrees>
              <LongitudeDegrees>-4.442751</LongitudeDegrees>
            </Position>
            <AltitudeMeters>7.80</AltitudeMeters>
            <DistanceMeters>5770.9528456262</DistanceMeters>
          </Trackpoint>
          <Trackpoint>
            <Time>2022-08-26T09:00:00Z</Time>
            <Position>
              <LatitudeDegrees>36.697435</LatitudeDegrees>
              <LongitudeDegrees>-4.442764</LongitudeDegrees>
            </Position>
            <AltitudeMeters>7.80</AltitudeMeters>
            <DistanceMeters>5772.4188463744</DistanceMeters>
          </Trackpoint>
          <Trackpoint>
            <Time>2022-08-26T09:00:01Z</Time>
            <Position>
              <LatitudeDegrees>36.697440</LatitudeDegrees>
              <LongitudeDegrees>-4.442781</LongitudeDegrees>
            </Position>
            <AltitudeMeters>7.80</AltitudeMeters>
            <DistanceMeters>5774.0370930085</DistanceMeters>
          </Trackpoint>
          <Trackpoint>
            <Time>2022-08-26T09:00:03Z</Time>
            <Position>
              <LatitudeDegrees>36.697429</LatitudeDegrees>
              <LongitudeDegrees>-4.442819</LongitudeDegrees>
            </Position>
            <AltitudeMeters>7.80</AltitudeMeters>
            <DistanceMeters>5777.6431032801</DistanceMeters>
          </Trackpoint>
          <Trackpoint>
            <Time>2022-08-26T09:00:06Z</Time>
            <Position>
              <LatitudeDegrees>36.697440</LatitudeDegrees>
              <LongitudeDegrees>-4.442861</LongitudeDegrees>
            </Position>
            <AltitudeMeters>7.80</AltitudeMeters>
            <DistanceMeters>5781.586425691</DistanceMeters>
          </Trackpoint>
          <Trackpoint>
            <Time>2022-08-26T09:00:09Z</Time>
            <Position>
              <LatitudeDegrees>36.697475</LatitudeDegrees>
              <LongitudeDegrees>-4.442896</LongitudeDegrees>
            </Position>
            <AltitudeMeters>7.80</AltitudeMeters>
            <DistanceMeters>5786.5796251725</DistanceMeters>
          </Trackpoint>
          <Trackpoint>
            <Time>2022-08-26T09:00:12Z</Time>
            <Position>
              <LatitudeDegrees>36.697495</LatitudeDegrees>
              <LongitudeDegrees>-4.442933</LongitudeDegrees>
            </Position>
            <AltitudeMeters>7.60</AltitudeMeters>
            <DistanceMeters>5790.5616867285</DistanceMeters>
          </Trackpoint>
          <Trackpoint>
            <Time>2022-08-26T09:00:14Z</Time>
            <Position>
              <LatitudeDegrees>36.697496</LatitudeDegrees>
              <LongitudeDegrees>-4.442968</LongitudeDegrees>
            </Position>
            <AltitudeMeters>7.60</AltitudeMeters>
            <DistanceMeters>5793.6874734634</DistanceMeters>
          </Trackpoint>
          <Trackpoint>
            <Time>2022-08-26T09:00:20Z</Time>
            <Position>
              <LatitudeDegrees>36.697508</LatitudeDegrees>
              <LongitudeDegrees>-4.443056</LongitudeDegrees>
            </Position>
            <AltitudeMeters>7.60</AltitudeMeters>
            <DistanceMeters>5801.6538639414</DistanceMeters>
          </Trackpoint>
          <Trackpoint>
            <Time>2022-08-26T09:00:21Z</Time>
            <Position>
              <LatitudeDegrees>36.697516</LatitudeDegrees>
              <LongitudeDegrees>-4.443072</LongitudeDegrees>
            </Position>
            <AltitudeMeters>7.60</AltitudeMeters>
            <DistanceMeters>5803.3377416102</DistanceMeters>
          </Trackpoint>
          <Trackpoint>
            <Time>2022-08-26T09:00:25Z</Time>
            <Position>
              <LatitudeDegrees>36.697544</LatitudeDegrees>
              <LongitudeDegrees>-4.443128</LongitudeDegrees>
            </Position>
            <AltitudeMeters>7.60</AltitudeMeters>
            <DistanceMeters>5809.2278650128</DistanceMeters>
          </Trackpoint>
          <Trackpoint>
            <Time>2022-08-26T09:00:29Z</Time>
            <Position>
              <LatitudeDegrees>36.697582</LatitudeDegrees>
              <LongitudeDegrees>-4.443181</LongitudeDegrees>
            </Position>
            <AltitudeMeters>7.40</AltitudeMeters>
            <DistanceMeters>5815.5740560704</DistanceMeters>
          </Trackpoint>
          <Trackpoint>
            <Time>2022-08-26T09:00:33Z</Time>
            <Position>
              <LatitudeDegrees>36.697614</LatitudeDegrees>
              <LongitudeDegrees>-4.443219</LongitudeDegrees>
            </Position>
            <AltitudeMeters>7.40</AltitudeMeters>
            <DistanceMeters>5820.4916311555</DistanceMeters>
          </Trackpoint>
          <Trackpoint>
            <Time>2022-08-26T09:00:35Z</Time>
            <Position>
              <LatitudeDegrees>36.697632</LatitudeDegrees>
              <LongitudeDegrees>-4.443237</LongitudeDegrees>
            </Position>
            <AltitudeMeters>7.40</AltitudeMeters>
            <DistanceMeters>5823.0573524435</DistanceMeters>
          </Trackpoint>
          <Trackpoint>
            <Time>2022-08-26T09:00:37Z</Time>
            <Position>
              <LatitudeDegrees>36.697641</LatitudeDegrees>
              <LongitudeDegrees>-4.443259</LongitudeDegrees>
            </Position>
            <AltitudeMeters>7.40</AltitudeMeters>
            <DistanceMeters>5825.2614806446</DistanceMeters>
          </Trackpoint>
          <Trackpoint>
            <Time>2022-08-26T09:00:39Z</Time>
            <Position>
              <LatitudeDegrees>36.697642</LatitudeDegrees>
              <LongitudeDegrees>-4.443282</LongitudeDegrees>
            </Position>
            <AltitudeMeters>7.40</AltitudeMeters>
            <DistanceMeters>5827.3172227918</DistanceMeters>
          </Trackpoint>
          <Trackpoint>
            <Time>2022-08-26T09:00:43Z</Time>
            <Position>
              <LatitudeDegrees>36.697648</LatitudeDegrees>
              <LongitudeDegrees>-4.443345</LongitudeDegrees>
            </Position>
            <AltitudeMeters>7.40</AltitudeMeters>
            <DistanceMeters>5832.9798901361</DistanceMeters>
          </Trackpoint>
          <Trackpoint>
            <Time>2022-08-26T09:00:46Z</Time>
            <Position>
              <LatitudeDegrees>36.697658</LatitudeDegrees>
              <LongitudeDegrees>-4.443393</LongitudeDegrees>
            </Position>
            <AltitudeMeters>7.40</AltitudeMeters>
            <DistanceMeters>5837.4065441641</DistanceMeters>
          </Trackpoint>
          <Trackpoint>
            <Time>2022-08-26T09:00:50Z</Time>
            <Position>
              <LatitudeDegrees>36.697680</LatitudeDegrees>
              <LongitudeDegrees>-4.443444</LongitudeDegrees>
            </Position>
            <AltitudeMeters>7.40</AltitudeMeters>
            <DistanceMeters>5842.5756829896</DistanceMeters>
          </Trackpoint>
          <Trackpoint>
            <Time>2022-08-26T09:00:52Z</Time>
            <Position>
              <LatitudeDegrees>36.697678</LatitudeDegrees>
              <LongitudeDegrees>-4.443473</LongitudeDegrees>
            </Position>
            <AltitudeMeters>7.60</AltitudeMeters>
            <DistanceMeters>5845.1746245395</DistanceMeters>
          </Trackpoint>
          <Trackpoint>
            <Time>2022-08-26T09:00:54Z</Time>
            <Position>
              <LatitudeDegrees>36.697690</LatitudeDegrees>
              <LongitudeDegrees>-4.443504</LongitudeDegrees>
            </Position>
            <AltitudeMeters>7.60</AltitudeMeters>
            <DistanceMeters>5848.2465017968</DistanceMeters>
          </Trackpoint>
          <Trackpoint>
            <Time>2022-08-26T09:00:56Z</Time>
            <Position>
              <LatitudeDegrees>36.697700</LatitudeDegrees>
              <LongitudeDegrees>-4.443536</LongitudeDegrees>
            </Position>
            <AltitudeMeters>7.80</AltitudeMeters>
            <DistanceMeters>5851.3110212537</DistanceMeters>
          </Trackpoint>
          <Trackpoint>
            <Time>2022-08-26T09:00:59Z</Time>
            <Position>
              <LatitudeDegrees>36.697714</LatitudeDegrees>
              <LongitudeDegrees>-4.443588</LongitudeDegrees>
            </Position>
            <AltitudeMeters>7.80</AltitudeMeters>
            <DistanceMeters>5856.205588937</DistanceMeters>
          </Trackpoint>
          <Trackpoint>
            <Time>2022-08-26T09:01:00Z</Time>
            <Position>
              <LatitudeDegrees>36.697710</LatitudeDegrees>
              <LongitudeDegrees>-4.443605</LongitudeDegrees>
            </Position>
            <AltitudeMeters>7.80</AltitudeMeters>
            <DistanceMeters>5857.7842912834</DistanceMeters>
          </Trackpoint>
          <Trackpoint>
            <Time>2022-08-26T09:01:10Z</Time>
            <Position>
              <LatitudeDegrees>36.697754</LatitudeDegrees>
              <LongitudeDegrees>-4.443736</LongitudeDegrees>
            </Position>
            <AltitudeMeters>8.20</AltitudeMeters>
            <DistanceMeters>5870.4592307315</DistanceMeters>
          </Trackpoint>
          <Trackpoint>
            <Time>2022-08-26T09:01:13Z</Time>
            <Position>
              <LatitudeDegrees>36.697778</LatitudeDegrees>
              <LongitudeDegrees>-4.443771</LongitudeDegrees>
            </Position>
            <AltitudeMeters>8.20</AltitudeMeters>
            <DistanceMeters>5874.5707150259</DistanceMeters>
          </Trackpoint>
          <Trackpoint>
            <Time>2022-08-26T09:01:16Z</Time>
            <Position>
              <LatitudeDegrees>36.697787</LatitudeDegrees>
              <LongitudeDegrees>-4.443817</LongitudeDegrees>
            </Position>
            <AltitudeMeters>8.40</AltitudeMeters>
            <DistanceMeters>5878.7970007719</DistanceMeters>
          </Trackpoint>
          <Trackpoint>
            <Time>2022-08-26T09:01:19Z</Time>
            <Position>
              <LatitudeDegrees>36.697794</LatitudeDegrees>
              <LongitudeDegrees>-4.443862</LongitudeDegrees>
            </Position>
            <AltitudeMeters>8.40</AltitudeMeters>
            <DistanceMeters>5882.8875669491</DistanceMeters>
          </Trackpoint>
          <Trackpoint>
            <Time>2022-08-26T09:01:20Z</Time>
            <Position>
              <LatitudeDegrees>36.697800</LatitudeDegrees>
              <LongitudeDegrees>-4.443873</LongitudeDegrees>
            </Position>
            <AltitudeMeters>8.60</AltitudeMeters>
            <DistanceMeters>5884.0782482674</DistanceMeters>
          </Trackpoint>
          <Trackpoint>
            <Time>2022-08-26T09:01:21Z</Time>
            <Position>
              <LatitudeDegrees>36.697801</LatitudeDegrees>
              <LongitudeDegrees>-4.443888</LongitudeDegrees>
            </Position>
            <AltitudeMeters>8.60</AltitudeMeters>
            <DistanceMeters>5885.4254844625</DistanceMeters>
          </Trackpoint>
          <Trackpoint>
            <Time>2022-08-26T09:01:23Z</Time>
            <Position>
              <LatitudeDegrees>36.697805</LatitudeDegrees>
              <LongitudeDegrees>-4.443910</LongitudeDegrees>
            </Position>
            <AltitudeMeters>8.60</AltitudeMeters>
            <DistanceMeters>5887.4390644393</DistanceMeters>
          </Trackpoint>
          <Trackpoint>
            <Time>2022-08-26T09:01:26Z</Time>
            <Position>
              <LatitudeDegrees>36.697817</LatitudeDegrees>
              <LongitudeDegrees>-4.443928</LongitudeDegrees>
            </Position>
            <AltitudeMeters>8.60</AltitudeMeters>
            <DistanceMeters>5889.525328288</DistanceMeters>
          </Trackpoint>
          <Trackpoint>
            <Time>2022-08-26T09:01:29Z</Time>
            <Position>
              <LatitudeDegrees>36.697816</LatitudeDegrees>
              <LongitudeDegrees>-4.443931</LongitudeDegrees>
            </Position>
            <AltitudeMeters>8.60</AltitudeMeters>
            <DistanceMeters>5889.8258291439</DistanceMeters>
          </Trackpoint>
          <Trackpoint>
            <Time>2022-08-26T09:01:32Z</Time>
            <Position>
              <LatitudeDegrees>36.697795</LatitudeDegrees>
              <LongitudeDegrees>-4.443938</LongitudeDegrees>
            </Position>
            <AltitudeMeters>8.60</AltitudeMeters>
            <DistanceMeters>5892.2448143724</DistanceMeters>
          </Trackpoint>
          <Trackpoint>
            <Time>2022-08-26T09:07:19Z</Time>
            <Position>
              <LatitudeDegrees>36.697668</LatitudeDegrees>
              <LongitudeDegrees>-4.444038</LongitudeDegrees>
            </Position>
            <AltitudeMeters>9.00</AltitudeMeters>
            <DistanceMeters>5908.9619554494</DistanceMeters>
          </Trackpoint>
          <Trackpoint>
            <Time>2022-08-26T09:07:26Z</Time>
            <Position>
              <LatitudeDegrees>36.697631</LatitudeDegrees>
              <LongitudeDegrees>-4.444091</LongitudeDegrees>
            </Position>
            <AltitudeMeters>9.00</AltitudeMeters>
            <DistanceMeters>5915.2337185978</DistanceMeters>
          </Trackpoint>
          <Trackpoint>
            <Time>2022-08-26T09:07:29Z</Time>
            <Position>
              <LatitudeDegrees>36.697618</LatitudeDegrees>
              <LongitudeDegrees>-4.444108</LongitudeDegrees>
            </Position>
            <AltitudeMeters>9.00</AltitudeMeters>
            <DistanceMeters>5917.3286212571</DistanceMeters>
          </Trackpoint>
          <Trackpoint>
            <Time>2022-08-26T09:07:30Z</Time>
            <Position>
              <LatitudeDegrees>36.697621</LatitudeDegrees>
              <LongitudeDegrees>-4.444115</LongitudeDegrees>
            </Position>
            <AltitudeMeters>9.20</AltitudeMeters>
            <DistanceMeters>5918.0333582324</DistanceMeters>
          </Trackpoint>
          <Trackpoint>
            <Time>2022-08-26T09:07:31Z</Time>
            <Position>
              <LatitudeDegrees>36.697618</LatitudeDegrees>
              <LongitudeDegrees>-4.444122</LongitudeDegrees>
            </Position>
            <AltitudeMeters>9.20</AltitudeMeters>
            <DistanceMeters>5918.7380952078</DistanceMeters>
          </Trackpoint>
          <Trackpoint>
            <Time>2022-08-26T09:07:32Z</Time>
            <Position>
              <LatitudeDegrees>36.697618</LatitudeDegrees>
              <LongitudeDegrees>-4.444126</LongitudeDegrees>
            </Position>
            <AltitudeMeters>9.20</AltitudeMeters>
            <DistanceMeters>5919.080718899</DistanceMeters>
          </Trackpoint>
          <Trackpoint>
            <Time>2022-08-26T09:07:33Z</Time>
            <Position>
              <LatitudeDegrees>36.697611</LatitudeDegrees>
              <LongitudeDegrees>-4.444135</LongitudeDegrees>
            </Position>
            <AltitudeMeters>9.20</AltitudeMeters>
            <DistanceMeters>5920.1970300336</DistanceMeters>
          </Trackpoint>
          <Trackpoint>
            <Time>2022-08-26T09:07:34Z</Time>
            <Position>
              <LatitudeDegrees>36.697599</LatitudeDegrees>
              <LongitudeDegrees>-4.444139</LongitudeDegrees>
            </Position>
            <AltitudeMeters>9.20</AltitudeMeters>
            <DistanceMeters>5921.5773727916</DistanceMeters>
          </Trackpoint>
          <Trackpoint>
            <Time>2022-08-26T09:07:36Z</Time>
            <Position>
              <LatitudeDegrees>36.697574</LatitudeDegrees>
              <LongitudeDegrees>-4.444151</LongitudeDegrees>
            </Position>
            <AltitudeMeters>9.20</AltitudeMeters>
            <DistanceMeters>5924.5582443455</DistanceMeters>
          </Trackpoint>
          <Trackpoint>
            <Time>2022-08-26T09:07:40Z</Time>
            <Position>
              <LatitudeDegrees>36.697552</LatitudeDegrees>
              <LongitudeDegrees>-4.444150</LongitudeDegrees>
            </Position>
            <AltitudeMeters>9.20</AltitudeMeters>
            <DistanceMeters>5927.0069114848</DistanceMeters>
          </Trackpoint>
          <Trackpoint>
            <Time>2022-08-26T09:07:45Z</Time>
            <Position>
              <LatitudeDegrees>36.697517</LatitudeDegrees>
              <LongitudeDegrees>-4.444171</LongitudeDegrees>
            </Position>
            <AltitudeMeters>9.20</AltitudeMeters>
            <DistanceMeters>5931.3293214795</DistanceMeters>
          </Trackpoint>
          <Trackpoint>
            <Time>2022-08-26T09:07:52Z</Time>
            <Position>
              <LatitudeDegrees>36.697379</LatitudeDegrees>
              <LongitudeDegrees>-4.444275</LongitudeDegrees>
            </Position>
            <AltitudeMeters>9.40</AltitudeMeters>
            <DistanceMeters>5949.2752869418</DistanceMeters>
          </Trackpoint>
          <Trackpoint>
            <Time>2022-08-26T09:07:58Z</Time>
            <Position>
              <LatitudeDegrees>36.697311</LatitudeDegrees>
              <LongitudeDegrees>-4.444315</LongitudeDegrees>
            </Position>
            <AltitudeMeters>9.40</AltitudeMeters>
            <DistanceMeters>5957.6430353096</DistanceMeters>
          </Trackpoint>
          <Trackpoint>
            <Time>2022-08-26T09:08:01Z</Time>
            <Position>
              <LatitudeDegrees>36.697308</LatitudeDegrees>
              <LongitudeDegrees>-4.444328</LongitudeDegrees>
            </Position>
            <AltitudeMeters>9.40</AltitudeMeters>
            <DistanceMeters>5958.8525279238</DistanceMeters>
          </Trackpoint>
          <Trackpoint>
            <Time>2022-08-26T09:08:02Z</Time>
            <Position>
              <LatitudeDegrees>36.697304</LatitudeDegrees>
              <LongitudeDegrees>-4.444328</LongitudeDegrees>
            </Position>
            <AltitudeMeters>9.40</AltitudeMeters>
            <DistanceMeters>5959.2982427225</DistanceMeters>
          </Trackpoint>
          <Trackpoint>
            <Time>2022-08-26T09:08:06Z</Time>
            <Position>
              <LatitudeDegrees>36.697290</LatitudeDegrees>
              <LongitudeDegrees>-4.444313</LongitudeDegrees>
            </Position>
            <AltitudeMeters>9.40</AltitudeMeters>
            <DistanceMeters>5961.3495875552</DistanceMeters>
          </Trackpoint>
          <Trackpoint>
            <Time>2022-08-26T09:08:10Z</Time>
            <Position>
              <LatitudeDegrees>36.697249</LatitudeDegrees>
              <LongitudeDegrees>-4.444297</LongitudeDegrees>
            </Position>
            <AltitudeMeters>9.20</AltitudeMeters>
            <DistanceMeters>5966.1302907964</DistanceMeters>
          </Trackpoint>
          <Trackpoint>
            <Time>2022-08-26T09:08:12Z</Time>
            <Position>
              <LatitudeDegrees>36.697223</LatitudeDegrees>
              <LongitudeDegrees>-4.444289</LongitudeDegrees>
            </Position>
            <AltitudeMeters>9.20</AltitudeMeters>
            <DistanceMeters>5969.1111623503</DistanceMeters>
          </Trackpoint>
          <Trackpoint>
            <Time>2022-08-26T09:08:18Z</Time>
            <Position>
              <LatitudeDegrees>36.697166</LatitudeDegrees>
              <LongitudeDegrees>-4.444235</LongitudeDegrees>
            </Position>
            <AltitudeMeters>9.00</AltitudeMeters>
            <DistanceMeters>5977.078119569</DistanceMeters>
          </Trackpoint>
          <Trackpoint>
            <Time>2022-08-26T09:08:22Z</Time>
            <Position>
              <LatitudeDegrees>36.697152</LatitudeDegrees>
              <LongitudeDegrees>-4.444234</LongitudeDegrees>
            </Position>
            <AltitudeMeters>8.80</AltitudeMeters>
            <DistanceMeters>5978.6395678197</DistanceMeters>
          </Trackpoint>
          <Trackpoint>
            <Time>2022-08-26T09:16:11Z</Time>
            <Position>
              <LatitudeDegrees>36.696834</LatitudeDegrees>
              <LongitudeDegrees>-4.444230</LongitudeDegrees>
            </Position>
            <AltitudeMeters>8.00</AltitudeMeters>
            <DistanceMeters>6014.0353288098</DistanceMeters>
          </Trackpoint>
          <Trackpoint>
            <Time>2022-08-26T09:16:13Z</Time>
            <Position>
              <LatitudeDegrees>36.696839</LatitudeDegrees>
              <LongitudeDegrees>-4.444226</LongitudeDegrees>
            </Position>
            <AltitudeMeters>8.00</AltitudeMeters>
            <DistanceMeters>6014.6936931993</DistanceMeters>
          </Trackpoint>
          <Trackpoint>
            <Time>2022-08-26T09:16:15Z</Time>
            <Position>
              <LatitudeDegrees>36.696881</LatitudeDegrees>
              <LongitudeDegrees>-4.444204</LongitudeDegrees>
            </Position>
            <AltitudeMeters>8.20</AltitudeMeters>
            <DistanceMeters>6019.7649512003</DistanceMeters>
          </Trackpoint>
          <Trackpoint>
            <Time>2022-08-26T09:16:16Z</Time>
            <Position>
              <LatitudeDegrees>36.696924</LatitudeDegrees>
              <LongitudeDegrees>-4.444194</LongitudeDegrees>
            </Position>
            <AltitudeMeters>8.20</AltitudeMeters>
            <DistanceMeters>6024.6326940641</DistanceMeters>
          </Trackpoint>
          <Trackpoint>
            <Time>2022-08-26T09:16:17Z</Time>
            <Position>
              <LatitudeDegrees>36.696957</LatitudeDegrees>
              <LongitudeDegrees>-4.444176</LongitudeDegrees>
            </Position>
            <AltitudeMeters>8.20</AltitudeMeters>
            <DistanceMeters>6028.6396225533</DistanceMeters>
          </Trackpoint>
          <Trackpoint>
            <Time>2022-08-26T09:16:20Z</Time>
            <Position>
              <LatitudeDegrees>36.696970</LatitudeDegrees>
              <LongitudeDegrees>-4.444143</LongitudeDegrees>
            </Position>
            <AltitudeMeters>8.20</AltitudeMeters>
            <DistanceMeters>6031.9190769355</DistanceMeters>
          </Trackpoint>
          <Trackpoint>
            <Time>2022-08-26T09:16:23Z</Time>
            <Position>
              <LatitudeDegrees>36.697037</LatitudeDegrees>
              <LongitudeDegrees>-4.444100</LongitudeDegrees>
            </Position>
            <AltitudeMeters>8.20</AltitudeMeters>
            <DistanceMeters>6040.3056892087</DistanceMeters>
          </Trackpoint>
          <Trackpoint>
            <Time>2022-08-26T09:16:26Z</Time>
            <Position>
              <LatitudeDegrees>36.697089</LatitudeDegrees>
              <LongitudeDegrees>-4.444066</LongitudeDegrees>
            </Position>
            <AltitudeMeters>8.40</AltitudeMeters>
            <DistanceMeters>6046.840460169</DistanceMeters>
          </Trackpoint>
          <Trackpoint>
            <Time>2022-08-26T09:16:29Z</Time>
            <Position>
              <LatitudeDegrees>36.697073</LatitudeDegrees>
              <LongitudeDegrees>-4.444040</LongitudeDegrees>
            </Position>
            <AltitudeMeters>8.20</AltitudeMeters>
            <DistanceMeters>6049.7662955145</DistanceMeters>
          </Trackpoint>
          <Trackpoint>
            <Time>2022-08-26T09:16:30Z</Time>
            <Position>
              <LatitudeDegrees>36.696994</LatitudeDegrees>
              <LongitudeDegrees>-4.444041</LongitudeDegrees>
            </Position>
            <AltitudeMeters>8.00</AltitudeMeters>
            <DistanceMeters>6058.5602465416</DistanceMeters>
          </Trackpoint>
          <Trackpoint>
            <Time>2022-08-26T09:16:34Z</Time>
            <Position>
              <LatitudeDegrees>36.696819</LatitudeDegrees>
              <LongitudeDegrees>-4.444007</LongitudeDegrees>
            </Position>
            <AltitudeMeters>8.00</AltitudeMeters>
            <DistanceMeters>6078.2731943092</DistanceMeters>
          </Trackpoint>
          <Trackpoint>
            <Time>2022-08-26T09:16:37Z</Time>
            <Position>
              <LatitudeDegrees>36.696743</LatitudeDegrees>
              <LongitudeDegrees>-4.443919</LongitudeDegrees>
            </Position>
            <AltitudeMeters>8.00</AltitudeMeters>
            <DistanceMeters>6089.8157134387</DistanceMeters>
          </Trackpoint>
          <Trackpoint>
            <Time>2022-08-26T09:16:38Z</Time>
            <Position>
              <LatitudeDegrees>36.696705</LatitudeDegrees>
              <LongitudeDegrees>-4.443912</LongitudeDegrees>
            </Position>
            <AltitudeMeters>8.00</AltitudeMeters>
            <DistanceMeters>6094.0908596025</DistanceMeters>
          </Trackpoint>
          <Trackpoint>
            <Time>2022-08-26T09:16:40Z</Time>
            <Position>
              <LatitudeDegrees>36.696629</LatitudeDegrees>
              <LongitudeDegrees>-4.443894</LongitudeDegrees>
            </Position>
            <AltitudeMeters>8.00</AltitudeMeters>
            <DistanceMeters>6102.7011399467</DistanceMeters>
          </Trackpoint>
          <Trackpoint>
            <Time>2022-08-26T09:16:43Z</Time>
            <Position>
              <LatitudeDegrees>36.696557</LatitudeDegrees>
              <LongitudeDegrees>-4.443847</LongitudeDegrees>
            </Position>
            <AltitudeMeters>8.00</AltitudeMeters>
            <DistanceMeters>6111.7461657942</DistanceMeters>
          </Trackpoint>
          <Trackpoint>
            <Time>2022-08-26T09:16:47Z</Time>
            <Position>
              <LatitudeDegrees>36.696466</LatitudeDegrees>
              <LongitudeDegrees>-4.443787</LongitudeDegrees>
            </Position>
            <AltitudeMeters>8.40</AltitudeMeters>
            <DistanceMeters>6123.2030934447</DistanceMeters>
          </Trackpoint>
          <Trackpoint>
            <Time>2022-08-26T09:16:52Z</Time>
            <Position>
              <LatitudeDegrees>36.696405</LatitudeDegrees>
              <LongitudeDegrees>-4.443706</LongitudeDegrees>
            </Position>
            <AltitudeMeters>8.00</AltitudeMeters>
            <DistanceMeters>6133.1205322586</DistanceMeters>
          </Trackpoint>
          <Trackpoint>
            <Time>2022-08-26T09:16:56Z</Time>
            <Position>
              <LatitudeDegrees>36.696391</LatitudeDegrees>
              <LongitudeDegrees>-4.443630</LongitudeDegrees>
            </Position>
            <AltitudeMeters>7.40</AltitudeMeters>
            <DistanceMeters>6140.0795767311</DistanceMeters>
          </Trackpoint>
          <Trackpoint>
            <Time>2022-08-26T09:17:02Z</Time>
            <Position>
              <LatitudeDegrees>36.696397</LatitudeDegrees>
              <LongitudeDegrees>-4.443526</LongitudeDegrees>
            </Position>
            <AltitudeMeters>7.60</AltitudeMeters>
            <DistanceMeters>6149.384434223</DistanceMeters>
          </Trackpoint>
          <Trackpoint>
            <Time>2022-08-26T09:17:08Z</Time>
            <Position>
              <LatitudeDegrees>36.696533</LatitudeDegrees>
              <LongitudeDegrees>-4.443383</LongitudeDegrees>
            </Position>
            <AltitudeMeters>8.00</AltitudeMeters>
            <DistanceMeters>6169.182857349</DistanceMeters>
          </Trackpoint>
          <Trackpoint>
            <Time>2022-08-26T09:17:15Z</Time>
            <Position>
              <LatitudeDegrees>36.696633</LatitudeDegrees>
              <LongitudeDegrees>-4.443272</LongitudeDegrees>
            </Position>
            <AltitudeMeters>8.00</AltitudeMeters>
            <DistanceMeters>6184.0829734376</DistanceMeters>
          </Trackpoint>
          <Trackpoint>
            <Time>2022-08-26T09:17:16Z</Time>
            <Position>
              <LatitudeDegrees>36.696663</LatitudeDegrees>
              <LongitudeDegrees>-4.443255</LongitudeDegrees>
            </Position>
            <AltitudeMeters>8.00</AltitudeMeters>
            <DistanceMeters>6187.7510538485</DistanceMeters>
          </Trackpoint>
          <Trackpoint>
            <Time>2022-08-26T09:17:18Z</Time>
            <Position>
              <LatitudeDegrees>36.696677</LatitudeDegrees>
              <LongitudeDegrees>-4.443241</LongitudeDegrees>
            </Position>
            <AltitudeMeters>8.00</AltitudeMeters>
            <DistanceMeters>6189.74887611</DistanceMeters>
          </Trackpoint>
          <Trackpoint>
            <Time>2022-08-26T09:17:20Z</Time>
            <Position>
              <LatitudeDegrees>36.696700</LatitudeDegrees>
              <LongitudeDegrees>-4.443205</LongitudeDegrees>
            </Position>
            <AltitudeMeters>8.00</AltitudeMeters>
            <DistanceMeters>6193.8559654439</DistanceMeters>
          </Trackpoint>
          <Trackpoint>
            <Time>2022-08-26T09:17:21Z</Time>
            <Position>
              <LatitudeDegrees>36.696744</LatitudeDegrees>
              <LongitudeDegrees>-4.443190</LongitudeDegrees>
            </Position>
            <AltitudeMeters>8.00</AltitudeMeters>
            <DistanceMeters>6198.9325625494</DistanceMeters>
          </Trackpoint>
          <Trackpoint>
            <Time>2022-08-26T09:17:22Z</Time>
            <Position>
              <LatitudeDegrees>36.696778</LatitudeDegrees>
              <LongitudeDegrees>-4.443178</LongitudeDegrees>
            </Position>
            <AltitudeMeters>8.00</AltitudeMeters>
            <DistanceMeters>6202.8644184562</DistanceMeters>
          </Trackpoint>
          <Trackpoint>
            <Time>2022-08-26T09:17:24Z</Time>
            <Position>
              <LatitudeDegrees>36.696758</LatitudeDegrees>
              <LongitudeDegrees>-4.443157</LongitudeDegrees>
            </Position>
            <AltitudeMeters>8.00</AltitudeMeters>
            <DistanceMeters>6205.7747812694</DistanceMeters>
          </Trackpoint>
          <Trackpoint>
            <Time>2022-08-26T09:17:27Z</Time>
            <Position>
              <LatitudeDegrees>36.696741</LatitudeDegrees>
              <LongitudeDegrees>-4.443113</LongitudeDegrees>
            </Position>
            <AltitudeMeters>8.00</AltitudeMeters>
            <DistanceMeters>6210.1335977186</DistanceMeters>
          </Trackpoint>
          <Trackpoint>
            <Time>2022-08-26T09:17:28Z</Time>
            <Position>
              <LatitudeDegrees>36.696729</LatitudeDegrees>
              <LongitudeDegrees>-4.443100</LongitudeDegrees>
            </Position>
            <AltitudeMeters>8.00</AltitudeMeters>
            <DistanceMeters>6211.9011967822</DistanceMeters>
          </Trackpoint>
          <Trackpoint>
            <Time>2022-08-26T09:17:30Z</Time>
            <Position>
              <LatitudeDegrees>36.696728</LatitudeDegrees>
              <LongitudeDegrees>-4.443069</LongitudeDegrees>
            </Position>
            <AltitudeMeters>8.00</AltitudeMeters>
            <DistanceMeters>6214.6684164744</DistanceMeters>
          </Trackpoint>
          <Trackpoint>
            <Time>2022-08-26T09:17:31Z</Time>
            <Position>
              <LatitudeDegrees>36.696736</LatitudeDegrees>
              <LongitudeDegrees>-4.443050</LongitudeDegrees>
            </Position>
            <AltitudeMeters>8.00</AltitudeMeters>
            <DistanceMeters>6216.5831517136</DistanceMeters>
          </Trackpoint>
          <Trackpoint>
            <Time>2022-08-26T09:17:33Z</Time>
            <Position>
              <LatitudeDegrees>36.696745</LatitudeDegrees>
              <LongitudeDegrees>-4.443007</LongitudeDegrees>
            </Position>
            <AltitudeMeters>8.00</AltitudeMeters>
            <DistanceMeters>6220.5493076819</DistanceMeters>
          </Trackpoint>
          <Trackpoint>
            <Time>2022-08-26T09:17:34Z</Time>
            <Position>
              <LatitudeDegrees>36.696752</LatitudeDegrees>
              <LongitudeDegrees>-4.442991</LongitudeDegrees>
            </Position>
            <AltitudeMeters>8.00</AltitudeMeters>
            <DistanceMeters>6222.1759030213</DistanceMeters>
          </Trackpoint>
          <Trackpoint>
            <Time>2022-08-26T09:17:35Z</Time>
            <Position>
              <LatitudeDegrees>36.696749</LatitudeDegrees>
              <LongitudeDegrees>-4.442979</LongitudeDegrees>
            </Position>
            <AltitudeMeters>8.00</AltitudeMeters>
            <DistanceMeters>6223.3002742688</DistanceMeters>
          </Trackpoint>
          <Trackpoint>
            <Time>2022-08-26T09:17:37Z</Time>
            <Position>
              <LatitudeDegrees>36.696739</LatitudeDegrees>
              <LongitudeDegrees>-4.442960</LongitudeDegrees>
            </Position>
            <AltitudeMeters>8.00</AltitudeMeters>
            <DistanceMeters>6225.3294895995</DistanceMeters>
          </Trackpoint>
          <Trackpoint>
            <Time>2022-08-26T09:17:39Z</Time>
            <Position>
              <LatitudeDegrees>36.696740</LatitudeDegrees>
              <LongitudeDegrees>-4.442941</LongitudeDegrees>
            </Position>
            <AltitudeMeters>8.00</AltitudeMeters>
            <DistanceMeters>6227.0293791436</DistanceMeters>
          </Trackpoint>
          <Trackpoint>
            <Time>2022-08-26T09:17:45Z</Time>
            <Position>
              <LatitudeDegrees>36.696739</LatitudeDegrees>
              <LongitudeDegrees>-4.442880</LongitudeDegrees>
            </Position>
            <AltitudeMeters>8.00</AltitudeMeters>
            <DistanceMeters>6232.4749985796</DistanceMeters>
          </Trackpoint>
          <Trackpoint>
            <Time>2022-08-26T09:17:49Z</Time>
            <Position>
              <LatitudeDegrees>36.696727</LatitudeDegrees>
              <LongitudeDegrees>-4.442838</LongitudeDegrees>
            </Position>
            <AltitudeMeters>8.00</AltitudeMeters>
            <DistanceMeters>6236.4547918007</DistanceMeters>
          </Trackpoint>
          <Trackpoint>
            <Time>2022-08-26T09:17:50Z</Time>
            <Position>
              <LatitudeDegrees>36.696719</LatitudeDegrees>
              <LongitudeDegrees>-4.442829</LongitudeDegrees>
            </Position>
            <AltitudeMeters>8.00</AltitudeMeters>
            <DistanceMeters>6237.6530330763</DistanceMeters>
          </Trackpoint>
          <Trackpoint>
            <Time>2022-08-26T09:17:54Z</Time>
            <Position>
              <LatitudeDegrees>36.696672</LatitudeDegrees>
              <LongitudeDegrees>-4.442784</LongitudeDegrees>
            </Position>
            <AltitudeMeters>8.00</AltitudeMeters>
            <DistanceMeters>6244.2483252026</DistanceMeters>
          </Trackpoint>
          <Trackpoint>
            <Time>2022-08-26T09:17:55Z</Time>
            <Position>
              <LatitudeDegrees>36.696662</LatitudeDegrees>
              <LongitudeDegrees>-4.442770</LongitudeDegrees>
            </Position>
            <AltitudeMeters>7.80</AltitudeMeters>
            <DistanceMeters>6245.9214431594</DistanceMeters>
          </Trackpoint>
          <Trackpoint>
            <Time>2022-08-26T09:17:56Z</Time>
            <Position>
              <LatitudeDegrees>36.696610</LatitudeDegrees>
              <LongitudeDegrees>-4.442757</LongitudeDegrees>
            </Position>
            <AltitudeMeters>7.80</AltitudeMeters>
            <DistanceMeters>6251.8245834252</DistanceMeters>
          </Trackpoint>
          <Trackpoint>
            <Time>2022-08-26T09:18:01Z</Time>
            <Position>
              <LatitudeDegrees>36.696468</LatitudeDegrees>
              <LongitudeDegrees>-4.442690</LongitudeDegrees>
            </Position>
            <AltitudeMeters>8.00</AltitudeMeters>
            <DistanceMeters>6268.7227808826</DistanceMeters>
          </Trackpoint>
          <Trackpoint>
            <Time>2022-08-26T09:18:05Z</Time>
            <Position>
              <LatitudeDegrees>36.696436</LatitudeDegrees>
              <LongitudeDegrees>-4.442634</LongitudeDegrees>
            </Position>
            <AltitudeMeters>8.00</AltitudeMeters>
            <DistanceMeters>6274.8599177434</DistanceMeters>
          </Trackpoint>
          <Trackpoint>
            <Time>2022-08-26T09:18:08Z</Time>
            <Position>
              <LatitudeDegrees>36.696421</LatitudeDegrees>
              <LongitudeDegrees>-4.442597</LongitudeDegrees>
            </Position>
            <AltitudeMeters>8.00</AltitudeMeters>
            <DistanceMeters>6278.5598631334</DistanceMeters>
          </Trackpoint>
          <Trackpoint>
            <Time>2022-08-26T09:18:15Z</Time>
            <Position>
              <LatitudeDegrees>36.696391</LatitudeDegrees>
              <LongitudeDegrees>-4.442508</LongitudeDegrees>
            </Position>
            <AltitudeMeters>8.00</AltitudeMeters>
            <DistanceMeters>6287.1759097005</DistanceMeters>
          </Trackpoint>
          <Trackpoint>
            <Time>2022-08-26T09:18:23Z</Time>
            <Position>
              <LatitudeDegrees>36.696351</LatitudeDegrees>
              <LongitudeDegrees>-4.442451</LongitudeDegrees>
            </Position>
            <AltitudeMeters>8.00</AltitudeMeters>
            <DistanceMeters>6293.9355093045</DistanceMeters>
          </Trackpoint>
          <Trackpoint>
            <Time>2022-08-26T09:18:30Z</Time>
            <Position>
              <LatitudeDegrees>36.696293</LatitudeDegrees>
              <LongitudeDegrees>-4.442412</LongitudeDegrees>
            </Position>
            <AltitudeMeters>8.00</AltitudeMeters>
            <DistanceMeters>6301.2698235449</DistanceMeters>
          </Trackpoint>
          <Trackpoint>
            <Time>2022-08-26T09:18:39Z</Time>
            <Position>
              <LatitudeDegrees>36.696170</LatitudeDegrees>
              <LongitudeDegrees>-4.442420</LongitudeDegrees>
            </Position>
            <AltitudeMeters>8.00</AltitudeMeters>
            <DistanceMeters>6314.979382659</DistanceMeters>
          </Trackpoint>
          <Trackpoint>
            <Time>2022-08-26T09:18:42Z</Time>
            <Position>
              <LatitudeDegrees>36.696113</LatitudeDegrees>
              <LongitudeDegrees>-4.442438</LongitudeDegrees>
            </Position>
            <AltitudeMeters>8.00</AltitudeMeters>
            <DistanceMeters>6321.5231294831</DistanceMeters>
          </Trackpoint>
          <Trackpoint>
            <Time>2022-08-26T09:18:47Z</Time>
            <Position>
              <LatitudeDegrees>36.696042</LatitudeDegrees>
              <LongitudeDegrees>-4.442461</LongitudeDegrees>
            </Position>
            <AltitudeMeters>8.00</AltitudeMeters>
            <DistanceMeters>6329.6876885225</DistanceMeters>
          </Trackpoint>
          <Trackpoint>
            <Time>2022-08-26T09:18:48Z</Time>
            <Position>
              <LatitudeDegrees>36.696030</LatitudeDegrees>
              <LongitudeDegrees>-4.442459</LongitudeDegrees>
            </Position>
            <AltitudeMeters>8.00</AltitudeMeters>
            <DistanceMeters>6331.031569205</DistanceMeters>
          </Trackpoint>
          <Trackpoint>
            <Time>2022-08-26T09:18:51Z</Time>
            <Position>
              <LatitudeDegrees>36.695999</LatitudeDegrees>
              <LongitudeDegrees>-4.442460</LongitudeDegrees>
            </Position>
            <AltitudeMeters>8.20</AltitudeMeters>
            <DistanceMeters>6334.4827531801</DistanceMeters>
          </Trackpoint>
          <Trackpoint>
            <Time>2022-08-26T09:18:54Z</Time>
            <Position>
              <LatitudeDegrees>36.695974</LatitudeDegrees>
              <LongitudeDegrees>-4.442464</LongitudeDegrees>
            </Position>
            <AltitudeMeters>8.20</AltitudeMeters>
            <DistanceMeters>6337.2888584274</DistanceMeters>
          </Trackpoint>
          <Trackpoint>
            <Time>2022-08-26T09:18:55Z</Time>
            <Position>
              <LatitudeDegrees>36.695971</LatitudeDegrees>
              <LongitudeDegrees>-4.442470</LongitudeDegrees>
            </Position>
            <AltitudeMeters>8.20</AltitudeMeters>
            <DistanceMeters>6337.9263170065</DistanceMeters>
          </Trackpoint>
          <Trackpoint>
            <Time>2022-08-26T09:18:59Z</Time>
            <Position>
              <LatitudeDegrees>36.695964</LatitudeDegrees>
              <LongitudeDegrees>-4.442505</LongitudeDegrees>
            </Position>
            <AltitudeMeters>8.20</AltitudeMeters>
            <DistanceMeters>6341.1460262725</DistanceMeters>
          </Trackpoint>
          <Trackpoint>
            <Time>2022-08-26T09:19:01Z</Time>
            <Position>
              <LatitudeDegrees>36.695946</LatitudeDegrees>
              <LongitudeDegrees>-4.442534</LongitudeDegrees>
            </Position>
            <AltitudeMeters>8.20</AltitudeMeters>
            <DistanceMeters>6344.4185895893</DistanceMeters>
          </Trackpoint>
          <Trackpoint>
            <Time>2022-08-26T09:19:03Z</Time>
            <Position>
              <LatitudeDegrees>36.695939</LatitudeDegrees>
              <LongitudeDegrees>-4.442546</LongitudeDegrees>
            </Position>
            <AltitudeMeters>8.00</AltitudeMeters>
            <DistanceMeters>6345.7421585637</DistanceMeters>
          </Trackpoint>
          <Trackpoint>
            <Time>2022-08-26T09:19:04Z</Time>
            <Position>
              <LatitudeDegrees>36.695935</LatitudeDegrees>
              <LongitudeDegrees>-4.442551</LongitudeDegrees>
            </Position>
            <AltitudeMeters>8.00</AltitudeMeters>
            <DistanceMeters>6346.372494477</DistanceMeters>
          </Trackpoint>
          <Trackpoint>
            <Time>2022-08-26T09:19:08Z</Time>
            <Position>
              <LatitudeDegrees>36.695921</LatitudeDegrees>
              <LongitudeDegrees>-4.442594</LongitudeDegrees>
            </Position>
            <AltitudeMeters>8.00</AltitudeMeters>
            <DistanceMeters>6350.5146129257</DistanceMeters>
          </Trackpoint>
          <Trackpoint>
            <Time>2022-08-26T09:19:10Z</Time>
            <Position>
              <LatitudeDegrees>36.695916</LatitudeDegrees>
              <LongitudeDegrees>-4.442626</LongitudeDegrees>
            </Position>
            <AltitudeMeters>8.00</AltitudeMeters>
            <DistanceMeters>6353.4234239591</DistanceMeters>
          </Trackpoint>
          <Trackpoint>
            <Time>2022-08-26T09:19:13Z</Time>
            <Position>
              <LatitudeDegrees>36.695905</LatitudeDegrees>
              <LongitudeDegrees>-4.442685</LongitudeDegrees>
            </Position>
            <AltitudeMeters>8.00</AltitudeMeters>
            <DistanceMeters>6358.829099437</DistanceMeters>
          </Trackpoint>
          <Trackpoint>
            <Time>2022-08-26T09:19:18Z</Time>
            <Position>
              <LatitudeDegrees>36.695807</LatitudeDegrees>
              <LongitudeDegrees>-4.442797</LongitudeDegrees>
            </Position>
            <AltitudeMeters>8.00</AltitudeMeters>
            <DistanceMeters>6373.6239989974</DistanceMeters>
          </Trackpoint>
          <Trackpoint>
            <Time>2022-08-26T09:19:25Z</Time>
            <Position>
              <LatitudeDegrees>36.695725</LatitudeDegrees>
              <LongitudeDegrees>-4.442858</LongitudeDegrees>
            </Position>
            <AltitudeMeters>7.80</AltitudeMeters>
            <DistanceMeters>6384.2512830383</DistanceMeters>
          </Trackpoint>
          <Trackpoint>
            <Time>2022-08-26T09:19:27Z</Time>
            <Position>
              <LatitudeDegrees>36.695710</LatitudeDegrees>
              <LongitudeDegrees>-4.442873</LongitudeDegrees>
            </Position>
            <AltitudeMeters>7.80</AltitudeMeters>
            <DistanceMeters>6386.3930764068</DistanceMeters>
          </Trackpoint>
          <Trackpoint>
            <Time>2022-08-26T09:19:28Z</Time>
            <Position>
              <LatitudeDegrees>36.695700</LatitudeDegrees>
              <LongitudeDegrees>-4.442878</LongitudeDegrees>
            </Position>
            <AltitudeMeters>7.80</AltitudeMeters>
            <DistanceMeters>6387.5950798307</DistanceMeters>
          </Trackpoint>
          <Trackpoint>
            <Time>2022-08-26T09:19:30Z</Time>
            <Position>
              <LatitudeDegrees>36.695681</LatitudeDegrees>
              <LongitudeDegrees>-4.442889</LongitudeDegrees>
            </Position>
            <AltitudeMeters>7.80</AltitudeMeters>
            <DistanceMeters>6389.926625674</DistanceMeters>
          </Trackpoint>
          <Trackpoint>
            <Time>2022-08-26T09:19:31Z</Time>
            <Position>
              <LatitudeDegrees>36.695672</LatitudeDegrees>
              <LongitudeDegrees>-4.442898</LongitudeDegrees>
            </Position>
            <AltitudeMeters>7.80</AltitudeMeters>
            <DistanceMeters>6391.208606139</DistanceMeters>
          </Trackpoint>
          <Trackpoint>
            <Time>2022-08-26T09:19:36Z</Time>
            <Position>
              <LatitudeDegrees>36.695653</LatitudeDegrees>
              <LongitudeDegrees>-4.442932</LongitudeDegrees>
            </Position>
            <AltitudeMeters>7.60</AltitudeMeters>
            <DistanceMeters>6394.908551529</DistanceMeters>
          </Trackpoint>
          <Trackpoint>
            <Time>2022-08-26T09:19:38Z</Time>
            <Position>
              <LatitudeDegrees>36.695651</LatitudeDegrees>
              <LongitudeDegrees>-4.442950</LongitudeDegrees>
            </Position>
            <AltitudeMeters>7.60</AltitudeMeters>
            <DistanceMeters>6396.5267981631</DistanceMeters>
          </Trackpoint>
          <Trackpoint>
            <Time>2022-08-26T09:19:40Z</Time>
            <Position>
              <LatitudeDegrees>36.695646</LatitudeDegrees>
              <LongitudeDegrees>-4.442963</LongitudeDegrees>
            </Position>
            <AltitudeMeters>7.40</AltitudeMeters>
            <DistanceMeters>6397.8087786282</DistanceMeters>
          </Trackpoint>
          <Trackpoint>
            <Time>2022-08-26T09:19:42Z</Time>
            <Position>
              <LatitudeDegrees>36.695647</LatitudeDegrees>
              <LongitudeDegrees>-4.442986</LongitudeDegrees>
            </Position>
            <AltitudeMeters>7.40</AltitudeMeters>
            <DistanceMeters>6399.8645207754</DistanceMeters>
          </Trackpoint>
          <Trackpoint>
            <Time>2022-08-26T09:19:43Z</Time>
            <Position>
              <LatitudeDegrees>36.695644</LatitudeDegrees>
              <LongitudeDegrees>-4.442988</LongitudeDegrees>
            </Position>
            <AltitudeMeters>7.40</AltitudeMeters>
            <DistanceMeters>6400.2446276329</DistanceMeters>
          </Trackpoint>
          <Trackpoint>
            <Time>2022-08-26T09:19:44Z</Time>
            <Position>
              <LatitudeDegrees>36.695643</LatitudeDegrees>
              <LongitudeDegrees>-4.443000</LongitudeDegrees>
            </Position>
            <AltitudeMeters>7.40</AltitudeMeters>
            <DistanceMeters>6401.3239236355</DistanceMeters>
          </Trackpoint>
          <Trackpoint>
            <Time>2022-08-26T09:19:47Z</Time>
            <Position>
              <LatitudeDegrees>36.695639</LatitudeDegrees>
              <LongitudeDegrees>-4.443020</LongitudeDegrees>
            </Position>
            <AltitudeMeters>7.20</AltitudeMeters>
            <DistanceMeters>6403.1641080465</DistanceMeters>
          </Trackpoint>
          <Trackpoint>
            <Time>2022-08-26T09:19:50Z</Time>
            <Position>
              <LatitudeDegrees>36.695636</LatitudeDegrees>
              <LongitudeDegrees>-4.443032</LongitudeDegrees>
            </Position>
            <AltitudeMeters>7.20</AltitudeMeters>
            <DistanceMeters>6404.2884792939</DistanceMeters>
          </Trackpoint>
          <Trackpoint>
            <Time>2022-08-26T09:19:53Z</Time>
            <Position>
              <LatitudeDegrees>36.695598</LatitudeDegrees>
              <LongitudeDegrees>-4.443057</LongitudeDegrees>
            </Position>
            <AltitudeMeters>7.20</AltitudeMeters>
            <DistanceMeters>6409.0701268715</DistanceMeters>
          </Trackpoint>
          <Trackpoint>
            <Time>2022-08-26T09:19:57Z</Time>
            <Position>
              <LatitudeDegrees>36.695522</LatitudeDegrees>
              <LongitudeDegrees>-4.443049</LongitudeDegrees>
            </Position>
            <AltitudeMeters>7.20</AltitudeMeters>
            <DistanceMeters>6417.5589436338</DistanceMeters>
          </Trackpoint>
          <Trackpoint>
            <Time>2022-08-26T09:20:01Z</Time>
            <Position>
              <LatitudeDegrees>36.695472</LatitudeDegrees>
              <LongitudeDegrees>-4.443020</LongitudeDegrees>
            </Position>
            <AltitudeMeters>7.20</AltitudeMeters>
            <DistanceMeters>6423.6960804945</DistanceMeters>
          </Trackpoint>
          <Trackpoint>
            <Time>2022-08-26T09:20:04Z</Time>
            <Position>
              <LatitudeDegrees>36.695442</LatitudeDegrees>
              <LongitudeDegrees>-4.442996</LongitudeDegrees>
            </Position>
            <AltitudeMeters>7.00</AltitudeMeters>
            <DistanceMeters>6427.6622364629</DistanceMeters>
          </Trackpoint>
          <Trackpoint>
            <Time>2022-08-26T09:20:05Z</Time>
            <Position>
              <LatitudeDegrees>36.695430</LatitudeDegrees>
              <LongitudeDegrees>-4.442991</LongitudeDegrees>
            </Position>
            <AltitudeMeters>7.00</AltitudeMeters>
            <DistanceMeters>6429.0717104136</DistanceMeters>
          </Trackpoint>
          <Trackpoint>
            <Time>2022-08-26T09:20:07Z</Time>
            <Position>
              <LatitudeDegrees>36.695401</LatitudeDegrees>
              <LongitudeDegrees>-4.442990</LongitudeDegrees>
            </Position>
            <AltitudeMeters>7.00</AltitudeMeters>
            <DistanceMeters>6432.3012209481</DistanceMeters>
          </Trackpoint>
          <Trackpoint>
            <Time>2022-08-26T09:20:11Z</Time>
            <Position>
              <LatitudeDegrees>36.695334</LatitudeDegrees>
              <LongitudeDegrees>-4.442997</LongitudeDegrees>
            </Position>
            <AltitudeMeters>6.60</AltitudeMeters>
            <DistanceMeters>6439.7842353159</DistanceMeters>
          </Trackpoint>
          <Trackpoint>
            <Time>2022-08-26T09:20:17Z</Time>
            <Position>
              <LatitudeDegrees>36.695242</LatitudeDegrees>
              <LongitudeDegrees>-4.443029</LongitudeDegrees>
            </Position>
            <AltitudeMeters>6.40</AltitudeMeters>
            <DistanceMeters>6450.4144929149</DistanceMeters>
          </Trackpoint>
          <Trackpoint>
            <Time>2022-08-26T09:20:19Z</Time>
            <Position>
              <LatitudeDegrees>36.695224</LatitudeDegrees>
              <LongitudeDegrees>-4.443047</LongitudeDegrees>
            </Position>
            <AltitudeMeters>6.20</AltitudeMeters>
            <DistanceMeters>6452.9819733538</DistanceMeters>
          </Trackpoint>
          <Trackpoint>
            <Time>2022-08-26T09:20:24Z</Time>
            <Position>
              <LatitudeDegrees>36.695195</LatitudeDegrees>
              <LongitudeDegrees>-4.443071</LongitudeDegrees>
            </Position>
            <AltitudeMeters>6.20</AltitudeMeters>
            <DistanceMeters>6456.8559876864</DistanceMeters>
          </Trackpoint>
          <Trackpoint>
            <Time>2022-08-26T09:20:27Z</Time>
            <Position>
              <LatitudeDegrees>36.695185</LatitudeDegrees>
              <LongitudeDegrees>-4.443063</LongitudeDegrees>
            </Position>
            <AltitudeMeters>6.20</AltitudeMeters>
            <DistanceMeters>6458.1795566609</DistanceMeters>
          </Trackpoint>
          <Trackpoint>
            <Time>2022-08-26T09:21:21Z</Time>
            <Position>
              <LatitudeDegrees>36.695061</LatitudeDegrees>
              <LongitudeDegrees>-4.442594</LongitudeDegrees>
            </Position>
            <AltitudeMeters>6.20</AltitudeMeters>
            <DistanceMeters>6502.252082153</DistanceMeters>
          </Trackpoint>
          <Trackpoint>
            <Time>2022-08-26T09:21:23Z</Time>
            <Position>
              <LatitudeDegrees>36.695064</LatitudeDegrees>
              <LongitudeDegrees>-4.442542</LongitudeDegrees>
            </Position>
            <AltitudeMeters>6.00</AltitudeMeters>
            <DistanceMeters>6506.9054812669</DistanceMeters>
          </Trackpoint>
          <Trackpoint>
            <Time>2022-08-26T09:21:25Z</Time>
            <Position>
              <LatitudeDegrees>36.695059</LatitudeDegrees>
              <LongitudeDegrees>-4.442506</LongitudeDegrees>
            </Position>
            <AltitudeMeters>6.00</AltitudeMeters>
            <DistanceMeters>6510.16560396</DistanceMeters>
          </Trackpoint>
          <Trackpoint>
            <Time>2022-08-26T09:21:26Z</Time>
            <Position>
              <LatitudeDegrees>36.695025</LatitudeDegrees>
              <LongitudeDegrees>-4.442487</LongitudeDegrees>
            </Position>
            <AltitudeMeters>5.80</AltitudeMeters>
            <DistanceMeters>6514.3120802411</DistanceMeters>
          </Trackpoint>
          <Trackpoint>
            <Time>2022-08-26T09:21:30Z</Time>
            <Position>
              <LatitudeDegrees>36.694961</LatitudeDegrees>
              <LongitudeDegrees>-4.442404</LongitudeDegrees>
            </Position>
            <AltitudeMeters>5.20</AltitudeMeters>
            <DistanceMeters>6524.5881550722</DistanceMeters>
          </Trackpoint>
          <Trackpoint>
            <Time>2022-08-26T09:21:31Z</Time>
            <Position>
              <LatitudeDegrees>36.694947</LatitudeDegrees>
              <LongitudeDegrees>-4.442391</LongitudeDegrees>
            </Position>
            <AltitudeMeters>5.00</AltitudeMeters>
            <DistanceMeters>6526.5309808374</DistanceMeters>
          </Trackpoint>
          <Trackpoint>
            <Time>2022-08-26T09:21:34Z</Time>
            <Position>
              <LatitudeDegrees>36.694949</LatitudeDegrees>
              <LongitudeDegrees>-4.442366</LongitudeDegrees>
            </Position>
            <AltitudeMeters>5.00</AltitudeMeters>
            <DistanceMeters>6528.7716777162</DistanceMeters>
          </Trackpoint>
          <Trackpoint>
            <Time>2022-08-26T09:21:39Z</Time>
            <Position>
              <LatitudeDegrees>36.694981</LatitudeDegrees>
              <LongitudeDegrees>-4.442344</LongitudeDegrees>
            </Position>
            <AltitudeMeters>5.20</AltitudeMeters>
            <DistanceMeters>6532.8389987074</DistanceMeters>
          </Trackpoint>
          <Trackpoint>
            <Time>2022-08-26T09:21:43Z</Time>
            <Position>
              <LatitudeDegrees>36.694989</LatitudeDegrees>
              <LongitudeDegrees>-4.442304</LongitudeDegrees>
            </Position>
            <AltitudeMeters>5.20</AltitudeMeters>
            <DistanceMeters>6536.5169131318</DistanceMeters>
          </Trackpoint>
          <Trackpoint>
            <Time>2022-08-26T09:21:45Z</Time>
            <Position>
              <LatitudeDegrees>36.694999</LatitudeDegrees>
              <LongitudeDegrees>-4.442268</LongitudeDegrees>
            </Position>
            <AltitudeMeters>5.20</AltitudeMeters>
            <DistanceMeters>6539.9166922199</DistanceMeters>
          </Trackpoint>
          <Trackpoint>
            <Time>2022-08-26T09:21:46Z</Time>
            <Position>
              <LatitudeDegrees>36.694992</LatitudeDegrees>
              <LongitudeDegrees>-4.442246</LongitudeDegrees>
            </Position>
            <AltitudeMeters>5.20</AltitudeMeters>
            <DistanceMeters>6542.0287664997</DistanceMeters>
          </Trackpoint>
          <Trackpoint>
            <Time>2022-08-26T09:21:48Z</Time>
            <Position>
              <LatitudeDegrees>36.694997</LatitudeDegrees>
              <LongitudeDegrees>-4.442212</LongitudeDegrees>
            </Position>
            <AltitudeMeters>5.20</AltitudeMeters>
            <DistanceMeters>6545.1153067389</DistanceMeters>
          </Trackpoint>
          <Trackpoint>
            <Time>2022-08-26T09:21:49Z</Time>
            <Position>
              <LatitudeDegrees>36.695011</LatitudeDegrees>
              <LongitudeDegrees>-4.442207</LongitudeDegrees>
            </Position>
            <AltitudeMeters>5.40</AltitudeMeters>
            <DistanceMeters>6546.7363410523</DistanceMeters>
          </Trackpoint>
          <Trackpoint>
            <Time>2022-08-26T09:21:52Z</Time>
            <Position>
              <LatitudeDegrees>36.695065</LatitudeDegrees>
              <LongitudeDegrees>-4.442142</LongitudeDegrees>
            </Position>
            <AltitudeMeters>5.60</AltitudeMeters>
            <DistanceMeters>6555.0889676216</DistanceMeters>
          </Trackpoint>
          <Trackpoint>
            <Time>2022-08-26T09:22:14Z</Time>
            <Position>
              <LatitudeDegrees>36.694863</LatitudeDegrees>
              <LongitudeDegrees>-4.442055</LongitudeDegrees>
            </Position>
            <AltitudeMeters>4.00</AltitudeMeters>
            <DistanceMeters>6578.8748964351</DistanceMeters>
          </Trackpoint>
          <Trackpoint>
            <Time>2022-08-26T09:22:16Z</Time>
            <Position>
              <LatitudeDegrees>36.694867</LatitudeDegrees>
              <LongitudeDegrees>-4.442015</LongitudeDegrees>
            </Position>
            <AltitudeMeters>4.00</AltitudeMeters>
            <DistanceMeters>6582.472131421</DistanceMeters>
          </Trackpoint>
          <Trackpoint>
            <Time>2022-08-26T09:22:19Z</Time>
            <Position>
              <LatitudeDegrees>36.694852</LatitudeDegrees>
              <LongitudeDegrees>-4.441972</LongitudeDegrees>
            </Position>
            <AltitudeMeters>3.80</AltitudeMeters>
            <DistanceMeters>6586.6576240206</DistanceMeters>
          </Trackpoint>
          <Trackpoint>
            <Time>2022-08-26T09:22:21Z</Time>
            <Position>
              <LatitudeDegrees>36.694843</LatitudeDegrees>
              <LongitudeDegrees>-4.441946</LongitudeDegrees>
            </Position>
            <AltitudeMeters>3.80</AltitudeMeters>
            <DistanceMeters>6589.186120436</DistanceMeters>
          </Trackpoint>
          <Trackpoint>
            <Time>2022-08-26T09:22:23Z</Time>
            <Position>
              <LatitudeDegrees>36.694812</LatitudeDegrees>
              <LongitudeDegrees>-4.441924</LongitudeDegrees>
            </Position>
            <AltitudeMeters>3.60</AltitudeMeters>
            <DistanceMeters>6593.1568273593</DistanceMeters>
          </Trackpoint>
          <Trackpoint>
            <Time>2022-08-26T09:22:26Z</Time>
            <Position>
              <LatitudeDegrees>36.694783</LatitudeDegrees>
              <LongitudeDegrees>-4.441883</LongitudeDegrees>
            </Position>
            <AltitudeMeters>3.40</AltitudeMeters>
            <DistanceMeters>6598.0356880364</DistanceMeters>
          </Trackpoint>
          <Trackpoint>
            <Time>2022-08-26T09:22:34Z</Time>
            <Position>
              <LatitudeDegrees>36.694703</LatitudeDegrees>
              <LongitudeDegrees>-4.441779</LongitudeDegrees>
            </Position>
            <AltitudeMeters>2.60</AltitudeMeters>
            <DistanceMeters>6610.8976863435</DistanceMeters>
          </Trackpoint>
          <Trackpoint>
            <Time>2022-08-26T09:22:37Z</Time>
            <Position>
              <LatitudeDegrees>36.694718</LatitudeDegrees>
              <LongitudeDegrees>-4.441740</LongitudeDegrees>
            </Position>
            <AltitudeMeters>2.60</AltitudeMeters>
            <DistanceMeters>6614.7576897286</DistanceMeters>
          </Trackpoint>
          <Trackpoint>
            <Time>2022-08-26T09:22:40Z</Time>
            <Position>
              <LatitudeDegrees>36.694722</LatitudeDegrees>
              <LongitudeDegrees>-4.441737</LongitudeDegrees>
            </Position>
            <AltitudeMeters>2.60</AltitudeMeters>
            <DistanceMeters>6615.2781724788</DistanceMeters>
          </Trackpoint>
          <Trackpoint>
            <Time>2022-08-26T09:22:48Z</Time>
            <Position>
              <LatitudeDegrees>36.694767</LatitudeDegrees>
              <LongitudeDegrees>-4.441772</LongitudeDegrees>
            </Position>
            <AltitudeMeters>2.80</AltitudeMeters>
            <DistanceMeters>6621.1813127446</DistanceMeters>
          </Trackpoint>
          <Trackpoint>
            <Time>2022-08-26T09:22:49Z</Time>
            <Position>
              <LatitudeDegrees>36.694751</LatitudeDegrees>
              <LongitudeDegrees>-4.441806</LongitudeDegrees>
            </Position>
            <AltitudeMeters>3.00</AltitudeMeters>
            <DistanceMeters>6624.6998685285</DistanceMeters>
          </Trackpoint>
          <Trackpoint>
            <Time>2022-08-26T09:22:53Z</Time>
            <Position>
              <LatitudeDegrees>36.694705</LatitudeDegrees>
              <LongitudeDegrees>-4.441934</LongitudeDegrees>
            </Position>
            <AltitudeMeters>3.20</AltitudeMeters>
            <DistanceMeters>6637.2178123106</DistanceMeters>
          </Trackpoint>
          <Trackpoint>
            <Time>2022-08-26T09:22:58Z</Time>
            <Position>
              <LatitudeDegrees>36.694683</LatitudeDegrees>
              <LongitudeDegrees>-4.442069</LongitudeDegrees>
            </Position>
            <AltitudeMeters>3.40</AltitudeMeters>
            <DistanceMeters>6649.5119336505</DistanceMeters>
          </Trackpoint>
          <Trackpoint>
            <Time>2022-08-26T09:22:59Z</Time>
            <Position>
              <LatitudeDegrees>36.694692</LatitudeDegrees>
              <LongitudeDegrees>-4.442089</LongitudeDegrees>
            </Position>
            <AltitudeMeters>3.40</AltitudeMeters>
            <DistanceMeters>6651.5588717223</DistanceMeters>
          </Trackpoint>
          <Trackpoint>
            <Time>2022-08-26T09:23:02Z</Time>
            <Position>
              <LatitudeDegrees>36.694686</LatitudeDegrees>
              <LongitudeDegrees>-4.442144</LongitudeDegrees>
            </Position>
            <AltitudeMeters>3.60</AltitudeMeters>
            <DistanceMeters>6656.5130364122</DistanceMeters>
          </Trackpoint>
          <Trackpoint>
            <Time>2022-08-26T09:23:04Z</Time>
            <Position>
              <LatitudeDegrees>36.694680</LatitudeDegrees>
              <LongitudeDegrees>-4.442176</LongitudeDegrees>
            </Position>
            <AltitudeMeters>3.60</AltitudeMeters>
            <DistanceMeters>6659.4450379086</DistanceMeters>
          </Trackpoint>
          <Trackpoint>
            <Time>2022-08-26T09:23:05Z</Time>
            <Position>
              <LatitudeDegrees>36.694678</LatitudeDegrees>
              <LongitudeDegrees>-4.442193</LongitudeDegrees>
            </Position>
            <AltitudeMeters>3.60</AltitudeMeters>
            <DistanceMeters>6660.9772976371</DistanceMeters>
          </Trackpoint>
          <Trackpoint>
            <Time>2022-08-26T09:23:08Z</Time>
            <Position>
              <LatitudeDegrees>36.694675</LatitudeDegrees>
              <LongitudeDegrees>-4.442238</LongitudeDegrees>
            </Position>
            <AltitudeMeters>3.60</AltitudeMeters>
            <DistanceMeters>6665.0066992609</DistanceMeters>
          </Trackpoint>
          <Trackpoint>
            <Time>2022-08-26T09:23:15Z</Time>
            <Position>
              <LatitudeDegrees>36.694699</LatitudeDegrees>
              <LongitudeDegrees>-4.442317</LongitudeDegrees>
            </Position>
            <AltitudeMeters>3.80</AltitudeMeters>
            <DistanceMeters>6672.5462172305</DistanceMeters>
          </Trackpoint>
          <Trackpoint>
            <Time>2022-08-26T09:23:16Z</Time>
            <Position>
              <LatitudeDegrees>36.694702</LatitudeDegrees>
              <LongitudeDegrees>-4.442331</LongitudeDegrees>
            </Position>
            <AltitudeMeters>3.80</AltitudeMeters>
            <DistanceMeters>6673.8387202836</DistanceMeters>
          </Trackpoint>
          <Trackpoint>
            <Time>2022-08-26T09:23:54Z</Time>
            <Position>
              <LatitudeDegrees>36.694722</LatitudeDegrees>
              <LongitudeDegrees>-4.442317</LongitudeDegrees>
            </Position>
            <AltitudeMeters>3.80</AltitudeMeters>
            <DistanceMeters>6676.3903247036</DistanceMeters>
          </Trackpoint>
          <Trackpoint>
            <Time>2022-08-26T09:23:57Z</Time>
            <Position>
              <LatitudeDegrees>36.694727</LatitudeDegrees>
              <LongitudeDegrees>-4.442321</LongitudeDegrees>
            </Position>
            <AltitudeMeters>3.80</AltitudeMeters>
            <DistanceMeters>6677.048689093</DistanceMeters>
          </Trackpoint>
          <Trackpoint>
            <Time>2022-08-26T09:24:01Z</Time>
            <Position>
              <LatitudeDegrees>36.694756</LatitudeDegrees>
              <LongitudeDegrees>-4.442396</LongitudeDegrees>
            </Position>
            <AltitudeMeters>4.00</AltitudeMeters>
            <DistanceMeters>6684.4802399091</DistanceMeters>
          </Trackpoint>
          <Trackpoint>
            <Time>2022-08-26T09:24:06Z</Time>
            <Position>
              <LatitudeDegrees>36.694795</LatitudeDegrees>
              <LongitudeDegrees>-4.442472</LongitudeDegrees>
            </Position>
            <AltitudeMeters>4.40</AltitudeMeters>
            <DistanceMeters>6692.5323172105</DistanceMeters>
          </Trackpoint>
          <Trackpoint>
            <Time>2022-08-26T09:24:07Z</Time>
            <Position>
              <LatitudeDegrees>36.694805</LatitudeDegrees>
              <LongitudeDegrees>-4.442487</LongitudeDegrees>
            </Position>
            <AltitudeMeters>4.40</AltitudeMeters>
            <DistanceMeters>6694.274185657</DistanceMeters>
          </Trackpoint>
          <Trackpoint>
            <Time>2022-08-26T09:24:10Z</Time>
            <Position>
              <LatitudeDegrees>36.694814</LatitudeDegrees>
              <LongitudeDegrees>-4.442511</LongitudeDegrees>
            </Position>
            <AltitudeMeters>4.40</AltitudeMeters>
            <DistanceMeters>6696.6403317631</DistanceMeters>
          </Trackpoint>
          <Trackpoint>
            <Time>2022-08-26T09:24:12Z</Time>
            <Position>
              <LatitudeDegrees>36.694804</LatitudeDegrees>
              <LongitudeDegrees>-4.442517</LongitudeDegrees>
            </Position>
            <AltitudeMeters>4.40</AltitudeMeters>
            <DistanceMeters>6697.8793285329</DistanceMeters>
          </Trackpoint>
          <Trackpoint>
            <Time>2022-08-26T09:24:16Z</Time>
            <Position>
              <LatitudeDegrees>36.694816</LatitudeDegrees>
              <LongitudeDegrees>-4.442509</LongitudeDegrees>
            </Position>
            <AltitudeMeters>4.40</AltitudeMeters>
            <DistanceMeters>6699.3938051477</DistanceMeters>
          </Trackpoint>
          <Trackpoint>
            <Time>2022-08-26T09:24:17Z</Time>
            <Position>
              <LatitudeDegrees>36.694832</LatitudeDegrees>
              <LongitudeDegrees>-4.442499</LongitudeDegrees>
            </Position>
            <AltitudeMeters>4.40</AltitudeMeters>
            <DistanceMeters>6701.3871023245</DistanceMeters>
          </Trackpoint>
          <Trackpoint>
            <Time>2022-08-26T09:24:21Z</Time>
            <Position>
              <LatitudeDegrees>36.694866</LatitudeDegrees>
              <LongitudeDegrees>-4.442493</LongitudeDegrees>
            </Position>
            <AltitudeMeters>4.60</AltitudeMeters>
            <DistanceMeters>6705.2094921119</DistanceMeters>
          </Trackpoint>
          <Trackpoint>
            <Time>2022-08-26T09:24:29Z</Time>
            <Position>
              <LatitudeDegrees>36.694908</LatitudeDegrees>
              <LongitudeDegrees>-4.442524</LongitudeDegrees>
            </Position>
            <AltitudeMeters>5.00</AltitudeMeters>
            <DistanceMeters>6710.6409983249</DistanceMeters>
          </Trackpoint>
          <Trackpoint>
            <Time>2022-08-26T09:24:35Z</Time>
            <Position>
              <LatitudeDegrees>36.694870</LatitudeDegrees>
              <LongitudeDegrees>-4.442558</LongitudeDegrees>
            </Position>
            <AltitudeMeters>4.80</AltitudeMeters>
            <DistanceMeters>6715.8458258275</DistanceMeters>
          </Trackpoint>
          <Trackpoint>
            <Time>2022-08-26T09:24:39Z</Time>
            <Position>
              <LatitudeDegrees>36.694853</LatitudeDegrees>
              <LongitudeDegrees>-4.442546</LongitudeDegrees>
            </Position>
            <AltitudeMeters>4.60</AltitudeMeters>
            <DistanceMeters>6718.0210867444</DistanceMeters>
          </Trackpoint>
          <Trackpoint>
            <Time>2022-08-26T09:24:44Z</Time>
            <Position>
              <LatitudeDegrees>36.694841</LatitudeDegrees>
              <LongitudeDegrees>-4.442515</LongitudeDegrees>
            </Position>
            <AltitudeMeters>4.60</AltitudeMeters>
            <DistanceMeters>6721.0914938522</DistanceMeters>
          </Trackpoint>
          <Trackpoint>
            <Time>2022-08-26T09:24:47Z</Time>
            <Position>
              <LatitudeDegrees>36.694864</LatitudeDegrees>
              <LongitudeDegrees>-4.442514</LongitudeDegrees>
            </Position>
            <AltitudeMeters>4.60</AltitudeMeters>
            <DistanceMeters>6723.6519304357</DistanceMeters>
          </Trackpoint>
          <Trackpoint>
            <Time>2022-08-26T09:24:53Z</Time>
            <Position>
              <LatitudeDegrees>36.694885</LatitudeDegrees>
              <LongitudeDegrees>-4.442468</LongitudeDegrees>
            </Position>
            <AltitudeMeters>4.80</AltitudeMeters>
            <DistanceMeters>6728.3765837531</DistanceMeters>
          </Trackpoint>
          <Trackpoint>
            <Time>2022-08-26T09:25:00Z</Time>
            <Position>
              <LatitudeDegrees>36.694887</LatitudeDegrees>
              <LongitudeDegrees>-4.442432</LongitudeDegrees>
            </Position>
            <AltitudeMeters>4.60</AltitudeMeters>
            <DistanceMeters>6731.5962930191</DistanceMeters>
          </Trackpoint>
          <Trackpoint>
            <Time>2022-08-26T09:25:06Z</Time>
            <Position>
              <LatitudeDegrees>36.694872</LatitudeDegrees>
              <LongitudeDegrees>-4.442424</LongitudeDegrees>
            </Position>
            <AltitudeMeters>4.60</AltitudeMeters>
            <DistanceMeters>6733.4142611098</DistanceMeters>
          </Trackpoint>
          <Trackpoint>
            <Time>2022-08-26T09:25:11Z</Time>
            <Position>
              <LatitudeDegrees>36.694941</LatitudeDegrees>
              <LongitudeDegrees>-4.442368</LongitudeDegrees>
            </Position>
            <AltitudeMeters>5.00</AltitudeMeters>
            <DistanceMeters>6742.5768273823</DistanceMeters>
          </Trackpoint>
          <Trackpoint>
            <Time>2022-08-26T09:25:16Z</Time>
            <Position>
              <LatitudeDegrees>36.694948</LatitudeDegrees>
              <LongitudeDegrees>-4.442345</LongitudeDegrees>
            </Position>
            <AltitudeMeters>5.00</AltitudeMeters>
            <DistanceMeters>6744.7727465113</DistanceMeters>
          </Trackpoint>
          <Trackpoint>
            <Time>2022-08-26T09:25:19Z</Time>
            <Position>
              <LatitudeDegrees>36.694956</LatitudeDegrees>
              <LongitudeDegrees>-4.442336</LongitudeDegrees>
            </Position>
            <AltitudeMeters>5.00</AltitudeMeters>
            <DistanceMeters>6745.9672137893</DistanceMeters>
          </Trackpoint>
          <Trackpoint>
            <Time>2022-08-26T09:25:23Z</Time>
            <Position>
              <LatitudeDegrees>36.694956</LatitudeDegrees>
              <LongitudeDegrees>-4.442328</LongitudeDegrees>
            </Position>
            <AltitudeMeters>5.00</AltitudeMeters>
            <DistanceMeters>6746.6783286048</DistanceMeters>
          </Trackpoint>
          <Trackpoint>
            <Time>2022-08-26T09:25:28Z</Time>
            <Position>
              <LatitudeDegrees>36.694956</LatitudeDegrees>
              <LongitudeDegrees>-4.442321</LongitudeDegrees>
            </Position>
            <AltitudeMeters>5.00</AltitudeMeters>
            <DistanceMeters>6747.2941721001</DistanceMeters>
          </Trackpoint>
          <Trackpoint>
            <Time>2022-08-26T09:25:38Z</Time>
            <Position>
              <LatitudeDegrees>36.694956</LatitudeDegrees>
              <LongitudeDegrees>-4.442321</LongitudeDegrees>
            </Position>
            <AltitudeMeters>5.00</AltitudeMeters>
            <DistanceMeters>6747.2941721001</DistanceMeters>
          </Trackpoint>
          <Trackpoint>
            <Time>2022-08-26T09:25:53Z</Time>
            <Position>
              <LatitudeDegrees>36.694956</LatitudeDegrees>
              <LongitudeDegrees>-4.442336</LongitudeDegrees>
            </Position>
            <AltitudeMeters>5.00</AltitudeMeters>
            <DistanceMeters>6748.6313164961</DistanceMeters>
          </Trackpoint>
          <Trackpoint>
            <Time>2022-08-26T09:25:57Z</Time>
            <Position>
              <LatitudeDegrees>36.694956</LatitudeDegrees>
              <LongitudeDegrees>-4.442339</LongitudeDegrees>
            </Position>
            <AltitudeMeters>5.00</AltitudeMeters>
            <DistanceMeters>6748.9000926326</DistanceMeters>
          </Trackpoint>
          <Trackpoint>
            <Time>2022-08-26T09:26:17Z</Time>
            <Position>
              <LatitudeDegrees>36.694968</LatitudeDegrees>
              <LongitudeDegrees>-4.442327</LongitudeDegrees>
            </Position>
            <AltitudeMeters>5.20</AltitudeMeters>
            <DistanceMeters>6750.6105734913</DistanceMeters>
          </Trackpoint>
          <Trackpoint>
            <Time>2022-08-26T09:26:46Z</Time>
            <Position>
              <LatitudeDegrees>36.694955</LatitudeDegrees>
              <LongitudeDegrees>-4.442307</LongitudeDegrees>
            </Position>
            <AltitudeMeters>5.00</AltitudeMeters>
            <DistanceMeters>6752.908963084</DistanceMeters>
          </Trackpoint>
          <Trackpoint>
            <Time>2022-08-26T09:26:51Z</Time>
            <Position>
              <LatitudeDegrees>36.694965</LatitudeDegrees>
              <LongitudeDegrees>-4.442273</LongitudeDegrees>
            </Position>
            <AltitudeMeters>5.00</AltitudeMeters>
            <DistanceMeters>6756.1412685221</DistanceMeters>
          </Trackpoint>
          <Trackpoint>
            <Time>2022-08-26T09:26:56Z</Time>
            <Position>
              <LatitudeDegrees>36.694977</LatitudeDegrees>
              <LongitudeDegrees>-4.442299</LongitudeDegrees>
            </Position>
            <AltitudeMeters>5.20</AltitudeMeters>
            <DistanceMeters>6758.8172450953</DistanceMeters>
          </Trackpoint>
          <Trackpoint>
            <Time>2022-08-26T09:27:01Z</Time>
            <Position>
              <LatitudeDegrees>36.695005</LatitudeDegrees>
              <LongitudeDegrees>-4.442307</LongitudeDegrees>
            </Position>
            <AltitudeMeters>5.40</AltitudeMeters>
            <DistanceMeters>6762.0144386357</DistanceMeters>
          </Trackpoint>
          <Trackpoint>
            <Time>2022-08-26T09:27:06Z</Time>
            <Position>
              <LatitudeDegrees>36.694963</LatitudeDegrees>
              <LongitudeDegrees>-4.442343</LongitudeDegrees>
            </Position>
            <AltitudeMeters>5.20</AltitudeMeters>
            <DistanceMeters>6767.6866659204</DistanceMeters>
          </Trackpoint>
          <Trackpoint>
            <Time>2022-08-26T09:27:12Z</Time>
            <Position>
              <LatitudeDegrees>36.694876</LatitudeDegrees>
              <LongitudeDegrees>-4.442303</LongitudeDegrees>
            </Position>
            <AltitudeMeters>4.40</AltitudeMeters>
            <DistanceMeters>6778.0070220992</DistanceMeters>
          </Trackpoint>
          <Trackpoint>
            <Time>2022-08-26T09:27:15Z</Time>
            <Position>
              <LatitudeDegrees>36.694850</LatitudeDegrees>
              <LongitudeDegrees>-4.442273</LongitudeDegrees>
            </Position>
            <AltitudeMeters>4.20</AltitudeMeters>
            <DistanceMeters>6781.9503445101</DistanceMeters>
          </Trackpoint>
          <Trackpoint>
            <Time>2022-08-26T09:27:19Z</Time>
            <Position>
              <LatitudeDegrees>36.694805</LatitudeDegrees>
              <LongitudeDegrees>-4.442251</LongitudeDegrees>
            </Position>
            <AltitudeMeters>4.00</AltitudeMeters>
            <DistanceMeters>6787.330065228</DistanceMeters>
          </Trackpoint>
          <Trackpoint>
            <Time>2022-08-26T09:27:23Z</Time>
            <Position>
              <LatitudeDegrees>36.694739</LatitudeDegrees>
              <LongitudeDegrees>-4.442232</LongitudeDegrees>
            </Position>
            <AltitudeMeters>3.80</AltitudeMeters>
            <DistanceMeters>6794.8689843242</DistanceMeters>
          </Trackpoint>
          <Trackpoint>
            <Time>2022-08-26T09:27:25Z</Time>
            <Position>
              <LatitudeDegrees>36.694704</LatitudeDegrees>
              <LongitudeDegrees>-4.442213</LongitudeDegrees>
            </Position>
            <AltitudeMeters>3.60</AltitudeMeters>
            <DistanceMeters>6799.1165827909</DistanceMeters>
          </Trackpoint>
          <Trackpoint>
            <Time>2022-08-26T09:27:27Z</Time>
            <Position>
              <LatitudeDegrees>36.694681</LatitudeDegrees>
              <LongitudeDegrees>-4.442184</LongitudeDegrees>
            </Position>
            <AltitudeMeters>3.60</AltitudeMeters>
            <DistanceMeters>6802.7574827099</DistanceMeters>
          </Trackpoint>
          <Trackpoint>
            <Time>2022-08-26T09:27:30Z</Time>
            <Position>
              <LatitudeDegrees>36.694635</LatitudeDegrees>
              <LongitudeDegrees>-4.442148</LongitudeDegrees>
            </Position>
            <AltitudeMeters>3.40</AltitudeMeters>
            <DistanceMeters>6808.8019586419</DistanceMeters>
          </Trackpoint>
          <Trackpoint>
            <Time>2022-08-26T09:27:36Z</Time>
            <Position>
              <LatitudeDegrees>36.694586</LatitudeDegrees>
              <LongitudeDegrees>-4.442067</LongitudeDegrees>
            </Position>
            <AltitudeMeters>3.00</AltitudeMeters>
            <DistanceMeters>6817.8574610679</DistanceMeters>
          </Trackpoint>
          <Trackpoint>
            <Time>2022-08-26T09:27:39Z</Time>
            <Position>
              <LatitudeDegrees>36.694560</LatitudeDegrees>
              <LongitudeDegrees>-4.442029</LongitudeDegrees>
            </Position>
            <AltitudeMeters>3.00</AltitudeMeters>
            <DistanceMeters>6822.3166345708</DistanceMeters>
          </Trackpoint>
          <Trackpoint>
            <Time>2022-08-26T09:27:41Z</Time>
            <Position>
              <LatitudeDegrees>36.694541</LatitudeDegrees>
              <LongitudeDegrees>-4.442000</LongitudeDegrees>
            </Position>
            <AltitudeMeters>2.80</AltitudeMeters>
            <DistanceMeters>6825.6574689703</DistanceMeters>
          </Trackpoint>
          <Trackpoint>
            <Time>2022-08-26T09:27:43Z</Time>
            <Position>
              <LatitudeDegrees>36.694511</LatitudeDegrees>
              <LongitudeDegrees>-4.441986</LongitudeDegrees>
            </Position>
            <AltitudeMeters>2.80</AltitudeMeters>
            <DistanceMeters>6829.2231873598</DistanceMeters>
          </Trackpoint>
          <Trackpoint>
            <Time>2022-08-26T09:27:44Z</Time>
            <Position>
              <LatitudeDegrees>36.694503</LatitudeDegrees>
              <LongitudeDegrees>-4.441972</LongitudeDegrees>
            </Position>
            <AltitudeMeters>2.60</AltitudeMeters>
            <DistanceMeters>6830.7583909137</DistanceMeters>
          </Trackpoint>
          <Trackpoint>
            <Time>2022-08-26T09:27:48Z</Time>
            <Position>
              <LatitudeDegrees>36.694549</LatitudeDegrees>
              <LongitudeDegrees>-4.441844</LongitudeDegrees>
            </Position>
            <AltitudeMeters>2.40</AltitudeMeters>
            <DistanceMeters>6843.2766953759</DistanceMeters>
          </Trackpoint>
          <Trackpoint>
            <Time>2022-08-26T09:27:50Z</Time>
            <Position>
              <LatitudeDegrees>36.694559</LatitudeDegrees>
              <LongitudeDegrees>-4.441799</LongitudeDegrees>
            </Position>
            <AltitudeMeters>2.20</AltitudeMeters>
            <DistanceMeters>6847.4448924775</DistanceMeters>
          </Trackpoint>
          <Trackpoint>
            <Time>2022-08-26T09:27:56Z</Time>
            <Position>
              <LatitudeDegrees>36.694549</LatitudeDegrees>
              <LongitudeDegrees>-4.441743</LongitudeDegrees>
            </Position>
            <AltitudeMeters>2.00</AltitudeMeters>
            <DistanceMeters>6852.5657656446</DistanceMeters>
          </Trackpoint>
          <Trackpoint>
            <Time>2022-08-26T09:28:02Z</Time>
            <Position>
              <LatitudeDegrees>36.694517</LatitudeDegrees>
              <LongitudeDegrees>-4.441659</LongitudeDegrees>
            </Position>
            <AltitudeMeters>1.60</AltitudeMeters>
            <DistanceMeters>6860.8663369061</DistanceMeters>
          </Trackpoint>
          <Trackpoint>
            <Time>2022-08-26T09:28:06Z</Time>
            <Position>
              <LatitudeDegrees>36.694480</LatitudeDegrees>
              <LongitudeDegrees>-4.441630</LongitudeDegrees>
            </Position>
            <AltitudeMeters>1.40</AltitudeMeters>
            <DistanceMeters>6865.7303681851</DistanceMeters>
          </Trackpoint>
          <Trackpoint>
            <Time>2022-08-26T09:28:07Z</Time>
            <Position>
              <LatitudeDegrees>36.694469</LatitudeDegrees>
              <LongitudeDegrees>-4.441625</LongitudeDegrees>
            </Position>
            <AltitudeMeters>1.20</AltitudeMeters>
            <DistanceMeters>6867.0333088482</DistanceMeters>
          </Trackpoint>
          <Trackpoint>
            <Time>2022-08-26T09:28:08Z</Time>
            <Position>
              <LatitudeDegrees>36.694460</LatitudeDegrees>
              <LongitudeDegrees>-4.441616</LongitudeDegrees>
            </Position>
            <AltitudeMeters>1.20</AltitudeMeters>
            <DistanceMeters>6868.3152893133</DistanceMeters>
          </Trackpoint>
          <Trackpoint>
            <Time>2022-08-26T09:28:18Z</Time>
            <Position>
              <LatitudeDegrees>36.694346</LatitudeDegrees>
              <LongitudeDegrees>-4.441512</LongitudeDegrees>
            </Position>
            <AltitudeMeters>1.40</AltitudeMeters>
            <DistanceMeters>6884.0361087001</DistanceMeters>
          </Trackpoint>
          <Trackpoint>
            <Time>2022-08-26T09:28:21Z</Time>
            <Position>
              <LatitudeDegrees>36.694319</LatitudeDegrees>
              <LongitudeDegrees>-4.441477</LongitudeDegrees>
            </Position>
            <AltitudeMeters>1.60</AltitudeMeters>
            <DistanceMeters>6888.3720767762</DistanceMeters>
          </Trackpoint>
          <Trackpoint>
            <Time>2022-08-26T09:28:24Z</Time>
            <Position>
              <LatitudeDegrees>36.694295</LatitudeDegrees>
              <LongitudeDegrees>-4.441436</LongitudeDegrees>
            </Position>
            <AltitudeMeters>1.60</AltitudeMeters>
            <DistanceMeters>6892.9015727394</DistanceMeters>
          </Trackpoint>
          <Trackpoint>
            <Time>2022-08-26T09:28:28Z</Time>
            <Position>
              <LatitudeDegrees>36.694254</LatitudeDegrees>
              <LongitudeDegrees>-4.441396</LongitudeDegrees>
            </Position>
            <AltitudeMeters>1.80</AltitudeMeters>
            <DistanceMeters>6898.6943064693</DistanceMeters>
          </Trackpoint>
          <Trackpoint>
            <Time>2022-08-26T09:28:30Z</Time>
            <Position>
              <LatitudeDegrees>36.694237</LatitudeDegrees>
              <LongitudeDegrees>-4.441369</LongitudeDegrees>
            </Position>
            <AltitudeMeters>2.00</AltitudeMeters>
            <DistanceMeters>6901.7588259262</DistanceMeters>
          </Trackpoint>
          <Trackpoint>
            <Time>2022-08-26T09:28:37Z</Time>
            <Position>
              <LatitudeDegrees>36.694161</LatitudeDegrees>
              <LongitudeDegrees>-4.441256</LongitudeDegrees>
            </Position>
            <AltitudeMeters>2.40</AltitudeMeters>
            <DistanceMeters>6914.9213122663</DistanceMeters>
          </Trackpoint>
          <Trackpoint>
            <Time>2022-08-26T09:28:40Z</Time>
            <Position>
              <LatitudeDegrees>36.694140</LatitudeDegrees>
              <LongitudeDegrees>-4.441213</LongitudeDegrees>
            </Position>
            <AltitudeMeters>2.60</AltitudeMeters>
            <DistanceMeters>6919.4147798503</DistanceMeters>
          </Trackpoint>
          <Trackpoint>
            <Time>2022-08-26T09:28:41Z</Time>
            <Position>
              <LatitudeDegrees>36.694132</LatitudeDegrees>
              <LongitudeDegrees>-4.441202</LongitudeDegrees>
            </Position>
            <AltitudeMeters>2.60</AltitudeMeters>
            <DistanceMeters>6920.7383488248</DistanceMeters>
          </Trackpoint>
          <Trackpoint>
            <Time>2022-08-26T09:28:43Z</Time>
            <Position>
              <LatitudeDegrees>36.694114</LatitudeDegrees>
              <LongitudeDegrees>-4.441177</LongitudeDegrees>
            </Position>
            <AltitudeMeters>2.80</AltitudeMeters>
            <DistanceMeters>6923.7358354489</DistanceMeters>
          </Trackpoint>
          <Trackpoint>
            <Time>2022-08-26T09:28:45Z</Time>
            <Position>
              <LatitudeDegrees>36.694102</LatitudeDegrees>
              <LongitudeDegrees>-4.441161</LongitudeDegrees>
            </Position>
            <AltitudeMeters>2.80</AltitudeMeters>
            <DistanceMeters>6925.6902464435</DistanceMeters>
          </Trackpoint>
          <Trackpoint>
            <Time>2022-08-26T09:28:49Z</Time>
            <Position>
              <LatitudeDegrees>36.694062</LatitudeDegrees>
              <LongitudeDegrees>-4.441134</LongitudeDegrees>
            </Position>
            <AltitudeMeters>3.00</AltitudeMeters>
            <DistanceMeters>6930.7525934237</DistanceMeters>
          </Trackpoint>
          <Trackpoint>
            <Time>2022-08-26T09:28:56Z</Time>
            <Position>
              <LatitudeDegrees>36.694097</LatitudeDegrees>
              <LongitudeDegrees>-4.440928</LongitudeDegrees>
            </Position>
            <AltitudeMeters>3.40</AltitudeMeters>
            <DistanceMeters>6949.5455527383</DistanceMeters>
          </Trackpoint>
          <Trackpoint>
            <Time>2022-08-26T09:28:57Z</Time>
            <Position>
              <LatitudeDegrees>36.694111</LatitudeDegrees>
              <LongitudeDegrees>-4.440901</LongitudeDegrees>
            </Position>
            <AltitudeMeters>3.40</AltitudeMeters>
            <DistanceMeters>6952.4168694734</DistanceMeters>
          </Trackpoint>
          <Trackpoint>
            <Time>2022-08-26T09:29:00Z</Time>
            <Position>
              <LatitudeDegrees>36.694136</LatitudeDegrees>
              <LongitudeDegrees>-4.440862</LongitudeDegrees>
            </Position>
            <AltitudeMeters>3.40</AltitudeMeters>
            <DistanceMeters>6956.8740174602</DistanceMeters>
          </Trackpoint>
          <Trackpoint>
            <Time>2022-08-26T09:29:05Z</Time>
            <Position>
              <LatitudeDegrees>36.694175</LatitudeDegrees>
              <LongitudeDegrees>-4.440813</LongitudeDegrees>
            </Position>
            <AltitudeMeters>3.40</AltitudeMeters>
            <DistanceMeters>6963.0353843029</DistanceMeters>
          </Trackpoint>
          <Trackpoint>
            <Time>2022-08-26T09:29:11Z</Time>
            <Position>
              <LatitudeDegrees>36.694212</LatitudeDegrees>
              <LongitudeDegrees>-4.440797</LongitudeDegrees>
            </Position>
            <AltitudeMeters>3.20</AltitudeMeters>
            <DistanceMeters>6967.3942007522</DistanceMeters>
          </Trackpoint>
          <Trackpoint>
            <Time>2022-08-26T09:29:12Z</Time>
            <Position>
              <LatitudeDegrees>36.694225</LatitudeDegrees>
              <LongitudeDegrees>-4.440769</LongitudeDegrees>
            </Position>
            <AltitudeMeters>3.20</AltitudeMeters>
            <DistanceMeters>6970.2827627879</DistanceMeters>
          </Trackpoint>
          <Trackpoint>
            <Time>2022-08-26T09:29:14Z</Time>
            <Position>
              <LatitudeDegrees>36.694252</LatitudeDegrees>
              <LongitudeDegrees>-4.440705</LongitudeDegrees>
            </Position>
            <AltitudeMeters>3.20</AltitudeMeters>
            <DistanceMeters>6976.7368888043</DistanceMeters>
          </Trackpoint>
          <Trackpoint>
            <Time>2022-08-26T09:29:18Z</Time>
            <Position>
              <LatitudeDegrees>36.694229</LatitudeDegrees>
              <LongitudeDegrees>-4.440647</LongitudeDegrees>
            </Position>
            <AltitudeMeters>3.60</AltitudeMeters>
            <DistanceMeters>6982.5108858801</DistanceMeters>
          </Trackpoint>
          <Trackpoint>
            <Time>2022-08-26T09:29:25Z</Time>
            <Position>
              <LatitudeDegrees>36.694241</LatitudeDegrees>
              <LongitudeDegrees>-4.440562</LongitudeDegrees>
            </Position>
            <AltitudeMeters>3.60</AltitudeMeters>
            <DistanceMeters>6990.2133271968</DistanceMeters>
          </Trackpoint>
          <Trackpoint>
            <Time>2022-08-26T09:29:29Z</Time>
            <Position>
              <LatitudeDegrees>36.694248</LatitudeDegrees>
              <LongitudeDegrees>-4.440520</LongitudeDegrees>
            </Position>
            <AltitudeMeters>3.80</AltitudeMeters>
            <DistanceMeters>6994.0416184694</DistanceMeters>
          </Trackpoint>
          <Trackpoint>
            <Time>2022-08-26T09:29:32Z</Time>
            <Position>
              <LatitudeDegrees>36.694279</LatitudeDegrees>
              <LongitudeDegrees>-4.440436</LongitudeDegrees>
            </Position>
            <AltitudeMeters>3.80</AltitudeMeters>
            <DistanceMeters>7002.2941839215</DistanceMeters>
          </Trackpoint>
          <Trackpoint>
            <Time>2022-08-26T09:29:35Z</Time>
            <Position>
              <LatitudeDegrees>36.694285</LatitudeDegrees>
              <LongitudeDegrees>-4.440383</LongitudeDegrees>
            </Position>
            <AltitudeMeters>4.00</AltitudeMeters>
            <DistanceMeters>7007.07110795</DistanceMeters>
          </Trackpoint>
          <Trackpoint>
            <Time>2022-08-26T09:29:40Z</Time>
            <Position>
              <LatitudeDegrees>36.694243</LatitudeDegrees>
              <LongitudeDegrees>-4.440415</LongitudeDegrees>
            </Position>
            <AltitudeMeters>4.00</AltitudeMeters>
            <DistanceMeters>7012.548143092</DistanceMeters>
          </Trackpoint>
        </Track>
      </Lap>
    </Activity>
  </Activities>
</TrainingCenterDatabase>
